<?xml version="1.0" encoding="UTF-8" standalone="no" ?>
<gpx xmlns="http://www.topografix.com/GPX/1/1" xmlns:xsi="http://www.w3.org/2001/XMLSchema-instance" xsi:schemaLocation="http://www.topografix.com/GPX/1/1 http://www.topografix.com/GPX/1/1/gpx.xsd" version="1.1" creator="VisuGPX - https://www.visugpx.com">
  <metadata>
    <name>La Regordane - Cheylard l\'Evèque &gt; La Bastide Puylaurent</name>
    <desc><![CDATA[2ème étape]]></desc>
  </metadata>
  <trk>
    <name><![CDATA[La Regordane - Cheylard l\'Evèque > La Bastide Puylaurent_1]]></name>
    <trkseg>
      <trkpt lat="44.64785" lon="3.8035">
        <ele>1031.161376</ele>
        <time>2013-05-09T06:25:34Z</time>
      </trkpt>
      <trkpt lat="44.64784" lon="3.80349">
        <ele>1032.561401</ele>
        <time>2013-05-09T06:25:35Z</time>
      </trkpt>
      <trkpt lat="44.64787" lon="3.80366">
        <ele>1022.5</ele>
        <time>2013-05-09T06:25:38Z</time>
      </trkpt>
      <trkpt lat="44.6479" lon="3.80377">
        <ele>1012.5</ele>
        <time>2013-05-09T06:25:40Z</time>
      </trkpt>
      <trkpt lat="44.64793" lon="3.80388">
        <ele>1005.6</ele>
        <time>2013-05-09T06:25:48Z</time>
      </trkpt>
      <trkpt lat="44.648" lon="3.80393">
        <ele>1001.5</ele>
        <time>2013-05-09T06:25:53Z</time>
      </trkpt>
      <trkpt lat="44.64805" lon="3.80397">
        <ele>1000.8</ele>
        <time>2013-05-09T06:26:26Z</time>
      </trkpt>
      <trkpt lat="44.64798" lon="3.80391">
        <ele>1000.7</ele>
        <time>2013-05-09T06:26:42Z</time>
      </trkpt>
      <trkpt lat="44.64797" lon="3.8039">
        <ele>1000.7</ele>
        <time>2013-05-09T06:26:43Z</time>
      </trkpt>
      <trkpt lat="44.64791" lon="3.8037">
        <ele>1000.7</ele>
        <time>2013-05-09T06:27:57Z</time>
      </trkpt>
      <trkpt lat="44.64791" lon="3.8037">
        <ele>1000.7</ele>
        <time>2013-05-09T06:27:57Z</time>
      </trkpt>
      <trkpt lat="44.64792" lon="3.80358">
        <ele>1000.7</ele>
        <time>2013-05-09T06:28:00Z</time>
      </trkpt>
      <trkpt lat="44.64793" lon="3.80344">
        <ele>1000.9</ele>
        <time>2013-05-09T06:28:01Z</time>
      </trkpt>
      <trkpt lat="44.64796" lon="3.80326">
        <ele>1001</ele>
        <time>2013-05-09T06:28:02Z</time>
      </trkpt>
      <trkpt lat="44.64797" lon="3.80313">
        <ele>1001.1</ele>
        <time>2013-05-09T06:28:03Z</time>
      </trkpt>
      <trkpt lat="44.64799" lon="3.80301">
        <ele>1001.2</ele>
        <time>2013-05-09T06:28:04Z</time>
      </trkpt>
      <trkpt lat="44.648" lon="3.80289">
        <ele>1001.3</ele>
        <time>2013-05-09T06:28:06Z</time>
      </trkpt>
      <trkpt lat="44.64804" lon="3.80279">
        <ele>1001.4</ele>
        <time>2013-05-09T06:28:13Z</time>
      </trkpt>
      <trkpt lat="44.64804" lon="3.80288">
        <ele>1001.5</ele>
        <time>2013-05-09T06:29:26Z</time>
      </trkpt>
      <trkpt lat="44.64802" lon="3.80301">
        <ele>1001.9</ele>
        <time>2013-05-09T06:29:27Z</time>
      </trkpt>
      <trkpt lat="44.64802" lon="3.80301">
        <ele>1001.9</ele>
        <time>2013-05-09T06:29:27Z</time>
      </trkpt>
      <trkpt lat="44.64798" lon="3.80301">
        <ele>1002.4</ele>
        <time>2013-05-09T06:30:03Z</time>
      </trkpt>
      <trkpt lat="44.64791" lon="3.80294">
        <ele>1003.4</ele>
        <time>2013-05-09T06:30:41Z</time>
      </trkpt>
      <trkpt lat="44.6479" lon="3.80285">
        <ele>1004</ele>
        <time>2013-05-09T06:30:42Z</time>
      </trkpt>
      <trkpt lat="44.64778" lon="3.8031">
        <ele>1012.9</ele>
        <time>2013-05-09T06:31:52Z</time>
      </trkpt>
      <trkpt lat="44.64778" lon="3.80314">
        <ele>1013.8</ele>
        <time>2013-05-09T06:31:53Z</time>
      </trkpt>
      <trkpt lat="44.64764" lon="3.80318">
        <ele>1018.2</ele>
        <time>2013-05-09T06:32:28Z</time>
      </trkpt>
      <trkpt lat="44.64756" lon="3.80316">
        <ele>1020.6</ele>
        <time>2013-05-09T06:32:38Z</time>
      </trkpt>
      <trkpt lat="44.64747" lon="3.80318">
        <ele>1021.2</ele>
        <time>2013-05-09T06:32:45Z</time>
      </trkpt>
      <trkpt lat="44.64739" lon="3.80314">
        <ele>1022.2</ele>
        <time>2013-05-09T06:32:53Z</time>
      </trkpt>
      <trkpt lat="44.64737" lon="3.80313">
        <ele>1022.3</ele>
        <time>2013-05-09T06:32:54Z</time>
      </trkpt>
      <trkpt lat="44.64723" lon="3.80316">
        <ele>1023.7</ele>
        <time>2013-05-09T06:33:05Z</time>
      </trkpt>
      <trkpt lat="44.64715" lon="3.80314">
        <ele>1025.4</ele>
        <time>2013-05-09T06:33:13Z</time>
      </trkpt>
      <trkpt lat="44.64708" lon="3.8032">
        <ele>1027.3</ele>
        <time>2013-05-09T06:33:17Z</time>
      </trkpt>
      <trkpt lat="44.647" lon="3.80323">
        <ele>1028.4</ele>
        <time>2013-05-09T06:33:23Z</time>
      </trkpt>
      <trkpt lat="44.64692" lon="3.80324">
        <ele>1028.9</ele>
        <time>2013-05-09T06:33:28Z</time>
      </trkpt>
      <trkpt lat="44.64684" lon="3.80322">
        <ele>1029.2</ele>
        <time>2013-05-09T06:33:33Z</time>
      </trkpt>
      <trkpt lat="44.64675" lon="3.80324">
        <ele>1031.6</ele>
        <time>2013-05-09T06:33:49Z</time>
      </trkpt>
      <trkpt lat="44.64667" lon="3.80322">
        <ele>1033</ele>
        <time>2013-05-09T06:33:57Z</time>
      </trkpt>
      <trkpt lat="44.64666" lon="3.80322">
        <ele>1033.2</ele>
        <time>2013-05-09T06:33:58Z</time>
      </trkpt>
      <trkpt lat="44.64651" lon="3.80318">
        <ele>1034</ele>
        <time>2013-05-09T06:34:09Z</time>
      </trkpt>
      <trkpt lat="44.64642" lon="3.80321">
        <ele>1034.7</ele>
        <time>2013-05-09T06:34:19Z</time>
      </trkpt>
      <trkpt lat="44.64634" lon="3.80324">
        <ele>1036.1</ele>
        <time>2013-05-09T06:34:30Z</time>
      </trkpt>
      <trkpt lat="44.64625" lon="3.80325">
        <ele>1037.5</ele>
        <time>2013-05-09T06:34:36Z</time>
      </trkpt>
      <trkpt lat="44.64619" lon="3.80332">
        <ele>1038.9</ele>
        <time>2013-05-09T06:34:44Z</time>
      </trkpt>
      <trkpt lat="44.64614" lon="3.80342">
        <ele>1041.2</ele>
        <time>2013-05-09T06:34:52Z</time>
      </trkpt>
      <trkpt lat="44.64607" lon="3.80349">
        <ele>1042.8</ele>
        <time>2013-05-09T06:35:01Z</time>
      </trkpt>
      <trkpt lat="44.64607" lon="3.80349">
        <ele>1042.9</ele>
        <time>2013-05-09T06:35:02Z</time>
      </trkpt>
      <trkpt lat="44.64598" lon="3.80367">
        <ele>1044.5</ele>
        <time>2013-05-09T06:35:16Z</time>
      </trkpt>
      <trkpt lat="44.64594" lon="3.80377">
        <ele>1046.3</ele>
        <time>2013-05-09T06:35:23Z</time>
      </trkpt>
      <trkpt lat="44.64586" lon="3.80383">
        <ele>1047.5</ele>
        <time>2013-05-09T06:35:28Z</time>
      </trkpt>
      <trkpt lat="44.64586" lon="3.80394">
        <ele>1049.5</ele>
        <time>2013-05-09T06:35:35Z</time>
      </trkpt>
      <trkpt lat="44.64586" lon="3.80406">
        <ele>1050.9</ele>
        <time>2013-05-09T06:35:41Z</time>
      </trkpt>
      <trkpt lat="44.64588" lon="3.80417">
        <ele>1052.3</ele>
        <time>2013-05-09T06:35:48Z</time>
      </trkpt>
      <trkpt lat="44.6459" lon="3.80429">
        <ele>1054.2</ele>
        <time>2013-05-09T06:35:59Z</time>
      </trkpt>
      <trkpt lat="44.64585" lon="3.80439">
        <ele>1056.6</ele>
        <time>2013-05-09T06:36:08Z</time>
      </trkpt>
      <trkpt lat="44.64584" lon="3.8044">
        <ele>1056.7</ele>
        <time>2013-05-09T06:36:09Z</time>
      </trkpt>
      <trkpt lat="44.64575" lon="3.80458">
        <ele>1057.9</ele>
        <time>2013-05-09T06:36:28Z</time>
      </trkpt>
      <trkpt lat="44.64569" lon="3.80464">
        <ele>1058</ele>
        <time>2013-05-09T06:36:33Z</time>
      </trkpt>
      <trkpt lat="44.64563" lon="3.80473">
        <ele>1058.9</ele>
        <time>2013-05-09T06:36:42Z</time>
      </trkpt>
      <trkpt lat="44.64557" lon="3.80481">
        <ele>1059.5</ele>
        <time>2013-05-09T06:36:50Z</time>
      </trkpt>
      <trkpt lat="44.64551" lon="3.80488">
        <ele>1059.9</ele>
        <time>2013-05-09T06:36:57Z</time>
      </trkpt>
      <trkpt lat="44.64546" lon="3.80496">
        <ele>1060.6</ele>
        <time>2013-05-09T06:37:03Z</time>
      </trkpt>
      <trkpt lat="44.6454" lon="3.80506">
        <ele>1061</ele>
        <time>2013-05-09T06:37:10Z</time>
      </trkpt>
      <trkpt lat="44.6454" lon="3.80507">
        <ele>1061.2</ele>
        <time>2013-05-09T06:37:11Z</time>
      </trkpt>
      <trkpt lat="44.64529" lon="3.80522">
        <ele>1062.2</ele>
        <time>2013-05-09T06:37:27Z</time>
      </trkpt>
      <trkpt lat="44.64523" lon="3.8053">
        <ele>1063.5</ele>
        <time>2013-05-09T06:37:35Z</time>
      </trkpt>
      <trkpt lat="44.64517" lon="3.80538">
        <ele>1064</ele>
        <time>2013-05-09T06:37:44Z</time>
      </trkpt>
      <trkpt lat="44.64513" lon="3.80548">
        <ele>1064.3</ele>
        <time>2013-05-09T06:37:55Z</time>
      </trkpt>
      <trkpt lat="44.64512" lon="3.80558">
        <ele>1064.3</ele>
        <time>2013-05-09T06:38:01Z</time>
      </trkpt>
      <trkpt lat="44.64515" lon="3.8057">
        <ele>1064.1</ele>
        <time>2013-05-09T06:38:14Z</time>
      </trkpt>
      <trkpt lat="44.64516" lon="3.80573">
        <ele>1064.1</ele>
        <time>2013-05-09T06:38:15Z</time>
      </trkpt>
      <trkpt lat="44.64514" lon="3.80592">
        <ele>1063.8</ele>
        <time>2013-05-09T06:38:27Z</time>
      </trkpt>
      <trkpt lat="44.64513" lon="3.80605">
        <ele>1063.6</ele>
        <time>2013-05-09T06:38:33Z</time>
      </trkpt>
      <trkpt lat="44.64505" lon="3.80609">
        <ele>1063</ele>
        <time>2013-05-09T06:39:05Z</time>
      </trkpt>
      <trkpt lat="44.6451" lon="3.80618">
        <ele>1062.8</ele>
        <time>2013-05-09T06:39:26Z</time>
      </trkpt>
      <trkpt lat="44.64512" lon="3.8062">
        <ele>1062.8</ele>
        <time>2013-05-09T06:39:27Z</time>
      </trkpt>
      <trkpt lat="44.64502" lon="3.80633">
        <ele>1065.1</ele>
        <time>2013-05-09T06:40:09Z</time>
      </trkpt>
      <trkpt lat="44.64498" lon="3.80645">
        <ele>1065.6</ele>
        <time>2013-05-09T06:40:17Z</time>
      </trkpt>
      <trkpt lat="44.64496" lon="3.80657">
        <ele>1066</ele>
        <time>2013-05-09T06:40:27Z</time>
      </trkpt>
      <trkpt lat="44.64495" lon="3.80659">
        <ele>1066</ele>
        <time>2013-05-09T06:40:28Z</time>
      </trkpt>
      <trkpt lat="44.64495" lon="3.80679">
        <ele>1066.9</ele>
        <time>2013-05-09T06:40:41Z</time>
      </trkpt>
      <trkpt lat="44.64498" lon="3.8069">
        <ele>1067.2</ele>
        <time>2013-05-09T06:40:46Z</time>
      </trkpt>
      <trkpt lat="44.64499" lon="3.80702">
        <ele>1068.7</ele>
        <time>2013-05-09T06:41:05Z</time>
      </trkpt>
      <trkpt lat="44.645" lon="3.80714">
        <ele>1069.2</ele>
        <time>2013-05-09T06:41:14Z</time>
      </trkpt>
      <trkpt lat="44.645" lon="3.80725">
        <ele>1069.7</ele>
        <time>2013-05-09T06:41:20Z</time>
      </trkpt>
      <trkpt lat="44.64502" lon="3.80737">
        <ele>1070.3</ele>
        <time>2013-05-09T06:41:31Z</time>
      </trkpt>
      <trkpt lat="44.64503" lon="3.80738">
        <ele>1070.4</ele>
        <time>2013-05-09T06:41:32Z</time>
      </trkpt>
      <trkpt lat="44.64493" lon="3.80757">
        <ele>1071.2</ele>
        <time>2013-05-09T06:41:44Z</time>
      </trkpt>
      <trkpt lat="44.64486" lon="3.80763">
        <ele>1071.5</ele>
        <time>2013-05-09T06:41:52Z</time>
      </trkpt>
      <trkpt lat="44.64479" lon="3.80769">
        <ele>1071.7</ele>
        <time>2013-05-09T06:41:58Z</time>
      </trkpt>
      <trkpt lat="44.64476" lon="3.80779">
        <ele>1072</ele>
        <time>2013-05-09T06:42:07Z</time>
      </trkpt>
      <trkpt lat="44.64473" lon="3.80791">
        <ele>1072.3</ele>
        <time>2013-05-09T06:42:16Z</time>
      </trkpt>
      <trkpt lat="44.64472" lon="3.80803">
        <ele>1072.8</ele>
        <time>2013-05-09T06:42:27Z</time>
      </trkpt>
      <trkpt lat="44.64465" lon="3.80808">
        <ele>1074.5</ele>
        <time>2013-05-09T06:42:33Z</time>
      </trkpt>
      <trkpt lat="44.6446" lon="3.80809">
        <ele>1075.3</ele>
        <time>2013-05-09T06:42:34Z</time>
      </trkpt>
      <trkpt lat="44.64452" lon="3.80819">
        <ele>1079.4</ele>
        <time>2013-05-09T06:42:51Z</time>
      </trkpt>
      <trkpt lat="44.64449" lon="3.80829">
        <ele>1081.5</ele>
        <time>2013-05-09T06:42:57Z</time>
      </trkpt>
      <trkpt lat="44.64444" lon="3.8084">
        <ele>1083.4</ele>
        <time>2013-05-09T06:43:03Z</time>
      </trkpt>
      <trkpt lat="44.6444" lon="3.80849">
        <ele>1085.7</ele>
        <time>2013-05-09T06:43:10Z</time>
      </trkpt>
      <trkpt lat="44.64437" lon="3.80859">
        <ele>1087.8</ele>
        <time>2013-05-09T06:43:17Z</time>
      </trkpt>
      <trkpt lat="44.64433" lon="3.8087">
        <ele>1089.3</ele>
        <time>2013-05-09T06:43:24Z</time>
      </trkpt>
      <trkpt lat="44.6443" lon="3.80881">
        <ele>1090.5</ele>
        <time>2013-05-09T06:43:34Z</time>
      </trkpt>
      <trkpt lat="44.64429" lon="3.80882">
        <ele>1090.6</ele>
        <time>2013-05-09T06:43:35Z</time>
      </trkpt>
      <trkpt lat="44.64419" lon="3.809">
        <ele>1093.2</ele>
        <time>2013-05-09T06:43:50Z</time>
      </trkpt>
      <trkpt lat="44.64413" lon="3.80902">
        <ele>1094.3</ele>
        <time>2013-05-09T06:43:54Z</time>
      </trkpt>
      <trkpt lat="44.64405" lon="3.80906">
        <ele>1095.8</ele>
        <time>2013-05-09T06:43:59Z</time>
      </trkpt>
      <trkpt lat="44.64397" lon="3.80913">
        <ele>1098</ele>
        <time>2013-05-09T06:44:18Z</time>
      </trkpt>
      <trkpt lat="44.64397" lon="3.80925">
        <ele>1098.6</ele>
        <time>2013-05-09T06:44:35Z</time>
      </trkpt>
      <trkpt lat="44.64396" lon="3.80926">
        <ele>1098.9</ele>
        <time>2013-05-09T06:44:36Z</time>
      </trkpt>
      <trkpt lat="44.64382" lon="3.80933">
        <ele>1101</ele>
        <time>2013-05-09T06:44:43Z</time>
      </trkpt>
      <trkpt lat="44.64374" lon="3.80937">
        <ele>1101.5</ele>
        <time>2013-05-09T06:44:49Z</time>
      </trkpt>
      <trkpt lat="44.64367" lon="3.80941">
        <ele>1102.6</ele>
        <time>2013-05-09T06:44:55Z</time>
      </trkpt>
      <trkpt lat="44.6436" lon="3.80947">
        <ele>1103.9</ele>
        <time>2013-05-09T06:45:05Z</time>
      </trkpt>
      <trkpt lat="44.64355" lon="3.80955">
        <ele>1105.3</ele>
        <time>2013-05-09T06:45:13Z</time>
      </trkpt>
      <trkpt lat="44.64349" lon="3.80961">
        <ele>1105.9</ele>
        <time>2013-05-09T06:45:17Z</time>
      </trkpt>
      <trkpt lat="44.6434" lon="3.80964">
        <ele>1106</ele>
        <time>2013-05-09T06:45:23Z</time>
      </trkpt>
      <trkpt lat="44.64333" lon="3.8097">
        <ele>1106.4</ele>
        <time>2013-05-09T06:45:32Z</time>
      </trkpt>
      <trkpt lat="44.64326" lon="3.80977">
        <ele>1106.7</ele>
        <time>2013-05-09T06:45:38Z</time>
      </trkpt>
      <trkpt lat="44.64324" lon="3.80977">
        <ele>1106.7</ele>
        <time>2013-05-09T06:45:39Z</time>
      </trkpt>
      <trkpt lat="44.64312" lon="3.80975">
        <ele>1106.5</ele>
        <time>2013-05-09T06:45:46Z</time>
      </trkpt>
      <trkpt lat="44.64304" lon="3.80977">
        <ele>1106.4</ele>
        <time>2013-05-09T06:45:51Z</time>
      </trkpt>
      <trkpt lat="44.64296" lon="3.80976">
        <ele>1106.3</ele>
        <time>2013-05-09T06:45:56Z</time>
      </trkpt>
      <trkpt lat="44.64288" lon="3.80975">
        <ele>1106.3</ele>
        <time>2013-05-09T06:46:01Z</time>
      </trkpt>
      <trkpt lat="44.6428" lon="3.80973">
        <ele>1106.7</ele>
        <time>2013-05-09T06:46:07Z</time>
      </trkpt>
      <trkpt lat="44.64272" lon="3.80976">
        <ele>1107.1</ele>
        <time>2013-05-09T06:46:15Z</time>
      </trkpt>
      <trkpt lat="44.64264" lon="3.80977">
        <ele>1107.3</ele>
        <time>2013-05-09T06:46:21Z</time>
      </trkpt>
      <trkpt lat="44.64255" lon="3.80982">
        <ele>1108</ele>
        <time>2013-05-09T06:46:32Z</time>
      </trkpt>
      <trkpt lat="44.64248" lon="3.80983">
        <ele>1108.9</ele>
        <time>2013-05-09T06:46:36Z</time>
      </trkpt>
      <trkpt lat="44.6424" lon="3.80988">
        <ele>1109.8</ele>
        <time>2013-05-09T06:46:42Z</time>
      </trkpt>
      <trkpt lat="44.64239" lon="3.80988">
        <ele>1109.9</ele>
        <time>2013-05-09T06:46:43Z</time>
      </trkpt>
      <trkpt lat="44.64224" lon="3.80996">
        <ele>1109.7</ele>
        <time>2013-05-09T06:47:02Z</time>
      </trkpt>
      <trkpt lat="44.64215" lon="3.80997">
        <ele>1110.2</ele>
        <time>2013-05-09T06:47:08Z</time>
      </trkpt>
      <trkpt lat="44.64207" lon="3.81">
        <ele>1110.9</ele>
        <time>2013-05-09T06:47:15Z</time>
      </trkpt>
      <trkpt lat="44.64199" lon="3.81007">
        <ele>1112</ele>
        <time>2013-05-09T06:47:25Z</time>
      </trkpt>
      <trkpt lat="44.64192" lon="3.81012">
        <ele>1112.7</ele>
        <time>2013-05-09T06:47:37Z</time>
      </trkpt>
      <trkpt lat="44.64184" lon="3.81017">
        <ele>1113.1</ele>
        <time>2013-05-09T06:47:43Z</time>
      </trkpt>
      <trkpt lat="44.64183" lon="3.81017">
        <ele>1113.1</ele>
        <time>2013-05-09T06:47:44Z</time>
      </trkpt>
      <trkpt lat="44.64167" lon="3.81021">
        <ele>1114.4</ele>
        <time>2013-05-09T06:47:59Z</time>
      </trkpt>
      <trkpt lat="44.64165" lon="3.8102">
        <ele>1113.7</ele>
        <time>2013-05-09T06:48:27Z</time>
      </trkpt>
      <trkpt lat="44.64157" lon="3.81015">
        <ele>1112.4</ele>
        <time>2013-05-09T06:48:28Z</time>
      </trkpt>
      <trkpt lat="44.64161" lon="3.81026">
        <ele>1111.9</ele>
        <time>2013-05-09T06:49:41Z</time>
      </trkpt>
      <trkpt lat="44.64161" lon="3.81026">
        <ele>1112</ele>
        <time>2013-05-09T06:49:42Z</time>
      </trkpt>
      <trkpt lat="44.64144" lon="3.81024">
        <ele>1111.6</ele>
        <time>2013-05-09T06:49:58Z</time>
      </trkpt>
      <trkpt lat="44.64136" lon="3.81027">
        <ele>1111.8</ele>
        <time>2013-05-09T06:50:07Z</time>
      </trkpt>
      <trkpt lat="44.64129" lon="3.81032">
        <ele>1111.5</ele>
        <time>2013-05-09T06:50:16Z</time>
      </trkpt>
      <trkpt lat="44.64121" lon="3.81034">
        <ele>1110.7</ele>
        <time>2013-05-09T06:50:25Z</time>
      </trkpt>
      <trkpt lat="44.64113" lon="3.81032">
        <ele>1110.3</ele>
        <time>2013-05-09T06:50:37Z</time>
      </trkpt>
      <trkpt lat="44.64104" lon="3.81029">
        <ele>1110.3</ele>
        <time>2013-05-09T06:50:42Z</time>
      </trkpt>
      <trkpt lat="44.64103" lon="3.8103">
        <ele>1110.3</ele>
        <time>2013-05-09T06:50:43Z</time>
      </trkpt>
      <trkpt lat="44.64089" lon="3.81037">
        <ele>1109.7</ele>
        <time>2013-05-09T06:50:58Z</time>
      </trkpt>
      <trkpt lat="44.64082" lon="3.81045">
        <ele>1109.8</ele>
        <time>2013-05-09T06:51:10Z</time>
      </trkpt>
      <trkpt lat="44.64074" lon="3.8105">
        <ele>1110.4</ele>
        <time>2013-05-09T06:51:20Z</time>
      </trkpt>
      <trkpt lat="44.64068" lon="3.81058">
        <ele>1111.3</ele>
        <time>2013-05-09T06:51:35Z</time>
      </trkpt>
      <trkpt lat="44.6406" lon="3.81062">
        <ele>1110.9</ele>
        <time>2013-05-09T06:51:43Z</time>
      </trkpt>
      <trkpt lat="44.64059" lon="3.81062">
        <ele>1110.9</ele>
        <time>2013-05-09T06:51:44Z</time>
      </trkpt>
      <trkpt lat="44.64044" lon="3.81064">
        <ele>1111.2</ele>
        <time>2013-05-09T06:52:10Z</time>
      </trkpt>
      <trkpt lat="44.64038" lon="3.81071">
        <ele>1111.9</ele>
        <time>2013-05-09T06:52:17Z</time>
      </trkpt>
      <trkpt lat="44.64031" lon="3.81078">
        <ele>1113</ele>
        <time>2013-05-09T06:52:23Z</time>
      </trkpt>
      <trkpt lat="44.64023" lon="3.81082">
        <ele>1113.2</ele>
        <time>2013-05-09T06:52:32Z</time>
      </trkpt>
      <trkpt lat="44.64014" lon="3.8108">
        <ele>1113.9</ele>
        <time>2013-05-09T06:52:39Z</time>
      </trkpt>
      <trkpt lat="44.64006" lon="3.81076">
        <ele>1114.1</ele>
        <time>2013-05-09T06:52:45Z</time>
      </trkpt>
      <trkpt lat="44.64005" lon="3.81075">
        <ele>1114.1</ele>
        <time>2013-05-09T06:52:46Z</time>
      </trkpt>
      <trkpt lat="44.63991" lon="3.81073">
        <ele>1115</ele>
        <time>2013-05-09T06:53:00Z</time>
      </trkpt>
      <trkpt lat="44.63983" lon="3.81073">
        <ele>1115.8</ele>
        <time>2013-05-09T06:53:08Z</time>
      </trkpt>
      <trkpt lat="44.63974" lon="3.81071">
        <ele>1116.5</ele>
        <time>2013-05-09T06:53:14Z</time>
      </trkpt>
      <trkpt lat="44.63966" lon="3.81075">
        <ele>1117.3</ele>
        <time>2013-05-09T06:53:24Z</time>
      </trkpt>
      <trkpt lat="44.63959" lon="3.81079">
        <ele>1118.5</ele>
        <time>2013-05-09T06:53:32Z</time>
      </trkpt>
      <trkpt lat="44.6395" lon="3.81079">
        <ele>1119.9</ele>
        <time>2013-05-09T06:53:41Z</time>
      </trkpt>
      <trkpt lat="44.63942" lon="3.8108">
        <ele>1120.8</ele>
        <time>2013-05-09T06:53:49Z</time>
      </trkpt>
      <trkpt lat="44.63941" lon="3.81079">
        <ele>1120.8</ele>
        <time>2013-05-09T06:53:50Z</time>
      </trkpt>
      <trkpt lat="44.63926" lon="3.81074">
        <ele>1122.7</ele>
        <time>2013-05-09T06:54:03Z</time>
      </trkpt>
      <trkpt lat="44.63918" lon="3.81076">
        <ele>1123.3</ele>
        <time>2013-05-09T06:54:11Z</time>
      </trkpt>
      <trkpt lat="44.6391" lon="3.81079">
        <ele>1124.2</ele>
        <time>2013-05-09T06:54:21Z</time>
      </trkpt>
      <trkpt lat="44.63902" lon="3.81078">
        <ele>1125.1</ele>
        <time>2013-05-09T06:54:30Z</time>
      </trkpt>
      <trkpt lat="44.63893" lon="3.81078">
        <ele>1126.1</ele>
        <time>2013-05-09T06:54:37Z</time>
      </trkpt>
      <trkpt lat="44.63884" lon="3.81078">
        <ele>1126.7</ele>
        <time>2013-05-09T06:54:46Z</time>
      </trkpt>
      <trkpt lat="44.63876" lon="3.81083">
        <ele>1127.8</ele>
        <time>2013-05-09T06:54:57Z</time>
      </trkpt>
      <trkpt lat="44.63875" lon="3.81084">
        <ele>1127.8</ele>
        <time>2013-05-09T06:54:58Z</time>
      </trkpt>
      <trkpt lat="44.6386" lon="3.81088">
        <ele>1130.6</ele>
        <time>2013-05-09T06:55:11Z</time>
      </trkpt>
      <trkpt lat="44.63852" lon="3.8109">
        <ele>1133</ele>
        <time>2013-05-09T06:55:20Z</time>
      </trkpt>
      <trkpt lat="44.63843" lon="3.81093">
        <ele>1134.1</ele>
        <time>2013-05-09T06:55:28Z</time>
      </trkpt>
      <trkpt lat="44.63836" lon="3.81099">
        <ele>1135.9</ele>
        <time>2013-05-09T06:55:35Z</time>
      </trkpt>
      <trkpt lat="44.63829" lon="3.81107">
        <ele>1137.2</ele>
        <time>2013-05-09T06:55:43Z</time>
      </trkpt>
      <trkpt lat="44.63823" lon="3.81115">
        <ele>1138.8</ele>
        <time>2013-05-09T06:55:50Z</time>
      </trkpt>
      <trkpt lat="44.63817" lon="3.81125">
        <ele>1140.4</ele>
        <time>2013-05-09T06:55:58Z</time>
      </trkpt>
      <trkpt lat="44.63817" lon="3.81125">
        <ele>1140.6</ele>
        <time>2013-05-09T06:55:59Z</time>
      </trkpt>
      <trkpt lat="44.63804" lon="3.81141">
        <ele>1143.4</ele>
        <time>2013-05-09T06:56:19Z</time>
      </trkpt>
      <trkpt lat="44.63799" lon="3.81149">
        <ele>1145</ele>
        <time>2013-05-09T06:56:29Z</time>
      </trkpt>
      <trkpt lat="44.63794" lon="3.81159">
        <ele>1148.1</ele>
        <time>2013-05-09T06:57:03Z</time>
      </trkpt>
      <trkpt lat="44.63794" lon="3.8116">
        <ele>1148.2</ele>
        <time>2013-05-09T06:57:04Z</time>
      </trkpt>
      <trkpt lat="44.63788" lon="3.81181">
        <ele>1149.9</ele>
        <time>2013-05-09T06:57:24Z</time>
      </trkpt>
      <trkpt lat="44.63783" lon="3.8119">
        <ele>1151</ele>
        <time>2013-05-09T06:57:33Z</time>
      </trkpt>
      <trkpt lat="44.63781" lon="3.81201">
        <ele>1152.5</ele>
        <time>2013-05-09T06:57:44Z</time>
      </trkpt>
      <trkpt lat="44.6378" lon="3.81213">
        <ele>1153.4</ele>
        <time>2013-05-09T06:58:35Z</time>
      </trkpt>
      <trkpt lat="44.63779" lon="3.81215">
        <ele>1153.7</ele>
        <time>2013-05-09T06:58:36Z</time>
      </trkpt>
      <trkpt lat="44.63773" lon="3.81233">
        <ele>1154.8</ele>
        <time>2013-05-09T06:58:50Z</time>
      </trkpt>
      <trkpt lat="44.63772" lon="3.81246">
        <ele>1155.4</ele>
        <time>2013-05-09T06:58:57Z</time>
      </trkpt>
      <trkpt lat="44.63767" lon="3.81256">
        <ele>1156.2</ele>
        <time>2013-05-09T06:59:05Z</time>
      </trkpt>
      <trkpt lat="44.63765" lon="3.81268">
        <ele>1157</ele>
        <time>2013-05-09T06:59:13Z</time>
      </trkpt>
      <trkpt lat="44.63762" lon="3.81279">
        <ele>1157.9</ele>
        <time>2013-05-09T06:59:25Z</time>
      </trkpt>
      <trkpt lat="44.63756" lon="3.81288">
        <ele>1158.5</ele>
        <time>2013-05-09T06:59:33Z</time>
      </trkpt>
      <trkpt lat="44.63751" lon="3.81297">
        <ele>1159.6</ele>
        <time>2013-05-09T06:59:41Z</time>
      </trkpt>
      <trkpt lat="44.63751" lon="3.81298">
        <ele>1159.7</ele>
        <time>2013-05-09T06:59:42Z</time>
      </trkpt>
      <trkpt lat="44.63738" lon="3.81312">
        <ele>1162.9</ele>
        <time>2013-05-09T07:00:05Z</time>
      </trkpt>
      <trkpt lat="44.63732" lon="3.81321">
        <ele>1163.4</ele>
        <time>2013-05-09T07:00:13Z</time>
      </trkpt>
      <trkpt lat="44.63728" lon="3.81331">
        <ele>1164.1</ele>
        <time>2013-05-09T07:00:21Z</time>
      </trkpt>
      <trkpt lat="44.63723" lon="3.8134">
        <ele>1165.9</ele>
        <time>2013-05-09T07:00:30Z</time>
      </trkpt>
      <trkpt lat="44.6372" lon="3.81351">
        <ele>1167.3</ele>
        <time>2013-05-09T07:00:38Z</time>
      </trkpt>
      <trkpt lat="44.63712" lon="3.81357">
        <ele>1167.9</ele>
        <time>2013-05-09T07:00:45Z</time>
      </trkpt>
      <trkpt lat="44.63711" lon="3.81357">
        <ele>1168.1</ele>
        <time>2013-05-09T07:00:46Z</time>
      </trkpt>
      <trkpt lat="44.637" lon="3.8137">
        <ele>1169.7</ele>
        <time>2013-05-09T07:00:59Z</time>
      </trkpt>
      <trkpt lat="44.63694" lon="3.81379">
        <ele>1170.4</ele>
        <time>2013-05-09T07:01:06Z</time>
      </trkpt>
      <trkpt lat="44.63692" lon="3.8139">
        <ele>1172.4</ele>
        <time>2013-05-09T07:01:16Z</time>
      </trkpt>
      <trkpt lat="44.63691" lon="3.81402">
        <ele>1174</ele>
        <time>2013-05-09T07:01:26Z</time>
      </trkpt>
      <trkpt lat="44.6369" lon="3.81414">
        <ele>1175.9</ele>
        <time>2013-05-09T07:01:36Z</time>
      </trkpt>
      <trkpt lat="44.63685" lon="3.81423">
        <ele>1178</ele>
        <time>2013-05-09T07:01:44Z</time>
      </trkpt>
      <trkpt lat="44.63678" lon="3.81428">
        <ele>1179.6</ele>
        <time>2013-05-09T07:01:50Z</time>
      </trkpt>
      <trkpt lat="44.63678" lon="3.8143">
        <ele>1179.9</ele>
        <time>2013-05-09T07:01:51Z</time>
      </trkpt>
      <trkpt lat="44.63676" lon="3.8145">
        <ele>1181.8</ele>
        <time>2013-05-09T07:02:04Z</time>
      </trkpt>
      <trkpt lat="44.63671" lon="3.81461">
        <ele>1182.8</ele>
        <time>2013-05-09T07:02:12Z</time>
      </trkpt>
      <trkpt lat="44.63668" lon="3.81472">
        <ele>1184.2</ele>
        <time>2013-05-09T07:02:23Z</time>
      </trkpt>
      <trkpt lat="44.63663" lon="3.81481">
        <ele>1185.7</ele>
        <time>2013-05-09T07:02:35Z</time>
      </trkpt>
      <trkpt lat="44.63663" lon="3.81493">
        <ele>1186.6</ele>
        <time>2013-05-09T07:02:43Z</time>
      </trkpt>
      <trkpt lat="44.63661" lon="3.81505">
        <ele>1187.6</ele>
        <time>2013-05-09T07:02:49Z</time>
      </trkpt>
      <trkpt lat="44.63658" lon="3.81517">
        <ele>1188.9</ele>
        <time>2013-05-09T07:02:56Z</time>
      </trkpt>
      <trkpt lat="44.63657" lon="3.8152">
        <ele>1188.9</ele>
        <time>2013-05-09T07:02:57Z</time>
      </trkpt>
      <trkpt lat="44.6366" lon="3.8154">
        <ele>1189.5</ele>
        <time>2013-05-09T07:03:09Z</time>
      </trkpt>
      <trkpt lat="44.63665" lon="3.81551">
        <ele>1190.4</ele>
        <time>2013-05-09T07:03:19Z</time>
      </trkpt>
      <trkpt lat="44.63669" lon="3.8156">
        <ele>1191</ele>
        <time>2013-05-09T07:03:27Z</time>
      </trkpt>
      <trkpt lat="44.63677" lon="3.81559">
        <ele>1193.3</ele>
        <time>2013-05-09T07:03:44Z</time>
      </trkpt>
      <trkpt lat="44.63686" lon="3.8156">
        <ele>1194.9</ele>
        <time>2013-05-09T07:04:02Z</time>
      </trkpt>
      <trkpt lat="44.63686" lon="3.81559">
        <ele>1195</ele>
        <time>2013-05-09T07:04:03Z</time>
      </trkpt>
      <trkpt lat="44.63698" lon="3.81567">
        <ele>1194.7</ele>
        <time>2013-05-09T07:04:46Z</time>
      </trkpt>
      <trkpt lat="44.63707" lon="3.81565">
        <ele>1193.8</ele>
        <time>2013-05-09T07:04:53Z</time>
      </trkpt>
      <trkpt lat="44.63712" lon="3.81556">
        <ele>1195.1</ele>
        <time>2013-05-09T07:06:14Z</time>
      </trkpt>
      <trkpt lat="44.63714" lon="3.81556">
        <ele>1195.2</ele>
        <time>2013-05-09T07:06:15Z</time>
      </trkpt>
      <trkpt lat="44.63728" lon="3.81546">
        <ele>1195.7</ele>
        <time>2013-05-09T07:06:30Z</time>
      </trkpt>
      <trkpt lat="44.63736" lon="3.81543">
        <ele>1195.9</ele>
        <time>2013-05-09T07:06:38Z</time>
      </trkpt>
      <trkpt lat="44.63744" lon="3.81543">
        <ele>1196.2</ele>
        <time>2013-05-09T07:06:46Z</time>
      </trkpt>
      <trkpt lat="44.63753" lon="3.81539">
        <ele>1196.3</ele>
        <time>2013-05-09T07:06:54Z</time>
      </trkpt>
      <trkpt lat="44.6376" lon="3.81539">
        <ele>1196.3</ele>
        <time>2013-05-09T07:07:00Z</time>
      </trkpt>
      <trkpt lat="44.63769" lon="3.8154">
        <ele>1196.4</ele>
        <time>2013-05-09T07:07:07Z</time>
      </trkpt>
      <trkpt lat="44.63778" lon="3.81541">
        <ele>1197.2</ele>
        <time>2013-05-09T07:07:13Z</time>
      </trkpt>
      <trkpt lat="44.63786" lon="3.81538">
        <ele>1197.9</ele>
        <time>2013-05-09T07:07:20Z</time>
      </trkpt>
      <trkpt lat="44.63788" lon="3.81538">
        <ele>1197.9</ele>
        <time>2013-05-09T07:07:21Z</time>
      </trkpt>
      <trkpt lat="44.63803" lon="3.81537">
        <ele>1198.2</ele>
        <time>2013-05-09T07:07:36Z</time>
      </trkpt>
      <trkpt lat="44.6381" lon="3.81544">
        <ele>1197.3</ele>
        <time>2013-05-09T07:07:42Z</time>
      </trkpt>
      <trkpt lat="44.63817" lon="3.81552">
        <ele>1196.5</ele>
        <time>2013-05-09T07:07:48Z</time>
      </trkpt>
      <trkpt lat="44.63823" lon="3.81558">
        <ele>1196.3</ele>
        <time>2013-05-09T07:07:54Z</time>
      </trkpt>
      <trkpt lat="44.6383" lon="3.81566">
        <ele>1195.3</ele>
        <time>2013-05-09T07:08:00Z</time>
      </trkpt>
      <trkpt lat="44.63835" lon="3.81575">
        <ele>1193.9</ele>
        <time>2013-05-09T07:08:05Z</time>
      </trkpt>
      <trkpt lat="44.63842" lon="3.81583">
        <ele>1193.6</ele>
        <time>2013-05-09T07:08:12Z</time>
      </trkpt>
      <trkpt lat="44.63848" lon="3.81591">
        <ele>1193.4</ele>
        <time>2013-05-09T07:08:18Z</time>
      </trkpt>
      <trkpt lat="44.63853" lon="3.81598">
        <ele>1193.1</ele>
        <time>2013-05-09T07:08:24Z</time>
      </trkpt>
      <trkpt lat="44.63854" lon="3.816">
        <ele>1192.9</ele>
        <time>2013-05-09T07:08:25Z</time>
      </trkpt>
      <trkpt lat="44.63865" lon="3.81613">
        <ele>1190.1</ele>
        <time>2013-05-09T07:08:36Z</time>
      </trkpt>
      <trkpt lat="44.63871" lon="3.8162">
        <ele>1189.3</ele>
        <time>2013-05-09T07:08:42Z</time>
      </trkpt>
      <trkpt lat="44.63879" lon="3.81626">
        <ele>1189</ele>
        <time>2013-05-09T07:08:50Z</time>
      </trkpt>
      <trkpt lat="44.63885" lon="3.81634">
        <ele>1187</ele>
        <time>2013-05-09T07:08:58Z</time>
      </trkpt>
      <trkpt lat="44.63891" lon="3.81642">
        <ele>1186</ele>
        <time>2013-05-09T07:09:04Z</time>
      </trkpt>
      <trkpt lat="44.63899" lon="3.81648">
        <ele>1184.7</ele>
        <time>2013-05-09T07:09:11Z</time>
      </trkpt>
      <trkpt lat="44.63904" lon="3.81657">
        <ele>1183.8</ele>
        <time>2013-05-09T07:09:17Z</time>
      </trkpt>
      <trkpt lat="44.63912" lon="3.81664">
        <ele>1182.1</ele>
        <time>2013-05-09T07:09:24Z</time>
      </trkpt>
      <trkpt lat="44.63917" lon="3.81672">
        <ele>1180.9</ele>
        <time>2013-05-09T07:09:32Z</time>
      </trkpt>
      <trkpt lat="44.63918" lon="3.81674">
        <ele>1180.7</ele>
        <time>2013-05-09T07:09:33Z</time>
      </trkpt>
      <trkpt lat="44.6393" lon="3.81688">
        <ele>1179.4</ele>
        <time>2013-05-09T07:09:44Z</time>
      </trkpt>
      <trkpt lat="44.63936" lon="3.81696">
        <ele>1177.9</ele>
        <time>2013-05-09T07:09:52Z</time>
      </trkpt>
      <trkpt lat="44.63943" lon="3.81704">
        <ele>1176.8</ele>
        <time>2013-05-09T07:10:00Z</time>
      </trkpt>
      <trkpt lat="44.63949" lon="3.81712">
        <ele>1175.6</ele>
        <time>2013-05-09T07:10:06Z</time>
      </trkpt>
      <trkpt lat="44.63956" lon="3.81718">
        <ele>1174.8</ele>
        <time>2013-05-09T07:10:12Z</time>
      </trkpt>
      <trkpt lat="44.63961" lon="3.81725">
        <ele>1173.9</ele>
        <time>2013-05-09T07:10:18Z</time>
      </trkpt>
      <trkpt lat="44.63967" lon="3.81734">
        <ele>1172.9</ele>
        <time>2013-05-09T07:10:24Z</time>
      </trkpt>
      <trkpt lat="44.63973" lon="3.81743">
        <ele>1172.4</ele>
        <time>2013-05-09T07:10:31Z</time>
      </trkpt>
      <trkpt lat="44.63979" lon="3.81752">
        <ele>1172.2</ele>
        <time>2013-05-09T07:10:37Z</time>
      </trkpt>
      <trkpt lat="44.6398" lon="3.81753">
        <ele>1172.4</ele>
        <time>2013-05-09T07:10:38Z</time>
      </trkpt>
      <trkpt lat="44.63991" lon="3.81768">
        <ele>1173.9</ele>
        <time>2013-05-09T07:10:51Z</time>
      </trkpt>
      <trkpt lat="44.63998" lon="3.81776">
        <ele>1173</ele>
        <time>2013-05-09T07:10:57Z</time>
      </trkpt>
      <trkpt lat="44.64005" lon="3.81782">
        <ele>1172.2</ele>
        <time>2013-05-09T07:11:04Z</time>
      </trkpt>
      <trkpt lat="44.64009" lon="3.81792">
        <ele>1171.4</ele>
        <time>2013-05-09T07:11:12Z</time>
      </trkpt>
      <trkpt lat="44.64016" lon="3.818">
        <ele>1170.6</ele>
        <time>2013-05-09T07:11:20Z</time>
      </trkpt>
      <trkpt lat="44.64024" lon="3.81807">
        <ele>1170.1</ele>
        <time>2013-05-09T07:11:26Z</time>
      </trkpt>
      <trkpt lat="44.64031" lon="3.81814">
        <ele>1169.6</ele>
        <time>2013-05-09T07:11:34Z</time>
      </trkpt>
      <trkpt lat="44.64035" lon="3.81824">
        <ele>1168.4</ele>
        <time>2013-05-09T07:11:42Z</time>
      </trkpt>
      <trkpt lat="44.64035" lon="3.81826">
        <ele>1168.3</ele>
        <time>2013-05-09T07:11:43Z</time>
      </trkpt>
      <trkpt lat="44.64042" lon="3.81844">
        <ele>1166.5</ele>
        <time>2013-05-09T07:11:56Z</time>
      </trkpt>
      <trkpt lat="44.64047" lon="3.81853">
        <ele>1165.5</ele>
        <time>2013-05-09T07:12:01Z</time>
      </trkpt>
      <trkpt lat="44.6405" lon="3.81864">
        <ele>1164.7</ele>
        <time>2013-05-09T07:12:08Z</time>
      </trkpt>
      <trkpt lat="44.64054" lon="3.81875">
        <ele>1164</ele>
        <time>2013-05-09T07:12:14Z</time>
      </trkpt>
      <trkpt lat="44.64055" lon="3.81886">
        <ele>1163.3</ele>
        <time>2013-05-09T07:12:20Z</time>
      </trkpt>
      <trkpt lat="44.64049" lon="3.81894">
        <ele>1162.2</ele>
        <time>2013-05-09T07:12:28Z</time>
      </trkpt>
      <trkpt lat="44.6404" lon="3.81893">
        <ele>1162</ele>
        <time>2013-05-09T07:12:34Z</time>
      </trkpt>
      <trkpt lat="44.64033" lon="3.81892">
        <ele>1161.4</ele>
        <time>2013-05-09T07:12:40Z</time>
      </trkpt>
      <trkpt lat="44.64025" lon="3.81888">
        <ele>1160.8</ele>
        <time>2013-05-09T07:12:48Z</time>
      </trkpt>
      <trkpt lat="44.64024" lon="3.81888">
        <ele>1160.6</ele>
        <time>2013-05-09T07:12:49Z</time>
      </trkpt>
      <trkpt lat="44.64009" lon="3.81883">
        <ele>1159.3</ele>
        <time>2013-05-09T07:13:02Z</time>
      </trkpt>
      <trkpt lat="44.64001" lon="3.81883">
        <ele>1158.7</ele>
        <time>2013-05-09T07:13:08Z</time>
      </trkpt>
      <trkpt lat="44.63993" lon="3.81883">
        <ele>1158.3</ele>
        <time>2013-05-09T07:13:13Z</time>
      </trkpt>
      <trkpt lat="44.63985" lon="3.81885">
        <ele>1158</ele>
        <time>2013-05-09T07:13:18Z</time>
      </trkpt>
      <trkpt lat="44.63976" lon="3.81885">
        <ele>1157.5</ele>
        <time>2013-05-09T07:13:25Z</time>
      </trkpt>
      <trkpt lat="44.63968" lon="3.81883">
        <ele>1157.4</ele>
        <time>2013-05-09T07:13:33Z</time>
      </trkpt>
      <trkpt lat="44.63959" lon="3.81886">
        <ele>1157</ele>
        <time>2013-05-09T07:13:40Z</time>
      </trkpt>
      <trkpt lat="44.63951" lon="3.81885">
        <ele>1156.6</ele>
        <time>2013-05-09T07:13:46Z</time>
      </trkpt>
      <trkpt lat="44.63942" lon="3.81883">
        <ele>1156.3</ele>
        <time>2013-05-09T07:13:51Z</time>
      </trkpt>
      <trkpt lat="44.63941" lon="3.81882">
        <ele>1156.2</ele>
        <time>2013-05-09T07:13:52Z</time>
      </trkpt>
      <trkpt lat="44.63928" lon="3.81868">
        <ele>1155.9</ele>
        <time>2013-05-09T07:14:08Z</time>
      </trkpt>
      <trkpt lat="44.63921" lon="3.81861">
        <ele>1156.1</ele>
        <time>2013-05-09T07:14:16Z</time>
      </trkpt>
      <trkpt lat="44.63915" lon="3.81852">
        <ele>1155.9</ele>
        <time>2013-05-09T07:14:22Z</time>
      </trkpt>
      <trkpt lat="44.63908" lon="3.81859">
        <ele>1155</ele>
        <time>2013-05-09T07:14:34Z</time>
      </trkpt>
      <trkpt lat="44.63903" lon="3.81869">
        <ele>1154.3</ele>
        <time>2013-05-09T07:14:43Z</time>
      </trkpt>
      <trkpt lat="44.63898" lon="3.81879">
        <ele>1153.6</ele>
        <time>2013-05-09T07:14:51Z</time>
      </trkpt>
      <trkpt lat="44.63895" lon="3.81889">
        <ele>1153.1</ele>
        <time>2013-05-09T07:14:58Z</time>
      </trkpt>
      <trkpt lat="44.63894" lon="3.81891">
        <ele>1153.1</ele>
        <time>2013-05-09T07:14:59Z</time>
      </trkpt>
      <trkpt lat="44.63885" lon="3.81909">
        <ele>1152.2</ele>
        <time>2013-05-09T07:15:12Z</time>
      </trkpt>
      <trkpt lat="44.63881" lon="3.8192">
        <ele>1151.3</ele>
        <time>2013-05-09T07:15:21Z</time>
      </trkpt>
      <trkpt lat="44.63879" lon="3.81932">
        <ele>1149.7</ele>
        <time>2013-05-09T07:15:28Z</time>
      </trkpt>
      <trkpt lat="44.63873" lon="3.81939">
        <ele>1148.5</ele>
        <time>2013-05-09T07:15:35Z</time>
      </trkpt>
      <trkpt lat="44.63866" lon="3.81946">
        <ele>1147.4</ele>
        <time>2013-05-09T07:15:39Z</time>
      </trkpt>
      <trkpt lat="44.6386" lon="3.81953">
        <ele>1146.4</ele>
        <time>2013-05-09T07:15:44Z</time>
      </trkpt>
      <trkpt lat="44.63854" lon="3.81961">
        <ele>1144.8</ele>
        <time>2013-05-09T07:15:50Z</time>
      </trkpt>
      <trkpt lat="44.6385" lon="3.81972">
        <ele>1143.1</ele>
        <time>2013-05-09T07:15:59Z</time>
      </trkpt>
      <trkpt lat="44.63849" lon="3.81973">
        <ele>1142.8</ele>
        <time>2013-05-09T07:16:00Z</time>
      </trkpt>
      <trkpt lat="44.63841" lon="3.81993">
        <ele>1140.2</ele>
        <time>2013-05-09T07:16:13Z</time>
      </trkpt>
      <trkpt lat="44.63839" lon="3.82004">
        <ele>1139</ele>
        <time>2013-05-09T07:16:20Z</time>
      </trkpt>
      <trkpt lat="44.63837" lon="3.82016">
        <ele>1137.9</ele>
        <time>2013-05-09T07:16:29Z</time>
      </trkpt>
      <trkpt lat="44.63832" lon="3.82026">
        <ele>1136.8</ele>
        <time>2013-05-09T07:16:37Z</time>
      </trkpt>
      <trkpt lat="44.63826" lon="3.82034">
        <ele>1135.7</ele>
        <time>2013-05-09T07:16:42Z</time>
      </trkpt>
      <trkpt lat="44.6382" lon="3.82041">
        <ele>1135</ele>
        <time>2013-05-09T07:16:46Z</time>
      </trkpt>
      <trkpt lat="44.63813" lon="3.82048">
        <ele>1134</ele>
        <time>2013-05-09T07:16:53Z</time>
      </trkpt>
      <trkpt lat="44.63811" lon="3.82059">
        <ele>1132.5</ele>
        <time>2013-05-09T07:17:01Z</time>
      </trkpt>
      <trkpt lat="44.6381" lon="3.8206">
        <ele>1132.3</ele>
        <time>2013-05-09T07:17:02Z</time>
      </trkpt>
      <trkpt lat="44.63801" lon="3.82077">
        <ele>1130.4</ele>
        <time>2013-05-09T07:17:15Z</time>
      </trkpt>
      <trkpt lat="44.63797" lon="3.82088">
        <ele>1129.2</ele>
        <time>2013-05-09T07:17:22Z</time>
      </trkpt>
      <trkpt lat="44.63791" lon="3.82097">
        <ele>1128.2</ele>
        <time>2013-05-09T07:17:28Z</time>
      </trkpt>
      <trkpt lat="44.63786" lon="3.82106">
        <ele>1127.1</ele>
        <time>2013-05-09T07:17:34Z</time>
      </trkpt>
      <trkpt lat="44.63783" lon="3.82117">
        <ele>1125.9</ele>
        <time>2013-05-09T07:17:41Z</time>
      </trkpt>
      <trkpt lat="44.6378" lon="3.82127">
        <ele>1124.4</ele>
        <time>2013-05-09T07:17:48Z</time>
      </trkpt>
      <trkpt lat="44.63776" lon="3.82137">
        <ele>1123.4</ele>
        <time>2013-05-09T07:17:54Z</time>
      </trkpt>
      <trkpt lat="44.63773" lon="3.82149">
        <ele>1121.9</ele>
        <time>2013-05-09T07:18:02Z</time>
      </trkpt>
      <trkpt lat="44.63773" lon="3.82151">
        <ele>1121.7</ele>
        <time>2013-05-09T07:18:03Z</time>
      </trkpt>
      <trkpt lat="44.63767" lon="3.82171">
        <ele>1119.5</ele>
        <time>2013-05-09T07:18:16Z</time>
      </trkpt>
      <trkpt lat="44.63763" lon="3.82181">
        <ele>1118</ele>
        <time>2013-05-09T07:18:23Z</time>
      </trkpt>
      <trkpt lat="44.63759" lon="3.8219">
        <ele>1116.8</ele>
        <time>2013-05-09T07:18:29Z</time>
      </trkpt>
      <trkpt lat="44.63753" lon="3.82196">
        <ele>1115.5</ele>
        <time>2013-05-09T07:18:34Z</time>
      </trkpt>
      <trkpt lat="44.63745" lon="3.82201">
        <ele>1114.6</ele>
        <time>2013-05-09T07:18:38Z</time>
      </trkpt>
      <trkpt lat="44.63739" lon="3.8221">
        <ele>1113.5</ele>
        <time>2013-05-09T07:18:44Z</time>
      </trkpt>
      <trkpt lat="44.63733" lon="3.82219">
        <ele>1112.2</ele>
        <time>2013-05-09T07:18:52Z</time>
      </trkpt>
      <trkpt lat="44.63726" lon="3.82225">
        <ele>1110.9</ele>
        <time>2013-05-09T07:18:59Z</time>
      </trkpt>
      <trkpt lat="44.63719" lon="3.82231">
        <ele>1109.2</ele>
        <time>2013-05-09T07:19:07Z</time>
      </trkpt>
      <trkpt lat="44.63719" lon="3.82231">
        <ele>1109</ele>
        <time>2013-05-09T07:19:08Z</time>
      </trkpt>
      <trkpt lat="44.63721" lon="3.82224">
        <ele>1109.4</ele>
        <time>2013-05-09T07:20:09Z</time>
      </trkpt>
      <trkpt lat="44.63722" lon="3.82225">
        <ele>1109.5</ele>
        <time>2013-05-09T07:20:10Z</time>
      </trkpt>
      <trkpt lat="44.6373" lon="3.82227">
        <ele>1109.1</ele>
        <time>2013-05-09T07:24:21Z</time>
      </trkpt>
      <trkpt lat="44.63746" lon="3.8223">
        <ele>1110.6</ele>
        <time>2013-05-09T07:24:47Z</time>
      </trkpt>
      <trkpt lat="44.63753" lon="3.82232">
        <ele>1110.8</ele>
        <time>2013-05-09T07:24:53Z</time>
      </trkpt>
      <trkpt lat="44.63761" lon="3.82233">
        <ele>1111.1</ele>
        <time>2013-05-09T07:24:58Z</time>
      </trkpt>
      <trkpt lat="44.63769" lon="3.82237">
        <ele>1111.7</ele>
        <time>2013-05-09T07:25:05Z</time>
      </trkpt>
      <trkpt lat="44.63778" lon="3.82237">
        <ele>1113.2</ele>
        <time>2013-05-09T07:25:14Z</time>
      </trkpt>
      <trkpt lat="44.63786" lon="3.82239">
        <ele>1114.8</ele>
        <time>2013-05-09T07:25:23Z</time>
      </trkpt>
      <trkpt lat="44.63787" lon="3.8224">
        <ele>1114.9</ele>
        <time>2013-05-09T07:25:24Z</time>
      </trkpt>
      <trkpt lat="44.63802" lon="3.82239">
        <ele>1115.8</ele>
        <time>2013-05-09T07:25:37Z</time>
      </trkpt>
      <trkpt lat="44.6381" lon="3.82234">
        <ele>1116.2</ele>
        <time>2013-05-09T07:25:43Z</time>
      </trkpt>
      <trkpt lat="44.63815" lon="3.82226">
        <ele>1116.4</ele>
        <time>2013-05-09T07:25:52Z</time>
      </trkpt>
      <trkpt lat="44.63817" lon="3.82214">
        <ele>1116.4</ele>
        <time>2013-05-09T07:26:00Z</time>
      </trkpt>
      <trkpt lat="44.63818" lon="3.82202">
        <ele>1116.4</ele>
        <time>2013-05-09T07:26:07Z</time>
      </trkpt>
      <trkpt lat="44.63819" lon="3.82191">
        <ele>1116.7</ele>
        <time>2013-05-09T07:26:16Z</time>
      </trkpt>
      <trkpt lat="44.63823" lon="3.82181">
        <ele>1116.9</ele>
        <time>2013-05-09T07:26:23Z</time>
      </trkpt>
      <trkpt lat="44.63825" lon="3.82169">
        <ele>1117.1</ele>
        <time>2013-05-09T07:26:30Z</time>
      </trkpt>
      <trkpt lat="44.63825" lon="3.82167">
        <ele>1117.2</ele>
        <time>2013-05-09T07:26:31Z</time>
      </trkpt>
      <trkpt lat="44.63833" lon="3.8215">
        <ele>1117.6</ele>
        <time>2013-05-09T07:26:50Z</time>
      </trkpt>
      <trkpt lat="44.63838" lon="3.8214">
        <ele>1118.1</ele>
        <time>2013-05-09T07:26:58Z</time>
      </trkpt>
      <trkpt lat="44.63845" lon="3.82133">
        <ele>1118.2</ele>
        <time>2013-05-09T07:27:04Z</time>
      </trkpt>
      <trkpt lat="44.63852" lon="3.82127">
        <ele>1118.5</ele>
        <time>2013-05-09T07:27:13Z</time>
      </trkpt>
      <trkpt lat="44.6386" lon="3.82124">
        <ele>1118.8</ele>
        <time>2013-05-09T07:27:20Z</time>
      </trkpt>
      <trkpt lat="44.63867" lon="3.82129">
        <ele>1119.5</ele>
        <time>2013-05-09T07:27:26Z</time>
      </trkpt>
      <trkpt lat="44.63874" lon="3.82136">
        <ele>1119.1</ele>
        <time>2013-05-09T07:27:32Z</time>
      </trkpt>
      <trkpt lat="44.63875" lon="3.82137">
        <ele>1119.1</ele>
        <time>2013-05-09T07:27:33Z</time>
      </trkpt>
      <trkpt lat="44.63887" lon="3.82146">
        <ele>1119</ele>
        <time>2013-05-09T07:27:41Z</time>
      </trkpt>
      <trkpt lat="44.63892" lon="3.82156">
        <ele>1119.5</ele>
        <time>2013-05-09T07:27:48Z</time>
      </trkpt>
      <trkpt lat="44.63895" lon="3.82166">
        <ele>1119.9</ele>
        <time>2013-05-09T07:27:55Z</time>
      </trkpt>
      <trkpt lat="44.63896" lon="3.82178">
        <ele>1121.1</ele>
        <time>2013-05-09T07:28:04Z</time>
      </trkpt>
      <trkpt lat="44.63903" lon="3.82187">
        <ele>1120.5</ele>
        <time>2013-05-09T07:28:11Z</time>
      </trkpt>
      <trkpt lat="44.63908" lon="3.82194">
        <ele>1120.9</ele>
        <time>2013-05-09T07:28:16Z</time>
      </trkpt>
      <trkpt lat="44.63915" lon="3.822">
        <ele>1120.8</ele>
        <time>2013-05-09T07:28:22Z</time>
      </trkpt>
      <trkpt lat="44.63922" lon="3.82209">
        <ele>1121.1</ele>
        <time>2013-05-09T07:28:28Z</time>
      </trkpt>
      <trkpt lat="44.63927" lon="3.82218">
        <ele>1121.1</ele>
        <time>2013-05-09T07:28:34Z</time>
      </trkpt>
      <trkpt lat="44.63927" lon="3.82219">
        <ele>1121</ele>
        <time>2013-05-09T07:28:35Z</time>
      </trkpt>
      <trkpt lat="44.63938" lon="3.82234">
        <ele>1121.6</ele>
        <time>2013-05-09T07:28:48Z</time>
      </trkpt>
      <trkpt lat="44.63944" lon="3.82243">
        <ele>1121.7</ele>
        <time>2013-05-09T07:28:54Z</time>
      </trkpt>
      <trkpt lat="44.6395" lon="3.82252">
        <ele>1122.1</ele>
        <time>2013-05-09T07:29:00Z</time>
      </trkpt>
      <trkpt lat="44.63953" lon="3.82262">
        <ele>1122.3</ele>
        <time>2013-05-09T07:29:05Z</time>
      </trkpt>
      <trkpt lat="44.63956" lon="3.82271">
        <ele>1122.5</ele>
        <time>2013-05-09T07:29:10Z</time>
      </trkpt>
      <trkpt lat="44.63962" lon="3.8228">
        <ele>1122.3</ele>
        <time>2013-05-09T07:29:16Z</time>
      </trkpt>
      <trkpt lat="44.63965" lon="3.82291">
        <ele>1122.3</ele>
        <time>2013-05-09T07:29:23Z</time>
      </trkpt>
      <trkpt lat="44.63968" lon="3.82302">
        <ele>1122.4</ele>
        <time>2013-05-09T07:29:32Z</time>
      </trkpt>
      <trkpt lat="44.63971" lon="3.82313">
        <ele>1122.4</ele>
        <time>2013-05-09T07:29:43Z</time>
      </trkpt>
      <trkpt lat="44.63972" lon="3.82315">
        <ele>1122.4</ele>
        <time>2013-05-09T07:29:44Z</time>
      </trkpt>
      <trkpt lat="44.63976" lon="3.82336">
        <ele>1121.8</ele>
        <time>2013-05-09T07:29:57Z</time>
      </trkpt>
      <trkpt lat="44.63978" lon="3.82346">
        <ele>1121.2</ele>
        <time>2013-05-09T07:30:03Z</time>
      </trkpt>
      <trkpt lat="44.6398" lon="3.82359">
        <ele>1120.5</ele>
        <time>2013-05-09T07:30:09Z</time>
      </trkpt>
      <trkpt lat="44.63979" lon="3.82371">
        <ele>1119.4</ele>
        <time>2013-05-09T07:30:15Z</time>
      </trkpt>
      <trkpt lat="44.63978" lon="3.82383">
        <ele>1117.8</ele>
        <time>2013-05-09T07:30:22Z</time>
      </trkpt>
      <trkpt lat="44.6398" lon="3.82395">
        <ele>1115.6</ele>
        <time>2013-05-09T07:30:30Z</time>
      </trkpt>
      <trkpt lat="44.63984" lon="3.82405">
        <ele>1112.8</ele>
        <time>2013-05-09T07:30:38Z</time>
      </trkpt>
      <trkpt lat="44.63986" lon="3.82416">
        <ele>1110.3</ele>
        <time>2013-05-09T07:30:46Z</time>
      </trkpt>
      <trkpt lat="44.63987" lon="3.82417">
        <ele>1110</ele>
        <time>2013-05-09T07:30:47Z</time>
      </trkpt>
      <trkpt lat="44.63992" lon="3.82439">
        <ele>1107.8</ele>
        <time>2013-05-09T07:31:02Z</time>
      </trkpt>
      <trkpt lat="44.63993" lon="3.82452">
        <ele>1106.4</ele>
        <time>2013-05-09T07:31:08Z</time>
      </trkpt>
      <trkpt lat="44.63992" lon="3.82463">
        <ele>1105.4</ele>
        <time>2013-05-09T07:31:14Z</time>
      </trkpt>
      <trkpt lat="44.63993" lon="3.82475">
        <ele>1104.4</ele>
        <time>2013-05-09T07:31:21Z</time>
      </trkpt>
      <trkpt lat="44.63995" lon="3.82486">
        <ele>1103.5</ele>
        <time>2013-05-09T07:31:28Z</time>
      </trkpt>
      <trkpt lat="44.63999" lon="3.82497">
        <ele>1102.5</ele>
        <time>2013-05-09T07:31:34Z</time>
      </trkpt>
      <trkpt lat="44.64001" lon="3.82508">
        <ele>1101.5</ele>
        <time>2013-05-09T07:31:40Z</time>
      </trkpt>
      <trkpt lat="44.64004" lon="3.8252">
        <ele>1100.5</ele>
        <time>2013-05-09T07:31:47Z</time>
      </trkpt>
      <trkpt lat="44.64004" lon="3.82521">
        <ele>1100.2</ele>
        <time>2013-05-09T07:31:48Z</time>
      </trkpt>
      <trkpt lat="44.64013" lon="3.82541">
        <ele>1097.1</ele>
        <time>2013-05-09T07:32:05Z</time>
      </trkpt>
      <trkpt lat="44.64017" lon="3.82551">
        <ele>1096.2</ele>
        <time>2013-05-09T07:32:12Z</time>
      </trkpt>
      <trkpt lat="44.6402" lon="3.82561">
        <ele>1094.9</ele>
        <time>2013-05-09T07:32:19Z</time>
      </trkpt>
      <trkpt lat="44.64023" lon="3.82573">
        <ele>1093.8</ele>
        <time>2013-05-09T07:32:25Z</time>
      </trkpt>
      <trkpt lat="44.64024" lon="3.82585">
        <ele>1092.6</ele>
        <time>2013-05-09T07:32:32Z</time>
      </trkpt>
      <trkpt lat="44.64024" lon="3.82597">
        <ele>1091.6</ele>
        <time>2013-05-09T07:32:39Z</time>
      </trkpt>
      <trkpt lat="44.64025" lon="3.82609">
        <ele>1090.3</ele>
        <time>2013-05-09T07:32:47Z</time>
      </trkpt>
      <trkpt lat="44.64023" lon="3.82621">
        <ele>1089</ele>
        <time>2013-05-09T07:32:57Z</time>
      </trkpt>
      <trkpt lat="44.64024" lon="3.82623">
        <ele>1088.9</ele>
        <time>2013-05-09T07:32:58Z</time>
      </trkpt>
      <trkpt lat="44.64025" lon="3.82642">
        <ele>1087.4</ele>
        <time>2013-05-09T07:33:08Z</time>
      </trkpt>
      <trkpt lat="44.64021" lon="3.82652">
        <ele>1086.7</ele>
        <time>2013-05-09T07:33:13Z</time>
      </trkpt>
      <trkpt lat="44.64019" lon="3.82663">
        <ele>1085.7</ele>
        <time>2013-05-09T07:33:19Z</time>
      </trkpt>
      <trkpt lat="44.64019" lon="3.82674">
        <ele>1085.2</ele>
        <time>2013-05-09T07:33:25Z</time>
      </trkpt>
      <trkpt lat="44.6402" lon="3.82685">
        <ele>1084.4</ele>
        <time>2013-05-09T07:33:31Z</time>
      </trkpt>
      <trkpt lat="44.64024" lon="3.82696">
        <ele>1083.5</ele>
        <time>2013-05-09T07:33:37Z</time>
      </trkpt>
      <trkpt lat="44.64023" lon="3.82706">
        <ele>1082.6</ele>
        <time>2013-05-09T07:33:43Z</time>
      </trkpt>
      <trkpt lat="44.64024" lon="3.82717">
        <ele>1081.8</ele>
        <time>2013-05-09T07:33:50Z</time>
      </trkpt>
      <trkpt lat="44.64027" lon="3.82728">
        <ele>1080.8</ele>
        <time>2013-05-09T07:33:57Z</time>
      </trkpt>
      <trkpt lat="44.6403" lon="3.82738">
        <ele>1079.7</ele>
        <time>2013-05-09T07:34:04Z</time>
      </trkpt>
      <trkpt lat="44.64031" lon="3.8274">
        <ele>1079.6</ele>
        <time>2013-05-09T07:34:05Z</time>
      </trkpt>
      <trkpt lat="44.64036" lon="3.8276">
        <ele>1078.6</ele>
        <time>2013-05-09T07:34:18Z</time>
      </trkpt>
      <trkpt lat="44.64038" lon="3.82771">
        <ele>1076.6</ele>
        <time>2013-05-09T07:34:29Z</time>
      </trkpt>
      <trkpt lat="44.64041" lon="3.82783">
        <ele>1076</ele>
        <time>2013-05-09T07:34:36Z</time>
      </trkpt>
      <trkpt lat="44.64042" lon="3.82795">
        <ele>1075.7</ele>
        <time>2013-05-09T07:34:43Z</time>
      </trkpt>
      <trkpt lat="44.64045" lon="3.82806">
        <ele>1075.8</ele>
        <time>2013-05-09T07:35:15Z</time>
      </trkpt>
      <trkpt lat="44.64045" lon="3.82807">
        <ele>1075.9</ele>
        <time>2013-05-09T07:35:16Z</time>
      </trkpt>
      <trkpt lat="44.64045" lon="3.82829">
        <ele>1075.7</ele>
        <time>2013-05-09T07:35:25Z</time>
      </trkpt>
      <trkpt lat="44.64048" lon="3.8284">
        <ele>1075.8</ele>
        <time>2013-05-09T07:35:31Z</time>
      </trkpt>
      <trkpt lat="44.64052" lon="3.82851">
        <ele>1075.3</ele>
        <time>2013-05-09T07:35:39Z</time>
      </trkpt>
      <trkpt lat="44.64058" lon="3.82861">
        <ele>1075.1</ele>
        <time>2013-05-09T07:35:47Z</time>
      </trkpt>
      <trkpt lat="44.64064" lon="3.82867">
        <ele>1075.3</ele>
        <time>2013-05-09T07:35:55Z</time>
      </trkpt>
      <trkpt lat="44.64071" lon="3.82874">
        <ele>1075.6</ele>
        <time>2013-05-09T07:36:02Z</time>
      </trkpt>
      <trkpt lat="44.64079" lon="3.8288">
        <ele>1076.2</ele>
        <time>2013-05-09T07:36:12Z</time>
      </trkpt>
      <trkpt lat="44.64087" lon="3.82884">
        <ele>1076.8</ele>
        <time>2013-05-09T07:36:19Z</time>
      </trkpt>
      <trkpt lat="44.64088" lon="3.82884">
        <ele>1076.8</ele>
        <time>2013-05-09T07:36:20Z</time>
      </trkpt>
      <trkpt lat="44.64104" lon="3.82878">
        <ele>1078.6</ele>
        <time>2013-05-09T07:36:34Z</time>
      </trkpt>
      <trkpt lat="44.64112" lon="3.8288">
        <ele>1079.2</ele>
        <time>2013-05-09T07:36:40Z</time>
      </trkpt>
      <trkpt lat="44.6412" lon="3.82881">
        <ele>1080.3</ele>
        <time>2013-05-09T07:36:46Z</time>
      </trkpt>
      <trkpt lat="44.64128" lon="3.82883">
        <ele>1081.3</ele>
        <time>2013-05-09T07:36:53Z</time>
      </trkpt>
      <trkpt lat="44.64136" lon="3.82883">
        <ele>1082.1</ele>
        <time>2013-05-09T07:37:00Z</time>
      </trkpt>
      <trkpt lat="44.64145" lon="3.82883">
        <ele>1083.9</ele>
        <time>2013-05-09T07:37:06Z</time>
      </trkpt>
      <trkpt lat="44.64153" lon="3.82887">
        <ele>1084.2</ele>
        <time>2013-05-09T07:37:15Z</time>
      </trkpt>
      <trkpt lat="44.64162" lon="3.82888">
        <ele>1084.2</ele>
        <time>2013-05-09T07:37:22Z</time>
      </trkpt>
      <trkpt lat="44.64163" lon="3.82887">
        <ele>1084.1</ele>
        <time>2013-05-09T07:37:23Z</time>
      </trkpt>
      <trkpt lat="44.64178" lon="3.82893">
        <ele>1083.6</ele>
        <time>2013-05-09T07:37:36Z</time>
      </trkpt>
      <trkpt lat="44.64186" lon="3.82891">
        <ele>1082.5</ele>
        <time>2013-05-09T07:37:42Z</time>
      </trkpt>
      <trkpt lat="44.64194" lon="3.82893">
        <ele>1082.9</ele>
        <time>2013-05-09T07:37:47Z</time>
      </trkpt>
      <trkpt lat="44.64203" lon="3.82892">
        <ele>1082.4</ele>
        <time>2013-05-09T07:37:53Z</time>
      </trkpt>
      <trkpt lat="44.64211" lon="3.82894">
        <ele>1082.9</ele>
        <time>2013-05-09T07:37:59Z</time>
      </trkpt>
      <trkpt lat="44.64219" lon="3.82897">
        <ele>1083.6</ele>
        <time>2013-05-09T07:38:06Z</time>
      </trkpt>
      <trkpt lat="44.64226" lon="3.82902">
        <ele>1083.5</ele>
        <time>2013-05-09T07:38:14Z</time>
      </trkpt>
      <trkpt lat="44.64233" lon="3.82906">
        <ele>1084.1</ele>
        <time>2013-05-09T07:38:20Z</time>
      </trkpt>
      <trkpt lat="44.64242" lon="3.82911">
        <ele>1084.3</ele>
        <time>2013-05-09T07:38:27Z</time>
      </trkpt>
      <trkpt lat="44.64243" lon="3.82911">
        <ele>1084.3</ele>
        <time>2013-05-09T07:38:28Z</time>
      </trkpt>
      <trkpt lat="44.64259" lon="3.82912">
        <ele>1084.4</ele>
        <time>2013-05-09T07:38:42Z</time>
      </trkpt>
      <trkpt lat="44.64267" lon="3.82911">
        <ele>1084.3</ele>
        <time>2013-05-09T07:38:47Z</time>
      </trkpt>
      <trkpt lat="44.64275" lon="3.82915">
        <ele>1083.8</ele>
        <time>2013-05-09T07:38:52Z</time>
      </trkpt>
      <trkpt lat="44.64283" lon="3.82911">
        <ele>1080.9</ele>
        <time>2013-05-09T07:39:00Z</time>
      </trkpt>
      <trkpt lat="44.64291" lon="3.82907">
        <ele>1079.1</ele>
        <time>2013-05-09T07:39:07Z</time>
      </trkpt>
      <trkpt lat="44.64299" lon="3.82902">
        <ele>1078.1</ele>
        <time>2013-05-09T07:39:14Z</time>
      </trkpt>
      <trkpt lat="44.64306" lon="3.82897">
        <ele>1075.6</ele>
        <time>2013-05-09T07:39:19Z</time>
      </trkpt>
      <trkpt lat="44.64312" lon="3.8289">
        <ele>1075</ele>
        <time>2013-05-09T07:39:23Z</time>
      </trkpt>
      <trkpt lat="44.64319" lon="3.82886">
        <ele>1073.7</ele>
        <time>2013-05-09T07:39:28Z</time>
      </trkpt>
      <trkpt lat="44.6432" lon="3.82886">
        <ele>1073.4</ele>
        <time>2013-05-09T07:39:29Z</time>
      </trkpt>
      <trkpt lat="44.64331" lon="3.82875">
        <ele>1068.3</ele>
        <time>2013-05-09T07:39:40Z</time>
      </trkpt>
      <trkpt lat="44.64338" lon="3.82868">
        <ele>1065.7</ele>
        <time>2013-05-09T07:39:46Z</time>
      </trkpt>
      <trkpt lat="44.64345" lon="3.82862">
        <ele>1064.1</ele>
        <time>2013-05-09T07:39:52Z</time>
      </trkpt>
      <trkpt lat="44.64351" lon="3.82852">
        <ele>1061.5</ele>
        <time>2013-05-09T07:40:01Z</time>
      </trkpt>
      <trkpt lat="44.64356" lon="3.82861">
        <ele>1057.3</ele>
        <time>2013-05-09T07:40:15Z</time>
      </trkpt>
      <trkpt lat="44.64355" lon="3.82874">
        <ele>1055.4</ele>
        <time>2013-05-09T07:40:23Z</time>
      </trkpt>
      <trkpt lat="44.64351" lon="3.82885">
        <ele>1053.9</ele>
        <time>2013-05-09T07:40:31Z</time>
      </trkpt>
      <trkpt lat="44.64351" lon="3.82886">
        <ele>1053.7</ele>
        <time>2013-05-09T07:40:32Z</time>
      </trkpt>
      <trkpt lat="44.64347" lon="3.82906">
        <ele>1050.4</ele>
        <time>2013-05-09T07:40:44Z</time>
      </trkpt>
      <trkpt lat="44.64347" lon="3.82918">
        <ele>1048.6</ele>
        <time>2013-05-09T07:40:52Z</time>
      </trkpt>
      <trkpt lat="44.64342" lon="3.82925">
        <ele>1046.8</ele>
        <time>2013-05-09T07:40:59Z</time>
      </trkpt>
      <trkpt lat="44.64339" lon="3.82936">
        <ele>1045.7</ele>
        <time>2013-05-09T07:41:05Z</time>
      </trkpt>
      <trkpt lat="44.64336" lon="3.82948">
        <ele>1044.4</ele>
        <time>2013-05-09T07:41:12Z</time>
      </trkpt>
      <trkpt lat="44.64332" lon="3.82959">
        <ele>1043.3</ele>
        <time>2013-05-09T07:41:21Z</time>
      </trkpt>
      <trkpt lat="44.64329" lon="3.82969">
        <ele>1041.9</ele>
        <time>2013-05-09T07:41:29Z</time>
      </trkpt>
      <trkpt lat="44.64323" lon="3.82979">
        <ele>1041.4</ele>
        <time>2013-05-09T07:41:35Z</time>
      </trkpt>
      <trkpt lat="44.64322" lon="3.8298">
        <ele>1041.1</ele>
        <time>2013-05-09T07:41:36Z</time>
      </trkpt>
      <trkpt lat="44.64315" lon="3.82999">
        <ele>1039.8</ele>
        <time>2013-05-09T07:41:48Z</time>
      </trkpt>
      <trkpt lat="44.64309" lon="3.83007">
        <ele>1038.8</ele>
        <time>2013-05-09T07:41:58Z</time>
      </trkpt>
      <trkpt lat="44.64301" lon="3.83009">
        <ele>1038.1</ele>
        <time>2013-05-09T07:42:05Z</time>
      </trkpt>
      <trkpt lat="44.64293" lon="3.83012">
        <ele>1037.3</ele>
        <time>2013-05-09T07:42:10Z</time>
      </trkpt>
      <trkpt lat="44.64287" lon="3.83019">
        <ele>1036.6</ele>
        <time>2013-05-09T07:42:18Z</time>
      </trkpt>
      <trkpt lat="44.64279" lon="3.83023">
        <ele>1035.2</ele>
        <time>2013-05-09T07:42:26Z</time>
      </trkpt>
      <trkpt lat="44.64274" lon="3.83031">
        <ele>1034</ele>
        <time>2013-05-09T07:42:33Z</time>
      </trkpt>
      <trkpt lat="44.64268" lon="3.8304">
        <ele>1032.8</ele>
        <time>2013-05-09T07:42:41Z</time>
      </trkpt>
      <trkpt lat="44.64267" lon="3.83042">
        <ele>1032.8</ele>
        <time>2013-05-09T07:42:42Z</time>
      </trkpt>
      <trkpt lat="44.64261" lon="3.83059">
        <ele>1032</ele>
        <time>2013-05-09T07:42:49Z</time>
      </trkpt>
      <trkpt lat="44.64259" lon="3.8307">
        <ele>1031.3</ele>
        <time>2013-05-09T07:42:55Z</time>
      </trkpt>
      <trkpt lat="44.64257" lon="3.83082">
        <ele>1030.9</ele>
        <time>2013-05-09T07:43:02Z</time>
      </trkpt>
      <trkpt lat="44.64257" lon="3.83093">
        <ele>1030.5</ele>
        <time>2013-05-09T07:43:08Z</time>
      </trkpt>
      <trkpt lat="44.6426" lon="3.83105">
        <ele>1030.5</ele>
        <time>2013-05-09T07:43:14Z</time>
      </trkpt>
      <trkpt lat="44.64262" lon="3.83115">
        <ele>1030.1</ele>
        <time>2013-05-09T07:43:20Z</time>
      </trkpt>
      <trkpt lat="44.64264" lon="3.83126">
        <ele>1029.2</ele>
        <time>2013-05-09T07:43:26Z</time>
      </trkpt>
      <trkpt lat="44.64265" lon="3.83138">
        <ele>1027.9</ele>
        <time>2013-05-09T07:43:33Z</time>
      </trkpt>
      <trkpt lat="44.64267" lon="3.8315">
        <ele>1027.2</ele>
        <time>2013-05-09T07:43:40Z</time>
      </trkpt>
      <trkpt lat="44.64268" lon="3.83162">
        <ele>1027.2</ele>
        <time>2013-05-09T07:43:57Z</time>
      </trkpt>
      <trkpt lat="44.64267" lon="3.83163">
        <ele>1027.3</ele>
        <time>2013-05-09T07:43:58Z</time>
      </trkpt>
      <trkpt lat="44.64263" lon="3.83185">
        <ele>1028.8</ele>
        <time>2013-05-09T07:44:24Z</time>
      </trkpt>
      <trkpt lat="44.6426" lon="3.83195">
        <ele>1028.8</ele>
        <time>2013-05-09T07:44:30Z</time>
      </trkpt>
      <trkpt lat="44.64256" lon="3.83205">
        <ele>1028.9</ele>
        <time>2013-05-09T07:44:38Z</time>
      </trkpt>
      <trkpt lat="44.64251" lon="3.83215">
        <ele>1028.9</ele>
        <time>2013-05-09T07:44:46Z</time>
      </trkpt>
      <trkpt lat="44.64251" lon="3.83227">
        <ele>1029.1</ele>
        <time>2013-05-09T07:44:54Z</time>
      </trkpt>
      <trkpt lat="44.64248" lon="3.83239">
        <ele>1030</ele>
        <time>2013-05-09T07:45:02Z</time>
      </trkpt>
      <trkpt lat="44.64248" lon="3.8324">
        <ele>1030.1</ele>
        <time>2013-05-09T07:45:03Z</time>
      </trkpt>
      <trkpt lat="44.64256" lon="3.8326">
        <ele>1031</ele>
        <time>2013-05-09T07:45:23Z</time>
      </trkpt>
      <trkpt lat="44.64263" lon="3.83267">
        <ele>1032.4</ele>
        <time>2013-05-09T07:45:59Z</time>
      </trkpt>
      <trkpt lat="44.64271" lon="3.83271">
        <ele>1032.7</ele>
        <time>2013-05-09T07:46:10Z</time>
      </trkpt>
      <trkpt lat="44.64272" lon="3.83272">
        <ele>1032.8</ele>
        <time>2013-05-09T07:46:11Z</time>
      </trkpt>
      <trkpt lat="44.64283" lon="3.83286">
        <ele>1033.7</ele>
        <time>2013-05-09T07:46:23Z</time>
      </trkpt>
      <trkpt lat="44.64289" lon="3.83294">
        <ele>1034.1</ele>
        <time>2013-05-09T07:46:29Z</time>
      </trkpt>
      <trkpt lat="44.64292" lon="3.83306">
        <ele>1035.3</ele>
        <time>2013-05-09T07:46:40Z</time>
      </trkpt>
      <trkpt lat="44.64298" lon="3.83314">
        <ele>1035.7</ele>
        <time>2013-05-09T07:46:49Z</time>
      </trkpt>
      <trkpt lat="44.64306" lon="3.8332">
        <ele>1036.7</ele>
        <time>2013-05-09T07:47:03Z</time>
      </trkpt>
      <trkpt lat="44.64313" lon="3.83325">
        <ele>1038.1</ele>
        <time>2013-05-09T07:47:13Z</time>
      </trkpt>
      <trkpt lat="44.64314" lon="3.83325">
        <ele>1038.2</ele>
        <time>2013-05-09T07:47:14Z</time>
      </trkpt>
      <trkpt lat="44.64327" lon="3.83338">
        <ele>1039.9</ele>
        <time>2013-05-09T07:47:33Z</time>
      </trkpt>
      <trkpt lat="44.64335" lon="3.83343">
        <ele>1041.8</ele>
        <time>2013-05-09T07:47:47Z</time>
      </trkpt>
      <trkpt lat="44.64342" lon="3.83352">
        <ele>1043</ele>
        <time>2013-05-09T07:47:57Z</time>
      </trkpt>
      <trkpt lat="44.64349" lon="3.83356">
        <ele>1044.4</ele>
        <time>2013-05-09T07:48:07Z</time>
      </trkpt>
      <trkpt lat="44.64357" lon="3.83362">
        <ele>1045.7</ele>
        <time>2013-05-09T07:48:16Z</time>
      </trkpt>
      <trkpt lat="44.64358" lon="3.83363">
        <ele>1045.9</ele>
        <time>2013-05-09T07:48:17Z</time>
      </trkpt>
      <trkpt lat="44.64372" lon="3.83371">
        <ele>1049.3</ele>
        <time>2013-05-09T07:48:36Z</time>
      </trkpt>
      <trkpt lat="44.6438" lon="3.83376">
        <ele>1050.6</ele>
        <time>2013-05-09T07:48:45Z</time>
      </trkpt>
      <trkpt lat="44.64388" lon="3.83377">
        <ele>1051.6</ele>
        <time>2013-05-09T07:48:51Z</time>
      </trkpt>
      <trkpt lat="44.64396" lon="3.83383">
        <ele>1052.9</ele>
        <time>2013-05-09T07:48:59Z</time>
      </trkpt>
      <trkpt lat="44.64404" lon="3.83388">
        <ele>1054.6</ele>
        <time>2013-05-09T07:49:08Z</time>
      </trkpt>
      <trkpt lat="44.64413" lon="3.83386">
        <ele>1056.9</ele>
        <time>2013-05-09T07:49:22Z</time>
      </trkpt>
      <trkpt lat="44.64413" lon="3.83387">
        <ele>1057.2</ele>
        <time>2013-05-09T07:49:23Z</time>
      </trkpt>
      <trkpt lat="44.64427" lon="3.83396">
        <ele>1059.9</ele>
        <time>2013-05-09T07:49:35Z</time>
      </trkpt>
      <trkpt lat="44.64436" lon="3.834">
        <ele>1062.8</ele>
        <time>2013-05-09T07:49:43Z</time>
      </trkpt>
      <trkpt lat="44.64444" lon="3.83403">
        <ele>1065.4</ele>
        <time>2013-05-09T07:49:52Z</time>
      </trkpt>
      <trkpt lat="44.64449" lon="3.8341">
        <ele>1068.2</ele>
        <time>2013-05-09T07:50:24Z</time>
      </trkpt>
      <trkpt lat="44.64452" lon="3.83412">
        <ele>1069.6</ele>
        <time>2013-05-09T07:50:25Z</time>
      </trkpt>
      <trkpt lat="44.64464" lon="3.83415">
        <ele>1071.7</ele>
        <time>2013-05-09T07:50:37Z</time>
      </trkpt>
      <trkpt lat="44.64473" lon="3.83418">
        <ele>1073</ele>
        <time>2013-05-09T07:50:43Z</time>
      </trkpt>
      <trkpt lat="44.64481" lon="3.83418">
        <ele>1074.5</ele>
        <time>2013-05-09T07:50:51Z</time>
      </trkpt>
      <trkpt lat="44.64489" lon="3.83417">
        <ele>1075.6</ele>
        <time>2013-05-09T07:50:58Z</time>
      </trkpt>
      <trkpt lat="44.64497" lon="3.83415">
        <ele>1076.4</ele>
        <time>2013-05-09T07:51:04Z</time>
      </trkpt>
      <trkpt lat="44.64504" lon="3.83412">
        <ele>1077.5</ele>
        <time>2013-05-09T07:51:10Z</time>
      </trkpt>
      <trkpt lat="44.64513" lon="3.8341">
        <ele>1078.6</ele>
        <time>2013-05-09T07:51:17Z</time>
      </trkpt>
      <trkpt lat="44.64521" lon="3.83409">
        <ele>1080</ele>
        <time>2013-05-09T07:51:25Z</time>
      </trkpt>
      <trkpt lat="44.64522" lon="3.83408">
        <ele>1080.2</ele>
        <time>2013-05-09T07:51:26Z</time>
      </trkpt>
      <trkpt lat="44.64537" lon="3.83407">
        <ele>1083.2</ele>
        <time>2013-05-09T07:51:40Z</time>
      </trkpt>
      <trkpt lat="44.64546" lon="3.83407">
        <ele>1086.3</ele>
        <time>2013-05-09T07:51:48Z</time>
      </trkpt>
      <trkpt lat="44.64554" lon="3.83408">
        <ele>1088.1</ele>
        <time>2013-05-09T07:51:55Z</time>
      </trkpt>
      <trkpt lat="44.64562" lon="3.83407">
        <ele>1089.8</ele>
        <time>2013-05-09T07:52:03Z</time>
      </trkpt>
      <trkpt lat="44.6457" lon="3.83403">
        <ele>1091.6</ele>
        <time>2013-05-09T07:52:11Z</time>
      </trkpt>
      <trkpt lat="44.64578" lon="3.83398">
        <ele>1092.9</ele>
        <time>2013-05-09T07:52:17Z</time>
      </trkpt>
      <trkpt lat="44.64586" lon="3.83393">
        <ele>1094.5</ele>
        <time>2013-05-09T07:52:24Z</time>
      </trkpt>
      <trkpt lat="44.64594" lon="3.8339">
        <ele>1096.2</ele>
        <time>2013-05-09T07:52:32Z</time>
      </trkpt>
      <trkpt lat="44.64595" lon="3.8339">
        <ele>1096.5</ele>
        <time>2013-05-09T07:52:33Z</time>
      </trkpt>
      <trkpt lat="44.6461" lon="3.83381">
        <ele>1099</ele>
        <time>2013-05-09T07:52:46Z</time>
      </trkpt>
      <trkpt lat="44.64619" lon="3.83378">
        <ele>1100</ele>
        <time>2013-05-09T07:52:53Z</time>
      </trkpt>
      <trkpt lat="44.64627" lon="3.83377">
        <ele>1101.4</ele>
        <time>2013-05-09T07:52:59Z</time>
      </trkpt>
      <trkpt lat="44.64635" lon="3.83375">
        <ele>1103.6</ele>
        <time>2013-05-09T07:53:06Z</time>
      </trkpt>
      <trkpt lat="44.64642" lon="3.8337">
        <ele>1105.1</ele>
        <time>2013-05-09T07:53:13Z</time>
      </trkpt>
      <trkpt lat="44.64651" lon="3.83366">
        <ele>1107.2</ele>
        <time>2013-05-09T07:53:22Z</time>
      </trkpt>
      <trkpt lat="44.64659" lon="3.83361">
        <ele>1108.4</ele>
        <time>2013-05-09T07:53:30Z</time>
      </trkpt>
      <trkpt lat="44.64666" lon="3.83357">
        <ele>1109.5</ele>
        <time>2013-05-09T07:53:37Z</time>
      </trkpt>
      <trkpt lat="44.64667" lon="3.83357">
        <ele>1109.7</ele>
        <time>2013-05-09T07:53:38Z</time>
      </trkpt>
      <trkpt lat="44.64682" lon="3.83351">
        <ele>1111.8</ele>
        <time>2013-05-09T07:53:49Z</time>
      </trkpt>
      <trkpt lat="44.6469" lon="3.83345">
        <ele>1112.8</ele>
        <time>2013-05-09T07:53:56Z</time>
      </trkpt>
      <trkpt lat="44.64697" lon="3.83339">
        <ele>1113.8</ele>
        <time>2013-05-09T07:54:04Z</time>
      </trkpt>
      <trkpt lat="44.64705" lon="3.83339">
        <ele>1113.9</ele>
        <time>2013-05-09T07:54:11Z</time>
      </trkpt>
      <trkpt lat="44.64713" lon="3.83338">
        <ele>1113.9</ele>
        <time>2013-05-09T07:54:25Z</time>
      </trkpt>
      <trkpt lat="44.64721" lon="3.83336">
        <ele>1114.4</ele>
        <time>2013-05-09T07:54:33Z</time>
      </trkpt>
      <trkpt lat="44.64729" lon="3.83334">
        <ele>1114.9</ele>
        <time>2013-05-09T07:54:39Z</time>
      </trkpt>
      <trkpt lat="44.64731" lon="3.83334">
        <ele>1115</ele>
        <time>2013-05-09T07:54:40Z</time>
      </trkpt>
      <trkpt lat="44.64746" lon="3.8333">
        <ele>1116.8</ele>
        <time>2013-05-09T07:54:55Z</time>
      </trkpt>
      <trkpt lat="44.64754" lon="3.83326">
        <ele>1117.4</ele>
        <time>2013-05-09T07:55:04Z</time>
      </trkpt>
      <trkpt lat="44.64763" lon="3.83326">
        <ele>1118</ele>
        <time>2013-05-09T07:55:10Z</time>
      </trkpt>
      <trkpt lat="44.64772" lon="3.83324">
        <ele>1118.9</ele>
        <time>2013-05-09T07:55:18Z</time>
      </trkpt>
      <trkpt lat="44.6478" lon="3.8332">
        <ele>1119.4</ele>
        <time>2013-05-09T07:55:25Z</time>
      </trkpt>
      <trkpt lat="44.64787" lon="3.83315">
        <ele>1119.3</ele>
        <time>2013-05-09T07:55:32Z</time>
      </trkpt>
      <trkpt lat="44.64796" lon="3.83312">
        <ele>1119.8</ele>
        <time>2013-05-09T07:55:40Z</time>
      </trkpt>
      <trkpt lat="44.64797" lon="3.83311">
        <ele>1119.8</ele>
        <time>2013-05-09T07:55:41Z</time>
      </trkpt>
      <trkpt lat="44.64811" lon="3.83303">
        <ele>1120.1</ele>
        <time>2013-05-09T07:55:53Z</time>
      </trkpt>
      <trkpt lat="44.64819" lon="3.83299">
        <ele>1120.5</ele>
        <time>2013-05-09T07:56:01Z</time>
      </trkpt>
      <trkpt lat="44.64828" lon="3.83297">
        <ele>1120.7</ele>
        <time>2013-05-09T07:56:08Z</time>
      </trkpt>
      <trkpt lat="44.64836" lon="3.83295">
        <ele>1120.5</ele>
        <time>2013-05-09T07:56:15Z</time>
      </trkpt>
      <trkpt lat="44.64845" lon="3.83291">
        <ele>1120.7</ele>
        <time>2013-05-09T07:56:23Z</time>
      </trkpt>
      <trkpt lat="44.64853" lon="3.83288">
        <ele>1121.4</ele>
        <time>2013-05-09T07:56:31Z</time>
      </trkpt>
      <trkpt lat="44.64861" lon="3.83288">
        <ele>1121.7</ele>
        <time>2013-05-09T07:56:39Z</time>
      </trkpt>
      <trkpt lat="44.6487" lon="3.83286">
        <ele>1122.4</ele>
        <time>2013-05-09T07:56:47Z</time>
      </trkpt>
      <trkpt lat="44.64871" lon="3.83286">
        <ele>1122.4</ele>
        <time>2013-05-09T07:56:48Z</time>
      </trkpt>
      <trkpt lat="44.64886" lon="3.83288">
        <ele>1123.4</ele>
        <time>2013-05-09T07:57:03Z</time>
      </trkpt>
      <trkpt lat="44.64892" lon="3.83296">
        <ele>1123.4</ele>
        <time>2013-05-09T07:57:09Z</time>
      </trkpt>
      <trkpt lat="44.64899" lon="3.83303">
        <ele>1123.2</ele>
        <time>2013-05-09T07:57:15Z</time>
      </trkpt>
      <trkpt lat="44.64906" lon="3.83311">
        <ele>1122.6</ele>
        <time>2013-05-09T07:57:22Z</time>
      </trkpt>
      <trkpt lat="44.64912" lon="3.83318">
        <ele>1122.2</ele>
        <time>2013-05-09T07:57:30Z</time>
      </trkpt>
      <trkpt lat="44.64917" lon="3.83327">
        <ele>1122.1</ele>
        <time>2013-05-09T07:57:36Z</time>
      </trkpt>
      <trkpt lat="44.64924" lon="3.83334">
        <ele>1122.2</ele>
        <time>2013-05-09T07:57:44Z</time>
      </trkpt>
      <trkpt lat="44.6493" lon="3.83343">
        <ele>1123.2</ele>
        <time>2013-05-09T07:57:52Z</time>
      </trkpt>
      <trkpt lat="44.64931" lon="3.83344">
        <ele>1123.2</ele>
        <time>2013-05-09T07:57:53Z</time>
      </trkpt>
      <trkpt lat="44.64941" lon="3.83362">
        <ele>1123.3</ele>
        <time>2013-05-09T07:58:06Z</time>
      </trkpt>
      <trkpt lat="44.64945" lon="3.83373">
        <ele>1123.4</ele>
        <time>2013-05-09T07:58:13Z</time>
      </trkpt>
      <trkpt lat="44.64947" lon="3.83383">
        <ele>1122.6</ele>
        <time>2013-05-09T07:58:30Z</time>
      </trkpt>
      <trkpt lat="44.64952" lon="3.83393">
        <ele>1121.9</ele>
        <time>2013-05-09T07:58:38Z</time>
      </trkpt>
      <trkpt lat="44.64956" lon="3.83403">
        <ele>1121.6</ele>
        <time>2013-05-09T07:58:45Z</time>
      </trkpt>
      <trkpt lat="44.64961" lon="3.83413">
        <ele>1121.3</ele>
        <time>2013-05-09T07:58:53Z</time>
      </trkpt>
      <trkpt lat="44.64962" lon="3.83414">
        <ele>1121.3</ele>
        <time>2013-05-09T07:58:54Z</time>
      </trkpt>
      <trkpt lat="44.64971" lon="3.83433">
        <ele>1121.1</ele>
        <time>2013-05-09T07:59:14Z</time>
      </trkpt>
      <trkpt lat="44.64976" lon="3.83443">
        <ele>1120.9</ele>
        <time>2013-05-09T07:59:21Z</time>
      </trkpt>
      <trkpt lat="44.64981" lon="3.83453">
        <ele>1120.9</ele>
        <time>2013-05-09T07:59:30Z</time>
      </trkpt>
      <trkpt lat="44.64986" lon="3.83464">
        <ele>1120.7</ele>
        <time>2013-05-09T07:59:37Z</time>
      </trkpt>
      <trkpt lat="44.64989" lon="3.83474">
        <ele>1120.4</ele>
        <time>2013-05-09T07:59:44Z</time>
      </trkpt>
      <trkpt lat="44.64993" lon="3.83484">
        <ele>1120.3</ele>
        <time>2013-05-09T07:59:50Z</time>
      </trkpt>
      <trkpt lat="44.64996" lon="3.83494">
        <ele>1120</ele>
        <time>2013-05-09T07:59:56Z</time>
      </trkpt>
      <trkpt lat="44.64997" lon="3.83495">
        <ele>1119.9</ele>
        <time>2013-05-09T07:59:57Z</time>
      </trkpt>
      <trkpt lat="44.65005" lon="3.83514">
        <ele>1119.7</ele>
        <time>2013-05-09T08:00:09Z</time>
      </trkpt>
      <trkpt lat="44.65011" lon="3.83523">
        <ele>1119.6</ele>
        <time>2013-05-09T08:00:17Z</time>
      </trkpt>
      <trkpt lat="44.65019" lon="3.83529">
        <ele>1119.7</ele>
        <time>2013-05-09T08:00:24Z</time>
      </trkpt>
      <trkpt lat="44.65025" lon="3.83535">
        <ele>1119.9</ele>
        <time>2013-05-09T08:00:31Z</time>
      </trkpt>
      <trkpt lat="44.65032" lon="3.83541">
        <ele>1120.6</ele>
        <time>2013-05-09T08:00:38Z</time>
      </trkpt>
      <trkpt lat="44.65039" lon="3.83546">
        <ele>1120.9</ele>
        <time>2013-05-09T08:00:44Z</time>
      </trkpt>
      <trkpt lat="44.65047" lon="3.8355">
        <ele>1121.5</ele>
        <time>2013-05-09T08:00:51Z</time>
      </trkpt>
      <trkpt lat="44.65055" lon="3.83555">
        <ele>1122.5</ele>
        <time>2013-05-09T08:00:58Z</time>
      </trkpt>
      <trkpt lat="44.65056" lon="3.83556">
        <ele>1122.7</ele>
        <time>2013-05-09T08:00:59Z</time>
      </trkpt>
      <trkpt lat="44.65071" lon="3.83562">
        <ele>1123.6</ele>
        <time>2013-05-09T08:01:15Z</time>
      </trkpt>
      <trkpt lat="44.65079" lon="3.83567">
        <ele>1123.7</ele>
        <time>2013-05-09T08:01:23Z</time>
      </trkpt>
      <trkpt lat="44.65085" lon="3.83573">
        <ele>1123.7</ele>
        <time>2013-05-09T08:01:30Z</time>
      </trkpt>
      <trkpt lat="44.65091" lon="3.8358">
        <ele>1123.7</ele>
        <time>2013-05-09T08:01:35Z</time>
      </trkpt>
      <trkpt lat="44.65098" lon="3.83587">
        <ele>1124</ele>
        <time>2013-05-09T08:01:41Z</time>
      </trkpt>
      <trkpt lat="44.65104" lon="3.83593">
        <ele>1124.1</ele>
        <time>2013-05-09T08:01:47Z</time>
      </trkpt>
      <trkpt lat="44.65111" lon="3.836">
        <ele>1124.2</ele>
        <time>2013-05-09T08:01:52Z</time>
      </trkpt>
      <trkpt lat="44.65118" lon="3.83607">
        <ele>1124.6</ele>
        <time>2013-05-09T08:02:02Z</time>
      </trkpt>
      <trkpt lat="44.65118" lon="3.83608">
        <ele>1124.7</ele>
        <time>2013-05-09T08:02:03Z</time>
      </trkpt>
      <trkpt lat="44.65129" lon="3.8362">
        <ele>1124.7</ele>
        <time>2013-05-09T08:02:38Z</time>
      </trkpt>
      <trkpt lat="44.65129" lon="3.83632">
        <ele>1125.1</ele>
        <time>2013-05-09T08:02:44Z</time>
      </trkpt>
      <trkpt lat="44.65122" lon="3.83639">
        <ele>1125.8</ele>
        <time>2013-05-09T08:02:54Z</time>
      </trkpt>
      <trkpt lat="44.65114" lon="3.83642">
        <ele>1126.5</ele>
        <time>2013-05-09T08:03:05Z</time>
      </trkpt>
      <trkpt lat="44.65113" lon="3.83643">
        <ele>1126.6</ele>
        <time>2013-05-09T08:03:06Z</time>
      </trkpt>
      <trkpt lat="44.65097" lon="3.83647">
        <ele>1127.7</ele>
        <time>2013-05-09T08:03:23Z</time>
      </trkpt>
      <trkpt lat="44.65089" lon="3.83648">
        <ele>1128.1</ele>
        <time>2013-05-09T08:03:31Z</time>
      </trkpt>
      <trkpt lat="44.65081" lon="3.8365">
        <ele>1128.3</ele>
        <time>2013-05-09T08:03:40Z</time>
      </trkpt>
      <trkpt lat="44.65074" lon="3.83654">
        <ele>1128.7</ele>
        <time>2013-05-09T08:03:46Z</time>
      </trkpt>
      <trkpt lat="44.65066" lon="3.83658">
        <ele>1128.9</ele>
        <time>2013-05-09T08:03:54Z</time>
      </trkpt>
      <trkpt lat="44.65058" lon="3.83662">
        <ele>1129.4</ele>
        <time>2013-05-09T08:04:02Z</time>
      </trkpt>
      <trkpt lat="44.6505" lon="3.83666">
        <ele>1130.2</ele>
        <time>2013-05-09T08:04:10Z</time>
      </trkpt>
      <trkpt lat="44.65048" lon="3.83666">
        <ele>1130.3</ele>
        <time>2013-05-09T08:04:11Z</time>
      </trkpt>
      <trkpt lat="44.65035" lon="3.83677">
        <ele>1132.1</ele>
        <time>2013-05-09T08:04:26Z</time>
      </trkpt>
      <trkpt lat="44.65028" lon="3.83683">
        <ele>1133.2</ele>
        <time>2013-05-09T08:04:35Z</time>
      </trkpt>
      <trkpt lat="44.65021" lon="3.8369">
        <ele>1135.2</ele>
        <time>2013-05-09T08:04:45Z</time>
      </trkpt>
      <trkpt lat="44.65022" lon="3.83701">
        <ele>1137.8</ele>
        <time>2013-05-09T08:07:29Z</time>
      </trkpt>
      <trkpt lat="44.65017" lon="3.83704">
        <ele>1137.9</ele>
        <time>2013-05-09T08:07:30Z</time>
      </trkpt>
      <trkpt lat="44.65029" lon="3.83693">
        <ele>1140.4</ele>
        <time>2013-05-09T08:12:11Z</time>
      </trkpt>
      <trkpt lat="44.65023" lon="3.83704">
        <ele>1143.2</ele>
        <time>2013-05-09T08:18:34Z</time>
      </trkpt>
      <trkpt lat="44.65014" lon="3.83701">
        <ele>1143.7</ele>
        <time>2013-05-09T08:27:06Z</time>
      </trkpt>
      <trkpt lat="44.64999" lon="3.83703">
        <ele>1143.9</ele>
        <time>2013-05-09T08:27:17Z</time>
      </trkpt>
      <trkpt lat="44.64991" lon="3.83705">
        <ele>1143.9</ele>
        <time>2013-05-09T08:27:23Z</time>
      </trkpt>
      <trkpt lat="44.64984" lon="3.8371">
        <ele>1143.4</ele>
        <time>2013-05-09T08:27:29Z</time>
      </trkpt>
      <trkpt lat="44.64976" lon="3.83714">
        <ele>1142.9</ele>
        <time>2013-05-09T08:27:36Z</time>
      </trkpt>
      <trkpt lat="44.6497" lon="3.83717">
        <ele>1142.6</ele>
        <time>2013-05-09T08:28:00Z</time>
      </trkpt>
      <trkpt lat="44.64962" lon="3.83721">
        <ele>1142.8</ele>
        <time>2013-05-09T08:28:10Z</time>
      </trkpt>
      <trkpt lat="44.64961" lon="3.83721">
        <ele>1142.9</ele>
        <time>2013-05-09T08:28:11Z</time>
      </trkpt>
      <trkpt lat="44.64946" lon="3.83728">
        <ele>1144.2</ele>
        <time>2013-05-09T08:28:23Z</time>
      </trkpt>
      <trkpt lat="44.64937" lon="3.8373">
        <ele>1144.6</ele>
        <time>2013-05-09T08:28:30Z</time>
      </trkpt>
      <trkpt lat="44.6493" lon="3.83736">
        <ele>1145</ele>
        <time>2013-05-09T08:28:37Z</time>
      </trkpt>
      <trkpt lat="44.64923" lon="3.83742">
        <ele>1145.4</ele>
        <time>2013-05-09T08:28:43Z</time>
      </trkpt>
      <trkpt lat="44.64915" lon="3.83746">
        <ele>1146</ele>
        <time>2013-05-09T08:28:50Z</time>
      </trkpt>
      <trkpt lat="44.64907" lon="3.8375">
        <ele>1146.6</ele>
        <time>2013-05-09T08:28:57Z</time>
      </trkpt>
      <trkpt lat="44.649" lon="3.83756">
        <ele>1147.5</ele>
        <time>2013-05-09T08:29:07Z</time>
      </trkpt>
      <trkpt lat="44.64892" lon="3.8376">
        <ele>1148.6</ele>
        <time>2013-05-09T08:29:13Z</time>
      </trkpt>
      <trkpt lat="44.64891" lon="3.8376">
        <ele>1148.7</ele>
        <time>2013-05-09T08:29:14Z</time>
      </trkpt>
      <trkpt lat="44.64878" lon="3.83773">
        <ele>1150.7</ele>
        <time>2013-05-09T08:29:28Z</time>
      </trkpt>
      <trkpt lat="44.64872" lon="3.83782">
        <ele>1151.9</ele>
        <time>2013-05-09T08:29:35Z</time>
      </trkpt>
      <trkpt lat="44.64868" lon="3.83792">
        <ele>1153.1</ele>
        <time>2013-05-09T08:29:42Z</time>
      </trkpt>
      <trkpt lat="44.64864" lon="3.83803">
        <ele>1154.1</ele>
        <time>2013-05-09T08:29:48Z</time>
      </trkpt>
      <trkpt lat="44.6486" lon="3.83813">
        <ele>1154.8</ele>
        <time>2013-05-09T08:29:53Z</time>
      </trkpt>
      <trkpt lat="44.64855" lon="3.83821">
        <ele>1155.8</ele>
        <time>2013-05-09T08:30:00Z</time>
      </trkpt>
      <trkpt lat="44.64853" lon="3.83833">
        <ele>1156.8</ele>
        <time>2013-05-09T08:30:06Z</time>
      </trkpt>
      <trkpt lat="44.6485" lon="3.83845">
        <ele>1157.6</ele>
        <time>2013-05-09T08:30:16Z</time>
      </trkpt>
      <trkpt lat="44.64849" lon="3.83845">
        <ele>1157.7</ele>
        <time>2013-05-09T08:30:17Z</time>
      </trkpt>
      <trkpt lat="44.6484" lon="3.83864">
        <ele>1160.5</ele>
        <time>2013-05-09T08:30:34Z</time>
      </trkpt>
      <trkpt lat="44.64837" lon="3.83875">
        <ele>1161.1</ele>
        <time>2013-05-09T08:30:39Z</time>
      </trkpt>
      <trkpt lat="44.64832" lon="3.83885">
        <ele>1162.3</ele>
        <time>2013-05-09T08:30:46Z</time>
      </trkpt>
      <trkpt lat="44.64828" lon="3.83896">
        <ele>1162.5</ele>
        <time>2013-05-09T08:31:05Z</time>
      </trkpt>
      <trkpt lat="44.64826" lon="3.83908">
        <ele>1161.9</ele>
        <time>2013-05-09T08:31:11Z</time>
      </trkpt>
      <trkpt lat="44.64824" lon="3.83919">
        <ele>1161.3</ele>
        <time>2013-05-09T08:31:16Z</time>
      </trkpt>
      <trkpt lat="44.64822" lon="3.83931">
        <ele>1160.2</ele>
        <time>2013-05-09T08:31:23Z</time>
      </trkpt>
      <trkpt lat="44.64822" lon="3.83932">
        <ele>1160.1</ele>
        <time>2013-05-09T08:31:24Z</time>
      </trkpt>
      <trkpt lat="44.64818" lon="3.83952">
        <ele>1159</ele>
        <time>2013-05-09T08:31:35Z</time>
      </trkpt>
      <trkpt lat="44.64817" lon="3.83963">
        <ele>1158.3</ele>
        <time>2013-05-09T08:31:41Z</time>
      </trkpt>
      <trkpt lat="44.64817" lon="3.83973">
        <ele>1157.8</ele>
        <time>2013-05-09T08:31:46Z</time>
      </trkpt>
      <trkpt lat="44.64816" lon="3.83984">
        <ele>1157</ele>
        <time>2013-05-09T08:31:51Z</time>
      </trkpt>
      <trkpt lat="44.64815" lon="3.83996">
        <ele>1156.6</ele>
        <time>2013-05-09T08:31:58Z</time>
      </trkpt>
      <trkpt lat="44.64812" lon="3.84008">
        <ele>1156.6</ele>
        <time>2013-05-09T08:32:05Z</time>
      </trkpt>
      <trkpt lat="44.64811" lon="3.8402">
        <ele>1156.2</ele>
        <time>2013-05-09T08:32:12Z</time>
      </trkpt>
      <trkpt lat="44.64809" lon="3.84031">
        <ele>1155.9</ele>
        <time>2013-05-09T08:32:18Z</time>
      </trkpt>
      <trkpt lat="44.64807" lon="3.84042">
        <ele>1155.3</ele>
        <time>2013-05-09T08:32:25Z</time>
      </trkpt>
      <trkpt lat="44.64806" lon="3.84044">
        <ele>1155.2</ele>
        <time>2013-05-09T08:32:26Z</time>
      </trkpt>
      <trkpt lat="44.64806" lon="3.84065">
        <ele>1153.3</ele>
        <time>2013-05-09T08:32:38Z</time>
      </trkpt>
      <trkpt lat="44.64805" lon="3.84077">
        <ele>1152.3</ele>
        <time>2013-05-09T08:32:44Z</time>
      </trkpt>
      <trkpt lat="44.64805" lon="3.84088">
        <ele>1152.3</ele>
        <time>2013-05-09T08:32:50Z</time>
      </trkpt>
      <trkpt lat="44.64805" lon="3.84099">
        <ele>1152.5</ele>
        <time>2013-05-09T08:32:56Z</time>
      </trkpt>
      <trkpt lat="44.64803" lon="3.84111">
        <ele>1152.3</ele>
        <time>2013-05-09T08:33:03Z</time>
      </trkpt>
      <trkpt lat="44.64803" lon="3.84124">
        <ele>1152</ele>
        <time>2013-05-09T08:33:10Z</time>
      </trkpt>
      <trkpt lat="44.648" lon="3.84135">
        <ele>1151.7</ele>
        <time>2013-05-09T08:33:17Z</time>
      </trkpt>
      <trkpt lat="44.64799" lon="3.84146">
        <ele>1151.3</ele>
        <time>2013-05-09T08:33:24Z</time>
      </trkpt>
      <trkpt lat="44.64796" lon="3.84157">
        <ele>1150.7</ele>
        <time>2013-05-09T08:33:30Z</time>
      </trkpt>
      <trkpt lat="44.64796" lon="3.84158">
        <ele>1150.4</ele>
        <time>2013-05-09T08:33:31Z</time>
      </trkpt>
      <trkpt lat="44.64792" lon="3.84179">
        <ele>1149.5</ele>
        <time>2013-05-09T08:33:44Z</time>
      </trkpt>
      <trkpt lat="44.64789" lon="3.8419">
        <ele>1149.7</ele>
        <time>2013-05-09T08:33:52Z</time>
      </trkpt>
      <trkpt lat="44.6479" lon="3.84201">
        <ele>1149.5</ele>
        <time>2013-05-09T08:33:58Z</time>
      </trkpt>
      <trkpt lat="44.64793" lon="3.84213">
        <ele>1150.1</ele>
        <time>2013-05-09T08:34:05Z</time>
      </trkpt>
      <trkpt lat="44.64793" lon="3.84224">
        <ele>1150.7</ele>
        <time>2013-05-09T08:34:12Z</time>
      </trkpt>
      <trkpt lat="44.64791" lon="3.84235">
        <ele>1151</ele>
        <time>2013-05-09T08:34:18Z</time>
      </trkpt>
      <trkpt lat="44.64788" lon="3.84247">
        <ele>1151.4</ele>
        <time>2013-05-09T08:34:25Z</time>
      </trkpt>
      <trkpt lat="44.64785" lon="3.84257">
        <ele>1151.3</ele>
        <time>2013-05-09T08:34:31Z</time>
      </trkpt>
      <trkpt lat="44.64785" lon="3.84259">
        <ele>1151.2</ele>
        <time>2013-05-09T08:34:32Z</time>
      </trkpt>
      <trkpt lat="44.64784" lon="3.84281">
        <ele>1148.9</ele>
        <time>2013-05-09T08:34:44Z</time>
      </trkpt>
      <trkpt lat="44.64782" lon="3.84292">
        <ele>1148.4</ele>
        <time>2013-05-09T08:34:51Z</time>
      </trkpt>
      <trkpt lat="44.64782" lon="3.84304">
        <ele>1148.5</ele>
        <time>2013-05-09T08:34:58Z</time>
      </trkpt>
      <trkpt lat="44.6478" lon="3.84317">
        <ele>1148.8</ele>
        <time>2013-05-09T08:35:05Z</time>
      </trkpt>
      <trkpt lat="44.64779" lon="3.84329">
        <ele>1148.6</ele>
        <time>2013-05-09T08:35:13Z</time>
      </trkpt>
      <trkpt lat="44.64779" lon="3.8434">
        <ele>1148.4</ele>
        <time>2013-05-09T08:35:20Z</time>
      </trkpt>
      <trkpt lat="44.64779" lon="3.84352">
        <ele>1147.7</ele>
        <time>2013-05-09T08:35:28Z</time>
      </trkpt>
      <trkpt lat="44.64777" lon="3.84364">
        <ele>1146.5</ele>
        <time>2013-05-09T08:35:35Z</time>
      </trkpt>
      <trkpt lat="44.64777" lon="3.84366">
        <ele>1146.4</ele>
        <time>2013-05-09T08:35:36Z</time>
      </trkpt>
      <trkpt lat="44.64775" lon="3.84387">
        <ele>1144</ele>
        <time>2013-05-09T08:35:48Z</time>
      </trkpt>
      <trkpt lat="44.64772" lon="3.84398">
        <ele>1143.4</ele>
        <time>2013-05-09T08:35:54Z</time>
      </trkpt>
      <trkpt lat="44.64769" lon="3.84408">
        <ele>1142.8</ele>
        <time>2013-05-09T08:36:00Z</time>
      </trkpt>
      <trkpt lat="44.64766" lon="3.84419">
        <ele>1142.9</ele>
        <time>2013-05-09T08:36:30Z</time>
      </trkpt>
      <trkpt lat="44.64762" lon="3.84428">
        <ele>1142.1</ele>
        <time>2013-05-09T08:36:37Z</time>
      </trkpt>
      <trkpt lat="44.64761" lon="3.8443">
        <ele>1142</ele>
        <time>2013-05-09T08:36:38Z</time>
      </trkpt>
      <trkpt lat="44.64753" lon="3.84449">
        <ele>1141.3</ele>
        <time>2013-05-09T08:36:50Z</time>
      </trkpt>
      <trkpt lat="44.64749" lon="3.84459">
        <ele>1140.7</ele>
        <time>2013-05-09T08:36:57Z</time>
      </trkpt>
      <trkpt lat="44.64745" lon="3.8447">
        <ele>1140</ele>
        <time>2013-05-09T08:37:03Z</time>
      </trkpt>
      <trkpt lat="44.64741" lon="3.84479">
        <ele>1139.1</ele>
        <time>2013-05-09T08:37:08Z</time>
      </trkpt>
      <trkpt lat="44.64738" lon="3.84489">
        <ele>1138.3</ele>
        <time>2013-05-09T08:37:14Z</time>
      </trkpt>
      <trkpt lat="44.64734" lon="3.84499">
        <ele>1137.9</ele>
        <time>2013-05-09T08:37:20Z</time>
      </trkpt>
      <trkpt lat="44.64731" lon="3.8451">
        <ele>1137.7</ele>
        <time>2013-05-09T08:37:26Z</time>
      </trkpt>
      <trkpt lat="44.64727" lon="3.84519">
        <ele>1137.1</ele>
        <time>2013-05-09T08:37:32Z</time>
      </trkpt>
      <trkpt lat="44.64722" lon="3.84528">
        <ele>1136.5</ele>
        <time>2013-05-09T08:37:38Z</time>
      </trkpt>
      <trkpt lat="44.64722" lon="3.8453">
        <ele>1136.5</ele>
        <time>2013-05-09T08:37:39Z</time>
      </trkpt>
      <trkpt lat="44.64716" lon="3.8455">
        <ele>1136.3</ele>
        <time>2013-05-09T08:37:51Z</time>
      </trkpt>
      <trkpt lat="44.64712" lon="3.84559">
        <ele>1136</ele>
        <time>2013-05-09T08:37:57Z</time>
      </trkpt>
      <trkpt lat="44.64709" lon="3.84571">
        <ele>1135.8</ele>
        <time>2013-05-09T08:38:04Z</time>
      </trkpt>
      <trkpt lat="44.64707" lon="3.84583">
        <ele>1135.9</ele>
        <time>2013-05-09T08:38:10Z</time>
      </trkpt>
      <trkpt lat="44.64703" lon="3.84593">
        <ele>1136.6</ele>
        <time>2013-05-09T08:38:19Z</time>
      </trkpt>
      <trkpt lat="44.64696" lon="3.84602">
        <ele>1137.9</ele>
        <time>2013-05-09T08:38:25Z</time>
      </trkpt>
      <trkpt lat="44.64691" lon="3.8461">
        <ele>1138.7</ele>
        <time>2013-05-09T08:38:31Z</time>
      </trkpt>
      <trkpt lat="44.64689" lon="3.84621">
        <ele>1139.3</ele>
        <time>2013-05-09T08:38:37Z</time>
      </trkpt>
      <trkpt lat="44.64689" lon="3.84632">
        <ele>1139.6</ele>
        <time>2013-05-09T08:38:41Z</time>
      </trkpt>
      <trkpt lat="44.64689" lon="3.84634">
        <ele>1139.7</ele>
        <time>2013-05-09T08:38:42Z</time>
      </trkpt>
      <trkpt lat="44.6469" lon="3.84654">
        <ele>1140</ele>
        <time>2013-05-09T08:38:53Z</time>
      </trkpt>
      <trkpt lat="44.64689" lon="3.84666">
        <ele>1140.1</ele>
        <time>2013-05-09T08:39:00Z</time>
      </trkpt>
      <trkpt lat="44.64685" lon="3.84669">
        <ele>1140.5</ele>
        <time>2013-05-09T08:39:40Z</time>
      </trkpt>
      <trkpt lat="44.64683" lon="3.84679">
        <ele>1140.9</ele>
        <time>2013-05-09T08:39:46Z</time>
      </trkpt>
      <trkpt lat="44.64683" lon="3.84681">
        <ele>1140.9</ele>
        <time>2013-05-09T08:39:47Z</time>
      </trkpt>
      <trkpt lat="44.64682" lon="3.84703">
        <ele>1141.8</ele>
        <time>2013-05-09T08:39:59Z</time>
      </trkpt>
      <trkpt lat="44.64679" lon="3.84714">
        <ele>1141.8</ele>
        <time>2013-05-09T08:40:06Z</time>
      </trkpt>
      <trkpt lat="44.64677" lon="3.84725">
        <ele>1142.2</ele>
        <time>2013-05-09T08:40:12Z</time>
      </trkpt>
      <trkpt lat="44.64677" lon="3.84736">
        <ele>1142.2</ele>
        <time>2013-05-09T08:40:18Z</time>
      </trkpt>
      <trkpt lat="44.64676" lon="3.84748">
        <ele>1142.6</ele>
        <time>2013-05-09T08:40:25Z</time>
      </trkpt>
      <trkpt lat="44.64676" lon="3.84759">
        <ele>1142.9</ele>
        <time>2013-05-09T08:40:31Z</time>
      </trkpt>
      <trkpt lat="44.64675" lon="3.84771">
        <ele>1143.3</ele>
        <time>2013-05-09T08:40:37Z</time>
      </trkpt>
      <trkpt lat="44.64673" lon="3.84782">
        <ele>1144</ele>
        <time>2013-05-09T08:40:44Z</time>
      </trkpt>
      <trkpt lat="44.64669" lon="3.84793">
        <ele>1144.7</ele>
        <time>2013-05-09T08:40:50Z</time>
      </trkpt>
      <trkpt lat="44.64668" lon="3.84796">
        <ele>1144.9</ele>
        <time>2013-05-09T08:40:51Z</time>
      </trkpt>
      <trkpt lat="44.64664" lon="3.84815">
        <ele>1146.7</ele>
        <time>2013-05-09T08:41:02Z</time>
      </trkpt>
      <trkpt lat="44.64663" lon="3.84826">
        <ele>1148.6</ele>
        <time>2013-05-09T08:41:09Z</time>
      </trkpt>
      <trkpt lat="44.64663" lon="3.84838">
        <ele>1150.1</ele>
        <time>2013-05-09T08:41:15Z</time>
      </trkpt>
      <trkpt lat="44.64661" lon="3.84849">
        <ele>1151.1</ele>
        <time>2013-05-09T08:41:21Z</time>
      </trkpt>
      <trkpt lat="44.64657" lon="3.8486">
        <ele>1151.8</ele>
        <time>2013-05-09T08:41:25Z</time>
      </trkpt>
      <trkpt lat="44.64657" lon="3.8487">
        <ele>1152.8</ele>
        <time>2013-05-09T08:41:30Z</time>
      </trkpt>
      <trkpt lat="44.6466" lon="3.8488">
        <ele>1153.4</ele>
        <time>2013-05-09T08:41:34Z</time>
      </trkpt>
      <trkpt lat="44.64661" lon="3.84892">
        <ele>1153.6</ele>
        <time>2013-05-09T08:41:39Z</time>
      </trkpt>
      <trkpt lat="44.64659" lon="3.84903">
        <ele>1154</ele>
        <time>2013-05-09T08:41:45Z</time>
      </trkpt>
      <trkpt lat="44.64658" lon="3.84914">
        <ele>1154.2</ele>
        <time>2013-05-09T08:41:50Z</time>
      </trkpt>
      <trkpt lat="44.64657" lon="3.84925">
        <ele>1154.8</ele>
        <time>2013-05-09T08:41:56Z</time>
      </trkpt>
      <trkpt lat="44.64657" lon="3.84927">
        <ele>1154.9</ele>
        <time>2013-05-09T08:41:57Z</time>
      </trkpt>
      <trkpt lat="44.64655" lon="3.84949">
        <ele>1155.7</ele>
        <time>2013-05-09T08:42:09Z</time>
      </trkpt>
      <trkpt lat="44.64655" lon="3.84961">
        <ele>1155.8</ele>
        <time>2013-05-09T08:42:15Z</time>
      </trkpt>
      <trkpt lat="44.64653" lon="3.84972">
        <ele>1156.3</ele>
        <time>2013-05-09T08:42:21Z</time>
      </trkpt>
      <trkpt lat="44.6465" lon="3.84983">
        <ele>1156.8</ele>
        <time>2013-05-09T08:42:28Z</time>
      </trkpt>
      <trkpt lat="44.64647" lon="3.84994">
        <ele>1157</ele>
        <time>2013-05-09T08:42:35Z</time>
      </trkpt>
      <trkpt lat="44.64647" lon="3.85006">
        <ele>1157.5</ele>
        <time>2013-05-09T08:42:41Z</time>
      </trkpt>
      <trkpt lat="44.64648" lon="3.85017">
        <ele>1158</ele>
        <time>2013-05-09T08:42:46Z</time>
      </trkpt>
      <trkpt lat="44.64646" lon="3.85028">
        <ele>1158.5</ele>
        <time>2013-05-09T08:42:52Z</time>
      </trkpt>
      <trkpt lat="44.64644" lon="3.85039">
        <ele>1158.9</ele>
        <time>2013-05-09T08:42:57Z</time>
      </trkpt>
      <trkpt lat="44.64644" lon="3.85041">
        <ele>1158.9</ele>
        <time>2013-05-09T08:42:58Z</time>
      </trkpt>
      <trkpt lat="44.64641" lon="3.85062">
        <ele>1158.3</ele>
        <time>2013-05-09T08:43:09Z</time>
      </trkpt>
      <trkpt lat="44.6464" lon="3.85074">
        <ele>1158.3</ele>
        <time>2013-05-09T08:43:16Z</time>
      </trkpt>
      <trkpt lat="44.64638" lon="3.85086">
        <ele>1158.1</ele>
        <time>2013-05-09T08:43:23Z</time>
      </trkpt>
      <trkpt lat="44.64633" lon="3.85095">
        <ele>1157.6</ele>
        <time>2013-05-09T08:43:29Z</time>
      </trkpt>
      <trkpt lat="44.64632" lon="3.85106">
        <ele>1157.4</ele>
        <time>2013-05-09T08:43:35Z</time>
      </trkpt>
      <trkpt lat="44.6463" lon="3.85117">
        <ele>1156.8</ele>
        <time>2013-05-09T08:43:41Z</time>
      </trkpt>
      <trkpt lat="44.64629" lon="3.85129">
        <ele>1156.2</ele>
        <time>2013-05-09T08:43:47Z</time>
      </trkpt>
      <trkpt lat="44.64629" lon="3.8514">
        <ele>1155.3</ele>
        <time>2013-05-09T08:43:53Z</time>
      </trkpt>
      <trkpt lat="44.64627" lon="3.85152">
        <ele>1155.1</ele>
        <time>2013-05-09T08:43:59Z</time>
      </trkpt>
      <trkpt lat="44.64627" lon="3.85154">
        <ele>1155.1</ele>
        <time>2013-05-09T08:44:00Z</time>
      </trkpt>
      <trkpt lat="44.64624" lon="3.85173">
        <ele>1155</ele>
        <time>2013-05-09T08:44:11Z</time>
      </trkpt>
      <trkpt lat="44.64622" lon="3.85184">
        <ele>1154.6</ele>
        <time>2013-05-09T08:44:17Z</time>
      </trkpt>
      <trkpt lat="44.64622" lon="3.85197">
        <ele>1154</ele>
        <time>2013-05-09T08:44:24Z</time>
      </trkpt>
      <trkpt lat="44.6462" lon="3.85209">
        <ele>1154</ele>
        <time>2013-05-09T08:44:30Z</time>
      </trkpt>
      <trkpt lat="44.64619" lon="3.8522">
        <ele>1154</ele>
        <time>2013-05-09T08:44:36Z</time>
      </trkpt>
      <trkpt lat="44.64617" lon="3.85231">
        <ele>1154</ele>
        <time>2013-05-09T08:44:43Z</time>
      </trkpt>
      <trkpt lat="44.64616" lon="3.85243">
        <ele>1154</ele>
        <time>2013-05-09T08:44:50Z</time>
      </trkpt>
      <trkpt lat="44.64616" lon="3.85255">
        <ele>1153.7</ele>
        <time>2013-05-09T08:44:56Z</time>
      </trkpt>
      <trkpt lat="44.64617" lon="3.85267">
        <ele>1153.3</ele>
        <time>2013-05-09T08:45:03Z</time>
      </trkpt>
      <trkpt lat="44.64617" lon="3.85269">
        <ele>1153.3</ele>
        <time>2013-05-09T08:45:04Z</time>
      </trkpt>
      <trkpt lat="44.64617" lon="3.8529">
        <ele>1153.5</ele>
        <time>2013-05-09T08:45:17Z</time>
      </trkpt>
      <trkpt lat="44.64616" lon="3.85302">
        <ele>1153.9</ele>
        <time>2013-05-09T08:45:24Z</time>
      </trkpt>
      <trkpt lat="44.64616" lon="3.85314">
        <ele>1154.1</ele>
        <time>2013-05-09T08:45:30Z</time>
      </trkpt>
      <trkpt lat="44.64614" lon="3.85325">
        <ele>1154.3</ele>
        <time>2013-05-09T08:45:36Z</time>
      </trkpt>
      <trkpt lat="44.64615" lon="3.85338">
        <ele>1154.7</ele>
        <time>2013-05-09T08:45:43Z</time>
      </trkpt>
      <trkpt lat="44.64614" lon="3.85349">
        <ele>1155.3</ele>
        <time>2013-05-09T08:45:50Z</time>
      </trkpt>
      <trkpt lat="44.64613" lon="3.85361">
        <ele>1155.7</ele>
        <time>2013-05-09T08:45:56Z</time>
      </trkpt>
      <trkpt lat="44.64607" lon="3.85369">
        <ele>1155.5</ele>
        <time>2013-05-09T08:46:02Z</time>
      </trkpt>
      <trkpt lat="44.64603" lon="3.85376">
        <ele>1155.3</ele>
        <time>2013-05-09T08:46:25Z</time>
      </trkpt>
      <trkpt lat="44.64603" lon="3.85381">
        <ele>1154.5</ele>
        <time>2013-05-09T08:46:26Z</time>
      </trkpt>
      <trkpt lat="44.64599" lon="3.85398">
        <ele>1152.9</ele>
        <time>2013-05-09T08:46:35Z</time>
      </trkpt>
      <trkpt lat="44.64594" lon="3.85407">
        <ele>1152.5</ele>
        <time>2013-05-09T08:46:41Z</time>
      </trkpt>
      <trkpt lat="44.64589" lon="3.85418">
        <ele>1152.1</ele>
        <time>2013-05-09T08:46:48Z</time>
      </trkpt>
      <trkpt lat="44.64585" lon="3.85428">
        <ele>1151.4</ele>
        <time>2013-05-09T08:46:54Z</time>
      </trkpt>
      <trkpt lat="44.64581" lon="3.85437">
        <ele>1150.9</ele>
        <time>2013-05-09T08:47:00Z</time>
      </trkpt>
      <trkpt lat="44.64577" lon="3.85449">
        <ele>1150.8</ele>
        <time>2013-05-09T08:47:08Z</time>
      </trkpt>
      <trkpt lat="44.64572" lon="3.85458">
        <ele>1150.9</ele>
        <time>2013-05-09T08:47:15Z</time>
      </trkpt>
      <trkpt lat="44.64566" lon="3.85467">
        <ele>1151.2</ele>
        <time>2013-05-09T08:47:22Z</time>
      </trkpt>
      <trkpt lat="44.6456" lon="3.85476">
        <ele>1151.6</ele>
        <time>2013-05-09T08:47:29Z</time>
      </trkpt>
      <trkpt lat="44.64559" lon="3.85478">
        <ele>1151.6</ele>
        <time>2013-05-09T08:47:30Z</time>
      </trkpt>
      <trkpt lat="44.64554" lon="3.85499">
        <ele>1152.6</ele>
        <time>2013-05-09T08:47:42Z</time>
      </trkpt>
      <trkpt lat="44.64548" lon="3.85509">
        <ele>1153</ele>
        <time>2013-05-09T08:47:50Z</time>
      </trkpt>
      <trkpt lat="44.64542" lon="3.85517">
        <ele>1153</ele>
        <time>2013-05-09T08:47:57Z</time>
      </trkpt>
      <trkpt lat="44.64536" lon="3.85524">
        <ele>1153.2</ele>
        <time>2013-05-09T08:48:03Z</time>
      </trkpt>
      <trkpt lat="44.6453" lon="3.85532">
        <ele>1153.7</ele>
        <time>2013-05-09T08:48:09Z</time>
      </trkpt>
      <trkpt lat="44.64523" lon="3.8554">
        <ele>1154.1</ele>
        <time>2013-05-09T08:48:16Z</time>
      </trkpt>
      <trkpt lat="44.64516" lon="3.85545">
        <ele>1155</ele>
        <time>2013-05-09T08:48:23Z</time>
      </trkpt>
      <trkpt lat="44.64508" lon="3.85551">
        <ele>1156.2</ele>
        <time>2013-05-09T08:48:30Z</time>
      </trkpt>
      <trkpt lat="44.64507" lon="3.85551">
        <ele>1156.3</ele>
        <time>2013-05-09T08:48:31Z</time>
      </trkpt>
      <trkpt lat="44.64493" lon="3.85561">
        <ele>1157.6</ele>
        <time>2013-05-09T08:48:45Z</time>
      </trkpt>
      <trkpt lat="44.64485" lon="3.85564">
        <ele>1158.8</ele>
        <time>2013-05-09T08:48:54Z</time>
      </trkpt>
      <trkpt lat="44.64477" lon="3.85568">
        <ele>1159.8</ele>
        <time>2013-05-09T08:49:01Z</time>
      </trkpt>
      <trkpt lat="44.64469" lon="3.85571">
        <ele>1160.4</ele>
        <time>2013-05-09T08:49:07Z</time>
      </trkpt>
      <trkpt lat="44.64462" lon="3.85576">
        <ele>1161.1</ele>
        <time>2013-05-09T08:49:12Z</time>
      </trkpt>
      <trkpt lat="44.64454" lon="3.85581">
        <ele>1161.9</ele>
        <time>2013-05-09T08:49:19Z</time>
      </trkpt>
      <trkpt lat="44.64448" lon="3.85588">
        <ele>1162.4</ele>
        <time>2013-05-09T08:49:26Z</time>
      </trkpt>
      <trkpt lat="44.6444" lon="3.85593">
        <ele>1163.3</ele>
        <time>2013-05-09T08:49:34Z</time>
      </trkpt>
      <trkpt lat="44.64439" lon="3.85593">
        <ele>1163.4</ele>
        <time>2013-05-09T08:49:35Z</time>
      </trkpt>
      <trkpt lat="44.64425" lon="3.856">
        <ele>1164.2</ele>
        <time>2013-05-09T08:49:46Z</time>
      </trkpt>
      <trkpt lat="44.64416" lon="3.85603">
        <ele>1164.8</ele>
        <time>2013-05-09T08:49:53Z</time>
      </trkpt>
      <trkpt lat="44.64409" lon="3.8561">
        <ele>1165.7</ele>
        <time>2013-05-09T08:50:00Z</time>
      </trkpt>
      <trkpt lat="44.64402" lon="3.85614">
        <ele>1166.2</ele>
        <time>2013-05-09T08:50:07Z</time>
      </trkpt>
      <trkpt lat="44.64394" lon="3.85615">
        <ele>1166.3</ele>
        <time>2013-05-09T08:50:10Z</time>
      </trkpt>
      <trkpt lat="44.64387" lon="3.85622">
        <ele>1166.5</ele>
        <time>2013-05-09T08:50:19Z</time>
      </trkpt>
      <trkpt lat="44.64379" lon="3.85627">
        <ele>1167.2</ele>
        <time>2013-05-09T08:50:27Z</time>
      </trkpt>
      <trkpt lat="44.64373" lon="3.85631">
        <ele>1168</ele>
        <time>2013-05-09T08:50:34Z</time>
      </trkpt>
      <trkpt lat="44.64365" lon="3.85637">
        <ele>1168.4</ele>
        <time>2013-05-09T08:50:39Z</time>
      </trkpt>
      <trkpt lat="44.64364" lon="3.85637">
        <ele>1168.6</ele>
        <time>2013-05-09T08:50:40Z</time>
      </trkpt>
      <trkpt lat="44.6435" lon="3.85644">
        <ele>1170</ele>
        <time>2013-05-09T08:50:53Z</time>
      </trkpt>
      <trkpt lat="44.64344" lon="3.85649">
        <ele>1170.4</ele>
        <time>2013-05-09T08:50:59Z</time>
      </trkpt>
      <trkpt lat="44.64336" lon="3.85653">
        <ele>1170.4</ele>
        <time>2013-05-09T08:51:03Z</time>
      </trkpt>
      <trkpt lat="44.64329" lon="3.85659">
        <ele>1170.7</ele>
        <time>2013-05-09T08:51:08Z</time>
      </trkpt>
      <trkpt lat="44.6432" lon="3.85658">
        <ele>1171.9</ele>
        <time>2013-05-09T08:51:16Z</time>
      </trkpt>
      <trkpt lat="44.64312" lon="3.8566">
        <ele>1172.6</ele>
        <time>2013-05-09T08:51:21Z</time>
      </trkpt>
      <trkpt lat="44.64304" lon="3.85664">
        <ele>1173.4</ele>
        <time>2013-05-09T08:51:28Z</time>
      </trkpt>
      <trkpt lat="44.64296" lon="3.85666">
        <ele>1174.7</ele>
        <time>2013-05-09T08:51:36Z</time>
      </trkpt>
      <trkpt lat="44.64287" lon="3.85666">
        <ele>1175.3</ele>
        <time>2013-05-09T08:51:43Z</time>
      </trkpt>
      <trkpt lat="44.64286" lon="3.85666">
        <ele>1175.4</ele>
        <time>2013-05-09T08:51:44Z</time>
      </trkpt>
      <trkpt lat="44.64271" lon="3.85672">
        <ele>1176</ele>
        <time>2013-05-09T08:51:58Z</time>
      </trkpt>
      <trkpt lat="44.64262" lon="3.85675">
        <ele>1175.8</ele>
        <time>2013-05-09T08:52:05Z</time>
      </trkpt>
      <trkpt lat="44.64256" lon="3.85672">
        <ele>1177</ele>
        <time>2013-05-09T08:52:13Z</time>
      </trkpt>
      <trkpt lat="44.64248" lon="3.85668">
        <ele>1178.3</ele>
        <time>2013-05-09T08:52:21Z</time>
      </trkpt>
      <trkpt lat="44.6424" lon="3.8567">
        <ele>1179.3</ele>
        <time>2013-05-09T08:52:27Z</time>
      </trkpt>
      <trkpt lat="44.64232" lon="3.85676">
        <ele>1179.7</ele>
        <time>2013-05-09T08:52:33Z</time>
      </trkpt>
      <trkpt lat="44.64231" lon="3.85687">
        <ele>1177.3</ele>
        <time>2013-05-09T08:52:47Z</time>
      </trkpt>
      <trkpt lat="44.6423" lon="3.8569">
        <ele>1177.1</ele>
        <time>2013-05-09T08:52:48Z</time>
      </trkpt>
      <trkpt lat="44.64231" lon="3.8571">
        <ele>1176.3</ele>
        <time>2013-05-09T08:53:05Z</time>
      </trkpt>
      <trkpt lat="44.64234" lon="3.85722">
        <ele>1176.2</ele>
        <time>2013-05-09T08:53:15Z</time>
      </trkpt>
      <trkpt lat="44.64237" lon="3.85733">
        <ele>1176.2</ele>
        <time>2013-05-09T08:53:24Z</time>
      </trkpt>
      <trkpt lat="44.64238" lon="3.85744">
        <ele>1176.2</ele>
        <time>2013-05-09T08:53:31Z</time>
      </trkpt>
      <trkpt lat="44.64242" lon="3.85755">
        <ele>1176.1</ele>
        <time>2013-05-09T08:53:38Z</time>
      </trkpt>
      <trkpt lat="44.64247" lon="3.85765">
        <ele>1175.8</ele>
        <time>2013-05-09T08:53:52Z</time>
      </trkpt>
      <trkpt lat="44.64248" lon="3.85766">
        <ele>1175.9</ele>
        <time>2013-05-09T08:53:53Z</time>
      </trkpt>
      <trkpt lat="44.64252" lon="3.85786">
        <ele>1175.9</ele>
        <time>2013-05-09T08:54:06Z</time>
      </trkpt>
      <trkpt lat="44.64255" lon="3.85796">
        <ele>1176</ele>
        <time>2013-05-09T08:54:11Z</time>
      </trkpt>
      <trkpt lat="44.64258" lon="3.85808">
        <ele>1176</ele>
        <time>2013-05-09T08:54:18Z</time>
      </trkpt>
      <trkpt lat="44.6426" lon="3.85819">
        <ele>1176</ele>
        <time>2013-05-09T08:54:26Z</time>
      </trkpt>
      <trkpt lat="44.64263" lon="3.8583">
        <ele>1176.1</ele>
        <time>2013-05-09T08:54:34Z</time>
      </trkpt>
      <trkpt lat="44.64267" lon="3.85841">
        <ele>1176.1</ele>
        <time>2013-05-09T08:54:42Z</time>
      </trkpt>
      <trkpt lat="44.64271" lon="3.85851">
        <ele>1176.3</ele>
        <time>2013-05-09T08:54:50Z</time>
      </trkpt>
      <trkpt lat="44.6428" lon="3.85852">
        <ele>1176</ele>
        <time>2013-05-09T08:54:58Z</time>
      </trkpt>
      <trkpt lat="44.6428" lon="3.85852">
        <ele>1176</ele>
        <time>2013-05-09T08:54:59Z</time>
      </trkpt>
      <trkpt lat="44.64296" lon="3.85849">
        <ele>1175.9</ele>
        <time>2013-05-09T08:55:08Z</time>
      </trkpt>
      <trkpt lat="44.64303" lon="3.85845">
        <ele>1175.9</ele>
        <time>2013-05-09T08:55:16Z</time>
      </trkpt>
      <trkpt lat="44.6431" lon="3.85848">
        <ele>1175.8</ele>
        <time>2013-05-09T08:55:22Z</time>
      </trkpt>
      <trkpt lat="44.64319" lon="3.85848">
        <ele>1176.2</ele>
        <time>2013-05-09T08:55:31Z</time>
      </trkpt>
      <trkpt lat="44.64327" lon="3.85852">
        <ele>1176.3</ele>
        <time>2013-05-09T08:55:41Z</time>
      </trkpt>
      <trkpt lat="44.64335" lon="3.85858">
        <ele>1176.5</ele>
        <time>2013-05-09T08:55:49Z</time>
      </trkpt>
      <trkpt lat="44.64341" lon="3.85864">
        <ele>1176.4</ele>
        <time>2013-05-09T08:55:56Z</time>
      </trkpt>
      <trkpt lat="44.64348" lon="3.85871">
        <ele>1176.3</ele>
        <time>2013-05-09T08:56:05Z</time>
      </trkpt>
      <trkpt lat="44.64349" lon="3.85871">
        <ele>1176.2</ele>
        <time>2013-05-09T08:56:06Z</time>
      </trkpt>
      <trkpt lat="44.64361" lon="3.85887">
        <ele>1176.5</ele>
        <time>2013-05-09T08:56:21Z</time>
      </trkpt>
      <trkpt lat="44.64368" lon="3.85894">
        <ele>1176.7</ele>
        <time>2013-05-09T08:56:30Z</time>
      </trkpt>
      <trkpt lat="44.64376" lon="3.859">
        <ele>1176.7</ele>
        <time>2013-05-09T08:56:39Z</time>
      </trkpt>
      <trkpt lat="44.64381" lon="3.85908">
        <ele>1177</ele>
        <time>2013-05-09T08:56:46Z</time>
      </trkpt>
      <trkpt lat="44.64387" lon="3.85916">
        <ele>1176.8</ele>
        <time>2013-05-09T08:56:53Z</time>
      </trkpt>
      <trkpt lat="44.64393" lon="3.85923">
        <ele>1176.7</ele>
        <time>2013-05-09T08:57:01Z</time>
      </trkpt>
      <trkpt lat="44.64398" lon="3.8593">
        <ele>1176.6</ele>
        <time>2013-05-09T08:57:07Z</time>
      </trkpt>
      <trkpt lat="44.64399" lon="3.85933">
        <ele>1176.6</ele>
        <time>2013-05-09T08:57:08Z</time>
      </trkpt>
      <trkpt lat="44.6441" lon="3.85944">
        <ele>1176</ele>
        <time>2013-05-09T08:57:21Z</time>
      </trkpt>
      <trkpt lat="44.64417" lon="3.85952">
        <ele>1175.3</ele>
        <time>2013-05-09T08:57:29Z</time>
      </trkpt>
      <trkpt lat="44.64425" lon="3.85956">
        <ele>1175.6</ele>
        <time>2013-05-09T08:57:38Z</time>
      </trkpt>
      <trkpt lat="44.64433" lon="3.8596">
        <ele>1175.4</ele>
        <time>2013-05-09T08:57:44Z</time>
      </trkpt>
      <trkpt lat="44.64441" lon="3.85963">
        <ele>1175.1</ele>
        <time>2013-05-09T08:57:48Z</time>
      </trkpt>
      <trkpt lat="44.64449" lon="3.85965">
        <ele>1175.2</ele>
        <time>2013-05-09T08:57:55Z</time>
      </trkpt>
      <trkpt lat="44.64457" lon="3.85964">
        <ele>1175</ele>
        <time>2013-05-09T08:58:07Z</time>
      </trkpt>
      <trkpt lat="44.64466" lon="3.85968">
        <ele>1176</ele>
        <time>2013-05-09T08:58:17Z</time>
      </trkpt>
      <trkpt lat="44.64467" lon="3.85969">
        <ele>1176.2</ele>
        <time>2013-05-09T08:58:18Z</time>
      </trkpt>
      <trkpt lat="44.64481" lon="3.8597">
        <ele>1177.4</ele>
        <time>2013-05-09T08:58:30Z</time>
      </trkpt>
      <trkpt lat="44.64489" lon="3.85975">
        <ele>1178</ele>
        <time>2013-05-09T08:58:36Z</time>
      </trkpt>
      <trkpt lat="44.64497" lon="3.85979">
        <ele>1178.8</ele>
        <time>2013-05-09T08:58:44Z</time>
      </trkpt>
      <trkpt lat="44.64504" lon="3.85984">
        <ele>1179.4</ele>
        <time>2013-05-09T08:58:50Z</time>
      </trkpt>
      <trkpt lat="44.64512" lon="3.85989">
        <ele>1180.3</ele>
        <time>2013-05-09T08:58:57Z</time>
      </trkpt>
      <trkpt lat="44.64518" lon="3.85997">
        <ele>1181.1</ele>
        <time>2013-05-09T08:59:04Z</time>
      </trkpt>
      <trkpt lat="44.64523" lon="3.86005">
        <ele>1181.9</ele>
        <time>2013-05-09T08:59:11Z</time>
      </trkpt>
      <trkpt lat="44.6453" lon="3.86012">
        <ele>1183</ele>
        <time>2013-05-09T08:59:18Z</time>
      </trkpt>
      <trkpt lat="44.64531" lon="3.86013">
        <ele>1183.1</ele>
        <time>2013-05-09T08:59:19Z</time>
      </trkpt>
      <trkpt lat="44.64544" lon="3.86028">
        <ele>1184</ele>
        <time>2013-05-09T08:59:34Z</time>
      </trkpt>
      <trkpt lat="44.6455" lon="3.86035">
        <ele>1184.4</ele>
        <time>2013-05-09T08:59:41Z</time>
      </trkpt>
      <trkpt lat="44.64555" lon="3.86045">
        <ele>1184.7</ele>
        <time>2013-05-09T08:59:48Z</time>
      </trkpt>
      <trkpt lat="44.6456" lon="3.86053">
        <ele>1184.9</ele>
        <time>2013-05-09T08:59:56Z</time>
      </trkpt>
      <trkpt lat="44.64566" lon="3.86062">
        <ele>1184.9</ele>
        <time>2013-05-09T09:00:03Z</time>
      </trkpt>
      <trkpt lat="44.64574" lon="3.86068">
        <ele>1185.6</ele>
        <time>2013-05-09T09:00:11Z</time>
      </trkpt>
      <trkpt lat="44.64582" lon="3.86072">
        <ele>1186.3</ele>
        <time>2013-05-09T09:00:18Z</time>
      </trkpt>
      <trkpt lat="44.64589" lon="3.86077">
        <ele>1186.6</ele>
        <time>2013-05-09T09:00:24Z</time>
      </trkpt>
      <trkpt lat="44.6459" lon="3.86078">
        <ele>1186.6</ele>
        <time>2013-05-09T09:00:25Z</time>
      </trkpt>
      <trkpt lat="44.64605" lon="3.86082">
        <ele>1186.2</ele>
        <time>2013-05-09T09:00:40Z</time>
      </trkpt>
      <trkpt lat="44.64613" lon="3.86084">
        <ele>1186.8</ele>
        <time>2013-05-09T09:00:46Z</time>
      </trkpt>
      <trkpt lat="44.64621" lon="3.86088">
        <ele>1187.1</ele>
        <time>2013-05-09T09:00:53Z</time>
      </trkpt>
      <trkpt lat="44.64629" lon="3.86091">
        <ele>1187.3</ele>
        <time>2013-05-09T09:00:59Z</time>
      </trkpt>
      <trkpt lat="44.64636" lon="3.86095">
        <ele>1187.7</ele>
        <time>2013-05-09T09:01:06Z</time>
      </trkpt>
      <trkpt lat="44.64645" lon="3.861">
        <ele>1188.1</ele>
        <time>2013-05-09T09:01:14Z</time>
      </trkpt>
      <trkpt lat="44.64653" lon="3.861">
        <ele>1188.5</ele>
        <time>2013-05-09T09:01:22Z</time>
      </trkpt>
      <trkpt lat="44.64661" lon="3.86101">
        <ele>1188.6</ele>
        <time>2013-05-09T09:01:29Z</time>
      </trkpt>
      <trkpt lat="44.64662" lon="3.86101">
        <ele>1188.7</ele>
        <time>2013-05-09T09:01:30Z</time>
      </trkpt>
      <trkpt lat="44.64678" lon="3.86108">
        <ele>1190.2</ele>
        <time>2013-05-09T09:01:46Z</time>
      </trkpt>
      <trkpt lat="44.64686" lon="3.86112">
        <ele>1190.6</ele>
        <time>2013-05-09T09:01:51Z</time>
      </trkpt>
      <trkpt lat="44.64693" lon="3.86118">
        <ele>1190.9</ele>
        <time>2013-05-09T09:01:56Z</time>
      </trkpt>
      <trkpt lat="44.647" lon="3.86125">
        <ele>1190</ele>
        <time>2013-05-09T09:02:01Z</time>
      </trkpt>
      <trkpt lat="44.64708" lon="3.86131">
        <ele>1188.4</ele>
        <time>2013-05-09T09:02:08Z</time>
      </trkpt>
      <trkpt lat="44.64716" lon="3.86135">
        <ele>1187.3</ele>
        <time>2013-05-09T09:02:16Z</time>
      </trkpt>
      <trkpt lat="44.64725" lon="3.86137">
        <ele>1188</ele>
        <time>2013-05-09T09:02:26Z</time>
      </trkpt>
      <trkpt lat="44.64733" lon="3.86137">
        <ele>1188.1</ele>
        <time>2013-05-09T09:02:35Z</time>
      </trkpt>
      <trkpt lat="44.64734" lon="3.86136">
        <ele>1188.1</ele>
        <time>2013-05-09T09:02:36Z</time>
      </trkpt>
      <trkpt lat="44.64749" lon="3.86142">
        <ele>1189.3</ele>
        <time>2013-05-09T09:02:50Z</time>
      </trkpt>
      <trkpt lat="44.64757" lon="3.86146">
        <ele>1189.5</ele>
        <time>2013-05-09T09:02:56Z</time>
      </trkpt>
      <trkpt lat="44.64765" lon="3.86152">
        <ele>1189.6</ele>
        <time>2013-05-09T09:03:03Z</time>
      </trkpt>
      <trkpt lat="44.64773" lon="3.86151">
        <ele>1189.7</ele>
        <time>2013-05-09T09:03:12Z</time>
      </trkpt>
      <trkpt lat="44.64781" lon="3.86154">
        <ele>1190.1</ele>
        <time>2013-05-09T09:03:19Z</time>
      </trkpt>
      <trkpt lat="44.64789" lon="3.86157">
        <ele>1190.4</ele>
        <time>2013-05-09T09:03:27Z</time>
      </trkpt>
      <trkpt lat="44.64796" lon="3.86163">
        <ele>1190.8</ele>
        <time>2013-05-09T09:03:36Z</time>
      </trkpt>
      <trkpt lat="44.64797" lon="3.86164">
        <ele>1190.8</ele>
        <time>2013-05-09T09:03:37Z</time>
      </trkpt>
      <trkpt lat="44.64812" lon="3.86169">
        <ele>1190.8</ele>
        <time>2013-05-09T09:03:52Z</time>
      </trkpt>
      <trkpt lat="44.6482" lon="3.86173">
        <ele>1191.1</ele>
        <time>2013-05-09T09:04:00Z</time>
      </trkpt>
      <trkpt lat="44.64827" lon="3.86181">
        <ele>1191.7</ele>
        <time>2013-05-09T09:04:09Z</time>
      </trkpt>
      <trkpt lat="44.64834" lon="3.86185">
        <ele>1191.9</ele>
        <time>2013-05-09T09:04:16Z</time>
      </trkpt>
      <trkpt lat="44.64842" lon="3.8619">
        <ele>1192.4</ele>
        <time>2013-05-09T09:04:24Z</time>
      </trkpt>
      <trkpt lat="44.64848" lon="3.86198">
        <ele>1192.8</ele>
        <time>2013-05-09T09:04:31Z</time>
      </trkpt>
      <trkpt lat="44.64854" lon="3.86205">
        <ele>1193.3</ele>
        <time>2013-05-09T09:04:38Z</time>
      </trkpt>
      <trkpt lat="44.64854" lon="3.86208">
        <ele>1193.5</ele>
        <time>2013-05-09T09:04:39Z</time>
      </trkpt>
      <trkpt lat="44.64867" lon="3.8622">
        <ele>1194.2</ele>
        <time>2013-05-09T09:04:53Z</time>
      </trkpt>
      <trkpt lat="44.64873" lon="3.86228">
        <ele>1194.5</ele>
        <time>2013-05-09T09:05:00Z</time>
      </trkpt>
      <trkpt lat="44.64881" lon="3.86235">
        <ele>1194.7</ele>
        <time>2013-05-09T09:05:07Z</time>
      </trkpt>
      <trkpt lat="44.64888" lon="3.86241">
        <ele>1195</ele>
        <time>2013-05-09T09:05:12Z</time>
      </trkpt>
      <trkpt lat="44.64893" lon="3.8625">
        <ele>1195.2</ele>
        <time>2013-05-09T09:05:17Z</time>
      </trkpt>
      <trkpt lat="44.64896" lon="3.86261">
        <ele>1195.1</ele>
        <time>2013-05-09T09:05:25Z</time>
      </trkpt>
      <trkpt lat="44.64899" lon="3.86272">
        <ele>1195</ele>
        <time>2013-05-09T09:05:32Z</time>
      </trkpt>
      <trkpt lat="44.64903" lon="3.86283">
        <ele>1195.3</ele>
        <time>2013-05-09T09:05:41Z</time>
      </trkpt>
      <trkpt lat="44.64904" lon="3.86283">
        <ele>1195.3</ele>
        <time>2013-05-09T09:05:42Z</time>
      </trkpt>
      <trkpt lat="44.64913" lon="3.86303">
        <ele>1195.6</ele>
        <time>2013-05-09T09:05:55Z</time>
      </trkpt>
      <trkpt lat="44.64917" lon="3.86313">
        <ele>1195.7</ele>
        <time>2013-05-09T09:06:02Z</time>
      </trkpt>
      <trkpt lat="44.64923" lon="3.86321">
        <ele>1195.7</ele>
        <time>2013-05-09T09:06:09Z</time>
      </trkpt>
      <trkpt lat="44.64928" lon="3.8633">
        <ele>1195.7</ele>
        <time>2013-05-09T09:06:15Z</time>
      </trkpt>
      <trkpt lat="44.64934" lon="3.86339">
        <ele>1195.7</ele>
        <time>2013-05-09T09:06:23Z</time>
      </trkpt>
      <trkpt lat="44.64936" lon="3.86351">
        <ele>1195.3</ele>
        <time>2013-05-09T09:06:31Z</time>
      </trkpt>
      <trkpt lat="44.64941" lon="3.8636">
        <ele>1194.7</ele>
        <time>2013-05-09T09:06:37Z</time>
      </trkpt>
      <trkpt lat="44.64943" lon="3.86371">
        <ele>1194.5</ele>
        <time>2013-05-09T09:06:43Z</time>
      </trkpt>
      <trkpt lat="44.64944" lon="3.86373">
        <ele>1194.4</ele>
        <time>2013-05-09T09:06:44Z</time>
      </trkpt>
      <trkpt lat="44.64951" lon="3.86392">
        <ele>1193.3</ele>
        <time>2013-05-09T09:06:57Z</time>
      </trkpt>
      <trkpt lat="44.64952" lon="3.86405">
        <ele>1192.7</ele>
        <time>2013-05-09T09:07:04Z</time>
      </trkpt>
      <trkpt lat="44.64952" lon="3.86415">
        <ele>1192.4</ele>
        <time>2013-05-09T09:07:10Z</time>
      </trkpt>
      <trkpt lat="44.64951" lon="3.86426">
        <ele>1192.1</ele>
        <time>2013-05-09T09:07:16Z</time>
      </trkpt>
      <trkpt lat="44.64952" lon="3.86439">
        <ele>1192</ele>
        <time>2013-05-09T09:07:24Z</time>
      </trkpt>
      <trkpt lat="44.64952" lon="3.8645">
        <ele>1191.4</ele>
        <time>2013-05-09T09:07:31Z</time>
      </trkpt>
      <trkpt lat="44.64953" lon="3.86463">
        <ele>1191.2</ele>
        <time>2013-05-09T09:07:38Z</time>
      </trkpt>
      <trkpt lat="44.64954" lon="3.86475">
        <ele>1191.7</ele>
        <time>2013-05-09T09:07:45Z</time>
      </trkpt>
      <trkpt lat="44.64955" lon="3.86476">
        <ele>1192</ele>
        <time>2013-05-09T09:07:46Z</time>
      </trkpt>
      <trkpt lat="44.64954" lon="3.86499">
        <ele>1191.4</ele>
        <time>2013-05-09T09:08:00Z</time>
      </trkpt>
      <trkpt lat="44.64955" lon="3.86511">
        <ele>1190.2</ele>
        <time>2013-05-09T09:08:07Z</time>
      </trkpt>
      <trkpt lat="44.64957" lon="3.86521">
        <ele>1189.6</ele>
        <time>2013-05-09T09:08:13Z</time>
      </trkpt>
      <trkpt lat="44.64961" lon="3.86531">
        <ele>1189.6</ele>
        <time>2013-05-09T09:08:19Z</time>
      </trkpt>
      <trkpt lat="44.6496" lon="3.86543">
        <ele>1189.1</ele>
        <time>2013-05-09T09:08:26Z</time>
      </trkpt>
      <trkpt lat="44.64962" lon="3.86554">
        <ele>1189</ele>
        <time>2013-05-09T09:08:33Z</time>
      </trkpt>
      <trkpt lat="44.6496" lon="3.86566">
        <ele>1189.4</ele>
        <time>2013-05-09T09:08:40Z</time>
      </trkpt>
      <trkpt lat="44.64959" lon="3.86577">
        <ele>1189.8</ele>
        <time>2013-05-09T09:08:46Z</time>
      </trkpt>
      <trkpt lat="44.6496" lon="3.86579">
        <ele>1189.9</ele>
        <time>2013-05-09T09:08:47Z</time>
      </trkpt>
      <trkpt lat="44.64962" lon="3.86601">
        <ele>1190.4</ele>
        <time>2013-05-09T09:09:01Z</time>
      </trkpt>
      <trkpt lat="44.64961" lon="3.86612">
        <ele>1190.6</ele>
        <time>2013-05-09T09:09:07Z</time>
      </trkpt>
      <trkpt lat="44.64962" lon="3.86623">
        <ele>1190.7</ele>
        <time>2013-05-09T09:09:13Z</time>
      </trkpt>
      <trkpt lat="44.64964" lon="3.86636">
        <ele>1191.3</ele>
        <time>2013-05-09T09:09:20Z</time>
      </trkpt>
      <trkpt lat="44.64965" lon="3.86647">
        <ele>1191.4</ele>
        <time>2013-05-09T09:09:27Z</time>
      </trkpt>
      <trkpt lat="44.64964" lon="3.86658">
        <ele>1191.2</ele>
        <time>2013-05-09T09:09:34Z</time>
      </trkpt>
      <trkpt lat="44.64963" lon="3.8667">
        <ele>1191.9</ele>
        <time>2013-05-09T09:09:42Z</time>
      </trkpt>
      <trkpt lat="44.64961" lon="3.86681">
        <ele>1192.4</ele>
        <time>2013-05-09T09:09:49Z</time>
      </trkpt>
      <trkpt lat="44.6496" lon="3.86682">
        <ele>1192.3</ele>
        <time>2013-05-09T09:09:50Z</time>
      </trkpt>
      <trkpt lat="44.64962" lon="3.86704">
        <ele>1192.7</ele>
        <time>2013-05-09T09:10:03Z</time>
      </trkpt>
      <trkpt lat="44.64964" lon="3.86716">
        <ele>1192</ele>
        <time>2013-05-09T09:10:10Z</time>
      </trkpt>
      <trkpt lat="44.64961" lon="3.86726">
        <ele>1192.1</ele>
        <time>2013-05-09T09:10:17Z</time>
      </trkpt>
      <trkpt lat="44.6496" lon="3.86738">
        <ele>1192</ele>
        <time>2013-05-09T09:10:23Z</time>
      </trkpt>
      <trkpt lat="44.64956" lon="3.86747">
        <ele>1191.6</ele>
        <time>2013-05-09T09:10:29Z</time>
      </trkpt>
      <trkpt lat="44.64955" lon="3.86758">
        <ele>1191.2</ele>
        <time>2013-05-09T09:10:36Z</time>
      </trkpt>
      <trkpt lat="44.64954" lon="3.86769">
        <ele>1190.7</ele>
        <time>2013-05-09T09:10:43Z</time>
      </trkpt>
      <trkpt lat="44.6495" lon="3.86779">
        <ele>1190.2</ele>
        <time>2013-05-09T09:10:50Z</time>
      </trkpt>
      <trkpt lat="44.6495" lon="3.86781">
        <ele>1190.2</ele>
        <time>2013-05-09T09:10:51Z</time>
      </trkpt>
      <trkpt lat="44.64944" lon="3.86802">
        <ele>1190.1</ele>
        <time>2013-05-09T09:11:04Z</time>
      </trkpt>
      <trkpt lat="44.64942" lon="3.86813">
        <ele>1189.8</ele>
        <time>2013-05-09T09:11:11Z</time>
      </trkpt>
      <trkpt lat="44.64941" lon="3.86824">
        <ele>1189.6</ele>
        <time>2013-05-09T09:11:18Z</time>
      </trkpt>
      <trkpt lat="44.6494" lon="3.86836">
        <ele>1189.7</ele>
        <time>2013-05-09T09:11:24Z</time>
      </trkpt>
      <trkpt lat="44.64939" lon="3.86848">
        <ele>1189.3</ele>
        <time>2013-05-09T09:11:32Z</time>
      </trkpt>
      <trkpt lat="44.64937" lon="3.8686">
        <ele>1188.9</ele>
        <time>2013-05-09T09:11:39Z</time>
      </trkpt>
      <trkpt lat="44.64934" lon="3.86871">
        <ele>1188.1</ele>
        <time>2013-05-09T09:11:46Z</time>
      </trkpt>
      <trkpt lat="44.64933" lon="3.86882">
        <ele>1187.4</ele>
        <time>2013-05-09T09:11:52Z</time>
      </trkpt>
      <trkpt lat="44.64934" lon="3.86884">
        <ele>1187</ele>
        <time>2013-05-09T09:11:53Z</time>
      </trkpt>
      <trkpt lat="44.64931" lon="3.86906">
        <ele>1185.5</ele>
        <time>2013-05-09T09:12:52Z</time>
      </trkpt>
      <trkpt lat="44.64931" lon="3.86908">
        <ele>1185.5</ele>
        <time>2013-05-09T09:12:53Z</time>
      </trkpt>
      <trkpt lat="44.64929" lon="3.86929">
        <ele>1185.7</ele>
        <time>2013-05-09T09:13:07Z</time>
      </trkpt>
      <trkpt lat="44.64929" lon="3.86941">
        <ele>1185.7</ele>
        <time>2013-05-09T09:13:16Z</time>
      </trkpt>
      <trkpt lat="44.64928" lon="3.86953">
        <ele>1185.6</ele>
        <time>2013-05-09T09:13:24Z</time>
      </trkpt>
      <trkpt lat="44.64925" lon="3.86963">
        <ele>1185.8</ele>
        <time>2013-05-09T09:13:30Z</time>
      </trkpt>
      <trkpt lat="44.64924" lon="3.86975">
        <ele>1186.2</ele>
        <time>2013-05-09T09:13:38Z</time>
      </trkpt>
      <trkpt lat="44.64923" lon="3.86987">
        <ele>1186.2</ele>
        <time>2013-05-09T09:13:46Z</time>
      </trkpt>
      <trkpt lat="44.64922" lon="3.86999">
        <ele>1186</ele>
        <time>2013-05-09T09:13:54Z</time>
      </trkpt>
      <trkpt lat="44.64922" lon="3.87001">
        <ele>1186.1</ele>
        <time>2013-05-09T09:13:55Z</time>
      </trkpt>
      <trkpt lat="44.64923" lon="3.87022">
        <ele>1187.3</ele>
        <time>2013-05-09T09:14:08Z</time>
      </trkpt>
      <trkpt lat="44.64922" lon="3.87033">
        <ele>1187.6</ele>
        <time>2013-05-09T09:14:15Z</time>
      </trkpt>
      <trkpt lat="44.64924" lon="3.87045">
        <ele>1187.6</ele>
        <time>2013-05-09T09:14:24Z</time>
      </trkpt>
      <trkpt lat="44.64924" lon="3.87057">
        <ele>1187.6</ele>
        <time>2013-05-09T09:14:32Z</time>
      </trkpt>
      <trkpt lat="44.64925" lon="3.87069">
        <ele>1187.5</ele>
        <time>2013-05-09T09:14:39Z</time>
      </trkpt>
      <trkpt lat="44.64925" lon="3.87081">
        <ele>1187.6</ele>
        <time>2013-05-09T09:14:48Z</time>
      </trkpt>
      <trkpt lat="44.64925" lon="3.87093">
        <ele>1187.3</ele>
        <time>2013-05-09T09:14:57Z</time>
      </trkpt>
      <trkpt lat="44.64925" lon="3.87095">
        <ele>1187.2</ele>
        <time>2013-05-09T09:14:58Z</time>
      </trkpt>
      <trkpt lat="44.64925" lon="3.87116">
        <ele>1187.2</ele>
        <time>2013-05-09T09:15:10Z</time>
      </trkpt>
      <trkpt lat="44.64926" lon="3.87128">
        <ele>1187.6</ele>
        <time>2013-05-09T09:15:17Z</time>
      </trkpt>
      <trkpt lat="44.64926" lon="3.8714">
        <ele>1188.2</ele>
        <time>2013-05-09T09:15:24Z</time>
      </trkpt>
      <trkpt lat="44.64924" lon="3.87151">
        <ele>1188.4</ele>
        <time>2013-05-09T09:15:31Z</time>
      </trkpt>
      <trkpt lat="44.64922" lon="3.87162">
        <ele>1188.6</ele>
        <time>2013-05-09T09:15:37Z</time>
      </trkpt>
      <trkpt lat="44.64923" lon="3.87173">
        <ele>1188.7</ele>
        <time>2013-05-09T09:15:43Z</time>
      </trkpt>
      <trkpt lat="44.64923" lon="3.87185">
        <ele>1188.2</ele>
        <time>2013-05-09T09:15:51Z</time>
      </trkpt>
      <trkpt lat="44.64924" lon="3.87198">
        <ele>1187.8</ele>
        <time>2013-05-09T09:15:58Z</time>
      </trkpt>
      <trkpt lat="44.64924" lon="3.87199">
        <ele>1187.7</ele>
        <time>2013-05-09T09:15:59Z</time>
      </trkpt>
      <trkpt lat="44.64923" lon="3.87221">
        <ele>1187.6</ele>
        <time>2013-05-09T09:16:11Z</time>
      </trkpt>
      <trkpt lat="44.64922" lon="3.87233">
        <ele>1187.6</ele>
        <time>2013-05-09T09:16:18Z</time>
      </trkpt>
      <trkpt lat="44.64919" lon="3.87245">
        <ele>1187.4</ele>
        <time>2013-05-09T09:16:25Z</time>
      </trkpt>
      <trkpt lat="44.64916" lon="3.87255">
        <ele>1187.5</ele>
        <time>2013-05-09T09:16:32Z</time>
      </trkpt>
      <trkpt lat="44.64912" lon="3.87265">
        <ele>1187.4</ele>
        <time>2013-05-09T09:16:39Z</time>
      </trkpt>
      <trkpt lat="44.64909" lon="3.87276">
        <ele>1187.1</ele>
        <time>2013-05-09T09:16:46Z</time>
      </trkpt>
      <trkpt lat="44.64905" lon="3.87287">
        <ele>1187</ele>
        <time>2013-05-09T09:16:53Z</time>
      </trkpt>
      <trkpt lat="44.64901" lon="3.87298">
        <ele>1187.1</ele>
        <time>2013-05-09T09:17:00Z</time>
      </trkpt>
      <trkpt lat="44.64901" lon="3.873">
        <ele>1187.1</ele>
        <time>2013-05-09T09:17:01Z</time>
      </trkpt>
      <trkpt lat="44.649" lon="3.87323">
        <ele>1187.4</ele>
        <time>2013-05-09T09:17:15Z</time>
      </trkpt>
      <trkpt lat="44.64903" lon="3.87335">
        <ele>1187.5</ele>
        <time>2013-05-09T09:17:23Z</time>
      </trkpt>
      <trkpt lat="44.64903" lon="3.87346">
        <ele>1187.2</ele>
        <time>2013-05-09T09:17:30Z</time>
      </trkpt>
      <trkpt lat="44.64905" lon="3.87357">
        <ele>1186.9</ele>
        <time>2013-05-09T09:17:36Z</time>
      </trkpt>
      <trkpt lat="44.64908" lon="3.87367">
        <ele>1186.5</ele>
        <time>2013-05-09T09:17:42Z</time>
      </trkpt>
      <trkpt lat="44.64908" lon="3.8738">
        <ele>1185.5</ele>
        <time>2013-05-09T09:17:51Z</time>
      </trkpt>
      <trkpt lat="44.6491" lon="3.87391">
        <ele>1185</ele>
        <time>2013-05-09T09:17:59Z</time>
      </trkpt>
      <trkpt lat="44.64912" lon="3.87402">
        <ele>1184.5</ele>
        <time>2013-05-09T09:18:05Z</time>
      </trkpt>
      <trkpt lat="44.64913" lon="3.87404">
        <ele>1184.4</ele>
        <time>2013-05-09T09:18:06Z</time>
      </trkpt>
      <trkpt lat="44.64918" lon="3.87424">
        <ele>1183.7</ele>
        <time>2013-05-09T09:18:18Z</time>
      </trkpt>
      <trkpt lat="44.64919" lon="3.87435">
        <ele>1183.4</ele>
        <time>2013-05-09T09:18:25Z</time>
      </trkpt>
      <trkpt lat="44.64919" lon="3.87446">
        <ele>1183.3</ele>
        <time>2013-05-09T09:18:31Z</time>
      </trkpt>
      <trkpt lat="44.6492" lon="3.87458">
        <ele>1183.1</ele>
        <time>2013-05-09T09:18:37Z</time>
      </trkpt>
      <trkpt lat="44.64921" lon="3.87469">
        <ele>1182.3</ele>
        <time>2013-05-09T09:18:44Z</time>
      </trkpt>
      <trkpt lat="44.64922" lon="3.87481">
        <ele>1182.2</ele>
        <time>2013-05-09T09:18:50Z</time>
      </trkpt>
      <trkpt lat="44.64923" lon="3.87493">
        <ele>1182.3</ele>
        <time>2013-05-09T09:18:57Z</time>
      </trkpt>
      <trkpt lat="44.64923" lon="3.87505">
        <ele>1181.6</ele>
        <time>2013-05-09T09:19:05Z</time>
      </trkpt>
      <trkpt lat="44.64925" lon="3.87517">
        <ele>1181.3</ele>
        <time>2013-05-09T09:19:12Z</time>
      </trkpt>
      <trkpt lat="44.64925" lon="3.87518">
        <ele>1181.3</ele>
        <time>2013-05-09T09:19:13Z</time>
      </trkpt>
      <trkpt lat="44.64927" lon="3.8754">
        <ele>1180.9</ele>
        <time>2013-05-09T09:19:26Z</time>
      </trkpt>
      <trkpt lat="44.64931" lon="3.87552">
        <ele>1180.5</ele>
        <time>2013-05-09T09:19:33Z</time>
      </trkpt>
      <trkpt lat="44.64935" lon="3.87562">
        <ele>1179.6</ele>
        <time>2013-05-09T09:19:42Z</time>
      </trkpt>
      <trkpt lat="44.64942" lon="3.87569">
        <ele>1179</ele>
        <time>2013-05-09T09:19:50Z</time>
      </trkpt>
      <trkpt lat="44.64951" lon="3.87574">
        <ele>1177.3</ele>
        <time>2013-05-09T09:19:57Z</time>
      </trkpt>
      <trkpt lat="44.64959" lon="3.87575">
        <ele>1174.3</ele>
        <time>2013-05-09T09:20:03Z</time>
      </trkpt>
      <trkpt lat="44.64967" lon="3.87573">
        <ele>1172.4</ele>
        <time>2013-05-09T09:20:08Z</time>
      </trkpt>
      <trkpt lat="44.64975" lon="3.8757">
        <ele>1171.6</ele>
        <time>2013-05-09T09:20:14Z</time>
      </trkpt>
      <trkpt lat="44.64976" lon="3.87569">
        <ele>1171.4</ele>
        <time>2013-05-09T09:20:15Z</time>
      </trkpt>
      <trkpt lat="44.6499" lon="3.87569">
        <ele>1169.4</ele>
        <time>2013-05-09T09:20:30Z</time>
      </trkpt>
      <trkpt lat="44.64997" lon="3.87575">
        <ele>1168.4</ele>
        <time>2013-05-09T09:20:39Z</time>
      </trkpt>
      <trkpt lat="44.65001" lon="3.87586">
        <ele>1168.8</ele>
        <time>2013-05-09T09:20:48Z</time>
      </trkpt>
      <trkpt lat="44.65006" lon="3.87594">
        <ele>1168.5</ele>
        <time>2013-05-09T09:20:55Z</time>
      </trkpt>
      <trkpt lat="44.6501" lon="3.87605">
        <ele>1168.4</ele>
        <time>2013-05-09T09:21:02Z</time>
      </trkpt>
      <trkpt lat="44.65014" lon="3.87614">
        <ele>1168.1</ele>
        <time>2013-05-09T09:21:09Z</time>
      </trkpt>
      <trkpt lat="44.6502" lon="3.87621">
        <ele>1167.9</ele>
        <time>2013-05-09T09:21:17Z</time>
      </trkpt>
      <trkpt lat="44.65021" lon="3.87622">
        <ele>1167.7</ele>
        <time>2013-05-09T09:21:18Z</time>
      </trkpt>
      <trkpt lat="44.65031" lon="3.87638">
        <ele>1165.9</ele>
        <time>2013-05-09T09:21:32Z</time>
      </trkpt>
      <trkpt lat="44.65038" lon="3.87644">
        <ele>1165.4</ele>
        <time>2013-05-09T09:21:41Z</time>
      </trkpt>
      <trkpt lat="44.65046" lon="3.87649">
        <ele>1164.9</ele>
        <time>2013-05-09T09:21:50Z</time>
      </trkpt>
      <trkpt lat="44.65053" lon="3.87657">
        <ele>1164.3</ele>
        <time>2013-05-09T09:21:56Z</time>
      </trkpt>
      <trkpt lat="44.6506" lon="3.87663">
        <ele>1163.6</ele>
        <time>2013-05-09T09:22:05Z</time>
      </trkpt>
      <trkpt lat="44.65066" lon="3.87672">
        <ele>1163.1</ele>
        <time>2013-05-09T09:22:16Z</time>
      </trkpt>
      <trkpt lat="44.65072" lon="3.8768">
        <ele>1162.4</ele>
        <time>2013-05-09T09:22:25Z</time>
      </trkpt>
      <trkpt lat="44.65073" lon="3.87681">
        <ele>1162.3</ele>
        <time>2013-05-09T09:22:26Z</time>
      </trkpt>
      <trkpt lat="44.65084" lon="3.87698">
        <ele>1160.7</ele>
        <time>2013-05-09T09:22:42Z</time>
      </trkpt>
      <trkpt lat="44.65089" lon="3.87709">
        <ele>1159.6</ele>
        <time>2013-05-09T09:22:50Z</time>
      </trkpt>
      <trkpt lat="44.65094" lon="3.87718">
        <ele>1158.5</ele>
        <time>2013-05-09T09:22:58Z</time>
      </trkpt>
      <trkpt lat="44.65098" lon="3.87729">
        <ele>1157.4</ele>
        <time>2013-05-09T09:23:06Z</time>
      </trkpt>
      <trkpt lat="44.65104" lon="3.87738">
        <ele>1156</ele>
        <time>2013-05-09T09:23:15Z</time>
      </trkpt>
      <trkpt lat="44.65108" lon="3.87749">
        <ele>1154.5</ele>
        <time>2013-05-09T09:23:24Z</time>
      </trkpt>
      <trkpt lat="44.65113" lon="3.87759">
        <ele>1153.2</ele>
        <time>2013-05-09T09:23:33Z</time>
      </trkpt>
      <trkpt lat="44.65113" lon="3.8776">
        <ele>1153.1</ele>
        <time>2013-05-09T09:23:34Z</time>
      </trkpt>
      <trkpt lat="44.65128" lon="3.87765">
        <ele>1150.8</ele>
        <time>2013-05-09T09:23:51Z</time>
      </trkpt>
      <trkpt lat="44.65136" lon="3.87767">
        <ele>1149.9</ele>
        <time>2013-05-09T09:23:59Z</time>
      </trkpt>
      <trkpt lat="44.65145" lon="3.87766">
        <ele>1149</ele>
        <time>2013-05-09T09:24:07Z</time>
      </trkpt>
      <trkpt lat="44.65154" lon="3.87765">
        <ele>1147.9</ele>
        <time>2013-05-09T09:24:14Z</time>
      </trkpt>
      <trkpt lat="44.65161" lon="3.87765">
        <ele>1146.8</ele>
        <time>2013-05-09T09:24:20Z</time>
      </trkpt>
      <trkpt lat="44.6517" lon="3.87763">
        <ele>1143.8</ele>
        <time>2013-05-09T09:24:26Z</time>
      </trkpt>
      <trkpt lat="44.65178" lon="3.87761">
        <ele>1142.1</ele>
        <time>2013-05-09T09:24:32Z</time>
      </trkpt>
      <trkpt lat="44.65185" lon="3.87754">
        <ele>1139</ele>
        <time>2013-05-09T09:24:40Z</time>
      </trkpt>
      <trkpt lat="44.65186" lon="3.87753">
        <ele>1138.6</ele>
        <time>2013-05-09T09:24:41Z</time>
      </trkpt>
      <trkpt lat="44.652" lon="3.87742">
        <ele>1134.7</ele>
        <time>2013-05-09T09:24:54Z</time>
      </trkpt>
      <trkpt lat="44.65207" lon="3.87736">
        <ele>1133.6</ele>
        <time>2013-05-09T09:25:02Z</time>
      </trkpt>
      <trkpt lat="44.65212" lon="3.87728">
        <ele>1132.7</ele>
        <time>2013-05-09T09:25:09Z</time>
      </trkpt>
      <trkpt lat="44.65216" lon="3.87717">
        <ele>1132</ele>
        <time>2013-05-09T09:25:17Z</time>
      </trkpt>
      <trkpt lat="44.6522" lon="3.87727">
        <ele>1129.8</ele>
        <time>2013-05-09T09:25:34Z</time>
      </trkpt>
      <trkpt lat="44.65221" lon="3.87739">
        <ele>1129.5</ele>
        <time>2013-05-09T09:25:41Z</time>
      </trkpt>
      <trkpt lat="44.65221" lon="3.8774">
        <ele>1129.4</ele>
        <time>2013-05-09T09:25:42Z</time>
      </trkpt>
      <trkpt lat="44.65217" lon="3.87763">
        <ele>1128.8</ele>
        <time>2013-05-09T09:26:00Z</time>
      </trkpt>
      <trkpt lat="44.65215" lon="3.87774">
        <ele>1128.6</ele>
        <time>2013-05-09T09:26:07Z</time>
      </trkpt>
      <trkpt lat="44.65211" lon="3.87785">
        <ele>1128.2</ele>
        <time>2013-05-09T09:26:14Z</time>
      </trkpt>
      <trkpt lat="44.65209" lon="3.87796">
        <ele>1127.3</ele>
        <time>2013-05-09T09:26:23Z</time>
      </trkpt>
      <trkpt lat="44.65206" lon="3.87807">
        <ele>1126.6</ele>
        <time>2013-05-09T09:26:32Z</time>
      </trkpt>
      <trkpt lat="44.65204" lon="3.87819">
        <ele>1125.7</ele>
        <time>2013-05-09T09:26:39Z</time>
      </trkpt>
      <trkpt lat="44.65201" lon="3.87829">
        <ele>1125.2</ele>
        <time>2013-05-09T09:26:46Z</time>
      </trkpt>
      <trkpt lat="44.652" lon="3.87831">
        <ele>1125.2</ele>
        <time>2013-05-09T09:26:47Z</time>
      </trkpt>
      <trkpt lat="44.65198" lon="3.87853">
        <ele>1123.1</ele>
        <time>2013-05-09T09:27:06Z</time>
      </trkpt>
      <trkpt lat="44.65196" lon="3.87864">
        <ele>1121.8</ele>
        <time>2013-05-09T09:27:15Z</time>
      </trkpt>
      <trkpt lat="44.65192" lon="3.87874">
        <ele>1120.5</ele>
        <time>2013-05-09T09:27:24Z</time>
      </trkpt>
      <trkpt lat="44.65189" lon="3.87886">
        <ele>1118.9</ele>
        <time>2013-05-09T09:27:37Z</time>
      </trkpt>
      <trkpt lat="44.65185" lon="3.87897">
        <ele>1118.1</ele>
        <time>2013-05-09T09:27:47Z</time>
      </trkpt>
      <trkpt lat="44.65184" lon="3.87898">
        <ele>1118.1</ele>
        <time>2013-05-09T09:27:48Z</time>
      </trkpt>
      <trkpt lat="44.65172" lon="3.87911">
        <ele>1117.3</ele>
        <time>2013-05-09T09:27:59Z</time>
      </trkpt>
      <trkpt lat="44.65164" lon="3.87916">
        <ele>1115.9</ele>
        <time>2013-05-09T09:28:06Z</time>
      </trkpt>
      <trkpt lat="44.65157" lon="3.87923">
        <ele>1115</ele>
        <time>2013-05-09T09:28:13Z</time>
      </trkpt>
      <trkpt lat="44.65151" lon="3.8793">
        <ele>1114.1</ele>
        <time>2013-05-09T09:28:20Z</time>
      </trkpt>
      <trkpt lat="44.65146" lon="3.8794">
        <ele>1112.6</ele>
        <time>2013-05-09T09:28:33Z</time>
      </trkpt>
      <trkpt lat="44.65143" lon="3.87951">
        <ele>1111.8</ele>
        <time>2013-05-09T09:28:43Z</time>
      </trkpt>
      <trkpt lat="44.65139" lon="3.87961">
        <ele>1110.3</ele>
        <time>2013-05-09T09:28:52Z</time>
      </trkpt>
      <trkpt lat="44.65138" lon="3.87963">
        <ele>1110.2</ele>
        <time>2013-05-09T09:28:53Z</time>
      </trkpt>
      <trkpt lat="44.6513" lon="3.87981">
        <ele>1109.2</ele>
        <time>2013-05-09T09:29:07Z</time>
      </trkpt>
      <trkpt lat="44.65125" lon="3.87989">
        <ele>1109.3</ele>
        <time>2013-05-09T09:29:13Z</time>
      </trkpt>
      <trkpt lat="44.65118" lon="3.87996">
        <ele>1109.3</ele>
        <time>2013-05-09T09:29:17Z</time>
      </trkpt>
      <trkpt lat="44.65112" lon="3.88005">
        <ele>1109.1</ele>
        <time>2013-05-09T09:29:23Z</time>
      </trkpt>
      <trkpt lat="44.65108" lon="3.88016">
        <ele>1108.5</ele>
        <time>2013-05-09T09:29:34Z</time>
      </trkpt>
      <trkpt lat="44.65107" lon="3.88028">
        <ele>1108.2</ele>
        <time>2013-05-09T09:29:42Z</time>
      </trkpt>
      <trkpt lat="44.65105" lon="3.8804">
        <ele>1107.9</ele>
        <time>2013-05-09T09:29:52Z</time>
      </trkpt>
      <trkpt lat="44.65102" lon="3.8805">
        <ele>1107.6</ele>
        <time>2013-05-09T09:30:01Z</time>
      </trkpt>
      <trkpt lat="44.65102" lon="3.88052">
        <ele>1107.6</ele>
        <time>2013-05-09T09:30:02Z</time>
      </trkpt>
      <trkpt lat="44.65098" lon="3.88074">
        <ele>1106.7</ele>
        <time>2013-05-09T09:30:22Z</time>
      </trkpt>
      <trkpt lat="44.65098" lon="3.88085">
        <ele>1106.4</ele>
        <time>2013-05-09T09:30:32Z</time>
      </trkpt>
      <trkpt lat="44.65099" lon="3.88097">
        <ele>1105.9</ele>
        <time>2013-05-09T09:30:39Z</time>
      </trkpt>
      <trkpt lat="44.65101" lon="3.88108">
        <ele>1105.9</ele>
        <time>2013-05-09T09:30:44Z</time>
      </trkpt>
      <trkpt lat="44.65102" lon="3.8812">
        <ele>1105.3</ele>
        <time>2013-05-09T09:30:53Z</time>
      </trkpt>
      <trkpt lat="44.65101" lon="3.88132">
        <ele>1104.5</ele>
        <time>2013-05-09T09:31:03Z</time>
      </trkpt>
      <trkpt lat="44.651" lon="3.88133">
        <ele>1104.3</ele>
        <time>2013-05-09T09:31:04Z</time>
      </trkpt>
      <trkpt lat="44.65103" lon="3.88153">
        <ele>1102.9</ele>
        <time>2013-05-09T09:31:20Z</time>
      </trkpt>
      <trkpt lat="44.65104" lon="3.88165">
        <ele>1102.3</ele>
        <time>2013-05-09T09:31:27Z</time>
      </trkpt>
      <trkpt lat="44.65105" lon="3.88176">
        <ele>1101.5</ele>
        <time>2013-05-09T09:31:34Z</time>
      </trkpt>
      <trkpt lat="44.65108" lon="3.88187">
        <ele>1100.8</ele>
        <time>2013-05-09T09:31:43Z</time>
      </trkpt>
      <trkpt lat="44.65106" lon="3.88199">
        <ele>1099.7</ele>
        <time>2013-05-09T09:31:52Z</time>
      </trkpt>
      <trkpt lat="44.65107" lon="3.88211">
        <ele>1099</ele>
        <time>2013-05-09T09:31:58Z</time>
      </trkpt>
      <trkpt lat="44.6511" lon="3.88222">
        <ele>1098.1</ele>
        <time>2013-05-09T09:32:06Z</time>
      </trkpt>
      <trkpt lat="44.6511" lon="3.88224">
        <ele>1098</ele>
        <time>2013-05-09T09:32:07Z</time>
      </trkpt>
      <trkpt lat="44.65116" lon="3.88243">
        <ele>1095.7</ele>
        <time>2013-05-09T09:32:22Z</time>
      </trkpt>
      <trkpt lat="44.65118" lon="3.88254">
        <ele>1094.4</ele>
        <time>2013-05-09T09:32:31Z</time>
      </trkpt>
      <trkpt lat="44.6512" lon="3.88265">
        <ele>1093.2</ele>
        <time>2013-05-09T09:32:40Z</time>
      </trkpt>
      <trkpt lat="44.65121" lon="3.88276">
        <ele>1092</ele>
        <time>2013-05-09T09:32:47Z</time>
      </trkpt>
      <trkpt lat="44.65122" lon="3.88287">
        <ele>1091.1</ele>
        <time>2013-05-09T09:32:53Z</time>
      </trkpt>
      <trkpt lat="44.65122" lon="3.88298">
        <ele>1090.1</ele>
        <time>2013-05-09T09:32:59Z</time>
      </trkpt>
      <trkpt lat="44.65122" lon="3.8831">
        <ele>1088.9</ele>
        <time>2013-05-09T09:33:07Z</time>
      </trkpt>
      <trkpt lat="44.65122" lon="3.88311">
        <ele>1088.8</ele>
        <time>2013-05-09T09:33:08Z</time>
      </trkpt>
      <trkpt lat="44.65123" lon="3.88334">
        <ele>1087.4</ele>
        <time>2013-05-09T09:33:22Z</time>
      </trkpt>
      <trkpt lat="44.65123" lon="3.88346">
        <ele>1087.2</ele>
        <time>2013-05-09T09:33:28Z</time>
      </trkpt>
      <trkpt lat="44.6512" lon="3.88356">
        <ele>1086.6</ele>
        <time>2013-05-09T09:33:34Z</time>
      </trkpt>
      <trkpt lat="44.65117" lon="3.88366">
        <ele>1085.7</ele>
        <time>2013-05-09T09:33:40Z</time>
      </trkpt>
      <trkpt lat="44.65115" lon="3.88378">
        <ele>1085</ele>
        <time>2013-05-09T09:33:47Z</time>
      </trkpt>
      <trkpt lat="44.65114" lon="3.8839">
        <ele>1084.1</ele>
        <time>2013-05-09T09:33:54Z</time>
      </trkpt>
      <trkpt lat="44.6511" lon="3.88401">
        <ele>1083.6</ele>
        <time>2013-05-09T09:34:01Z</time>
      </trkpt>
      <trkpt lat="44.65111" lon="3.88412">
        <ele>1083.2</ele>
        <time>2013-05-09T09:34:09Z</time>
      </trkpt>
      <trkpt lat="44.65111" lon="3.88414">
        <ele>1083.1</ele>
        <time>2013-05-09T09:34:10Z</time>
      </trkpt>
      <trkpt lat="44.65114" lon="3.88436">
        <ele>1082.4</ele>
        <time>2013-05-09T09:34:24Z</time>
      </trkpt>
      <trkpt lat="44.6511" lon="3.88447">
        <ele>1082</ele>
        <time>2013-05-09T09:34:31Z</time>
      </trkpt>
      <trkpt lat="44.65108" lon="3.88459">
        <ele>1080.6</ele>
        <time>2013-05-09T09:34:39Z</time>
      </trkpt>
      <trkpt lat="44.65105" lon="3.88471">
        <ele>1079.3</ele>
        <time>2013-05-09T09:34:47Z</time>
      </trkpt>
      <trkpt lat="44.65101" lon="3.88482">
        <ele>1078.6</ele>
        <time>2013-05-09T09:34:56Z</time>
      </trkpt>
      <trkpt lat="44.65098" lon="3.88493">
        <ele>1077.5</ele>
        <time>2013-05-09T09:35:03Z</time>
      </trkpt>
      <trkpt lat="44.65099" lon="3.88504">
        <ele>1076.8</ele>
        <time>2013-05-09T09:35:09Z</time>
      </trkpt>
      <trkpt lat="44.65097" lon="3.88515">
        <ele>1076.1</ele>
        <time>2013-05-09T09:35:15Z</time>
      </trkpt>
      <trkpt lat="44.65097" lon="3.88517">
        <ele>1076</ele>
        <time>2013-05-09T09:35:16Z</time>
      </trkpt>
      <trkpt lat="44.65095" lon="3.88539">
        <ele>1073.8</ele>
        <time>2013-05-09T09:35:29Z</time>
      </trkpt>
      <trkpt lat="44.65093" lon="3.88551">
        <ele>1072.9</ele>
        <time>2013-05-09T09:35:36Z</time>
      </trkpt>
      <trkpt lat="44.65091" lon="3.88563">
        <ele>1071.4</ele>
        <time>2013-05-09T09:35:44Z</time>
      </trkpt>
      <trkpt lat="44.6509" lon="3.88574">
        <ele>1070.5</ele>
        <time>2013-05-09T09:35:51Z</time>
      </trkpt>
      <trkpt lat="44.65084" lon="3.88582">
        <ele>1069.1</ele>
        <time>2013-05-09T09:35:58Z</time>
      </trkpt>
      <trkpt lat="44.65084" lon="3.88595">
        <ele>1067.6</ele>
        <time>2013-05-09T09:36:06Z</time>
      </trkpt>
      <trkpt lat="44.65079" lon="3.88605">
        <ele>1066.8</ele>
        <time>2013-05-09T09:36:14Z</time>
      </trkpt>
      <trkpt lat="44.65075" lon="3.88615">
        <ele>1066.5</ele>
        <time>2013-05-09T09:36:21Z</time>
      </trkpt>
      <trkpt lat="44.65074" lon="3.88616">
        <ele>1066.4</ele>
        <time>2013-05-09T09:36:22Z</time>
      </trkpt>
      <trkpt lat="44.65068" lon="3.88636">
        <ele>1064.6</ele>
        <time>2013-05-09T09:36:35Z</time>
      </trkpt>
      <trkpt lat="44.65065" lon="3.88648">
        <ele>1063.3</ele>
        <time>2013-05-09T09:36:42Z</time>
      </trkpt>
      <trkpt lat="44.65059" lon="3.88655">
        <ele>1062.3</ele>
        <time>2013-05-09T09:36:49Z</time>
      </trkpt>
      <trkpt lat="44.65052" lon="3.88662">
        <ele>1061.3</ele>
        <time>2013-05-09T09:36:58Z</time>
      </trkpt>
      <trkpt lat="44.65043" lon="3.88665">
        <ele>1051.4</ele>
        <time>2013-05-09T09:37:49Z</time>
      </trkpt>
      <trkpt lat="44.65042" lon="3.88666">
        <ele>1051.4</ele>
        <time>2013-05-09T09:37:50Z</time>
      </trkpt>
      <trkpt lat="44.65033" lon="3.88684">
        <ele>1051.2</ele>
        <time>2013-05-09T09:38:11Z</time>
      </trkpt>
      <trkpt lat="44.65027" lon="3.8869">
        <ele>1051.1</ele>
        <time>2013-05-09T09:38:17Z</time>
      </trkpt>
      <trkpt lat="44.65019" lon="3.88695">
        <ele>1050.7</ele>
        <time>2013-05-09T09:38:21Z</time>
      </trkpt>
      <trkpt lat="44.65024" lon="3.88705">
        <ele>1049.1</ele>
        <time>2013-05-09T09:39:09Z</time>
      </trkpt>
      <trkpt lat="44.65024" lon="3.88707">
        <ele>1049</ele>
        <time>2013-05-09T09:39:10Z</time>
      </trkpt>
      <trkpt lat="44.65038" lon="3.88717">
        <ele>1047.9</ele>
        <time>2013-05-09T09:39:26Z</time>
      </trkpt>
      <trkpt lat="44.65046" lon="3.8872">
        <ele>1047.3</ele>
        <time>2013-05-09T09:39:33Z</time>
      </trkpt>
      <trkpt lat="44.65052" lon="3.88729">
        <ele>1046.6</ele>
        <time>2013-05-09T09:39:40Z</time>
      </trkpt>
      <trkpt lat="44.65059" lon="3.88737">
        <ele>1045.7</ele>
        <time>2013-05-09T09:39:46Z</time>
      </trkpt>
      <trkpt lat="44.65066" lon="3.88743">
        <ele>1044.6</ele>
        <time>2013-05-09T09:39:54Z</time>
      </trkpt>
      <trkpt lat="44.65073" lon="3.88749">
        <ele>1043.7</ele>
        <time>2013-05-09T09:40:01Z</time>
      </trkpt>
      <trkpt lat="44.6508" lon="3.88755">
        <ele>1042.8</ele>
        <time>2013-05-09T09:40:09Z</time>
      </trkpt>
      <trkpt lat="44.65087" lon="3.8876">
        <ele>1040.4</ele>
        <time>2013-05-09T09:40:21Z</time>
      </trkpt>
      <trkpt lat="44.65088" lon="3.88761">
        <ele>1040.3</ele>
        <time>2013-05-09T09:40:22Z</time>
      </trkpt>
      <trkpt lat="44.65087" lon="3.8878">
        <ele>1035.8</ele>
        <time>2013-05-09T09:40:41Z</time>
      </trkpt>
      <trkpt lat="44.65083" lon="3.88787">
        <ele>1032</ele>
        <time>2013-05-09T09:41:10Z</time>
      </trkpt>
      <trkpt lat="44.65091" lon="3.88781">
        <ele>1023</ele>
        <time>2013-05-09T09:42:21Z</time>
      </trkpt>
      <trkpt lat="44.65091" lon="3.88781">
        <ele>1022.9</ele>
        <time>2013-05-09T09:42:22Z</time>
      </trkpt>
      <trkpt lat="44.65107" lon="3.88773">
        <ele>1020.8</ele>
        <time>2013-05-09T09:44:33Z</time>
      </trkpt>
      <trkpt lat="44.65107" lon="3.88774">
        <ele>1020.7</ele>
        <time>2013-05-09T09:44:34Z</time>
      </trkpt>
      <trkpt lat="44.65122" lon="3.88783">
        <ele>1019.8</ele>
        <time>2013-05-09T09:44:53Z</time>
      </trkpt>
      <trkpt lat="44.6513" lon="3.88784">
        <ele>1019.2</ele>
        <time>2013-05-09T09:45:03Z</time>
      </trkpt>
      <trkpt lat="44.65136" lon="3.88794">
        <ele>1017.6</ele>
        <time>2013-05-09T09:45:16Z</time>
      </trkpt>
      <trkpt lat="44.65144" lon="3.88796">
        <ele>1016.2</ele>
        <time>2013-05-09T09:45:32Z</time>
      </trkpt>
      <trkpt lat="44.65152" lon="3.88802">
        <ele>1015</ele>
        <time>2013-05-09T09:45:42Z</time>
      </trkpt>
      <trkpt lat="44.65153" lon="3.88802">
        <ele>1014.9</ele>
        <time>2013-05-09T09:45:43Z</time>
      </trkpt>
      <trkpt lat="44.65165" lon="3.88816">
        <ele>1013.5</ele>
        <time>2013-05-09T09:45:58Z</time>
      </trkpt>
      <trkpt lat="44.6517" lon="3.88825">
        <ele>1013.1</ele>
        <time>2013-05-09T09:46:04Z</time>
      </trkpt>
      <trkpt lat="44.65174" lon="3.88837">
        <ele>1012.2</ele>
        <time>2013-05-09T09:46:11Z</time>
      </trkpt>
      <trkpt lat="44.65174" lon="3.88848">
        <ele>1011.1</ele>
        <time>2013-05-09T09:46:30Z</time>
      </trkpt>
      <trkpt lat="44.65178" lon="3.88857">
        <ele>1010.5</ele>
        <time>2013-05-09T09:46:36Z</time>
      </trkpt>
      <trkpt lat="44.65179" lon="3.88869">
        <ele>1009.8</ele>
        <time>2013-05-09T09:46:44Z</time>
      </trkpt>
      <trkpt lat="44.65179" lon="3.88871">
        <ele>1009.7</ele>
        <time>2013-05-09T09:46:45Z</time>
      </trkpt>
      <trkpt lat="44.65181" lon="3.88892">
        <ele>1009.1</ele>
        <time>2013-05-09T09:46:58Z</time>
      </trkpt>
      <trkpt lat="44.6518" lon="3.88904">
        <ele>1008.5</ele>
        <time>2013-05-09T09:47:06Z</time>
      </trkpt>
      <trkpt lat="44.65176" lon="3.88913">
        <ele>1007.9</ele>
        <time>2013-05-09T09:47:13Z</time>
      </trkpt>
      <trkpt lat="44.65171" lon="3.88921">
        <ele>1006.9</ele>
        <time>2013-05-09T09:47:19Z</time>
      </trkpt>
      <trkpt lat="44.65165" lon="3.88931">
        <ele>1004.9</ele>
        <time>2013-05-09T09:47:28Z</time>
      </trkpt>
      <trkpt lat="44.65165" lon="3.88942">
        <ele>1003.5</ele>
        <time>2013-05-09T09:47:35Z</time>
      </trkpt>
      <trkpt lat="44.65165" lon="3.88954">
        <ele>1002.2</ele>
        <time>2013-05-09T09:47:41Z</time>
      </trkpt>
      <trkpt lat="44.65161" lon="3.88964">
        <ele>999.9</ele>
        <time>2013-05-09T09:47:52Z</time>
      </trkpt>
      <trkpt lat="44.6516" lon="3.88964">
        <ele>999.8</ele>
        <time>2013-05-09T09:47:53Z</time>
      </trkpt>
      <trkpt lat="44.65145" lon="3.8897">
        <ele>998</ele>
        <time>2013-05-09T09:48:07Z</time>
      </trkpt>
      <trkpt lat="44.65137" lon="3.88973">
        <ele>997.8</ele>
        <time>2013-05-09T09:48:13Z</time>
      </trkpt>
      <trkpt lat="44.65128" lon="3.88972">
        <ele>997.3</ele>
        <time>2013-05-09T09:48:21Z</time>
      </trkpt>
      <trkpt lat="44.6512" lon="3.88972">
        <ele>996.4</ele>
        <time>2013-05-09T09:48:29Z</time>
      </trkpt>
      <trkpt lat="44.65112" lon="3.88973">
        <ele>995.6</ele>
        <time>2013-05-09T09:48:35Z</time>
      </trkpt>
      <trkpt lat="44.65104" lon="3.88976">
        <ele>994.6</ele>
        <time>2013-05-09T09:48:41Z</time>
      </trkpt>
      <trkpt lat="44.65096" lon="3.88974">
        <ele>993.2</ele>
        <time>2013-05-09T09:48:49Z</time>
      </trkpt>
      <trkpt lat="44.65088" lon="3.88974">
        <ele>992.3</ele>
        <time>2013-05-09T09:48:56Z</time>
      </trkpt>
      <trkpt lat="44.65087" lon="3.88974">
        <ele>992.2</ele>
        <time>2013-05-09T09:48:57Z</time>
      </trkpt>
      <trkpt lat="44.65071" lon="3.88969">
        <ele>989.4</ele>
        <time>2013-05-09T09:49:16Z</time>
      </trkpt>
      <trkpt lat="44.65062" lon="3.88971">
        <ele>987.6</ele>
        <time>2013-05-09T09:49:27Z</time>
      </trkpt>
      <trkpt lat="44.65055" lon="3.88978">
        <ele>986.1</ele>
        <time>2013-05-09T09:49:35Z</time>
      </trkpt>
      <trkpt lat="44.65048" lon="3.88984">
        <ele>984.9</ele>
        <time>2013-05-09T09:49:44Z</time>
      </trkpt>
      <trkpt lat="44.65041" lon="3.88991">
        <ele>983.9</ele>
        <time>2013-05-09T09:49:50Z</time>
      </trkpt>
      <trkpt lat="44.65034" lon="3.88997">
        <ele>982.7</ele>
        <time>2013-05-09T09:49:55Z</time>
      </trkpt>
      <trkpt lat="44.65027" lon="3.89">
        <ele>981.3</ele>
        <time>2013-05-09T09:50:01Z</time>
      </trkpt>
      <trkpt lat="44.65025" lon="3.89001">
        <ele>981.4</ele>
        <time>2013-05-09T09:50:02Z</time>
      </trkpt>
      <trkpt lat="44.6501" lon="3.89002">
        <ele>979.5</ele>
        <time>2013-05-09T09:50:18Z</time>
      </trkpt>
      <trkpt lat="44.65002" lon="3.89005">
        <ele>979.1</ele>
        <time>2013-05-09T09:50:21Z</time>
      </trkpt>
      <trkpt lat="44.64994" lon="3.89006">
        <ele>977.9</ele>
        <time>2013-05-09T09:50:26Z</time>
      </trkpt>
      <trkpt lat="44.64985" lon="3.89007">
        <ele>976.7</ele>
        <time>2013-05-09T09:50:33Z</time>
      </trkpt>
      <trkpt lat="44.64977" lon="3.89008">
        <ele>975.2</ele>
        <time>2013-05-09T09:50:41Z</time>
      </trkpt>
      <trkpt lat="44.64968" lon="3.89013">
        <ele>973.4</ele>
        <time>2013-05-09T09:50:49Z</time>
      </trkpt>
      <trkpt lat="44.64961" lon="3.89017">
        <ele>971.9</ele>
        <time>2013-05-09T09:50:56Z</time>
      </trkpt>
      <trkpt lat="44.64955" lon="3.89018">
        <ele>970.2</ele>
        <time>2013-05-09T09:51:18Z</time>
      </trkpt>
      <trkpt lat="44.64951" lon="3.89017">
        <ele>969.4</ele>
        <time>2013-05-09T09:51:19Z</time>
      </trkpt>
      <trkpt lat="44.64938" lon="3.89023">
        <ele>968.5</ele>
        <time>2013-05-09T09:51:32Z</time>
      </trkpt>
      <trkpt lat="44.64929" lon="3.89028">
        <ele>967</ele>
        <time>2013-05-09T09:51:42Z</time>
      </trkpt>
      <trkpt lat="44.64921" lon="3.89031">
        <ele>966.6</ele>
        <time>2013-05-09T09:51:48Z</time>
      </trkpt>
      <trkpt lat="44.64913" lon="3.89033">
        <ele>966.4</ele>
        <time>2013-05-09T09:51:54Z</time>
      </trkpt>
      <trkpt lat="44.64906" lon="3.89037">
        <ele>966.1</ele>
        <time>2013-05-09T09:52:00Z</time>
      </trkpt>
      <trkpt lat="44.64898" lon="3.89035">
        <ele>966</ele>
        <time>2013-05-09T09:52:06Z</time>
      </trkpt>
      <trkpt lat="44.6489" lon="3.89032">
        <ele>965.2</ele>
        <time>2013-05-09T09:52:13Z</time>
      </trkpt>
      <trkpt lat="44.64882" lon="3.89029">
        <ele>964</ele>
        <time>2013-05-09T09:52:20Z</time>
      </trkpt>
      <trkpt lat="44.64881" lon="3.89028">
        <ele>963.9</ele>
        <time>2013-05-09T09:52:21Z</time>
      </trkpt>
      <trkpt lat="44.64869" lon="3.89042">
        <ele>960</ele>
        <time>2013-05-09T09:52:47Z</time>
      </trkpt>
      <trkpt lat="44.64862" lon="3.8905">
        <ele>958.7</ele>
        <time>2013-05-09T09:52:55Z</time>
      </trkpt>
      <trkpt lat="44.64856" lon="3.89059">
        <ele>957.5</ele>
        <time>2013-05-09T09:53:08Z</time>
      </trkpt>
      <trkpt lat="44.64849" lon="3.89067">
        <ele>957.2</ele>
        <time>2013-05-09T09:53:14Z</time>
      </trkpt>
      <trkpt lat="44.64843" lon="3.89074">
        <ele>956.7</ele>
        <time>2013-05-09T09:53:22Z</time>
      </trkpt>
      <trkpt lat="44.64842" lon="3.89075">
        <ele>956.7</ele>
        <time>2013-05-09T09:53:23Z</time>
      </trkpt>
      <trkpt lat="44.64828" lon="3.89084">
        <ele>955.9</ele>
        <time>2013-05-09T09:53:36Z</time>
      </trkpt>
      <trkpt lat="44.64821" lon="3.8909">
        <ele>955.8</ele>
        <time>2013-05-09T09:53:44Z</time>
      </trkpt>
      <trkpt lat="44.64815" lon="3.89097">
        <ele>955.8</ele>
        <time>2013-05-09T09:53:51Z</time>
      </trkpt>
      <trkpt lat="44.64807" lon="3.89102">
        <ele>955.5</ele>
        <time>2013-05-09T09:53:59Z</time>
      </trkpt>
      <trkpt lat="44.648" lon="3.89108">
        <ele>955.5</ele>
        <time>2013-05-09T09:54:07Z</time>
      </trkpt>
      <trkpt lat="44.64793" lon="3.89113">
        <ele>955.6</ele>
        <time>2013-05-09T09:54:16Z</time>
      </trkpt>
      <trkpt lat="44.64784" lon="3.89115">
        <ele>955.9</ele>
        <time>2013-05-09T09:54:24Z</time>
      </trkpt>
      <trkpt lat="44.64783" lon="3.89115">
        <ele>956</ele>
        <time>2013-05-09T09:54:25Z</time>
      </trkpt>
      <trkpt lat="44.64767" lon="3.89118">
        <ele>956.5</ele>
        <time>2013-05-09T09:54:43Z</time>
      </trkpt>
      <trkpt lat="44.64759" lon="3.89119">
        <ele>957</ele>
        <time>2013-05-09T09:55:04Z</time>
      </trkpt>
      <trkpt lat="44.6475" lon="3.89122">
        <ele>956.9</ele>
        <time>2013-05-09T09:55:20Z</time>
      </trkpt>
      <trkpt lat="44.64745" lon="3.89125">
        <ele>956.9</ele>
        <time>2013-05-09T09:55:56Z</time>
      </trkpt>
      <trkpt lat="44.64742" lon="3.89129">
        <ele>957</ele>
        <time>2013-05-09T09:55:57Z</time>
      </trkpt>
      <trkpt lat="44.64747" lon="3.89129">
        <ele>956.5</ele>
        <time>2013-05-09T09:56:30Z</time>
      </trkpt>
      <trkpt lat="44.64755" lon="3.89129">
        <ele>956.7</ele>
        <time>2013-05-09T09:56:38Z</time>
      </trkpt>
      <trkpt lat="44.64764" lon="3.8913">
        <ele>957.6</ele>
        <time>2013-05-09T09:56:49Z</time>
      </trkpt>
      <trkpt lat="44.6477" lon="3.89122">
        <ele>959.4</ele>
        <time>2013-05-09T09:57:13Z</time>
      </trkpt>
      <trkpt lat="44.64771" lon="3.89121">
        <ele>959.4</ele>
        <time>2013-05-09T09:57:14Z</time>
      </trkpt>
      <trkpt lat="44.64765" lon="3.89141">
        <ele>959.5</ele>
        <time>2013-05-09T09:57:19Z</time>
      </trkpt>
      <trkpt lat="44.64759" lon="3.89152">
        <ele>959.6</ele>
        <time>2013-05-09T09:57:20Z</time>
      </trkpt>
      <trkpt lat="44.64764" lon="3.89162">
        <ele>959.6</ele>
        <time>2013-05-09T09:57:21Z</time>
      </trkpt>
      <trkpt lat="44.64758" lon="3.89173">
        <ele>959.6</ele>
        <time>2013-05-09T09:57:22Z</time>
      </trkpt>
      <trkpt lat="44.64755" lon="3.89182">
        <ele>959.7</ele>
        <time>2013-05-09T09:57:23Z</time>
      </trkpt>
      <trkpt lat="44.64752" lon="3.89188">
        <ele>959.7</ele>
        <time>2013-05-09T09:57:24Z</time>
      </trkpt>
      <trkpt lat="44.64749" lon="3.89199">
        <ele>959.8</ele>
        <time>2013-05-09T09:57:26Z</time>
      </trkpt>
      <trkpt lat="44.64747" lon="3.89209">
        <ele>959.8</ele>
        <time>2013-05-09T09:57:29Z</time>
      </trkpt>
      <trkpt lat="44.64746" lon="3.89221">
        <ele>960</ele>
        <time>2013-05-09T09:57:36Z</time>
      </trkpt>
      <trkpt lat="44.64748" lon="3.89216">
        <ele>960</ele>
        <time>2013-05-09T09:57:47Z</time>
      </trkpt>
      <trkpt lat="44.64755" lon="3.89206">
        <ele>959.8</ele>
        <time>2013-05-09T09:57:48Z</time>
      </trkpt>
      <trkpt lat="44.64754" lon="3.89199">
        <ele>959.7</ele>
        <time>2013-05-09T09:57:49Z</time>
      </trkpt>
      <trkpt lat="44.64752" lon="3.89193">
        <ele>959.7</ele>
        <time>2013-05-09T09:57:50Z</time>
      </trkpt>
      <trkpt lat="44.6475" lon="3.89181">
        <ele>959.6</ele>
        <time>2013-05-09T09:57:52Z</time>
      </trkpt>
      <trkpt lat="44.64752" lon="3.89168">
        <ele>959.6</ele>
        <time>2013-05-09T09:57:55Z</time>
      </trkpt>
      <trkpt lat="44.64757" lon="3.89162">
        <ele>959.6</ele>
        <time>2013-05-09T09:57:57Z</time>
      </trkpt>
      <trkpt lat="44.64762" lon="3.89153">
        <ele>959.7</ele>
        <time>2013-05-09T09:58:01Z</time>
      </trkpt>
      <trkpt lat="44.64768" lon="3.89162">
        <ele>959.7</ele>
        <time>2013-05-09T09:58:41Z</time>
      </trkpt>
      <trkpt lat="44.64768" lon="3.89163">
        <ele>959.7</ele>
        <time>2013-05-09T09:58:42Z</time>
      </trkpt>
      <trkpt lat="44.64754" lon="3.89165">
        <ele>959.9</ele>
        <time>2013-05-09T09:58:58Z</time>
      </trkpt>
      <trkpt lat="44.64759" lon="3.89157">
        <ele>959.9</ele>
        <time>2013-05-09T09:59:03Z</time>
      </trkpt>
      <trkpt lat="44.64763" lon="3.89147">
        <ele>960</ele>
        <time>2013-05-09T09:59:06Z</time>
      </trkpt>
      <trkpt lat="44.64762" lon="3.89134">
        <ele>960</ele>
        <time>2013-05-09T09:59:11Z</time>
      </trkpt>
      <trkpt lat="44.64754" lon="3.89133">
        <ele>960</ele>
        <time>2013-05-09T09:59:15Z</time>
      </trkpt>
      <trkpt lat="44.64753" lon="3.89145">
        <ele>960.2</ele>
        <time>2013-05-09T09:59:30Z</time>
      </trkpt>
      <trkpt lat="44.64755" lon="3.89158">
        <ele>960.2</ele>
        <time>2013-05-09T09:59:37Z</time>
      </trkpt>
      <trkpt lat="44.64758" lon="3.89166">
        <ele>960.2</ele>
        <time>2013-05-09T09:59:46Z</time>
      </trkpt>
      <trkpt lat="44.64767" lon="3.89131">
        <ele>967</ele>
        <time>2013-05-09T10:00:12Z</time>
      </trkpt>
      <trkpt lat="44.64759" lon="3.89134">
        <ele>965.4</ele>
        <time>2013-05-09T10:00:25Z</time>
      </trkpt>
      <trkpt lat="44.64751" lon="3.89128">
        <ele>963.4</ele>
        <time>2013-05-09T10:00:36Z</time>
      </trkpt>
      <trkpt lat="44.64744" lon="3.89133">
        <ele>962.4</ele>
        <time>2013-05-09T10:00:45Z</time>
      </trkpt>
      <trkpt lat="44.64735" lon="3.89135">
        <ele>961.2</ele>
        <time>2013-05-09T10:00:54Z</time>
      </trkpt>
      <trkpt lat="44.64727" lon="3.89141">
        <ele>960.6</ele>
        <time>2013-05-09T10:01:06Z</time>
      </trkpt>
      <trkpt lat="44.64719" lon="3.89141">
        <ele>960.2</ele>
        <time>2013-05-09T10:01:14Z</time>
      </trkpt>
      <trkpt lat="44.64718" lon="3.89141">
        <ele>960</ele>
        <time>2013-05-09T10:01:15Z</time>
      </trkpt>
      <trkpt lat="44.64702" lon="3.89146">
        <ele>958.5</ele>
        <time>2013-05-09T10:01:29Z</time>
      </trkpt>
      <trkpt lat="44.64694" lon="3.8915">
        <ele>957</ele>
        <time>2013-05-09T10:01:41Z</time>
      </trkpt>
      <trkpt lat="44.64688" lon="3.89157">
        <ele>956.8</ele>
        <time>2013-05-09T10:01:52Z</time>
      </trkpt>
      <trkpt lat="44.64679" lon="3.89161">
        <ele>955.9</ele>
        <time>2013-05-09T10:02:01Z</time>
      </trkpt>
      <trkpt lat="44.64671" lon="3.89164">
        <ele>955.5</ele>
        <time>2013-05-09T10:02:09Z</time>
      </trkpt>
      <trkpt lat="44.64663" lon="3.89168">
        <ele>955.1</ele>
        <time>2013-05-09T10:02:19Z</time>
      </trkpt>
      <trkpt lat="44.64662" lon="3.89168">
        <ele>955.1</ele>
        <time>2013-05-09T10:02:20Z</time>
      </trkpt>
      <trkpt lat="44.64648" lon="3.89178">
        <ele>955</ele>
        <time>2013-05-09T10:02:34Z</time>
      </trkpt>
      <trkpt lat="44.6464" lon="3.89185">
        <ele>954.7</ele>
        <time>2013-05-09T10:02:43Z</time>
      </trkpt>
      <trkpt lat="44.64633" lon="3.89192">
        <ele>954</ele>
        <time>2013-05-09T10:02:51Z</time>
      </trkpt>
      <trkpt lat="44.64627" lon="3.89201">
        <ele>954.3</ele>
        <time>2013-05-09T10:03:00Z</time>
      </trkpt>
      <trkpt lat="44.64624" lon="3.89212">
        <ele>954.6</ele>
        <time>2013-05-09T10:03:12Z</time>
      </trkpt>
      <trkpt lat="44.64618" lon="3.89221">
        <ele>954.9</ele>
        <time>2013-05-09T10:03:22Z</time>
      </trkpt>
      <trkpt lat="44.64618" lon="3.89222">
        <ele>954.9</ele>
        <time>2013-05-09T10:03:23Z</time>
      </trkpt>
      <trkpt lat="44.64608" lon="3.8924">
        <ele>954.8</ele>
        <time>2013-05-09T10:03:37Z</time>
      </trkpt>
      <trkpt lat="44.64603" lon="3.89249">
        <ele>955</ele>
        <time>2013-05-09T10:03:45Z</time>
      </trkpt>
      <trkpt lat="44.64596" lon="3.89256">
        <ele>955.2</ele>
        <time>2013-05-09T10:03:52Z</time>
      </trkpt>
      <trkpt lat="44.6459" lon="3.89265">
        <ele>955.3</ele>
        <time>2013-05-09T10:03:59Z</time>
      </trkpt>
      <trkpt lat="44.64584" lon="3.89272">
        <ele>955.2</ele>
        <time>2013-05-09T10:04:05Z</time>
      </trkpt>
      <trkpt lat="44.64578" lon="3.8928">
        <ele>955</ele>
        <time>2013-05-09T10:04:11Z</time>
      </trkpt>
      <trkpt lat="44.64571" lon="3.89288">
        <ele>954.6</ele>
        <time>2013-05-09T10:04:19Z</time>
      </trkpt>
      <trkpt lat="44.64565" lon="3.89296">
        <ele>954.5</ele>
        <time>2013-05-09T10:04:27Z</time>
      </trkpt>
      <trkpt lat="44.64564" lon="3.89297">
        <ele>954.5</ele>
        <time>2013-05-09T10:04:28Z</time>
      </trkpt>
      <trkpt lat="44.64552" lon="3.89312">
        <ele>954</ele>
        <time>2013-05-09T10:04:44Z</time>
      </trkpt>
      <trkpt lat="44.64545" lon="3.8932">
        <ele>953.8</ele>
        <time>2013-05-09T10:04:51Z</time>
      </trkpt>
      <trkpt lat="44.64538" lon="3.89327">
        <ele>953.4</ele>
        <time>2013-05-09T10:04:59Z</time>
      </trkpt>
      <trkpt lat="44.6453" lon="3.89332">
        <ele>953</ele>
        <time>2013-05-09T10:05:07Z</time>
      </trkpt>
      <trkpt lat="44.64522" lon="3.89337">
        <ele>952.7</ele>
        <time>2013-05-09T10:05:15Z</time>
      </trkpt>
      <trkpt lat="44.64515" lon="3.89344">
        <ele>951.9</ele>
        <time>2013-05-09T10:05:23Z</time>
      </trkpt>
      <trkpt lat="44.64508" lon="3.89349">
        <ele>951.4</ele>
        <time>2013-05-09T10:05:30Z</time>
      </trkpt>
      <trkpt lat="44.64507" lon="3.8935">
        <ele>951.4</ele>
        <time>2013-05-09T10:05:31Z</time>
      </trkpt>
      <trkpt lat="44.64493" lon="3.89362">
        <ele>950.6</ele>
        <time>2013-05-09T10:05:44Z</time>
      </trkpt>
      <trkpt lat="44.64486" lon="3.89367">
        <ele>950.1</ele>
        <time>2013-05-09T10:05:52Z</time>
      </trkpt>
      <trkpt lat="44.64478" lon="3.89373">
        <ele>949.6</ele>
        <time>2013-05-09T10:06:00Z</time>
      </trkpt>
      <trkpt lat="44.64471" lon="3.89379">
        <ele>949.3</ele>
        <time>2013-05-09T10:06:07Z</time>
      </trkpt>
      <trkpt lat="44.64463" lon="3.89383">
        <ele>949</ele>
        <time>2013-05-09T10:06:14Z</time>
      </trkpt>
      <trkpt lat="44.64455" lon="3.89386">
        <ele>948.7</ele>
        <time>2013-05-09T10:06:22Z</time>
      </trkpt>
      <trkpt lat="44.64447" lon="3.89392">
        <ele>948.2</ele>
        <time>2013-05-09T10:06:30Z</time>
      </trkpt>
      <trkpt lat="44.6444" lon="3.89397">
        <ele>947.8</ele>
        <time>2013-05-09T10:06:39Z</time>
      </trkpt>
      <trkpt lat="44.64439" lon="3.89397">
        <ele>947.7</ele>
        <time>2013-05-09T10:06:40Z</time>
      </trkpt>
      <trkpt lat="44.64425" lon="3.89403">
        <ele>947</ele>
        <time>2013-05-09T10:06:53Z</time>
      </trkpt>
      <trkpt lat="44.64417" lon="3.89407">
        <ele>946.4</ele>
        <time>2013-05-09T10:06:59Z</time>
      </trkpt>
      <trkpt lat="44.64409" lon="3.8941">
        <ele>945.9</ele>
        <time>2013-05-09T10:07:05Z</time>
      </trkpt>
      <trkpt lat="44.644" lon="3.89413">
        <ele>945.2</ele>
        <time>2013-05-09T10:07:13Z</time>
      </trkpt>
      <trkpt lat="44.64392" lon="3.89417">
        <ele>944.6</ele>
        <time>2013-05-09T10:07:21Z</time>
      </trkpt>
      <trkpt lat="44.64384" lon="3.8942">
        <ele>944</ele>
        <time>2013-05-09T10:07:29Z</time>
      </trkpt>
      <trkpt lat="44.64376" lon="3.89423">
        <ele>943.6</ele>
        <time>2013-05-09T10:07:36Z</time>
      </trkpt>
      <trkpt lat="44.64368" lon="3.89424">
        <ele>943.2</ele>
        <time>2013-05-09T10:07:43Z</time>
      </trkpt>
      <trkpt lat="44.64367" lon="3.89424">
        <ele>943.2</ele>
        <time>2013-05-09T10:07:44Z</time>
      </trkpt>
      <trkpt lat="44.64351" lon="3.89425">
        <ele>942.2</ele>
        <time>2013-05-09T10:07:57Z</time>
      </trkpt>
      <trkpt lat="44.64343" lon="3.89425">
        <ele>941.7</ele>
        <time>2013-05-09T10:08:03Z</time>
      </trkpt>
      <trkpt lat="44.64335" lon="3.89424">
        <ele>941.4</ele>
        <time>2013-05-09T10:08:10Z</time>
      </trkpt>
      <trkpt lat="44.64326" lon="3.89422">
        <ele>940</ele>
        <time>2013-05-09T10:08:20Z</time>
      </trkpt>
      <trkpt lat="44.64317" lon="3.89421">
        <ele>939.3</ele>
        <time>2013-05-09T10:08:29Z</time>
      </trkpt>
      <trkpt lat="44.64309" lon="3.89419">
        <ele>938.8</ele>
        <time>2013-05-09T10:08:37Z</time>
      </trkpt>
      <trkpt lat="44.643" lon="3.89416">
        <ele>938.1</ele>
        <time>2013-05-09T10:08:45Z</time>
      </trkpt>
      <trkpt lat="44.64299" lon="3.89415">
        <ele>938</ele>
        <time>2013-05-09T10:08:46Z</time>
      </trkpt>
      <trkpt lat="44.64284" lon="3.89407">
        <ele>937</ele>
        <time>2013-05-09T10:09:00Z</time>
      </trkpt>
      <trkpt lat="44.64277" lon="3.89406">
        <ele>936.1</ele>
        <time>2013-05-09T10:09:07Z</time>
      </trkpt>
      <trkpt lat="44.64269" lon="3.89401">
        <ele>935.6</ele>
        <time>2013-05-09T10:09:14Z</time>
      </trkpt>
      <trkpt lat="44.64261" lon="3.89399">
        <ele>934.5</ele>
        <time>2013-05-09T10:09:21Z</time>
      </trkpt>
      <trkpt lat="44.64253" lon="3.89395">
        <ele>934.3</ele>
        <time>2013-05-09T10:09:28Z</time>
      </trkpt>
      <trkpt lat="44.64247" lon="3.89386">
        <ele>934</ele>
        <time>2013-05-09T10:09:45Z</time>
      </trkpt>
      <trkpt lat="44.64244" lon="3.89375">
        <ele>935.2</ele>
        <time>2013-05-09T10:10:28Z</time>
      </trkpt>
      <trkpt lat="44.64243" lon="3.89375">
        <ele>935.1</ele>
        <time>2013-05-09T10:10:29Z</time>
      </trkpt>
      <trkpt lat="44.64227" lon="3.89372">
        <ele>934.9</ele>
        <time>2013-05-09T10:10:43Z</time>
      </trkpt>
      <trkpt lat="44.6422" lon="3.89366">
        <ele>934.8</ele>
        <time>2013-05-09T10:10:50Z</time>
      </trkpt>
      <trkpt lat="44.64213" lon="3.89358">
        <ele>934.6</ele>
        <time>2013-05-09T10:10:58Z</time>
      </trkpt>
      <trkpt lat="44.64205" lon="3.89353">
        <ele>934.6</ele>
        <time>2013-05-09T10:11:05Z</time>
      </trkpt>
      <trkpt lat="44.64198" lon="3.89347">
        <ele>935.2</ele>
        <time>2013-05-09T10:11:12Z</time>
      </trkpt>
      <trkpt lat="44.64191" lon="3.89341">
        <ele>935.7</ele>
        <time>2013-05-09T10:11:18Z</time>
      </trkpt>
      <trkpt lat="44.64185" lon="3.89335">
        <ele>936.2</ele>
        <time>2013-05-09T10:11:24Z</time>
      </trkpt>
      <trkpt lat="44.64178" lon="3.89329">
        <ele>936.3</ele>
        <time>2013-05-09T10:11:30Z</time>
      </trkpt>
      <trkpt lat="44.64177" lon="3.89328">
        <ele>936.3</ele>
        <time>2013-05-09T10:11:31Z</time>
      </trkpt>
      <trkpt lat="44.64164" lon="3.89316">
        <ele>935.6</ele>
        <time>2013-05-09T10:11:43Z</time>
      </trkpt>
      <trkpt lat="44.64156" lon="3.8931">
        <ele>935.3</ele>
        <time>2013-05-09T10:11:50Z</time>
      </trkpt>
      <trkpt lat="44.64149" lon="3.89304">
        <ele>935</ele>
        <time>2013-05-09T10:11:57Z</time>
      </trkpt>
      <trkpt lat="44.64142" lon="3.89297">
        <ele>935</ele>
        <time>2013-05-09T10:12:04Z</time>
      </trkpt>
      <trkpt lat="44.64135" lon="3.89291">
        <ele>934.8</ele>
        <time>2013-05-09T10:12:11Z</time>
      </trkpt>
      <trkpt lat="44.64129" lon="3.89284">
        <ele>934.6</ele>
        <time>2013-05-09T10:12:18Z</time>
      </trkpt>
      <trkpt lat="44.64121" lon="3.89278">
        <ele>934.3</ele>
        <time>2013-05-09T10:12:26Z</time>
      </trkpt>
      <trkpt lat="44.64114" lon="3.89273">
        <ele>933.7</ele>
        <time>2013-05-09T10:12:32Z</time>
      </trkpt>
      <trkpt lat="44.64113" lon="3.89272">
        <ele>933.7</ele>
        <time>2013-05-09T10:12:33Z</time>
      </trkpt>
      <trkpt lat="44.641" lon="3.89261">
        <ele>933.5</ele>
        <time>2013-05-09T10:12:46Z</time>
      </trkpt>
      <trkpt lat="44.64092" lon="3.89255">
        <ele>933.8</ele>
        <time>2013-05-09T10:12:53Z</time>
      </trkpt>
      <trkpt lat="44.64084" lon="3.89252">
        <ele>934.2</ele>
        <time>2013-05-09T10:13:00Z</time>
      </trkpt>
      <trkpt lat="44.64076" lon="3.89249">
        <ele>934.1</ele>
        <time>2013-05-09T10:13:07Z</time>
      </trkpt>
      <trkpt lat="44.64068" lon="3.89247">
        <ele>933.8</ele>
        <time>2013-05-09T10:13:14Z</time>
      </trkpt>
      <trkpt lat="44.64059" lon="3.89245">
        <ele>934</ele>
        <time>2013-05-09T10:13:21Z</time>
      </trkpt>
      <trkpt lat="44.64051" lon="3.89244">
        <ele>934.1</ele>
        <time>2013-05-09T10:13:27Z</time>
      </trkpt>
      <trkpt lat="44.64042" lon="3.89243">
        <ele>934.2</ele>
        <time>2013-05-09T10:13:34Z</time>
      </trkpt>
      <trkpt lat="44.64041" lon="3.89242">
        <ele>934.2</ele>
        <time>2013-05-09T10:13:35Z</time>
      </trkpt>
      <trkpt lat="44.64025" lon="3.89241">
        <ele>933.4</ele>
        <time>2013-05-09T10:13:48Z</time>
      </trkpt>
      <trkpt lat="44.64017" lon="3.89241">
        <ele>932.8</ele>
        <time>2013-05-09T10:13:55Z</time>
      </trkpt>
      <trkpt lat="44.64008" lon="3.8924">
        <ele>932.4</ele>
        <time>2013-05-09T10:14:01Z</time>
      </trkpt>
      <trkpt lat="44.64" lon="3.89241">
        <ele>932</ele>
        <time>2013-05-09T10:14:08Z</time>
      </trkpt>
      <trkpt lat="44.63991" lon="3.89241">
        <ele>931.7</ele>
        <time>2013-05-09T10:14:15Z</time>
      </trkpt>
      <trkpt lat="44.63983" lon="3.89242">
        <ele>931.7</ele>
        <time>2013-05-09T10:14:21Z</time>
      </trkpt>
      <trkpt lat="44.63976" lon="3.89241">
        <ele>931.5</ele>
        <time>2013-05-09T10:14:27Z</time>
      </trkpt>
      <trkpt lat="44.63967" lon="3.89241">
        <ele>931.5</ele>
        <time>2013-05-09T10:14:34Z</time>
      </trkpt>
      <trkpt lat="44.63959" lon="3.8924">
        <ele>931.1</ele>
        <time>2013-05-09T10:14:40Z</time>
      </trkpt>
      <trkpt lat="44.63958" lon="3.8924">
        <ele>931.1</ele>
        <time>2013-05-09T10:14:41Z</time>
      </trkpt>
      <trkpt lat="44.63943" lon="3.89244">
        <ele>931.3</ele>
        <time>2013-05-09T10:14:53Z</time>
      </trkpt>
      <trkpt lat="44.63935" lon="3.89243">
        <ele>931.6</ele>
        <time>2013-05-09T10:15:00Z</time>
      </trkpt>
      <trkpt lat="44.63927" lon="3.89243">
        <ele>931.9</ele>
        <time>2013-05-09T10:15:06Z</time>
      </trkpt>
      <trkpt lat="44.63919" lon="3.89241">
        <ele>932</ele>
        <time>2013-05-09T10:15:12Z</time>
      </trkpt>
      <trkpt lat="44.63911" lon="3.89242">
        <ele>932.1</ele>
        <time>2013-05-09T10:15:19Z</time>
      </trkpt>
      <trkpt lat="44.63904" lon="3.89241">
        <ele>932.3</ele>
        <time>2013-05-09T10:15:25Z</time>
      </trkpt>
      <trkpt lat="44.63895" lon="3.89241">
        <ele>932.2</ele>
        <time>2013-05-09T10:15:32Z</time>
      </trkpt>
      <trkpt lat="44.63886" lon="3.8924">
        <ele>931.7</ele>
        <time>2013-05-09T10:15:39Z</time>
      </trkpt>
      <trkpt lat="44.63878" lon="3.89241">
        <ele>931.1</ele>
        <time>2013-05-09T10:15:47Z</time>
      </trkpt>
      <trkpt lat="44.63877" lon="3.89242">
        <ele>931</ele>
        <time>2013-05-09T10:15:48Z</time>
      </trkpt>
      <trkpt lat="44.63861" lon="3.89244">
        <ele>930.1</ele>
        <time>2013-05-09T10:16:00Z</time>
      </trkpt>
      <trkpt lat="44.63852" lon="3.89244">
        <ele>929.6</ele>
        <time>2013-05-09T10:16:07Z</time>
      </trkpt>
      <trkpt lat="44.63844" lon="3.89246">
        <ele>929</ele>
        <time>2013-05-09T10:16:14Z</time>
      </trkpt>
      <trkpt lat="44.63836" lon="3.89248">
        <ele>928.6</ele>
        <time>2013-05-09T10:16:21Z</time>
      </trkpt>
      <trkpt lat="44.63828" lon="3.8925">
        <ele>928.2</ele>
        <time>2013-05-09T10:16:27Z</time>
      </trkpt>
      <trkpt lat="44.6382" lon="3.89254">
        <ele>928.2</ele>
        <time>2013-05-09T10:16:34Z</time>
      </trkpt>
      <trkpt lat="44.63815" lon="3.89263">
        <ele>927.8</ele>
        <time>2013-05-09T10:16:40Z</time>
      </trkpt>
      <trkpt lat="44.63808" lon="3.8927">
        <ele>927.8</ele>
        <time>2013-05-09T10:16:45Z</time>
      </trkpt>
      <trkpt lat="44.63801" lon="3.89275">
        <ele>927.8</ele>
        <time>2013-05-09T10:16:52Z</time>
      </trkpt>
      <trkpt lat="44.638" lon="3.89276">
        <ele>927.8</ele>
        <time>2013-05-09T10:16:53Z</time>
      </trkpt>
      <trkpt lat="44.63785" lon="3.89283">
        <ele>927.8</ele>
        <time>2013-05-09T10:17:07Z</time>
      </trkpt>
      <trkpt lat="44.63778" lon="3.89289">
        <ele>928.2</ele>
        <time>2013-05-09T10:17:14Z</time>
      </trkpt>
      <trkpt lat="44.6377" lon="3.89295">
        <ele>928.7</ele>
        <time>2013-05-09T10:17:22Z</time>
      </trkpt>
      <trkpt lat="44.63763" lon="3.89303">
        <ele>929</ele>
        <time>2013-05-09T10:17:29Z</time>
      </trkpt>
      <trkpt lat="44.63758" lon="3.89312">
        <ele>929.1</ele>
        <time>2013-05-09T10:17:36Z</time>
      </trkpt>
      <trkpt lat="44.63753" lon="3.89321">
        <ele>929.2</ele>
        <time>2013-05-09T10:17:43Z</time>
      </trkpt>
      <trkpt lat="44.6375" lon="3.89332">
        <ele>929.2</ele>
        <time>2013-05-09T10:17:51Z</time>
      </trkpt>
      <trkpt lat="44.63746" lon="3.89343">
        <ele>929</ele>
        <time>2013-05-09T10:18:09Z</time>
      </trkpt>
      <trkpt lat="44.63745" lon="3.89344">
        <ele>929</ele>
        <time>2013-05-09T10:18:10Z</time>
      </trkpt>
      <trkpt lat="44.63733" lon="3.89358">
        <ele>929</ele>
        <time>2013-05-09T10:18:25Z</time>
      </trkpt>
      <trkpt lat="44.63725" lon="3.89362">
        <ele>929.1</ele>
        <time>2013-05-09T10:18:31Z</time>
      </trkpt>
      <trkpt lat="44.63717" lon="3.89363">
        <ele>929.5</ele>
        <time>2013-05-09T10:18:39Z</time>
      </trkpt>
      <trkpt lat="44.63708" lon="3.89363">
        <ele>929.6</ele>
        <time>2013-05-09T10:18:45Z</time>
      </trkpt>
      <trkpt lat="44.63699" lon="3.89363">
        <ele>929.4</ele>
        <time>2013-05-09T10:18:51Z</time>
      </trkpt>
      <trkpt lat="44.6369" lon="3.89363">
        <ele>929.2</ele>
        <time>2013-05-09T10:18:58Z</time>
      </trkpt>
      <trkpt lat="44.63682" lon="3.89365">
        <ele>929</ele>
        <time>2013-05-09T10:19:05Z</time>
      </trkpt>
      <trkpt lat="44.63674" lon="3.89366">
        <ele>928.9</ele>
        <time>2013-05-09T10:19:12Z</time>
      </trkpt>
      <trkpt lat="44.63673" lon="3.89366">
        <ele>928.9</ele>
        <time>2013-05-09T10:19:13Z</time>
      </trkpt>
      <trkpt lat="44.63659" lon="3.89372">
        <ele>928.6</ele>
        <time>2013-05-09T10:19:26Z</time>
      </trkpt>
      <trkpt lat="44.63651" lon="3.89375">
        <ele>928.7</ele>
        <time>2013-05-09T10:19:33Z</time>
      </trkpt>
      <trkpt lat="44.63642" lon="3.89378">
        <ele>928.8</ele>
        <time>2013-05-09T10:19:40Z</time>
      </trkpt>
      <trkpt lat="44.63634" lon="3.89382">
        <ele>928.8</ele>
        <time>2013-05-09T10:19:46Z</time>
      </trkpt>
      <trkpt lat="44.63626" lon="3.89382">
        <ele>928.9</ele>
        <time>2013-05-09T10:19:52Z</time>
      </trkpt>
      <trkpt lat="44.63618" lon="3.89385">
        <ele>928.9</ele>
        <time>2013-05-09T10:19:59Z</time>
      </trkpt>
      <trkpt lat="44.63609" lon="3.89387">
        <ele>929</ele>
        <time>2013-05-09T10:20:08Z</time>
      </trkpt>
      <trkpt lat="44.63602" lon="3.8939">
        <ele>928.8</ele>
        <time>2013-05-09T10:20:15Z</time>
      </trkpt>
      <trkpt lat="44.63601" lon="3.89391">
        <ele>928.8</ele>
        <time>2013-05-09T10:20:16Z</time>
      </trkpt>
      <trkpt lat="44.63584" lon="3.89394">
        <ele>928.9</ele>
        <time>2013-05-09T10:20:31Z</time>
      </trkpt>
      <trkpt lat="44.63577" lon="3.89397">
        <ele>928.5</ele>
        <time>2013-05-09T10:20:39Z</time>
      </trkpt>
      <trkpt lat="44.63569" lon="3.89398">
        <ele>928</ele>
        <time>2013-05-09T10:20:46Z</time>
      </trkpt>
      <trkpt lat="44.63561" lon="3.89402">
        <ele>927.6</ele>
        <time>2013-05-09T10:20:53Z</time>
      </trkpt>
      <trkpt lat="44.63553" lon="3.89405">
        <ele>927.3</ele>
        <time>2013-05-09T10:21:00Z</time>
      </trkpt>
      <trkpt lat="44.63545" lon="3.89408">
        <ele>926.6</ele>
        <time>2013-05-09T10:21:07Z</time>
      </trkpt>
      <trkpt lat="44.63536" lon="3.89411">
        <ele>925.9</ele>
        <time>2013-05-09T10:21:14Z</time>
      </trkpt>
      <trkpt lat="44.63528" lon="3.8941">
        <ele>926</ele>
        <time>2013-05-09T10:21:20Z</time>
      </trkpt>
      <trkpt lat="44.63527" lon="3.89411">
        <ele>926</ele>
        <time>2013-05-09T10:21:21Z</time>
      </trkpt>
      <trkpt lat="44.63512" lon="3.89413">
        <ele>925.8</ele>
        <time>2013-05-09T10:21:33Z</time>
      </trkpt>
      <trkpt lat="44.63503" lon="3.89415">
        <ele>925.4</ele>
        <time>2013-05-09T10:21:41Z</time>
      </trkpt>
      <trkpt lat="44.63495" lon="3.89419">
        <ele>926.8</ele>
        <time>2013-05-09T10:21:48Z</time>
      </trkpt>
      <trkpt lat="44.63487" lon="3.89424">
        <ele>925.9</ele>
        <time>2013-05-09T10:21:58Z</time>
      </trkpt>
      <trkpt lat="44.63481" lon="3.89432">
        <ele>925.3</ele>
        <time>2013-05-09T10:22:07Z</time>
      </trkpt>
      <trkpt lat="44.63478" lon="3.89443">
        <ele>926.4</ele>
        <time>2013-05-09T10:22:49Z</time>
      </trkpt>
      <trkpt lat="44.63478" lon="3.89444">
        <ele>926.5</ele>
        <time>2013-05-09T10:22:50Z</time>
      </trkpt>
      <trkpt lat="44.63479" lon="3.89467">
        <ele>927.8</ele>
        <time>2013-05-09T10:23:21Z</time>
      </trkpt>
      <trkpt lat="44.63478" lon="3.89479">
        <ele>928.4</ele>
        <time>2013-05-09T10:23:59Z</time>
      </trkpt>
      <trkpt lat="44.63478" lon="3.89479">
        <ele>928.4</ele>
        <time>2013-05-09T10:24:00Z</time>
      </trkpt>
      <trkpt lat="44.63466" lon="3.89489">
        <ele>928</ele>
        <time>2013-05-09T10:24:56Z</time>
      </trkpt>
      <trkpt lat="44.63458" lon="3.89487">
        <ele>927.8</ele>
        <time>2013-05-09T10:25:03Z</time>
      </trkpt>
      <trkpt lat="44.63457" lon="3.89487">
        <ele>927.7</ele>
        <time>2013-05-09T10:25:04Z</time>
      </trkpt>
      <trkpt lat="44.63442" lon="3.8948">
        <ele>927.7</ele>
        <time>2013-05-09T10:25:19Z</time>
      </trkpt>
      <trkpt lat="44.63434" lon="3.89476">
        <ele>927.5</ele>
        <time>2013-05-09T10:25:27Z</time>
      </trkpt>
      <trkpt lat="44.63425" lon="3.89472">
        <ele>927.1</ele>
        <time>2013-05-09T10:26:03Z</time>
      </trkpt>
      <trkpt lat="44.63417" lon="3.89471">
        <ele>926.5</ele>
        <time>2013-05-09T10:26:23Z</time>
      </trkpt>
      <trkpt lat="44.63416" lon="3.89471">
        <ele>926.5</ele>
        <time>2013-05-09T10:26:24Z</time>
      </trkpt>
      <trkpt lat="44.63402" lon="3.89459">
        <ele>925.8</ele>
        <time>2013-05-09T10:26:37Z</time>
      </trkpt>
      <trkpt lat="44.63394" lon="3.89457">
        <ele>925.8</ele>
        <time>2013-05-09T10:26:45Z</time>
      </trkpt>
      <trkpt lat="44.63386" lon="3.89455">
        <ele>925.6</ele>
        <time>2013-05-09T10:26:53Z</time>
      </trkpt>
      <trkpt lat="44.63378" lon="3.89452">
        <ele>924.6</ele>
        <time>2013-05-09T10:27:01Z</time>
      </trkpt>
      <trkpt lat="44.63369" lon="3.8945">
        <ele>924.2</ele>
        <time>2013-05-09T10:27:08Z</time>
      </trkpt>
      <trkpt lat="44.63361" lon="3.89448">
        <ele>924</ele>
        <time>2013-05-09T10:27:15Z</time>
      </trkpt>
      <trkpt lat="44.63353" lon="3.89447">
        <ele>924.1</ele>
        <time>2013-05-09T10:27:22Z</time>
      </trkpt>
      <trkpt lat="44.63345" lon="3.89446">
        <ele>924.1</ele>
        <time>2013-05-09T10:27:30Z</time>
      </trkpt>
      <trkpt lat="44.63344" lon="3.89446">
        <ele>924.1</ele>
        <time>2013-05-09T10:27:31Z</time>
      </trkpt>
      <trkpt lat="44.63328" lon="3.89444">
        <ele>923.3</ele>
        <time>2013-05-09T10:27:45Z</time>
      </trkpt>
      <trkpt lat="44.6332" lon="3.8944">
        <ele>923.1</ele>
        <time>2013-05-09T10:27:52Z</time>
      </trkpt>
      <trkpt lat="44.63311" lon="3.89441">
        <ele>922.5</ele>
        <time>2013-05-09T10:28:00Z</time>
      </trkpt>
      <trkpt lat="44.63303" lon="3.89443">
        <ele>922.4</ele>
        <time>2013-05-09T10:28:07Z</time>
      </trkpt>
      <trkpt lat="44.63295" lon="3.89443">
        <ele>922.6</ele>
        <time>2013-05-09T10:28:14Z</time>
      </trkpt>
      <trkpt lat="44.63287" lon="3.89443">
        <ele>922.7</ele>
        <time>2013-05-09T10:28:20Z</time>
      </trkpt>
      <trkpt lat="44.63278" lon="3.89444">
        <ele>923.1</ele>
        <time>2013-05-09T10:28:28Z</time>
      </trkpt>
      <trkpt lat="44.6327" lon="3.89447">
        <ele>923</ele>
        <time>2013-05-09T10:28:35Z</time>
      </trkpt>
      <trkpt lat="44.63269" lon="3.89446">
        <ele>922.9</ele>
        <time>2013-05-09T10:28:36Z</time>
      </trkpt>
      <trkpt lat="44.63254" lon="3.89452">
        <ele>922.3</ele>
        <time>2013-05-09T10:28:50Z</time>
      </trkpt>
      <trkpt lat="44.63245" lon="3.89454">
        <ele>922.4</ele>
        <time>2013-05-09T10:28:58Z</time>
      </trkpt>
      <trkpt lat="44.63238" lon="3.89457">
        <ele>923</ele>
        <time>2013-05-09T10:29:05Z</time>
      </trkpt>
      <trkpt lat="44.63229" lon="3.8946">
        <ele>922.7</ele>
        <time>2013-05-09T10:29:13Z</time>
      </trkpt>
      <trkpt lat="44.63221" lon="3.89463">
        <ele>922.6</ele>
        <time>2013-05-09T10:29:21Z</time>
      </trkpt>
      <trkpt lat="44.63212" lon="3.89464">
        <ele>922.2</ele>
        <time>2013-05-09T10:29:29Z</time>
      </trkpt>
      <trkpt lat="44.63205" lon="3.89467">
        <ele>922.3</ele>
        <time>2013-05-09T10:29:36Z</time>
      </trkpt>
      <trkpt lat="44.63203" lon="3.89468">
        <ele>922.4</ele>
        <time>2013-05-09T10:29:37Z</time>
      </trkpt>
      <trkpt lat="44.63189" lon="3.89475">
        <ele>923.6</ele>
        <time>2013-05-09T10:29:52Z</time>
      </trkpt>
      <trkpt lat="44.6318" lon="3.89478">
        <ele>924</ele>
        <time>2013-05-09T10:30:05Z</time>
      </trkpt>
      <trkpt lat="44.63172" lon="3.8948">
        <ele>923.7</ele>
        <time>2013-05-09T10:30:12Z</time>
      </trkpt>
      <trkpt lat="44.63164" lon="3.89484">
        <ele>923.5</ele>
        <time>2013-05-09T10:30:20Z</time>
      </trkpt>
      <trkpt lat="44.63155" lon="3.89486">
        <ele>923.8</ele>
        <time>2013-05-09T10:30:28Z</time>
      </trkpt>
      <trkpt lat="44.63147" lon="3.89488">
        <ele>924.5</ele>
        <time>2013-05-09T10:30:36Z</time>
      </trkpt>
      <trkpt lat="44.63138" lon="3.89492">
        <ele>924.1</ele>
        <time>2013-05-09T10:30:45Z</time>
      </trkpt>
      <trkpt lat="44.63137" lon="3.89492">
        <ele>924.1</ele>
        <time>2013-05-09T10:30:46Z</time>
      </trkpt>
      <trkpt lat="44.63122" lon="3.89492">
        <ele>923.8</ele>
        <time>2013-05-09T10:30:59Z</time>
      </trkpt>
      <trkpt lat="44.63113" lon="3.89493">
        <ele>924</ele>
        <time>2013-05-09T10:31:06Z</time>
      </trkpt>
      <trkpt lat="44.63105" lon="3.89494">
        <ele>923.9</ele>
        <time>2013-05-09T10:31:13Z</time>
      </trkpt>
      <trkpt lat="44.63098" lon="3.89495">
        <ele>923.8</ele>
        <time>2013-05-09T10:31:18Z</time>
      </trkpt>
      <trkpt lat="44.6309" lon="3.89493">
        <ele>924.1</ele>
        <time>2013-05-09T10:31:25Z</time>
      </trkpt>
      <trkpt lat="44.63081" lon="3.89494">
        <ele>924.6</ele>
        <time>2013-05-09T10:31:33Z</time>
      </trkpt>
      <trkpt lat="44.63072" lon="3.89494">
        <ele>924.7</ele>
        <time>2013-05-09T10:31:41Z</time>
      </trkpt>
      <trkpt lat="44.63063" lon="3.89492">
        <ele>925.2</ele>
        <time>2013-05-09T10:31:49Z</time>
      </trkpt>
      <trkpt lat="44.63062" lon="3.89491">
        <ele>925.3</ele>
        <time>2013-05-09T10:31:50Z</time>
      </trkpt>
      <trkpt lat="44.63046" lon="3.89491">
        <ele>925.7</ele>
        <time>2013-05-09T10:32:04Z</time>
      </trkpt>
      <trkpt lat="44.63038" lon="3.89492">
        <ele>925.8</ele>
        <time>2013-05-09T10:32:11Z</time>
      </trkpt>
      <trkpt lat="44.6303" lon="3.89492">
        <ele>926.1</ele>
        <time>2013-05-09T10:32:20Z</time>
      </trkpt>
      <trkpt lat="44.63021" lon="3.89491">
        <ele>926.3</ele>
        <time>2013-05-09T10:32:27Z</time>
      </trkpt>
      <trkpt lat="44.63012" lon="3.89491">
        <ele>926.1</ele>
        <time>2013-05-09T10:32:36Z</time>
      </trkpt>
      <trkpt lat="44.63004" lon="3.89489">
        <ele>926.8</ele>
        <time>2013-05-09T10:32:44Z</time>
      </trkpt>
      <trkpt lat="44.62996" lon="3.89487">
        <ele>927.1</ele>
        <time>2013-05-09T10:32:50Z</time>
      </trkpt>
      <trkpt lat="44.62995" lon="3.89487">
        <ele>927.1</ele>
        <time>2013-05-09T10:32:51Z</time>
      </trkpt>
      <trkpt lat="44.6298" lon="3.89483">
        <ele>927.3</ele>
        <time>2013-05-09T10:33:06Z</time>
      </trkpt>
      <trkpt lat="44.62971" lon="3.89481">
        <ele>927.3</ele>
        <time>2013-05-09T10:33:13Z</time>
      </trkpt>
      <trkpt lat="44.62963" lon="3.89479">
        <ele>927.7</ele>
        <time>2013-05-09T10:33:20Z</time>
      </trkpt>
      <trkpt lat="44.62955" lon="3.89479">
        <ele>927.1</ele>
        <time>2013-05-09T10:33:29Z</time>
      </trkpt>
      <trkpt lat="44.62947" lon="3.89478">
        <ele>927</ele>
        <time>2013-05-09T10:33:36Z</time>
      </trkpt>
      <trkpt lat="44.62939" lon="3.89477">
        <ele>927.3</ele>
        <time>2013-05-09T10:33:43Z</time>
      </trkpt>
      <trkpt lat="44.62931" lon="3.89476">
        <ele>927.7</ele>
        <time>2013-05-09T10:33:49Z</time>
      </trkpt>
      <trkpt lat="44.62923" lon="3.89474">
        <ele>927.6</ele>
        <time>2013-05-09T10:33:56Z</time>
      </trkpt>
      <trkpt lat="44.62922" lon="3.89474">
        <ele>927.6</ele>
        <time>2013-05-09T10:33:57Z</time>
      </trkpt>
      <trkpt lat="44.62906" lon="3.89472">
        <ele>926.2</ele>
        <time>2013-05-09T10:34:11Z</time>
      </trkpt>
      <trkpt lat="44.62899" lon="3.89471">
        <ele>925.6</ele>
        <time>2013-05-09T10:34:18Z</time>
      </trkpt>
      <trkpt lat="44.6289" lon="3.8947">
        <ele>925.7</ele>
        <time>2013-05-09T10:34:25Z</time>
      </trkpt>
      <trkpt lat="44.62882" lon="3.89474">
        <ele>926.1</ele>
        <time>2013-05-09T10:34:47Z</time>
      </trkpt>
      <trkpt lat="44.6288" lon="3.89486">
        <ele>926.6</ele>
        <time>2013-05-09T10:34:57Z</time>
      </trkpt>
      <trkpt lat="44.6288" lon="3.89487">
        <ele>926.6</ele>
        <time>2013-05-09T10:34:58Z</time>
      </trkpt>
      <trkpt lat="44.62867" lon="3.89497">
        <ele>926.7</ele>
        <time>2013-05-09T10:35:14Z</time>
      </trkpt>
      <trkpt lat="44.62858" lon="3.89497">
        <ele>927</ele>
        <time>2013-05-09T10:35:24Z</time>
      </trkpt>
      <trkpt lat="44.62862" lon="3.89504">
        <ele>928.3</ele>
        <time>2013-05-09T10:36:12Z</time>
      </trkpt>
      <trkpt lat="44.62865" lon="3.89507">
        <ele>928.5</ele>
        <time>2013-05-09T10:36:13Z</time>
      </trkpt>
      <trkpt lat="44.62872" lon="3.89519">
        <ele>929.2</ele>
        <time>2013-05-09T10:40:15Z</time>
      </trkpt>
      <trkpt lat="44.62868" lon="3.89526">
        <ele>929.1</ele>
        <time>2013-05-09T10:40:16Z</time>
      </trkpt>
      <trkpt lat="44.62859" lon="3.89534">
        <ele>929.1</ele>
        <time>2013-05-09T10:40:31Z</time>
      </trkpt>
      <trkpt lat="44.62861" lon="3.89546">
        <ele>928.8</ele>
        <time>2013-05-09T10:40:43Z</time>
      </trkpt>
      <trkpt lat="44.62854" lon="3.89554">
        <ele>928.6</ele>
        <time>2013-05-09T10:40:47Z</time>
      </trkpt>
      <trkpt lat="44.62851" lon="3.89546">
        <ele>928.2</ele>
        <time>2013-05-09T10:40:52Z</time>
      </trkpt>
      <trkpt lat="44.62848" lon="3.89533">
        <ele>928</ele>
        <time>2013-05-09T10:40:53Z</time>
      </trkpt>
      <trkpt lat="44.62843" lon="3.89523">
        <ele>927.9</ele>
        <time>2013-05-09T10:40:54Z</time>
      </trkpt>
      <trkpt lat="44.62838" lon="3.89514">
        <ele>927.8</ele>
        <time>2013-05-09T10:41:00Z</time>
      </trkpt>
      <trkpt lat="44.62845" lon="3.89514">
        <ele>927.8</ele>
        <time>2013-05-09T10:41:04Z</time>
      </trkpt>
      <trkpt lat="44.6285" lon="3.89519">
        <ele>927.7</ele>
        <time>2013-05-09T10:41:05Z</time>
      </trkpt>
      <trkpt lat="44.62855" lon="3.89524">
        <ele>927.7</ele>
        <time>2013-05-09T10:41:07Z</time>
      </trkpt>
      <trkpt lat="44.62863" lon="3.89531">
        <ele>927.7</ele>
        <time>2013-05-09T10:41:09Z</time>
      </trkpt>
      <trkpt lat="44.62871" lon="3.89533">
        <ele>927.9</ele>
        <time>2013-05-09T10:41:36Z</time>
      </trkpt>
      <trkpt lat="44.62873" lon="3.89536">
        <ele>927.9</ele>
        <time>2013-05-09T10:41:37Z</time>
      </trkpt>
      <trkpt lat="44.62877" lon="3.89535">
        <ele>928.1</ele>
        <time>2013-05-09T10:42:17Z</time>
      </trkpt>
      <trkpt lat="44.62871" lon="3.89523">
        <ele>928.4</ele>
        <time>2013-05-09T10:42:18Z</time>
      </trkpt>
      <trkpt lat="44.62863" lon="3.89524">
        <ele>928.2</ele>
        <time>2013-05-09T10:43:17Z</time>
      </trkpt>
      <trkpt lat="44.62861" lon="3.89526">
        <ele>928.1</ele>
        <time>2013-05-09T10:43:18Z</time>
      </trkpt>
      <trkpt lat="44.62849" lon="3.89517">
        <ele>928.2</ele>
        <time>2013-05-09T10:43:33Z</time>
      </trkpt>
      <trkpt lat="44.62853" lon="3.89521">
        <ele>928.2</ele>
        <time>2013-05-09T10:43:42Z</time>
      </trkpt>
      <trkpt lat="44.62863" lon="3.89522">
        <ele>928.2</ele>
        <time>2013-05-09T10:43:43Z</time>
      </trkpt>
      <trkpt lat="44.6287" lon="3.89529">
        <ele>929.2</ele>
        <time>2013-05-09T10:44:06Z</time>
      </trkpt>
      <trkpt lat="44.6287" lon="3.89529">
        <ele>929.7</ele>
        <time>2013-05-09T10:44:17Z</time>
      </trkpt>
      <trkpt lat="44.6286" lon="3.89519">
        <ele>929.9</ele>
        <time>2013-05-09T10:44:18Z</time>
      </trkpt>
      <trkpt lat="44.62859" lon="3.89514">
        <ele>930</ele>
        <time>2013-05-09T10:44:19Z</time>
      </trkpt>
      <trkpt lat="44.62866" lon="3.8951">
        <ele>930.4</ele>
        <time>2013-05-09T10:44:47Z</time>
      </trkpt>
      <trkpt lat="44.62866" lon="3.89503">
        <ele>930.4</ele>
        <time>2013-05-09T10:44:49Z</time>
      </trkpt>
      <trkpt lat="44.62864" lon="3.89493">
        <ele>930.4</ele>
        <time>2013-05-09T10:44:51Z</time>
      </trkpt>
      <trkpt lat="44.6286" lon="3.89483">
        <ele>930.5</ele>
        <time>2013-05-09T10:44:54Z</time>
      </trkpt>
      <trkpt lat="44.62858" lon="3.89479">
        <ele>930.5</ele>
        <time>2013-05-09T10:44:55Z</time>
      </trkpt>
      <trkpt lat="44.62839" lon="3.89548">
        <ele>929.1</ele>
        <time>2013-05-09T10:45:19Z</time>
      </trkpt>
      <trkpt lat="44.62836" lon="3.89542">
        <ele>928.9</ele>
        <time>2013-05-09T10:45:31Z</time>
      </trkpt>
      <trkpt lat="44.62829" lon="3.89528">
        <ele>929</ele>
        <time>2013-05-09T10:45:32Z</time>
      </trkpt>
      <trkpt lat="44.62825" lon="3.89517">
        <ele>929.2</ele>
        <time>2013-05-09T10:45:34Z</time>
      </trkpt>
      <trkpt lat="44.62822" lon="3.89508">
        <ele>929.4</ele>
        <time>2013-05-09T10:45:36Z</time>
      </trkpt>
      <trkpt lat="44.62818" lon="3.89493">
        <ele>929.4</ele>
        <time>2013-05-09T10:45:37Z</time>
      </trkpt>
      <trkpt lat="44.62817" lon="3.89486">
        <ele>929.6</ele>
        <time>2013-05-09T10:45:38Z</time>
      </trkpt>
      <trkpt lat="44.62816" lon="3.89479">
        <ele>929.5</ele>
        <time>2013-05-09T10:45:39Z</time>
      </trkpt>
      <trkpt lat="44.62812" lon="3.89469">
        <ele>929.6</ele>
        <time>2013-05-09T10:45:43Z</time>
      </trkpt>
      <trkpt lat="44.62818" lon="3.89476">
        <ele>929.2</ele>
        <time>2013-05-09T10:45:50Z</time>
      </trkpt>
      <trkpt lat="44.62825" lon="3.89484">
        <ele>929</ele>
        <time>2013-05-09T10:45:53Z</time>
      </trkpt>
      <trkpt lat="44.6283" lon="3.89489">
        <ele>929.1</ele>
        <time>2013-05-09T10:45:58Z</time>
      </trkpt>
      <trkpt lat="44.62839" lon="3.89489">
        <ele>929.1</ele>
        <time>2013-05-09T10:45:59Z</time>
      </trkpt>
      <trkpt lat="44.62841" lon="3.895">
        <ele>928.5</ele>
        <time>2013-05-09T10:46:11Z</time>
      </trkpt>
      <trkpt lat="44.62846" lon="3.8951">
        <ele>928.5</ele>
        <time>2013-05-09T10:46:22Z</time>
      </trkpt>
      <trkpt lat="44.62848" lon="3.89511">
        <ele>928.5</ele>
        <time>2013-05-09T10:46:23Z</time>
      </trkpt>
      <trkpt lat="44.62861" lon="3.89511">
        <ele>928.3</ele>
        <time>2013-05-09T10:46:48Z</time>
      </trkpt>
      <trkpt lat="44.62868" lon="3.89516">
        <ele>928.7</ele>
        <time>2013-05-09T10:46:54Z</time>
      </trkpt>
      <trkpt lat="44.62873" lon="3.89525">
        <ele>928.9</ele>
        <time>2013-05-09T10:46:58Z</time>
      </trkpt>
      <trkpt lat="44.62876" lon="3.89534">
        <ele>928.9</ele>
        <time>2013-05-09T10:47:02Z</time>
      </trkpt>
      <trkpt lat="44.6288" lon="3.89542">
        <ele>928.8</ele>
        <time>2013-05-09T10:47:05Z</time>
      </trkpt>
      <trkpt lat="44.62878" lon="3.89531">
        <ele>929.5</ele>
        <time>2013-05-09T10:47:28Z</time>
      </trkpt>
      <trkpt lat="44.62877" lon="3.89529">
        <ele>929.6</ele>
        <time>2013-05-09T10:47:29Z</time>
      </trkpt>
      <trkpt lat="44.62868" lon="3.89518">
        <ele>930.3</ele>
        <time>2013-05-09T10:48:16Z</time>
      </trkpt>
      <trkpt lat="44.62861" lon="3.89511">
        <ele>930</ele>
        <time>2013-05-09T10:48:25Z</time>
      </trkpt>
      <trkpt lat="44.62863" lon="3.8952">
        <ele>931.2</ele>
        <time>2013-05-09T10:49:17Z</time>
      </trkpt>
      <trkpt lat="44.62864" lon="3.89524">
        <ele>931.2</ele>
        <time>2013-05-09T10:49:18Z</time>
      </trkpt>
      <trkpt lat="44.62861" lon="3.89517">
        <ele>931</ele>
        <time>2013-05-09T10:49:56Z</time>
      </trkpt>
      <trkpt lat="44.62861" lon="3.89508">
        <ele>931</ele>
        <time>2013-05-09T10:49:59Z</time>
      </trkpt>
      <trkpt lat="44.62866" lon="3.89511">
        <ele>931.3</ele>
        <time>2013-05-09T10:50:07Z</time>
      </trkpt>
      <trkpt lat="44.62871" lon="3.89523">
        <ele>931.6</ele>
        <time>2013-05-09T10:50:08Z</time>
      </trkpt>
      <trkpt lat="44.62875" lon="3.89534">
        <ele>931.6</ele>
        <time>2013-05-09T10:50:12Z</time>
      </trkpt>
      <trkpt lat="44.62877" lon="3.89544">
        <ele>931.4</ele>
        <time>2013-05-09T10:50:21Z</time>
      </trkpt>
      <trkpt lat="44.62879" lon="3.89546">
        <ele>931.4</ele>
        <time>2013-05-09T10:50:22Z</time>
      </trkpt>
      <trkpt lat="44.62867" lon="3.89526">
        <ele>932.9</ele>
        <time>2013-05-09T10:50:59Z</time>
      </trkpt>
      <trkpt lat="44.62861" lon="3.8952">
        <ele>933.4</ele>
        <time>2013-05-09T10:51:16Z</time>
      </trkpt>
      <trkpt lat="44.62857" lon="3.89511">
        <ele>933.5</ele>
        <time>2013-05-09T10:51:18Z</time>
      </trkpt>
      <trkpt lat="44.62854" lon="3.89502">
        <ele>933.6</ele>
        <time>2013-05-09T10:51:29Z</time>
      </trkpt>
      <trkpt lat="44.62852" lon="3.89499">
        <ele>933.6</ele>
        <time>2013-05-09T10:51:30Z</time>
      </trkpt>
      <trkpt lat="44.62852" lon="3.89519">
        <ele>932.9</ele>
        <time>2013-05-09T10:52:11Z</time>
      </trkpt>
      <trkpt lat="44.62852" lon="3.89507">
        <ele>932.1</ele>
        <time>2013-05-09T10:52:23Z</time>
      </trkpt>
      <trkpt lat="44.62849" lon="3.89498">
        <ele>931.6</ele>
        <time>2013-05-09T10:52:48Z</time>
      </trkpt>
      <trkpt lat="44.62848" lon="3.89494">
        <ele>931.6</ele>
        <time>2013-05-09T10:52:49Z</time>
      </trkpt>
      <trkpt lat="44.62848" lon="3.89496">
        <ele>931.8</ele>
        <time>2013-05-09T10:53:09Z</time>
      </trkpt>
      <trkpt lat="44.62853" lon="3.89505">
        <ele>931.9</ele>
        <time>2013-05-09T10:53:12Z</time>
      </trkpt>
      <trkpt lat="44.62856" lon="3.89505">
        <ele>931.8</ele>
        <time>2013-05-09T10:53:29Z</time>
      </trkpt>
      <trkpt lat="44.62861" lon="3.89517">
        <ele>931.7</ele>
        <time>2013-05-09T10:53:30Z</time>
      </trkpt>
      <trkpt lat="44.62867" lon="3.89525">
        <ele>931.4</ele>
        <time>2013-05-09T10:53:52Z</time>
      </trkpt>
      <trkpt lat="44.62868" lon="3.89528">
        <ele>931.4</ele>
        <time>2013-05-09T10:53:53Z</time>
      </trkpt>
      <trkpt lat="44.62858" lon="3.89528">
        <ele>931.5</ele>
        <time>2013-05-09T10:54:14Z</time>
      </trkpt>
      <trkpt lat="44.62851" lon="3.89524">
        <ele>931.6</ele>
        <time>2013-05-09T10:54:17Z</time>
      </trkpt>
      <trkpt lat="44.62859" lon="3.89524">
        <ele>932</ele>
        <time>2013-05-09T10:54:49Z</time>
      </trkpt>
      <trkpt lat="44.62868" lon="3.89525">
        <ele>932</ele>
        <time>2013-05-09T10:54:53Z</time>
      </trkpt>
      <trkpt lat="44.62868" lon="3.89525">
        <ele>932</ele>
        <time>2013-05-09T10:54:54Z</time>
      </trkpt>
      <trkpt lat="44.62863" lon="3.89513">
        <ele>932.3</ele>
        <time>2013-05-09T10:55:10Z</time>
      </trkpt>
      <trkpt lat="44.62865" lon="3.89525">
        <ele>932.3</ele>
        <time>2013-05-09T10:55:17Z</time>
      </trkpt>
      <trkpt lat="44.62859" lon="3.89516">
        <ele>932.2</ele>
        <time>2013-05-09T10:55:58Z</time>
      </trkpt>
      <trkpt lat="44.62857" lon="3.89512">
        <ele>932.1</ele>
        <time>2013-05-09T10:55:59Z</time>
      </trkpt>
      <trkpt lat="44.62847" lon="3.895">
        <ele>931.7</ele>
        <time>2013-05-09T10:56:22Z</time>
      </trkpt>
      <trkpt lat="44.62843" lon="3.89491">
        <ele>931.4</ele>
        <time>2013-05-09T10:56:29Z</time>
      </trkpt>
      <trkpt lat="44.6285" lon="3.89498">
        <ele>931.1</ele>
        <time>2013-05-09T10:56:50Z</time>
      </trkpt>
      <trkpt lat="44.62851" lon="3.895">
        <ele>931.2</ele>
        <time>2013-05-09T10:56:56Z</time>
      </trkpt>
      <trkpt lat="44.62857" lon="3.89511">
        <ele>931.3</ele>
        <time>2013-05-09T10:56:57Z</time>
      </trkpt>
      <trkpt lat="44.6286" lon="3.89521">
        <ele>931.4</ele>
        <time>2013-05-09T10:56:59Z</time>
      </trkpt>
      <trkpt lat="44.62859" lon="3.89524">
        <ele>931.4</ele>
        <time>2013-05-09T10:57:00Z</time>
      </trkpt>
      <trkpt lat="44.62866" lon="3.89538">
        <ele>928.9</ele>
        <time>2013-05-09T10:57:13Z</time>
      </trkpt>
      <trkpt lat="44.62865" lon="3.8953">
        <ele>927.4</ele>
        <time>2013-05-09T10:57:27Z</time>
      </trkpt>
      <trkpt lat="44.62867" lon="3.8952">
        <ele>927.1</ele>
        <time>2013-05-09T10:57:29Z</time>
      </trkpt>
      <trkpt lat="44.62862" lon="3.89512">
        <ele>927</ele>
        <time>2013-05-09T10:57:32Z</time>
      </trkpt>
      <trkpt lat="44.6287" lon="3.89518">
        <ele>926.9</ele>
        <time>2013-05-09T10:58:05Z</time>
      </trkpt>
      <trkpt lat="44.62869" lon="3.8952">
        <ele>926.9</ele>
        <time>2013-05-09T10:58:06Z</time>
      </trkpt>
      <trkpt lat="44.62874" lon="3.89533">
        <ele>926.9</ele>
        <time>2013-05-09T10:58:08Z</time>
      </trkpt>
      <trkpt lat="44.62878" lon="3.89538">
        <ele>926.9</ele>
        <time>2013-05-09T10:58:09Z</time>
      </trkpt>
      <trkpt lat="44.62872" lon="3.89531">
        <ele>927</ele>
        <time>2013-05-09T10:58:20Z</time>
      </trkpt>
      <trkpt lat="44.62874" lon="3.89538">
        <ele>927</ele>
        <time>2013-05-09T10:58:33Z</time>
      </trkpt>
      <trkpt lat="44.6288" lon="3.89545">
        <ele>927.1</ele>
        <time>2013-05-09T10:58:39Z</time>
      </trkpt>
      <trkpt lat="44.62883" lon="3.89557">
        <ele>927</ele>
        <time>2013-05-09T10:58:46Z</time>
      </trkpt>
      <trkpt lat="44.62888" lon="3.89564">
        <ele>927.1</ele>
        <time>2013-05-09T10:58:49Z</time>
      </trkpt>
      <trkpt lat="44.62884" lon="3.89561">
        <ele>927.2</ele>
        <time>2013-05-09T10:59:02Z</time>
      </trkpt>
      <trkpt lat="44.62878" lon="3.89552">
        <ele>927.3</ele>
        <time>2013-05-09T10:59:03Z</time>
      </trkpt>
      <trkpt lat="44.62873" lon="3.89544">
        <ele>927.5</ele>
        <time>2013-05-09T10:59:04Z</time>
      </trkpt>
      <trkpt lat="44.62869" lon="3.89537">
        <ele>927.6</ele>
        <time>2013-05-09T10:59:05Z</time>
      </trkpt>
      <trkpt lat="44.62864" lon="3.89528">
        <ele>927.7</ele>
        <time>2013-05-09T10:59:06Z</time>
      </trkpt>
      <trkpt lat="44.62854" lon="3.89511">
        <ele>927.7</ele>
        <time>2013-05-09T10:59:07Z</time>
      </trkpt>
      <trkpt lat="44.62851" lon="3.89507">
        <ele>927.9</ele>
        <time>2013-05-09T10:59:08Z</time>
      </trkpt>
      <trkpt lat="44.62845" lon="3.89497">
        <ele>927.9</ele>
        <time>2013-05-09T10:59:09Z</time>
      </trkpt>
      <trkpt lat="44.62842" lon="3.89492">
        <ele>928</ele>
        <time>2013-05-09T10:59:10Z</time>
      </trkpt>
      <trkpt lat="44.62837" lon="3.89482">
        <ele>928</ele>
        <time>2013-05-09T10:59:11Z</time>
      </trkpt>
      <trkpt lat="44.62833" lon="3.89475">
        <ele>927.9</ele>
        <time>2013-05-09T10:59:12Z</time>
      </trkpt>
      <trkpt lat="44.62841" lon="3.89477">
        <ele>927.2</ele>
        <time>2013-05-09T10:59:21Z</time>
      </trkpt>
      <trkpt lat="44.62848" lon="3.89484">
        <ele>926.8</ele>
        <time>2013-05-09T10:59:25Z</time>
      </trkpt>
      <trkpt lat="44.62848" lon="3.89492">
        <ele>926.4</ele>
        <time>2013-05-09T10:59:30Z</time>
      </trkpt>
      <trkpt lat="44.62855" lon="3.895">
        <ele>926.6</ele>
        <time>2013-05-09T10:59:33Z</time>
      </trkpt>
      <trkpt lat="44.62848" lon="3.89499">
        <ele>926.8</ele>
        <time>2013-05-09T10:59:43Z</time>
      </trkpt>
      <trkpt lat="44.6284" lon="3.89496">
        <ele>926.9</ele>
        <time>2013-05-09T10:59:46Z</time>
      </trkpt>
      <trkpt lat="44.62836" lon="3.89489">
        <ele>926.9</ele>
        <time>2013-05-09T10:59:49Z</time>
      </trkpt>
      <trkpt lat="44.6283" lon="3.89482">
        <ele>926.9</ele>
        <time>2013-05-09T10:59:58Z</time>
      </trkpt>
      <trkpt lat="44.62832" lon="3.89488">
        <ele>927.4</ele>
        <time>2013-05-09T11:00:07Z</time>
      </trkpt>
      <trkpt lat="44.62834" lon="3.89493">
        <ele>927.4</ele>
        <time>2013-05-09T11:00:08Z</time>
      </trkpt>
      <trkpt lat="44.62844" lon="3.89498">
        <ele>927.7</ele>
        <time>2013-05-09T11:00:10Z</time>
      </trkpt>
      <trkpt lat="44.6285" lon="3.89504">
        <ele>927.7</ele>
        <time>2013-05-09T11:00:12Z</time>
      </trkpt>
      <trkpt lat="44.62855" lon="3.8951">
        <ele>927.8</ele>
        <time>2013-05-09T11:00:14Z</time>
      </trkpt>
      <trkpt lat="44.62861" lon="3.89519">
        <ele>927.6</ele>
        <time>2013-05-09T11:00:16Z</time>
      </trkpt>
      <trkpt lat="44.62866" lon="3.89521">
        <ele>927.5</ele>
        <time>2013-05-09T11:00:17Z</time>
      </trkpt>
      <trkpt lat="44.62872" lon="3.89528">
        <ele>927.4</ele>
        <time>2013-05-09T11:00:19Z</time>
      </trkpt>
      <trkpt lat="44.62877" lon="3.89535">
        <ele>927.3</ele>
        <time>2013-05-09T11:00:23Z</time>
      </trkpt>
      <trkpt lat="44.62872" lon="3.89531">
        <ele>927.2</ele>
        <time>2013-05-09T11:00:26Z</time>
      </trkpt>
      <trkpt lat="44.62867" lon="3.89523">
        <ele>927.2</ele>
        <time>2013-05-09T11:00:27Z</time>
      </trkpt>
      <trkpt lat="44.62863" lon="3.89515">
        <ele>927.1</ele>
        <time>2013-05-09T11:00:28Z</time>
      </trkpt>
      <trkpt lat="44.62858" lon="3.8951">
        <ele>927.1</ele>
        <time>2013-05-09T11:00:29Z</time>
      </trkpt>
      <trkpt lat="44.62851" lon="3.89502">
        <ele>927</ele>
        <time>2013-05-09T11:00:31Z</time>
      </trkpt>
      <trkpt lat="44.62846" lon="3.89492">
        <ele>926.9</ele>
        <time>2013-05-09T11:00:34Z</time>
      </trkpt>
      <trkpt lat="44.6284" lon="3.89483">
        <ele>926.8</ele>
        <time>2013-05-09T11:00:37Z</time>
      </trkpt>
      <trkpt lat="44.62847" lon="3.89483">
        <ele>926.5</ele>
        <time>2013-05-09T11:00:51Z</time>
      </trkpt>
      <trkpt lat="44.62853" lon="3.89491">
        <ele>926.4</ele>
        <time>2013-05-09T11:00:53Z</time>
      </trkpt>
      <trkpt lat="44.62855" lon="3.895">
        <ele>926.4</ele>
        <time>2013-05-09T11:00:55Z</time>
      </trkpt>
      <trkpt lat="44.62858" lon="3.89511">
        <ele>926.3</ele>
        <time>2013-05-09T11:00:57Z</time>
      </trkpt>
      <trkpt lat="44.62859" lon="3.89521">
        <ele>925.6</ele>
        <time>2013-05-09T11:01:26Z</time>
      </trkpt>
      <trkpt lat="44.62861" lon="3.89525">
        <ele>925.6</ele>
        <time>2013-05-09T11:01:27Z</time>
      </trkpt>
      <trkpt lat="44.62865" lon="3.89541">
        <ele>925.5</ele>
        <time>2013-05-09T11:01:42Z</time>
      </trkpt>
      <trkpt lat="44.62873" lon="3.89545">
        <ele>925.7</ele>
        <time>2013-05-09T11:01:51Z</time>
      </trkpt>
      <trkpt lat="44.62872" lon="3.89537">
        <ele>925.9</ele>
        <time>2013-05-09T11:01:57Z</time>
      </trkpt>
      <trkpt lat="44.6287" lon="3.89529">
        <ele>925.7</ele>
        <time>2013-05-09T11:01:59Z</time>
      </trkpt>
      <trkpt lat="44.62875" lon="3.89523">
        <ele>925.5</ele>
        <time>2013-05-09T11:02:11Z</time>
      </trkpt>
      <trkpt lat="44.62864" lon="3.89515">
        <ele>925.6</ele>
        <time>2013-05-09T11:02:12Z</time>
      </trkpt>
      <trkpt lat="44.62864" lon="3.89527">
        <ele>925.6</ele>
        <time>2013-05-09T11:02:25Z</time>
      </trkpt>
      <trkpt lat="44.6287" lon="3.89536">
        <ele>925.2</ele>
        <time>2013-05-09T11:02:37Z</time>
      </trkpt>
      <trkpt lat="44.62871" lon="3.8954">
        <ele>925.2</ele>
        <time>2013-05-09T11:02:38Z</time>
      </trkpt>
      <trkpt lat="44.62878" lon="3.8954">
        <ele>925.2</ele>
        <time>2013-05-09T11:02:46Z</time>
      </trkpt>
      <trkpt lat="44.62869" lon="3.89536">
        <ele>924.9</ele>
        <time>2013-05-09T11:03:22Z</time>
      </trkpt>
      <trkpt lat="44.62868" lon="3.89525">
        <ele>926.9</ele>
        <time>2013-05-09T11:03:37Z</time>
      </trkpt>
      <trkpt lat="44.6286" lon="3.89521">
        <ele>927.9</ele>
        <time>2013-05-09T11:04:07Z</time>
      </trkpt>
      <trkpt lat="44.62856" lon="3.89517">
        <ele>928</ele>
        <time>2013-05-09T11:04:08Z</time>
      </trkpt>
      <trkpt lat="44.62862" lon="3.8952">
        <ele>928</ele>
        <time>2013-05-09T11:04:24Z</time>
      </trkpt>
      <trkpt lat="44.62865" lon="3.89531">
        <ele>928.1</ele>
        <time>2013-05-09T11:04:29Z</time>
      </trkpt>
      <trkpt lat="44.62866" lon="3.89521">
        <ele>928.8</ele>
        <time>2013-05-09T11:04:53Z</time>
      </trkpt>
      <trkpt lat="44.6287" lon="3.89516">
        <ele>928.7</ele>
        <time>2013-05-09T11:04:56Z</time>
      </trkpt>
      <trkpt lat="44.62877" lon="3.89526">
        <ele>928.7</ele>
        <time>2013-05-09T11:04:57Z</time>
      </trkpt>
      <trkpt lat="44.62868" lon="3.89526">
        <ele>928.6</ele>
        <time>2013-05-09T11:05:20Z</time>
      </trkpt>
      <trkpt lat="44.62867" lon="3.89524">
        <ele>928.6</ele>
        <time>2013-05-09T11:05:21Z</time>
      </trkpt>
      <trkpt lat="44.62872" lon="3.89523">
        <ele>930.5</ele>
        <time>2013-05-09T11:06:25Z</time>
      </trkpt>
      <trkpt lat="44.62873" lon="3.89524">
        <ele>930.5</ele>
        <time>2013-05-09T11:06:26Z</time>
      </trkpt>
      <trkpt lat="44.62864" lon="3.89523">
        <ele>932.1</ele>
        <time>2013-05-09T11:07:13Z</time>
      </trkpt>
      <trkpt lat="44.62871" lon="3.89526">
        <ele>930.2</ele>
        <time>2013-05-09T11:08:04Z</time>
      </trkpt>
      <trkpt lat="44.62873" lon="3.89525">
        <ele>929.7</ele>
        <time>2013-05-09T11:08:05Z</time>
      </trkpt>
      <trkpt lat="44.62869" lon="3.8952">
        <ele>922.7</ele>
        <time>2013-05-09T11:09:14Z</time>
      </trkpt>
      <trkpt lat="44.62869" lon="3.89521">
        <ele>923</ele>
        <time>2013-05-09T11:09:15Z</time>
      </trkpt>
      <trkpt lat="44.62862" lon="3.89513">
        <ele>927.3</ele>
        <time>2013-05-09T11:12:07Z</time>
      </trkpt>
      <trkpt lat="44.6287" lon="3.89528">
        <ele>928.4</ele>
        <time>2013-05-09T11:13:50Z</time>
      </trkpt>
      <trkpt lat="44.6287" lon="3.89542">
        <ele>928.3</ele>
        <time>2013-05-09T11:13:53Z</time>
      </trkpt>
      <trkpt lat="44.62871" lon="3.89552">
        <ele>928.3</ele>
        <time>2013-05-09T11:13:56Z</time>
      </trkpt>
      <trkpt lat="44.62867" lon="3.89563">
        <ele>928.2</ele>
        <time>2013-05-09T11:13:59Z</time>
      </trkpt>
      <trkpt lat="44.62867" lon="3.89572">
        <ele>928.1</ele>
        <time>2013-05-09T11:14:01Z</time>
      </trkpt>
      <trkpt lat="44.62867" lon="3.8958">
        <ele>928.1</ele>
        <time>2013-05-09T11:14:03Z</time>
      </trkpt>
      <trkpt lat="44.62869" lon="3.89588">
        <ele>928</ele>
        <time>2013-05-09T11:14:04Z</time>
      </trkpt>
      <trkpt lat="44.62873" lon="3.89599">
        <ele>928</ele>
        <time>2013-05-09T11:14:12Z</time>
      </trkpt>
      <trkpt lat="44.62869" lon="3.89589">
        <ele>927.9</ele>
        <time>2013-05-09T11:14:18Z</time>
      </trkpt>
      <trkpt lat="44.62868" lon="3.89577">
        <ele>927.7</ele>
        <time>2013-05-09T11:14:19Z</time>
      </trkpt>
      <trkpt lat="44.62868" lon="3.89567">
        <ele>927.6</ele>
        <time>2013-05-09T11:14:20Z</time>
      </trkpt>
      <trkpt lat="44.62867" lon="3.89556">
        <ele>927.5</ele>
        <time>2013-05-09T11:14:46Z</time>
      </trkpt>
      <trkpt lat="44.62868" lon="3.89541">
        <ele>927.7</ele>
        <time>2013-05-09T11:14:47Z</time>
      </trkpt>
      <trkpt lat="44.62868" lon="3.89533">
        <ele>927.6</ele>
        <time>2013-05-09T11:15:03Z</time>
      </trkpt>
      <trkpt lat="44.62865" lon="3.89527">
        <ele>928</ele>
        <time>2013-05-09T11:15:04Z</time>
      </trkpt>
      <trkpt lat="44.62859" lon="3.89515">
        <ele>929.2</ele>
        <time>2013-05-09T11:15:14Z</time>
      </trkpt>
      <trkpt lat="44.62853" lon="3.89506">
        <ele>929.6</ele>
        <time>2013-05-09T11:15:18Z</time>
      </trkpt>
      <trkpt lat="44.62847" lon="3.89499">
        <ele>930</ele>
        <time>2013-05-09T11:15:25Z</time>
      </trkpt>
      <trkpt lat="44.62842" lon="3.8949">
        <ele>930.2</ele>
        <time>2013-05-09T11:15:31Z</time>
      </trkpt>
      <trkpt lat="44.62838" lon="3.89479">
        <ele>930.2</ele>
        <time>2013-05-09T11:15:39Z</time>
      </trkpt>
      <trkpt lat="44.62837" lon="3.89467">
        <ele>930.5</ele>
        <time>2013-05-09T11:15:48Z</time>
      </trkpt>
      <trkpt lat="44.62832" lon="3.89456">
        <ele>931.3</ele>
        <time>2013-05-09T11:16:27Z</time>
      </trkpt>
      <trkpt lat="44.62831" lon="3.89456">
        <ele>931.4</ele>
        <time>2013-05-09T11:16:28Z</time>
      </trkpt>
      <trkpt lat="44.62817" lon="3.89448">
        <ele>931.8</ele>
        <time>2013-05-09T11:16:46Z</time>
      </trkpt>
      <trkpt lat="44.6281" lon="3.89443">
        <ele>931.8</ele>
        <time>2013-05-09T11:16:53Z</time>
      </trkpt>
      <trkpt lat="44.62802" lon="3.89443">
        <ele>931.9</ele>
        <time>2013-05-09T11:17:00Z</time>
      </trkpt>
      <trkpt lat="44.62793" lon="3.89444">
        <ele>931.9</ele>
        <time>2013-05-09T11:17:08Z</time>
      </trkpt>
      <trkpt lat="44.62785" lon="3.89447">
        <ele>932</ele>
        <time>2013-05-09T11:17:15Z</time>
      </trkpt>
      <trkpt lat="44.62776" lon="3.89447">
        <ele>931.9</ele>
        <time>2013-05-09T11:17:22Z</time>
      </trkpt>
      <trkpt lat="44.62768" lon="3.89443">
        <ele>932</ele>
        <time>2013-05-09T11:17:29Z</time>
      </trkpt>
      <trkpt lat="44.62767" lon="3.89443">
        <ele>932</ele>
        <time>2013-05-09T11:17:30Z</time>
      </trkpt>
      <trkpt lat="44.62752" lon="3.89439">
        <ele>932</ele>
        <time>2013-05-09T11:17:44Z</time>
      </trkpt>
      <trkpt lat="44.62744" lon="3.89438">
        <ele>931.9</ele>
        <time>2013-05-09T11:17:52Z</time>
      </trkpt>
      <trkpt lat="44.62736" lon="3.89444">
        <ele>932.1</ele>
        <time>2013-05-09T11:17:58Z</time>
      </trkpt>
      <trkpt lat="44.62728" lon="3.89444">
        <ele>932</ele>
        <time>2013-05-09T11:18:05Z</time>
      </trkpt>
      <trkpt lat="44.6272" lon="3.89448">
        <ele>932.1</ele>
        <time>2013-05-09T11:18:12Z</time>
      </trkpt>
      <trkpt lat="44.62713" lon="3.89453">
        <ele>932.2</ele>
        <time>2013-05-09T11:18:19Z</time>
      </trkpt>
      <trkpt lat="44.62704" lon="3.89456">
        <ele>932.7</ele>
        <time>2013-05-09T11:18:29Z</time>
      </trkpt>
      <trkpt lat="44.62703" lon="3.89456">
        <ele>932.8</ele>
        <time>2013-05-09T11:18:30Z</time>
      </trkpt>
      <trkpt lat="44.62688" lon="3.89465">
        <ele>932.5</ele>
        <time>2013-05-09T11:18:45Z</time>
      </trkpt>
      <trkpt lat="44.6268" lon="3.89468">
        <ele>932.7</ele>
        <time>2013-05-09T11:18:54Z</time>
      </trkpt>
      <trkpt lat="44.62673" lon="3.89475">
        <ele>933.1</ele>
        <time>2013-05-09T11:19:02Z</time>
      </trkpt>
      <trkpt lat="44.62665" lon="3.89475">
        <ele>933.5</ele>
        <time>2013-05-09T11:19:13Z</time>
      </trkpt>
      <trkpt lat="44.62657" lon="3.89473">
        <ele>934.1</ele>
        <time>2013-05-09T11:19:26Z</time>
      </trkpt>
      <trkpt lat="44.62651" lon="3.89482">
        <ele>934.5</ele>
        <time>2013-05-09T11:19:35Z</time>
      </trkpt>
      <trkpt lat="44.62651" lon="3.89482">
        <ele>934.6</ele>
        <time>2013-05-09T11:19:36Z</time>
      </trkpt>
      <trkpt lat="44.62635" lon="3.89483">
        <ele>934.5</ele>
        <time>2013-05-09T11:21:00Z</time>
      </trkpt>
      <trkpt lat="44.62634" lon="3.89484">
        <ele>934.5</ele>
        <time>2013-05-09T11:21:01Z</time>
      </trkpt>
      <trkpt lat="44.6262" lon="3.89488">
        <ele>934</ele>
        <time>2013-05-09T11:21:14Z</time>
      </trkpt>
      <trkpt lat="44.62614" lon="3.89494">
        <ele>933.9</ele>
        <time>2013-05-09T11:21:17Z</time>
      </trkpt>
      <trkpt lat="44.62606" lon="3.89496">
        <ele>933.6</ele>
        <time>2013-05-09T11:21:25Z</time>
      </trkpt>
      <trkpt lat="44.62599" lon="3.89504">
        <ele>933.6</ele>
        <time>2013-05-09T11:21:31Z</time>
      </trkpt>
      <trkpt lat="44.62593" lon="3.89511">
        <ele>933.4</ele>
        <time>2013-05-09T11:21:34Z</time>
      </trkpt>
      <trkpt lat="44.62585" lon="3.89513">
        <ele>933.5</ele>
        <time>2013-05-09T11:21:43Z</time>
      </trkpt>
      <trkpt lat="44.62577" lon="3.89517">
        <ele>933.5</ele>
        <time>2013-05-09T11:21:51Z</time>
      </trkpt>
      <trkpt lat="44.62569" lon="3.89519">
        <ele>933.6</ele>
        <time>2013-05-09T11:21:57Z</time>
      </trkpt>
      <trkpt lat="44.6256" lon="3.89523">
        <ele>933.7</ele>
        <time>2013-05-09T11:22:04Z</time>
      </trkpt>
      <trkpt lat="44.62559" lon="3.89524">
        <ele>933.7</ele>
        <time>2013-05-09T11:22:05Z</time>
      </trkpt>
      <trkpt lat="44.62547" lon="3.89531">
        <ele>934.2</ele>
        <time>2013-05-09T11:22:17Z</time>
      </trkpt>
      <trkpt lat="44.62539" lon="3.89536">
        <ele>934.3</ele>
        <time>2013-05-09T11:22:21Z</time>
      </trkpt>
      <trkpt lat="44.62531" lon="3.8954">
        <ele>934.6</ele>
        <time>2013-05-09T11:22:27Z</time>
      </trkpt>
      <trkpt lat="44.62523" lon="3.89546">
        <ele>934.8</ele>
        <time>2013-05-09T11:22:32Z</time>
      </trkpt>
      <trkpt lat="44.62515" lon="3.89548">
        <ele>935.1</ele>
        <time>2013-05-09T11:22:42Z</time>
      </trkpt>
      <trkpt lat="44.62508" lon="3.89554">
        <ele>934.9</ele>
        <time>2013-05-09T11:22:49Z</time>
      </trkpt>
      <trkpt lat="44.62501" lon="3.89558">
        <ele>935</ele>
        <time>2013-05-09T11:22:55Z</time>
      </trkpt>
      <trkpt lat="44.62492" lon="3.89562">
        <ele>934.8</ele>
        <time>2013-05-09T11:23:03Z</time>
      </trkpt>
      <trkpt lat="44.62484" lon="3.89565">
        <ele>934.6</ele>
        <time>2013-05-09T11:23:10Z</time>
      </trkpt>
      <trkpt lat="44.62483" lon="3.89565">
        <ele>934.6</ele>
        <time>2013-05-09T11:23:11Z</time>
      </trkpt>
      <trkpt lat="44.62468" lon="3.89565">
        <ele>934.8</ele>
        <time>2013-05-09T11:23:27Z</time>
      </trkpt>
      <trkpt lat="44.6246" lon="3.89567">
        <ele>934.9</ele>
        <time>2013-05-09T11:23:34Z</time>
      </trkpt>
      <trkpt lat="44.62451" lon="3.89568">
        <ele>935.2</ele>
        <time>2013-05-09T11:23:43Z</time>
      </trkpt>
      <trkpt lat="44.62443" lon="3.8957">
        <ele>935.4</ele>
        <time>2013-05-09T11:23:49Z</time>
      </trkpt>
      <trkpt lat="44.62435" lon="3.8957">
        <ele>936</ele>
        <time>2013-05-09T11:23:59Z</time>
      </trkpt>
      <trkpt lat="44.62427" lon="3.89568">
        <ele>936.1</ele>
        <time>2013-05-09T11:24:07Z</time>
      </trkpt>
      <trkpt lat="44.6242" lon="3.89563">
        <ele>936.2</ele>
        <time>2013-05-09T11:24:16Z</time>
      </trkpt>
      <trkpt lat="44.62419" lon="3.89563">
        <ele>936.2</ele>
        <time>2013-05-09T11:24:17Z</time>
      </trkpt>
      <trkpt lat="44.62403" lon="3.8956">
        <ele>936.4</ele>
        <time>2013-05-09T11:24:32Z</time>
      </trkpt>
      <trkpt lat="44.62395" lon="3.89555">
        <ele>936.7</ele>
        <time>2013-05-09T11:24:42Z</time>
      </trkpt>
      <trkpt lat="44.62387" lon="3.89555">
        <ele>936.8</ele>
        <time>2013-05-09T11:24:51Z</time>
      </trkpt>
      <trkpt lat="44.62378" lon="3.89551">
        <ele>937.1</ele>
        <time>2013-05-09T11:25:02Z</time>
      </trkpt>
      <trkpt lat="44.62373" lon="3.89543">
        <ele>937.3</ele>
        <time>2013-05-09T11:25:11Z</time>
      </trkpt>
      <trkpt lat="44.62366" lon="3.89537">
        <ele>937.6</ele>
        <time>2013-05-09T11:25:18Z</time>
      </trkpt>
      <trkpt lat="44.62365" lon="3.89536">
        <ele>937.6</ele>
        <time>2013-05-09T11:25:19Z</time>
      </trkpt>
      <trkpt lat="44.6235" lon="3.89533">
        <ele>938.1</ele>
        <time>2013-05-09T11:25:34Z</time>
      </trkpt>
      <trkpt lat="44.62342" lon="3.89529">
        <ele>938.1</ele>
        <time>2013-05-09T11:25:58Z</time>
      </trkpt>
      <trkpt lat="44.62334" lon="3.89533">
        <ele>938.5</ele>
        <time>2013-05-09T11:26:07Z</time>
      </trkpt>
      <trkpt lat="44.62327" lon="3.89538">
        <ele>938.6</ele>
        <time>2013-05-09T11:26:14Z</time>
      </trkpt>
      <trkpt lat="44.62321" lon="3.89545">
        <ele>938.8</ele>
        <time>2013-05-09T11:26:20Z</time>
      </trkpt>
      <trkpt lat="44.62319" lon="3.89547">
        <ele>938.8</ele>
        <time>2013-05-09T11:26:21Z</time>
      </trkpt>
      <trkpt lat="44.62305" lon="3.89555">
        <ele>939.4</ele>
        <time>2013-05-09T11:26:35Z</time>
      </trkpt>
      <trkpt lat="44.62297" lon="3.89561">
        <ele>940</ele>
        <time>2013-05-09T11:26:42Z</time>
      </trkpt>
      <trkpt lat="44.62289" lon="3.89559">
        <ele>941.5</ele>
        <time>2013-05-09T11:26:56Z</time>
      </trkpt>
      <trkpt lat="44.62281" lon="3.89564">
        <ele>942.1</ele>
        <time>2013-05-09T11:27:01Z</time>
      </trkpt>
      <trkpt lat="44.62273" lon="3.89568">
        <ele>942.6</ele>
        <time>2013-05-09T11:27:06Z</time>
      </trkpt>
      <trkpt lat="44.62265" lon="3.89567">
        <ele>943.6</ele>
        <time>2013-05-09T11:27:15Z</time>
      </trkpt>
      <trkpt lat="44.62257" lon="3.89572">
        <ele>944.2</ele>
        <time>2013-05-09T11:27:25Z</time>
      </trkpt>
      <trkpt lat="44.62256" lon="3.89573">
        <ele>944.3</ele>
        <time>2013-05-09T11:27:26Z</time>
      </trkpt>
      <trkpt lat="44.62241" lon="3.89573">
        <ele>945.3</ele>
        <time>2013-05-09T11:27:45Z</time>
      </trkpt>
      <trkpt lat="44.62233" lon="3.89574">
        <ele>945.9</ele>
        <time>2013-05-09T11:27:55Z</time>
      </trkpt>
      <trkpt lat="44.62226" lon="3.89576">
        <ele>946.2</ele>
        <time>2013-05-09T11:28:00Z</time>
      </trkpt>
      <trkpt lat="44.62217" lon="3.89575">
        <ele>946.5</ele>
        <time>2013-05-09T11:28:07Z</time>
      </trkpt>
      <trkpt lat="44.62209" lon="3.89578">
        <ele>946.9</ele>
        <time>2013-05-09T11:28:13Z</time>
      </trkpt>
      <trkpt lat="44.622" lon="3.89578">
        <ele>947.4</ele>
        <time>2013-05-09T11:28:21Z</time>
      </trkpt>
      <trkpt lat="44.62195" lon="3.89569">
        <ele>948.8</ele>
        <time>2013-05-09T11:28:32Z</time>
      </trkpt>
      <trkpt lat="44.62194" lon="3.89569">
        <ele>948.9</ele>
        <time>2013-05-09T11:28:33Z</time>
      </trkpt>
      <trkpt lat="44.62179" lon="3.89562">
        <ele>950.3</ele>
        <time>2013-05-09T11:28:48Z</time>
      </trkpt>
      <trkpt lat="44.62171" lon="3.89563">
        <ele>950.9</ele>
        <time>2013-05-09T11:28:54Z</time>
      </trkpt>
      <trkpt lat="44.62163" lon="3.89564">
        <ele>951.6</ele>
        <time>2013-05-09T11:29:01Z</time>
      </trkpt>
      <trkpt lat="44.62155" lon="3.89565">
        <ele>952.2</ele>
        <time>2013-05-09T11:29:08Z</time>
      </trkpt>
      <trkpt lat="44.62147" lon="3.89565">
        <ele>952.8</ele>
        <time>2013-05-09T11:29:16Z</time>
      </trkpt>
      <trkpt lat="44.62138" lon="3.89562">
        <ele>953.5</ele>
        <time>2013-05-09T11:29:25Z</time>
      </trkpt>
      <trkpt lat="44.6213" lon="3.8956">
        <ele>954.5</ele>
        <time>2013-05-09T11:29:33Z</time>
      </trkpt>
      <trkpt lat="44.62129" lon="3.8956">
        <ele>954.6</ele>
        <time>2013-05-09T11:29:34Z</time>
      </trkpt>
      <trkpt lat="44.62114" lon="3.89565">
        <ele>956.2</ele>
        <time>2013-05-09T11:29:46Z</time>
      </trkpt>
      <trkpt lat="44.62106" lon="3.89563">
        <ele>957.7</ele>
        <time>2013-05-09T11:29:56Z</time>
      </trkpt>
      <trkpt lat="44.62097" lon="3.89565">
        <ele>958.4</ele>
        <time>2013-05-09T11:30:03Z</time>
      </trkpt>
      <trkpt lat="44.6209" lon="3.89567">
        <ele>958.9</ele>
        <time>2013-05-09T11:30:10Z</time>
      </trkpt>
      <trkpt lat="44.62083" lon="3.89571">
        <ele>959.2</ele>
        <time>2013-05-09T11:30:15Z</time>
      </trkpt>
      <trkpt lat="44.62076" lon="3.89576">
        <ele>959.7</ele>
        <time>2013-05-09T11:30:19Z</time>
      </trkpt>
      <trkpt lat="44.62068" lon="3.89582">
        <ele>960.4</ele>
        <time>2013-05-09T11:30:24Z</time>
      </trkpt>
      <trkpt lat="44.6206" lon="3.89588">
        <ele>960.8</ele>
        <time>2013-05-09T11:30:30Z</time>
      </trkpt>
      <trkpt lat="44.62051" lon="3.89586">
        <ele>961.5</ele>
        <time>2013-05-09T11:30:42Z</time>
      </trkpt>
      <trkpt lat="44.6205" lon="3.89586">
        <ele>961.5</ele>
        <time>2013-05-09T11:30:43Z</time>
      </trkpt>
      <trkpt lat="44.62037" lon="3.89591">
        <ele>962.2</ele>
        <time>2013-05-09T11:30:58Z</time>
      </trkpt>
      <trkpt lat="44.62029" lon="3.89597">
        <ele>962.2</ele>
        <time>2013-05-09T11:31:05Z</time>
      </trkpt>
      <trkpt lat="44.62021" lon="3.896">
        <ele>962.8</ele>
        <time>2013-05-09T11:31:14Z</time>
      </trkpt>
      <trkpt lat="44.62013" lon="3.89607">
        <ele>963.4</ele>
        <time>2013-05-09T11:31:19Z</time>
      </trkpt>
      <trkpt lat="44.62005" lon="3.89613">
        <ele>963.7</ele>
        <time>2013-05-09T11:31:26Z</time>
      </trkpt>
      <trkpt lat="44.61998" lon="3.89619">
        <ele>963.9</ele>
        <time>2013-05-09T11:31:32Z</time>
      </trkpt>
      <trkpt lat="44.61993" lon="3.89625">
        <ele>964.3</ele>
        <time>2013-05-09T11:31:36Z</time>
      </trkpt>
      <trkpt lat="44.61985" lon="3.89629">
        <ele>965.2</ele>
        <time>2013-05-09T11:31:44Z</time>
      </trkpt>
      <trkpt lat="44.61985" lon="3.89629">
        <ele>965.3</ele>
        <time>2013-05-09T11:31:45Z</time>
      </trkpt>
      <trkpt lat="44.61968" lon="3.89631">
        <ele>967.6</ele>
        <time>2013-05-09T11:32:02Z</time>
      </trkpt>
      <trkpt lat="44.61962" lon="3.89634">
        <ele>967.8</ele>
        <time>2013-05-09T11:32:07Z</time>
      </trkpt>
      <trkpt lat="44.61954" lon="3.8964">
        <ele>967.9</ele>
        <time>2013-05-09T11:32:10Z</time>
      </trkpt>
      <trkpt lat="44.61946" lon="3.8964">
        <ele>968.3</ele>
        <time>2013-05-09T11:32:16Z</time>
      </trkpt>
      <trkpt lat="44.61938" lon="3.89639">
        <ele>968.9</ele>
        <time>2013-05-09T11:32:25Z</time>
      </trkpt>
      <trkpt lat="44.6193" lon="3.89643">
        <ele>969.4</ele>
        <time>2013-05-09T11:32:30Z</time>
      </trkpt>
      <trkpt lat="44.61923" lon="3.8965">
        <ele>969.6</ele>
        <time>2013-05-09T11:32:35Z</time>
      </trkpt>
      <trkpt lat="44.61915" lon="3.89651">
        <ele>970.2</ele>
        <time>2013-05-09T11:32:43Z</time>
      </trkpt>
      <trkpt lat="44.61906" lon="3.89653">
        <ele>970.4</ele>
        <time>2013-05-09T11:32:51Z</time>
      </trkpt>
      <trkpt lat="44.61906" lon="3.89652">
        <ele>970.5</ele>
        <time>2013-05-09T11:32:52Z</time>
      </trkpt>
      <trkpt lat="44.6189" lon="3.89658">
        <ele>971.3</ele>
        <time>2013-05-09T11:33:09Z</time>
      </trkpt>
      <trkpt lat="44.61882" lon="3.89663">
        <ele>971.7</ele>
        <time>2013-05-09T11:33:17Z</time>
      </trkpt>
      <trkpt lat="44.61873" lon="3.89664">
        <ele>972.1</ele>
        <time>2013-05-09T11:33:27Z</time>
      </trkpt>
      <trkpt lat="44.61866" lon="3.89671">
        <ele>972.3</ele>
        <time>2013-05-09T11:33:33Z</time>
      </trkpt>
      <trkpt lat="44.61859" lon="3.89673">
        <ele>972.4</ele>
        <time>2013-05-09T11:33:38Z</time>
      </trkpt>
      <trkpt lat="44.61851" lon="3.89678">
        <ele>972.3</ele>
        <time>2013-05-09T11:33:46Z</time>
      </trkpt>
      <trkpt lat="44.61845" lon="3.89683">
        <ele>971.9</ele>
        <time>2013-05-09T11:33:51Z</time>
      </trkpt>
      <trkpt lat="44.6184" lon="3.89691">
        <ele>971.9</ele>
        <time>2013-05-09T11:33:55Z</time>
      </trkpt>
      <trkpt lat="44.61839" lon="3.89695">
        <ele>972</ele>
        <time>2013-05-09T11:33:56Z</time>
      </trkpt>
      <trkpt lat="44.6183" lon="3.89709">
        <ele>971.5</ele>
        <time>2013-05-09T11:34:09Z</time>
      </trkpt>
      <trkpt lat="44.61824" lon="3.89718">
        <ele>971.6</ele>
        <time>2013-05-09T11:34:16Z</time>
      </trkpt>
      <trkpt lat="44.61818" lon="3.89726">
        <ele>972.2</ele>
        <time>2013-05-09T11:34:22Z</time>
      </trkpt>
      <trkpt lat="44.61812" lon="3.89734">
        <ele>972.9</ele>
        <time>2013-05-09T11:34:28Z</time>
      </trkpt>
      <trkpt lat="44.61805" lon="3.8974">
        <ele>973.2</ele>
        <time>2013-05-09T11:34:34Z</time>
      </trkpt>
      <trkpt lat="44.61799" lon="3.89747">
        <ele>973.2</ele>
        <time>2013-05-09T11:34:42Z</time>
      </trkpt>
      <trkpt lat="44.61792" lon="3.89753">
        <ele>973.5</ele>
        <time>2013-05-09T11:34:49Z</time>
      </trkpt>
      <trkpt lat="44.61785" lon="3.8976">
        <ele>973.5</ele>
        <time>2013-05-09T11:34:59Z</time>
      </trkpt>
      <trkpt lat="44.61783" lon="3.89761">
        <ele>973.5</ele>
        <time>2013-05-09T11:35:00Z</time>
      </trkpt>
      <trkpt lat="44.61771" lon="3.89772">
        <ele>974.2</ele>
        <time>2013-05-09T11:35:17Z</time>
      </trkpt>
      <trkpt lat="44.61764" lon="3.89779">
        <ele>974.7</ele>
        <time>2013-05-09T11:35:23Z</time>
      </trkpt>
      <trkpt lat="44.61758" lon="3.89787">
        <ele>975.4</ele>
        <time>2013-05-09T11:35:27Z</time>
      </trkpt>
      <trkpt lat="44.61751" lon="3.89794">
        <ele>976.2</ele>
        <time>2013-05-09T11:35:35Z</time>
      </trkpt>
      <trkpt lat="44.61743" lon="3.89798">
        <ele>976.8</ele>
        <time>2013-05-09T11:35:45Z</time>
      </trkpt>
      <trkpt lat="44.61735" lon="3.898">
        <ele>977</ele>
        <time>2013-05-09T11:35:52Z</time>
      </trkpt>
      <trkpt lat="44.61726" lon="3.89802">
        <ele>977.4</ele>
        <time>2013-05-09T11:36:03Z</time>
      </trkpt>
      <trkpt lat="44.61725" lon="3.89803">
        <ele>977.4</ele>
        <time>2013-05-09T11:36:04Z</time>
      </trkpt>
      <trkpt lat="44.61711" lon="3.89812">
        <ele>978.5</ele>
        <time>2013-05-09T11:36:22Z</time>
      </trkpt>
      <trkpt lat="44.61704" lon="3.89818">
        <ele>978.8</ele>
        <time>2013-05-09T11:36:29Z</time>
      </trkpt>
      <trkpt lat="44.61697" lon="3.89825">
        <ele>978.7</ele>
        <time>2013-05-09T11:36:37Z</time>
      </trkpt>
      <trkpt lat="44.6169" lon="3.89832">
        <ele>979</ele>
        <time>2013-05-09T11:36:44Z</time>
      </trkpt>
      <trkpt lat="44.61682" lon="3.89836">
        <ele>979.9</ele>
        <time>2013-05-09T11:36:56Z</time>
      </trkpt>
      <trkpt lat="44.61674" lon="3.89843">
        <ele>980.3</ele>
        <time>2013-05-09T11:37:05Z</time>
      </trkpt>
      <trkpt lat="44.61673" lon="3.89845">
        <ele>980.4</ele>
        <time>2013-05-09T11:37:06Z</time>
      </trkpt>
      <trkpt lat="44.61663" lon="3.8986">
        <ele>982</ele>
        <time>2013-05-09T11:37:19Z</time>
      </trkpt>
      <trkpt lat="44.61658" lon="3.89869">
        <ele>982.5</ele>
        <time>2013-05-09T11:37:33Z</time>
      </trkpt>
      <trkpt lat="44.61653" lon="3.89875">
        <ele>982.1</ele>
        <time>2013-05-09T11:37:35Z</time>
      </trkpt>
      <trkpt lat="44.61648" lon="3.89883">
        <ele>982.2</ele>
        <time>2013-05-09T11:37:40Z</time>
      </trkpt>
      <trkpt lat="44.61644" lon="3.89893">
        <ele>982.5</ele>
        <time>2013-05-09T11:37:46Z</time>
      </trkpt>
      <trkpt lat="44.61638" lon="3.89904">
        <ele>983.1</ele>
        <time>2013-05-09T11:37:53Z</time>
      </trkpt>
      <trkpt lat="44.61634" lon="3.89913">
        <ele>983.6</ele>
        <time>2013-05-09T11:37:58Z</time>
      </trkpt>
      <trkpt lat="44.61631" lon="3.89923">
        <ele>983.6</ele>
        <time>2013-05-09T11:38:04Z</time>
      </trkpt>
      <trkpt lat="44.61626" lon="3.89932">
        <ele>983.7</ele>
        <time>2013-05-09T11:38:10Z</time>
      </trkpt>
      <trkpt lat="44.61625" lon="3.89934">
        <ele>983.7</ele>
        <time>2013-05-09T11:38:11Z</time>
      </trkpt>
      <trkpt lat="44.61614" lon="3.8995">
        <ele>983.5</ele>
        <time>2013-05-09T11:38:24Z</time>
      </trkpt>
      <trkpt lat="44.61609" lon="3.89958">
        <ele>983.1</ele>
        <time>2013-05-09T11:38:29Z</time>
      </trkpt>
      <trkpt lat="44.61603" lon="3.89967">
        <ele>983.4</ele>
        <time>2013-05-09T11:38:36Z</time>
      </trkpt>
      <trkpt lat="44.61599" lon="3.89977">
        <ele>983.2</ele>
        <time>2013-05-09T11:38:41Z</time>
      </trkpt>
      <trkpt lat="44.61596" lon="3.89988">
        <ele>983.3</ele>
        <time>2013-05-09T11:38:48Z</time>
      </trkpt>
      <trkpt lat="44.61595" lon="3.89999">
        <ele>982.2</ele>
        <time>2013-05-09T11:38:58Z</time>
      </trkpt>
      <trkpt lat="44.61592" lon="3.90009">
        <ele>981.7</ele>
        <time>2013-05-09T11:39:05Z</time>
      </trkpt>
      <trkpt lat="44.61588" lon="3.9002">
        <ele>981.3</ele>
        <time>2013-05-09T11:39:13Z</time>
      </trkpt>
      <trkpt lat="44.61587" lon="3.90021">
        <ele>981.2</ele>
        <time>2013-05-09T11:39:14Z</time>
      </trkpt>
      <trkpt lat="44.61582" lon="3.9004">
        <ele>975.9</ele>
        <time>2013-05-09T11:44:24Z</time>
      </trkpt>
      <trkpt lat="44.61583" lon="3.90042">
        <ele>975.9</ele>
        <time>2013-05-09T11:44:25Z</time>
      </trkpt>
      <trkpt lat="44.61587" lon="3.90064">
        <ele>975.8</ele>
        <time>2013-05-09T11:44:42Z</time>
      </trkpt>
      <trkpt lat="44.61581" lon="3.90072">
        <ele>975.7</ele>
        <time>2013-05-09T11:44:54Z</time>
      </trkpt>
      <trkpt lat="44.6158" lon="3.90078">
        <ele>975.6</ele>
        <time>2013-05-09T11:45:46Z</time>
      </trkpt>
      <trkpt lat="44.61576" lon="3.9009">
        <ele>975.5</ele>
        <time>2013-05-09T11:45:47Z</time>
      </trkpt>
      <trkpt lat="44.61575" lon="3.90094">
        <ele>975.5</ele>
        <time>2013-05-09T11:45:54Z</time>
      </trkpt>
      <trkpt lat="44.61572" lon="3.90104">
        <ele>975.5</ele>
        <time>2013-05-09T11:46:30Z</time>
      </trkpt>
      <trkpt lat="44.61573" lon="3.9011">
        <ele>975.5</ele>
        <time>2013-05-09T11:46:48Z</time>
      </trkpt>
      <trkpt lat="44.6157" lon="3.90119">
        <ele>975.5</ele>
        <time>2013-05-09T11:46:49Z</time>
      </trkpt>
      <trkpt lat="44.61571" lon="3.90133">
        <ele>975.5</ele>
        <time>2013-05-09T11:47:01Z</time>
      </trkpt>
      <trkpt lat="44.61565" lon="3.90142">
        <ele>975.6</ele>
        <time>2013-05-09T11:47:07Z</time>
      </trkpt>
      <trkpt lat="44.61561" lon="3.90151">
        <ele>975.6</ele>
        <time>2013-05-09T11:47:11Z</time>
      </trkpt>
      <trkpt lat="44.61555" lon="3.9016">
        <ele>975.5</ele>
        <time>2013-05-09T11:47:16Z</time>
      </trkpt>
      <trkpt lat="44.61547" lon="3.90164">
        <ele>975.5</ele>
        <time>2013-05-09T11:47:24Z</time>
      </trkpt>
      <trkpt lat="44.61545" lon="3.90164">
        <ele>975.6</ele>
        <time>2013-05-09T11:47:55Z</time>
      </trkpt>
      <trkpt lat="44.61539" lon="3.90157">
        <ele>975.6</ele>
        <time>2013-05-09T11:47:56Z</time>
      </trkpt>
      <trkpt lat="44.61537" lon="3.90161">
        <ele>975.6</ele>
        <time>2013-05-09T11:48:17Z</time>
      </trkpt>
      <trkpt lat="44.61535" lon="3.90172">
        <ele>975.5</ele>
        <time>2013-05-09T11:48:18Z</time>
      </trkpt>
      <trkpt lat="44.61532" lon="3.90183">
        <ele>975.5</ele>
        <time>2013-05-09T11:48:30Z</time>
      </trkpt>
      <trkpt lat="44.61526" lon="3.90191">
        <ele>975.3</ele>
        <time>2013-05-09T11:48:42Z</time>
      </trkpt>
      <trkpt lat="44.61519" lon="3.90199">
        <ele>975.2</ele>
        <time>2013-05-09T11:48:51Z</time>
      </trkpt>
      <trkpt lat="44.61513" lon="3.90206">
        <ele>975.2</ele>
        <time>2013-05-09T11:49:00Z</time>
      </trkpt>
      <trkpt lat="44.61512" lon="3.90208">
        <ele>975.2</ele>
        <time>2013-05-09T11:49:01Z</time>
      </trkpt>
      <trkpt lat="44.61504" lon="3.90224">
        <ele>975.1</ele>
        <time>2013-05-09T11:49:06Z</time>
      </trkpt>
      <trkpt lat="44.61508" lon="3.90222">
        <ele>972.3</ele>
        <time>2013-05-09T11:50:41Z</time>
      </trkpt>
      <trkpt lat="44.61514" lon="3.9022">
        <ele>971.3</ele>
        <time>2013-05-09T11:50:42Z</time>
      </trkpt>
      <trkpt lat="44.61518" lon="3.90226">
        <ele>970.2</ele>
        <time>2013-05-09T11:51:50Z</time>
      </trkpt>
      <trkpt lat="44.61521" lon="3.90249">
        <ele>963.5</ele>
        <time>2013-05-09T11:52:31Z</time>
      </trkpt>
      <trkpt lat="44.61526" lon="3.90259">
        <ele>962.3</ele>
        <time>2013-05-09T11:52:39Z</time>
      </trkpt>
      <trkpt lat="44.61528" lon="3.90269">
        <ele>962.3</ele>
        <time>2013-05-09T11:52:47Z</time>
      </trkpt>
      <trkpt lat="44.61534" lon="3.90277">
        <ele>962.5</ele>
        <time>2013-05-09T11:52:53Z</time>
      </trkpt>
      <trkpt lat="44.61536" lon="3.90281">
        <ele>962.2</ele>
        <time>2013-05-09T11:52:54Z</time>
      </trkpt>
      <trkpt lat="44.6154" lon="3.90299">
        <ele>962.4</ele>
        <time>2013-05-09T11:53:05Z</time>
      </trkpt>
      <trkpt lat="44.61543" lon="3.9031">
        <ele>962.2</ele>
        <time>2013-05-09T11:53:15Z</time>
      </trkpt>
      <trkpt lat="44.61544" lon="3.90322">
        <ele>962</ele>
        <time>2013-05-09T11:53:23Z</time>
      </trkpt>
      <trkpt lat="44.61551" lon="3.9033">
        <ele>961.6</ele>
        <time>2013-05-09T11:53:39Z</time>
      </trkpt>
      <trkpt lat="44.6155" lon="3.9034">
        <ele>961</ele>
        <time>2013-05-09T11:53:46Z</time>
      </trkpt>
      <trkpt lat="44.61553" lon="3.90352">
        <ele>960.5</ele>
        <time>2013-05-09T11:53:55Z</time>
      </trkpt>
      <trkpt lat="44.61554" lon="3.90353">
        <ele>960.4</ele>
        <time>2013-05-09T11:53:56Z</time>
      </trkpt>
      <trkpt lat="44.61554" lon="3.90375">
        <ele>959.4</ele>
        <time>2013-05-09T11:54:17Z</time>
      </trkpt>
      <trkpt lat="44.61557" lon="3.90386">
        <ele>959.8</ele>
        <time>2013-05-09T11:54:27Z</time>
      </trkpt>
      <trkpt lat="44.61551" lon="3.90393">
        <ele>960.2</ele>
        <time>2013-05-09T11:55:24Z</time>
      </trkpt>
      <trkpt lat="44.61549" lon="3.90393">
        <ele>960.3</ele>
        <time>2013-05-09T11:55:25Z</time>
      </trkpt>
      <trkpt lat="44.61552" lon="3.90406">
        <ele>961</ele>
        <time>2013-05-09T11:56:57Z</time>
      </trkpt>
      <trkpt lat="44.61552" lon="3.90428">
        <ele>961.1</ele>
        <time>2013-05-09T11:57:23Z</time>
      </trkpt>
      <trkpt lat="44.61548" lon="3.90434">
        <ele>961.2</ele>
        <time>2013-05-09T11:57:27Z</time>
      </trkpt>
      <trkpt lat="44.61543" lon="3.90444">
        <ele>961.5</ele>
        <time>2013-05-09T11:57:31Z</time>
      </trkpt>
      <trkpt lat="44.61542" lon="3.90456">
        <ele>962.2</ele>
        <time>2013-05-09T11:57:53Z</time>
      </trkpt>
      <trkpt lat="44.61547" lon="3.90466">
        <ele>962.2</ele>
        <time>2013-05-09T11:58:07Z</time>
      </trkpt>
      <trkpt lat="44.61549" lon="3.90468">
        <ele>962.1</ele>
        <time>2013-05-09T11:58:08Z</time>
      </trkpt>
      <trkpt lat="44.6154" lon="3.90477">
        <ele>962.1</ele>
        <time>2013-05-09T11:58:19Z</time>
      </trkpt>
      <trkpt lat="44.61547" lon="3.90476">
        <ele>962.1</ele>
        <time>2013-05-09T11:58:38Z</time>
      </trkpt>
      <trkpt lat="44.61552" lon="3.90485">
        <ele>962.1</ele>
        <time>2013-05-09T11:58:42Z</time>
      </trkpt>
      <trkpt lat="44.6155" lon="3.90495">
        <ele>962</ele>
        <time>2013-05-09T11:58:45Z</time>
      </trkpt>
      <trkpt lat="44.61549" lon="3.90504">
        <ele>962.1</ele>
        <time>2013-05-09T11:58:50Z</time>
      </trkpt>
      <trkpt lat="44.61548" lon="3.90514">
        <ele>962.4</ele>
        <time>2013-05-09T11:58:59Z</time>
      </trkpt>
      <trkpt lat="44.61549" lon="3.90526">
        <ele>962.6</ele>
        <time>2013-05-09T11:59:04Z</time>
      </trkpt>
      <trkpt lat="44.61544" lon="3.90535">
        <ele>962.8</ele>
        <time>2013-05-09T11:59:11Z</time>
      </trkpt>
      <trkpt lat="44.61544" lon="3.90538">
        <ele>962.8</ele>
        <time>2013-05-09T11:59:12Z</time>
      </trkpt>
      <trkpt lat="44.61541" lon="3.90556">
        <ele>962.9</ele>
        <time>2013-05-09T11:59:18Z</time>
      </trkpt>
      <trkpt lat="44.61533" lon="3.9056">
        <ele>963</ele>
        <time>2013-05-09T11:59:23Z</time>
      </trkpt>
      <trkpt lat="44.61538" lon="3.90569">
        <ele>963.1</ele>
        <time>2013-05-09T11:59:37Z</time>
      </trkpt>
      <trkpt lat="44.61539" lon="3.90582">
        <ele>963.2</ele>
        <time>2013-05-09T11:59:38Z</time>
      </trkpt>
      <trkpt lat="44.61543" lon="3.90587">
        <ele>963.3</ele>
        <time>2013-05-09T11:59:44Z</time>
      </trkpt>
      <trkpt lat="44.61542" lon="3.90598">
        <ele>963.5</ele>
        <time>2013-05-09T11:59:48Z</time>
      </trkpt>
      <trkpt lat="44.61543" lon="3.90609">
        <ele>963.5</ele>
        <time>2013-05-09T12:00:03Z</time>
      </trkpt>
      <trkpt lat="44.61538" lon="3.90618">
        <ele>964</ele>
        <time>2013-05-09T12:00:18Z</time>
      </trkpt>
      <trkpt lat="44.61538" lon="3.9062">
        <ele>964.1</ele>
        <time>2013-05-09T12:00:19Z</time>
      </trkpt>
      <trkpt lat="44.61539" lon="3.9064">
        <ele>964.6</ele>
        <time>2013-05-09T12:00:42Z</time>
      </trkpt>
      <trkpt lat="44.6154" lon="3.90652">
        <ele>965</ele>
        <time>2013-05-09T12:00:50Z</time>
      </trkpt>
      <trkpt lat="44.61543" lon="3.90664">
        <ele>965.3</ele>
        <time>2013-05-09T12:00:59Z</time>
      </trkpt>
      <trkpt lat="44.61549" lon="3.90673">
        <ele>965.7</ele>
        <time>2013-05-09T12:01:06Z</time>
      </trkpt>
      <trkpt lat="44.61543" lon="3.90681">
        <ele>966.3</ele>
        <time>2013-05-09T12:01:16Z</time>
      </trkpt>
      <trkpt lat="44.6154" lon="3.90691">
        <ele>966.7</ele>
        <time>2013-05-09T12:01:23Z</time>
      </trkpt>
      <trkpt lat="44.61541" lon="3.90694">
        <ele>966.9</ele>
        <time>2013-05-09T12:01:24Z</time>
      </trkpt>
      <trkpt lat="44.61547" lon="3.90712">
        <ele>968</ele>
        <time>2013-05-09T12:01:34Z</time>
      </trkpt>
      <trkpt lat="44.61547" lon="3.90725">
        <ele>968.4</ele>
        <time>2013-05-09T12:01:41Z</time>
      </trkpt>
      <trkpt lat="44.61542" lon="3.90734">
        <ele>969.2</ele>
        <time>2013-05-09T12:01:48Z</time>
      </trkpt>
      <trkpt lat="44.61538" lon="3.90745">
        <ele>970.2</ele>
        <time>2013-05-09T12:01:57Z</time>
      </trkpt>
      <trkpt lat="44.61534" lon="3.90753">
        <ele>971.2</ele>
        <time>2013-05-09T12:02:12Z</time>
      </trkpt>
      <trkpt lat="44.61527" lon="3.90758">
        <ele>971.7</ele>
        <time>2013-05-09T12:02:19Z</time>
      </trkpt>
      <trkpt lat="44.61519" lon="3.90764">
        <ele>972</ele>
        <time>2013-05-09T12:02:25Z</time>
      </trkpt>
      <trkpt lat="44.61516" lon="3.90764">
        <ele>972.2</ele>
        <time>2013-05-09T12:02:26Z</time>
      </trkpt>
      <trkpt lat="44.61513" lon="3.90778">
        <ele>975.3</ele>
        <time>2013-05-09T12:02:40Z</time>
      </trkpt>
      <trkpt lat="44.61512" lon="3.90789">
        <ele>977.4</ele>
        <time>2013-05-09T12:02:50Z</time>
      </trkpt>
      <trkpt lat="44.61508" lon="3.908">
        <ele>980.2</ele>
        <time>2013-05-09T12:03:03Z</time>
      </trkpt>
      <trkpt lat="44.615" lon="3.90805">
        <ele>981.6</ele>
        <time>2013-05-09T12:03:09Z</time>
      </trkpt>
      <trkpt lat="44.61491" lon="3.90809">
        <ele>984.7</ele>
        <time>2013-05-09T12:03:23Z</time>
      </trkpt>
      <trkpt lat="44.61483" lon="3.90813">
        <ele>987</ele>
        <time>2013-05-09T12:03:32Z</time>
      </trkpt>
      <trkpt lat="44.61482" lon="3.90813">
        <ele>987.2</ele>
        <time>2013-05-09T12:03:33Z</time>
      </trkpt>
      <trkpt lat="44.61481" lon="3.90809">
        <ele>994.4</ele>
        <time>2013-05-09T12:04:19Z</time>
      </trkpt>
      <trkpt lat="44.61488" lon="3.90801">
        <ele>994.8</ele>
        <time>2013-05-09T12:04:23Z</time>
      </trkpt>
      <trkpt lat="44.61496" lon="3.90796">
        <ele>995.8</ele>
        <time>2013-05-09T12:04:33Z</time>
      </trkpt>
      <trkpt lat="44.61497" lon="3.90794">
        <ele>995.9</ele>
        <time>2013-05-09T12:04:34Z</time>
      </trkpt>
      <trkpt lat="44.61492" lon="3.90773">
        <ele>996.9</ele>
        <time>2013-05-09T12:04:47Z</time>
      </trkpt>
      <trkpt lat="44.61487" lon="3.90763">
        <ele>997.5</ele>
        <time>2013-05-09T12:04:53Z</time>
      </trkpt>
      <trkpt lat="44.61481" lon="3.90755">
        <ele>998</ele>
        <time>2013-05-09T12:04:59Z</time>
      </trkpt>
      <trkpt lat="44.61476" lon="3.90748">
        <ele>998.3</ele>
        <time>2013-05-09T12:05:05Z</time>
      </trkpt>
      <trkpt lat="44.6147" lon="3.90739">
        <ele>999</ele>
        <time>2013-05-09T12:05:17Z</time>
      </trkpt>
      <trkpt lat="44.61467" lon="3.90729">
        <ele>999.2</ele>
        <time>2013-05-09T12:05:23Z</time>
      </trkpt>
      <trkpt lat="44.61466" lon="3.90716">
        <ele>999.6</ele>
        <time>2013-05-09T12:05:30Z</time>
      </trkpt>
      <trkpt lat="44.61469" lon="3.90706">
        <ele>999.9</ele>
        <time>2013-05-09T12:05:36Z</time>
      </trkpt>
      <trkpt lat="44.61469" lon="3.90704">
        <ele>999.9</ele>
        <time>2013-05-09T12:05:37Z</time>
      </trkpt>
      <trkpt lat="44.61463" lon="3.90683">
        <ele>1000.9</ele>
        <time>2013-05-09T12:06:00Z</time>
      </trkpt>
      <trkpt lat="44.61459" lon="3.90674">
        <ele>1001.1</ele>
        <time>2013-05-09T12:06:06Z</time>
      </trkpt>
      <trkpt lat="44.61459" lon="3.90665">
        <ele>1001.4</ele>
        <time>2013-05-09T12:06:10Z</time>
      </trkpt>
      <trkpt lat="44.61461" lon="3.90654">
        <ele>1001.6</ele>
        <time>2013-05-09T12:06:13Z</time>
      </trkpt>
      <trkpt lat="44.6146" lon="3.90642">
        <ele>1001.8</ele>
        <time>2013-05-09T12:06:18Z</time>
      </trkpt>
      <trkpt lat="44.61457" lon="3.9063">
        <ele>1002</ele>
        <time>2013-05-09T12:06:25Z</time>
      </trkpt>
      <trkpt lat="44.61451" lon="3.90622">
        <ele>1002.9</ele>
        <time>2013-05-09T12:06:35Z</time>
      </trkpt>
      <trkpt lat="44.61444" lon="3.90614">
        <ele>1003.3</ele>
        <time>2013-05-09T12:06:41Z</time>
      </trkpt>
      <trkpt lat="44.61443" lon="3.90612">
        <ele>1003.4</ele>
        <time>2013-05-09T12:06:42Z</time>
      </trkpt>
      <trkpt lat="44.6144" lon="3.90609">
        <ele>1006.4</ele>
        <time>2013-05-09T12:07:08Z</time>
      </trkpt>
      <trkpt lat="44.61439" lon="3.90619">
        <ele>1006.7</ele>
        <time>2013-05-09T12:07:14Z</time>
      </trkpt>
      <trkpt lat="44.6144" lon="3.9063">
        <ele>1007.2</ele>
        <time>2013-05-09T12:07:20Z</time>
      </trkpt>
      <trkpt lat="44.61439" lon="3.90642">
        <ele>1008.1</ele>
        <time>2013-05-09T12:07:26Z</time>
      </trkpt>
      <trkpt lat="44.61434" lon="3.90651">
        <ele>1009.4</ele>
        <time>2013-05-09T12:07:34Z</time>
      </trkpt>
      <trkpt lat="44.61432" lon="3.90663">
        <ele>1010</ele>
        <time>2013-05-09T12:07:43Z</time>
      </trkpt>
      <trkpt lat="44.61432" lon="3.90664">
        <ele>1010.1</ele>
        <time>2013-05-09T12:07:44Z</time>
      </trkpt>
      <trkpt lat="44.61435" lon="3.90686">
        <ele>1011.8</ele>
        <time>2013-05-09T12:07:57Z</time>
      </trkpt>
      <trkpt lat="44.61433" lon="3.90697">
        <ele>1012.5</ele>
        <time>2013-05-09T12:08:05Z</time>
      </trkpt>
      <trkpt lat="44.61428" lon="3.90706">
        <ele>1012.7</ele>
        <time>2013-05-09T12:08:18Z</time>
      </trkpt>
      <trkpt lat="44.61423" lon="3.90715">
        <ele>1012.8</ele>
        <time>2013-05-09T12:08:29Z</time>
      </trkpt>
      <trkpt lat="44.61416" lon="3.9072">
        <ele>1014.3</ele>
        <time>2013-05-09T12:08:39Z</time>
      </trkpt>
      <trkpt lat="44.61408" lon="3.90722">
        <ele>1014.7</ele>
        <time>2013-05-09T12:08:49Z</time>
      </trkpt>
      <trkpt lat="44.61407" lon="3.90723">
        <ele>1014.7</ele>
        <time>2013-05-09T12:08:50Z</time>
      </trkpt>
      <trkpt lat="44.61395" lon="3.90738">
        <ele>1015.4</ele>
        <time>2013-05-09T12:08:59Z</time>
      </trkpt>
      <trkpt lat="44.61389" lon="3.90746">
        <ele>1015.7</ele>
        <time>2013-05-09T12:09:04Z</time>
      </trkpt>
      <trkpt lat="44.61381" lon="3.90751">
        <ele>1016.6</ele>
        <time>2013-05-09T12:09:10Z</time>
      </trkpt>
      <trkpt lat="44.61373" lon="3.90754">
        <ele>1017.7</ele>
        <time>2013-05-09T12:09:16Z</time>
      </trkpt>
      <trkpt lat="44.61364" lon="3.90756">
        <ele>1019.7</ele>
        <time>2013-05-09T12:09:27Z</time>
      </trkpt>
      <trkpt lat="44.61356" lon="3.90757">
        <ele>1021</ele>
        <time>2013-05-09T12:09:36Z</time>
      </trkpt>
      <trkpt lat="44.61348" lon="3.90761">
        <ele>1022.2</ele>
        <time>2013-05-09T12:09:44Z</time>
      </trkpt>
      <trkpt lat="44.61343" lon="3.90771">
        <ele>1023.5</ele>
        <time>2013-05-09T12:09:51Z</time>
      </trkpt>
      <trkpt lat="44.61343" lon="3.90774">
        <ele>1023.7</ele>
        <time>2013-05-09T12:09:52Z</time>
      </trkpt>
      <trkpt lat="44.61335" lon="3.9079">
        <ele>1025.5</ele>
        <time>2013-05-09T12:10:01Z</time>
      </trkpt>
      <trkpt lat="44.61329" lon="3.90798">
        <ele>1026.6</ele>
        <time>2013-05-09T12:10:10Z</time>
      </trkpt>
      <trkpt lat="44.61323" lon="3.90808">
        <ele>1027.5</ele>
        <time>2013-05-09T12:10:17Z</time>
      </trkpt>
      <trkpt lat="44.61317" lon="3.90816">
        <ele>1028.8</ele>
        <time>2013-05-09T12:10:28Z</time>
      </trkpt>
      <trkpt lat="44.61313" lon="3.90825">
        <ele>1029.6</ele>
        <time>2013-05-09T12:10:34Z</time>
      </trkpt>
      <trkpt lat="44.61312" lon="3.90838">
        <ele>1029.9</ele>
        <time>2013-05-09T12:10:42Z</time>
      </trkpt>
      <trkpt lat="44.6131" lon="3.90848">
        <ele>1030.5</ele>
        <time>2013-05-09T12:10:52Z</time>
      </trkpt>
      <trkpt lat="44.61309" lon="3.90849">
        <ele>1030.7</ele>
        <time>2013-05-09T12:10:53Z</time>
      </trkpt>
      <trkpt lat="44.61307" lon="3.9087">
        <ele>1032</ele>
        <time>2013-05-09T12:11:06Z</time>
      </trkpt>
      <trkpt lat="44.61313" lon="3.9088">
        <ele>1032.6</ele>
        <time>2013-05-09T12:11:15Z</time>
      </trkpt>
      <trkpt lat="44.61315" lon="3.9089">
        <ele>1033.5</ele>
        <time>2013-05-09T12:11:25Z</time>
      </trkpt>
      <trkpt lat="44.61313" lon="3.909">
        <ele>1033.9</ele>
        <time>2013-05-09T12:11:33Z</time>
      </trkpt>
      <trkpt lat="44.61309" lon="3.90909">
        <ele>1034.3</ele>
        <time>2013-05-09T12:11:40Z</time>
      </trkpt>
      <trkpt lat="44.61313" lon="3.9092">
        <ele>1034.4</ele>
        <time>2013-05-09T12:11:48Z</time>
      </trkpt>
      <trkpt lat="44.61314" lon="3.90928">
        <ele>1035.1</ele>
        <time>2013-05-09T12:11:59Z</time>
      </trkpt>
      <trkpt lat="44.61314" lon="3.90933">
        <ele>1035.1</ele>
        <time>2013-05-09T12:12:00Z</time>
      </trkpt>
      <trkpt lat="44.61312" lon="3.90952">
        <ele>1035.8</ele>
        <time>2013-05-09T12:12:16Z</time>
      </trkpt>
      <trkpt lat="44.61311" lon="3.90963">
        <ele>1036.3</ele>
        <time>2013-05-09T12:12:26Z</time>
      </trkpt>
      <trkpt lat="44.6131" lon="3.90976">
        <ele>1036.3</ele>
        <time>2013-05-09T12:12:32Z</time>
      </trkpt>
      <trkpt lat="44.61308" lon="3.90988">
        <ele>1036.8</ele>
        <time>2013-05-09T12:12:41Z</time>
      </trkpt>
      <trkpt lat="44.61303" lon="3.90998">
        <ele>1038.1</ele>
        <time>2013-05-09T12:12:58Z</time>
      </trkpt>
      <trkpt lat="44.61299" lon="3.91009">
        <ele>1038.6</ele>
        <time>2013-05-09T12:13:05Z</time>
      </trkpt>
      <trkpt lat="44.61298" lon="3.91009">
        <ele>1038.7</ele>
        <time>2013-05-09T12:13:06Z</time>
      </trkpt>
      <trkpt lat="44.61289" lon="3.91026">
        <ele>1039.5</ele>
        <time>2013-05-09T12:13:23Z</time>
      </trkpt>
      <trkpt lat="44.6128" lon="3.91029">
        <ele>1040</ele>
        <time>2013-05-09T12:13:28Z</time>
      </trkpt>
      <trkpt lat="44.61272" lon="3.91035">
        <ele>1040.7</ele>
        <time>2013-05-09T12:13:38Z</time>
      </trkpt>
      <trkpt lat="44.61266" lon="3.91043">
        <ele>1041.1</ele>
        <time>2013-05-09T12:13:46Z</time>
      </trkpt>
      <trkpt lat="44.61263" lon="3.91055">
        <ele>1041.6</ele>
        <time>2013-05-09T12:13:56Z</time>
      </trkpt>
      <trkpt lat="44.61262" lon="3.91066">
        <ele>1043.4</ele>
        <time>2013-05-09T12:14:07Z</time>
      </trkpt>
      <trkpt lat="44.61262" lon="3.91067">
        <ele>1043.5</ele>
        <time>2013-05-09T12:14:08Z</time>
      </trkpt>
      <trkpt lat="44.61246" lon="3.91074">
        <ele>1044.3</ele>
        <time>2013-05-09T12:14:24Z</time>
      </trkpt>
      <trkpt lat="44.61243" lon="3.91085">
        <ele>1045.2</ele>
        <time>2013-05-09T12:14:34Z</time>
      </trkpt>
      <trkpt lat="44.61236" lon="3.91091">
        <ele>1045.8</ele>
        <time>2013-05-09T12:14:44Z</time>
      </trkpt>
      <trkpt lat="44.61231" lon="3.91099">
        <ele>1047.2</ele>
        <time>2013-05-09T12:14:50Z</time>
      </trkpt>
      <trkpt lat="44.61226" lon="3.91109">
        <ele>1047.7</ele>
        <time>2013-05-09T12:14:56Z</time>
      </trkpt>
      <trkpt lat="44.61224" lon="3.91119">
        <ele>1049.3</ele>
        <time>2013-05-09T12:15:11Z</time>
      </trkpt>
      <trkpt lat="44.61221" lon="3.91125">
        <ele>1049.6</ele>
        <time>2013-05-09T12:15:12Z</time>
      </trkpt>
      <trkpt lat="44.61212" lon="3.91136">
        <ele>1050.9</ele>
        <time>2013-05-09T12:15:36Z</time>
      </trkpt>
      <trkpt lat="44.61208" lon="3.91147">
        <ele>1051.7</ele>
        <time>2013-05-09T12:15:44Z</time>
      </trkpt>
      <trkpt lat="44.61201" lon="3.91154">
        <ele>1052.7</ele>
        <time>2013-05-09T12:15:53Z</time>
      </trkpt>
      <trkpt lat="44.61197" lon="3.91164">
        <ele>1053.3</ele>
        <time>2013-05-09T12:15:59Z</time>
      </trkpt>
      <trkpt lat="44.61193" lon="3.91175">
        <ele>1054.1</ele>
        <time>2013-05-09T12:16:06Z</time>
      </trkpt>
      <trkpt lat="44.61191" lon="3.91186">
        <ele>1055.2</ele>
        <time>2013-05-09T12:16:13Z</time>
      </trkpt>
      <trkpt lat="44.61191" lon="3.91188">
        <ele>1055.3</ele>
        <time>2013-05-09T12:16:14Z</time>
      </trkpt>
      <trkpt lat="44.61187" lon="3.91209">
        <ele>1057.4</ele>
        <time>2013-05-09T12:16:29Z</time>
      </trkpt>
      <trkpt lat="44.61184" lon="3.9122">
        <ele>1058.6</ele>
        <time>2013-05-09T12:16:37Z</time>
      </trkpt>
      <trkpt lat="44.61179" lon="3.91229">
        <ele>1059.5</ele>
        <time>2013-05-09T12:16:45Z</time>
      </trkpt>
      <trkpt lat="44.61176" lon="3.9124">
        <ele>1060.6</ele>
        <time>2013-05-09T12:16:51Z</time>
      </trkpt>
      <trkpt lat="44.61175" lon="3.91252">
        <ele>1061.3</ele>
        <time>2013-05-09T12:16:59Z</time>
      </trkpt>
      <trkpt lat="44.61174" lon="3.91264">
        <ele>1062</ele>
        <time>2013-05-09T12:17:06Z</time>
      </trkpt>
      <trkpt lat="44.61174" lon="3.91277">
        <ele>1062.9</ele>
        <time>2013-05-09T12:17:12Z</time>
      </trkpt>
      <trkpt lat="44.61169" lon="3.91286">
        <ele>1063.9</ele>
        <time>2013-05-09T12:17:23Z</time>
      </trkpt>
      <trkpt lat="44.61169" lon="3.91287">
        <ele>1063.9</ele>
        <time>2013-05-09T12:17:24Z</time>
      </trkpt>
      <trkpt lat="44.61169" lon="3.9131">
        <ele>1065.7</ele>
        <time>2013-05-09T12:17:43Z</time>
      </trkpt>
      <trkpt lat="44.61166" lon="3.91319">
        <ele>1066.3</ele>
        <time>2013-05-09T12:17:47Z</time>
      </trkpt>
      <trkpt lat="44.61167" lon="3.9133">
        <ele>1068.5</ele>
        <time>2013-05-09T12:17:56Z</time>
      </trkpt>
      <trkpt lat="44.61165" lon="3.91343">
        <ele>1070.9</ele>
        <time>2013-05-09T12:18:05Z</time>
      </trkpt>
      <trkpt lat="44.61161" lon="3.91353">
        <ele>1072.1</ele>
        <time>2013-05-09T12:18:13Z</time>
      </trkpt>
      <trkpt lat="44.61162" lon="3.91365">
        <ele>1072.6</ele>
        <time>2013-05-09T12:18:19Z</time>
      </trkpt>
      <trkpt lat="44.61164" lon="3.91377">
        <ele>1073</ele>
        <time>2013-05-09T12:18:30Z</time>
      </trkpt>
      <trkpt lat="44.61164" lon="3.91378">
        <ele>1073.1</ele>
        <time>2013-05-09T12:18:31Z</time>
      </trkpt>
      <trkpt lat="44.61168" lon="3.91395">
        <ele>1074.7</ele>
        <time>2013-05-09T12:18:41Z</time>
      </trkpt>
      <trkpt lat="44.61165" lon="3.91407">
        <ele>1075.6</ele>
        <time>2013-05-09T12:18:48Z</time>
      </trkpt>
      <trkpt lat="44.61162" lon="3.91418">
        <ele>1077.2</ele>
        <time>2013-05-09T12:19:07Z</time>
      </trkpt>
      <trkpt lat="44.61156" lon="3.91426">
        <ele>1078.2</ele>
        <time>2013-05-09T12:19:14Z</time>
      </trkpt>
      <trkpt lat="44.6115" lon="3.91433">
        <ele>1079.2</ele>
        <time>2013-05-09T12:19:20Z</time>
      </trkpt>
      <trkpt lat="44.61145" lon="3.91443">
        <ele>1081</ele>
        <time>2013-05-09T12:19:33Z</time>
      </trkpt>
      <trkpt lat="44.61143" lon="3.91445">
        <ele>1081.3</ele>
        <time>2013-05-09T12:19:34Z</time>
      </trkpt>
      <trkpt lat="44.61132" lon="3.91457">
        <ele>1082</ele>
        <time>2013-05-09T12:19:43Z</time>
      </trkpt>
      <trkpt lat="44.61125" lon="3.91462">
        <ele>1082</ele>
        <time>2013-05-09T12:19:46Z</time>
      </trkpt>
      <trkpt lat="44.61118" lon="3.91468">
        <ele>1082.7</ele>
        <time>2013-05-09T12:19:57Z</time>
      </trkpt>
      <trkpt lat="44.6111" lon="3.91472">
        <ele>1084.3</ele>
        <time>2013-05-09T12:20:11Z</time>
      </trkpt>
      <trkpt lat="44.61104" lon="3.91482">
        <ele>1085.3</ele>
        <time>2013-05-09T12:20:21Z</time>
      </trkpt>
      <trkpt lat="44.61097" lon="3.91487">
        <ele>1086.2</ele>
        <time>2013-05-09T12:20:25Z</time>
      </trkpt>
      <trkpt lat="44.61089" lon="3.91491">
        <ele>1087.2</ele>
        <time>2013-05-09T12:20:34Z</time>
      </trkpt>
      <trkpt lat="44.61088" lon="3.91491">
        <ele>1087.3</ele>
        <time>2013-05-09T12:20:35Z</time>
      </trkpt>
      <trkpt lat="44.61078" lon="3.91503">
        <ele>1089.6</ele>
        <time>2013-05-09T12:20:49Z</time>
      </trkpt>
      <trkpt lat="44.61073" lon="3.91513">
        <ele>1089.5</ele>
        <time>2013-05-09T12:20:52Z</time>
      </trkpt>
      <trkpt lat="44.61068" lon="3.91523">
        <ele>1089.9</ele>
        <time>2013-05-09T12:21:00Z</time>
      </trkpt>
      <trkpt lat="44.61062" lon="3.91532">
        <ele>1091.6</ele>
        <time>2013-05-09T12:21:13Z</time>
      </trkpt>
      <trkpt lat="44.61059" lon="3.91542">
        <ele>1092.3</ele>
        <time>2013-05-09T12:21:19Z</time>
      </trkpt>
      <trkpt lat="44.61054" lon="3.91552">
        <ele>1093.5</ele>
        <time>2013-05-09T12:21:26Z</time>
      </trkpt>
      <trkpt lat="44.61048" lon="3.91559">
        <ele>1095.1</ele>
        <time>2013-05-09T12:21:37Z</time>
      </trkpt>
      <trkpt lat="44.61047" lon="3.91559">
        <ele>1095.3</ele>
        <time>2013-05-09T12:21:38Z</time>
      </trkpt>
      <trkpt lat="44.61037" lon="3.91574">
        <ele>1097.3</ele>
        <time>2013-05-09T12:21:50Z</time>
      </trkpt>
      <trkpt lat="44.61033" lon="3.91583">
        <ele>1098.5</ele>
        <time>2013-05-09T12:22:02Z</time>
      </trkpt>
      <trkpt lat="44.61026" lon="3.91591">
        <ele>1100</ele>
        <time>2013-05-09T12:22:09Z</time>
      </trkpt>
      <trkpt lat="44.61018" lon="3.91585">
        <ele>1102</ele>
        <time>2013-05-09T12:22:26Z</time>
      </trkpt>
      <trkpt lat="44.61015" lon="3.91575">
        <ele>1103.5</ele>
        <time>2013-05-09T12:22:44Z</time>
      </trkpt>
      <trkpt lat="44.61016" lon="3.91573">
        <ele>1103.6</ele>
        <time>2013-05-09T12:22:45Z</time>
      </trkpt>
      <trkpt lat="44.61016" lon="3.91594">
        <ele>1107.3</ele>
        <time>2013-05-09T12:24:58Z</time>
      </trkpt>
      <trkpt lat="44.61016" lon="3.91595">
        <ele>1107.1</ele>
        <time>2013-05-09T12:24:59Z</time>
      </trkpt>
      <trkpt lat="44.61012" lon="3.91616">
        <ele>1107.7</ele>
        <time>2013-05-09T12:25:16Z</time>
      </trkpt>
      <trkpt lat="44.61012" lon="3.91627">
        <ele>1108.5</ele>
        <time>2013-05-09T12:25:23Z</time>
      </trkpt>
      <trkpt lat="44.61004" lon="3.91633">
        <ele>1109.5</ele>
        <time>2013-05-09T12:25:35Z</time>
      </trkpt>
      <trkpt lat="44.61001" lon="3.91643">
        <ele>1109.6</ele>
        <time>2013-05-09T12:25:41Z</time>
      </trkpt>
      <trkpt lat="44.60998" lon="3.91653">
        <ele>1109.8</ele>
        <time>2013-05-09T12:25:48Z</time>
      </trkpt>
      <trkpt lat="44.60997" lon="3.91666">
        <ele>1110.9</ele>
        <time>2013-05-09T12:25:55Z</time>
      </trkpt>
      <trkpt lat="44.60994" lon="3.91677">
        <ele>1111.4</ele>
        <time>2013-05-09T12:26:03Z</time>
      </trkpt>
      <trkpt lat="44.60993" lon="3.91679">
        <ele>1111.5</ele>
        <time>2013-05-09T12:26:04Z</time>
      </trkpt>
      <trkpt lat="44.60981" lon="3.91691">
        <ele>1113.9</ele>
        <time>2013-05-09T12:26:28Z</time>
      </trkpt>
      <trkpt lat="44.60976" lon="3.91702">
        <ele>1114.6</ele>
        <time>2013-05-09T12:26:35Z</time>
      </trkpt>
      <trkpt lat="44.60976" lon="3.91713">
        <ele>1115.8</ele>
        <time>2013-05-09T12:26:42Z</time>
      </trkpt>
      <trkpt lat="44.60974" lon="3.91723">
        <ele>1117.2</ele>
        <time>2013-05-09T12:26:49Z</time>
      </trkpt>
      <trkpt lat="44.6097" lon="3.91734">
        <ele>1117.3</ele>
        <time>2013-05-09T12:26:57Z</time>
      </trkpt>
      <trkpt lat="44.60967" lon="3.91746">
        <ele>1117.6</ele>
        <time>2013-05-09T12:27:04Z</time>
      </trkpt>
      <trkpt lat="44.60966" lon="3.91747">
        <ele>1117.6</ele>
        <time>2013-05-09T12:27:05Z</time>
      </trkpt>
      <trkpt lat="44.60959" lon="3.91767">
        <ele>1118.9</ele>
        <time>2013-05-09T12:27:27Z</time>
      </trkpt>
      <trkpt lat="44.60957" lon="3.91778">
        <ele>1120</ele>
        <time>2013-05-09T12:27:41Z</time>
      </trkpt>
      <trkpt lat="44.60954" lon="3.9179">
        <ele>1121.8</ele>
        <time>2013-05-09T12:27:55Z</time>
      </trkpt>
      <trkpt lat="44.60953" lon="3.91802">
        <ele>1122.6</ele>
        <time>2013-05-09T12:28:02Z</time>
      </trkpt>
      <trkpt lat="44.60953" lon="3.91814">
        <ele>1123.6</ele>
        <time>2013-05-09T12:28:08Z</time>
      </trkpt>
      <trkpt lat="44.60952" lon="3.91816">
        <ele>1123.8</ele>
        <time>2013-05-09T12:28:09Z</time>
      </trkpt>
      <trkpt lat="44.60946" lon="3.91837">
        <ele>1126.2</ele>
        <time>2013-05-09T12:28:22Z</time>
      </trkpt>
      <trkpt lat="44.60947" lon="3.91849">
        <ele>1127.7</ele>
        <time>2013-05-09T12:28:32Z</time>
      </trkpt>
      <trkpt lat="44.60943" lon="3.9186">
        <ele>1129.5</ele>
        <time>2013-05-09T12:28:45Z</time>
      </trkpt>
      <trkpt lat="44.60941" lon="3.91872">
        <ele>1130.1</ele>
        <time>2013-05-09T12:28:56Z</time>
      </trkpt>
      <trkpt lat="44.60939" lon="3.91881">
        <ele>1130.9</ele>
        <time>2013-05-09T12:29:03Z</time>
      </trkpt>
      <trkpt lat="44.60938" lon="3.91892">
        <ele>1131.9</ele>
        <time>2013-05-09T12:29:09Z</time>
      </trkpt>
      <trkpt lat="44.60938" lon="3.91894">
        <ele>1132</ele>
        <time>2013-05-09T12:29:10Z</time>
      </trkpt>
      <trkpt lat="44.60934" lon="3.91916">
        <ele>1135.6</ele>
        <time>2013-05-09T12:29:38Z</time>
      </trkpt>
      <trkpt lat="44.60934" lon="3.91928">
        <ele>1136.8</ele>
        <time>2013-05-09T12:29:46Z</time>
      </trkpt>
      <trkpt lat="44.60933" lon="3.9194">
        <ele>1138.1</ele>
        <time>2013-05-09T12:29:55Z</time>
      </trkpt>
      <trkpt lat="44.60928" lon="3.91949">
        <ele>1140.1</ele>
        <time>2013-05-09T12:30:06Z</time>
      </trkpt>
      <trkpt lat="44.60924" lon="3.91958">
        <ele>1141.1</ele>
        <time>2013-05-09T12:30:12Z</time>
      </trkpt>
      <trkpt lat="44.60923" lon="3.91959">
        <ele>1141.2</ele>
        <time>2013-05-09T12:30:13Z</time>
      </trkpt>
      <trkpt lat="44.60919" lon="3.91978">
        <ele>1143.9</ele>
        <time>2013-05-09T12:30:31Z</time>
      </trkpt>
      <trkpt lat="44.60913" lon="3.91986">
        <ele>1147.5</ele>
        <time>2013-05-09T12:30:45Z</time>
      </trkpt>
      <trkpt lat="44.60908" lon="3.91995">
        <ele>1149.2</ele>
        <time>2013-05-09T12:30:54Z</time>
      </trkpt>
      <trkpt lat="44.60904" lon="3.92005">
        <ele>1151.6</ele>
        <time>2013-05-09T12:31:03Z</time>
      </trkpt>
      <trkpt lat="44.60899" lon="3.92014">
        <ele>1153.8</ele>
        <time>2013-05-09T12:31:12Z</time>
      </trkpt>
      <trkpt lat="44.60893" lon="3.92023">
        <ele>1156.2</ele>
        <time>2013-05-09T12:31:22Z</time>
      </trkpt>
      <trkpt lat="44.60892" lon="3.92024">
        <ele>1156.6</ele>
        <time>2013-05-09T12:31:23Z</time>
      </trkpt>
      <trkpt lat="44.60881" lon="3.92039">
        <ele>1161.4</ele>
        <time>2013-05-09T12:31:44Z</time>
      </trkpt>
      <trkpt lat="44.60876" lon="3.92048">
        <ele>1162.5</ele>
        <time>2013-05-09T12:31:50Z</time>
      </trkpt>
      <trkpt lat="44.60871" lon="3.92057">
        <ele>1163.4</ele>
        <time>2013-05-09T12:31:56Z</time>
      </trkpt>
      <trkpt lat="44.60868" lon="3.92067">
        <ele>1164.9</ele>
        <time>2013-05-09T12:32:03Z</time>
      </trkpt>
      <trkpt lat="44.60865" lon="3.92079">
        <ele>1166.9</ele>
        <time>2013-05-09T12:32:12Z</time>
      </trkpt>
      <trkpt lat="44.60861" lon="3.9209">
        <ele>1169.3</ele>
        <time>2013-05-09T12:32:21Z</time>
      </trkpt>
      <trkpt lat="44.60854" lon="3.92097">
        <ele>1173.8</ele>
        <time>2013-05-09T12:33:10Z</time>
      </trkpt>
      <trkpt lat="44.60854" lon="3.92098">
        <ele>1173.8</ele>
        <time>2013-05-09T12:33:11Z</time>
      </trkpt>
      <trkpt lat="44.60859" lon="3.92108">
        <ele>1178.5</ele>
        <time>2013-05-09T12:35:16Z</time>
      </trkpt>
      <trkpt lat="44.60854" lon="3.92097">
        <ele>1178.9</ele>
        <time>2013-05-09T12:37:50Z</time>
      </trkpt>
      <trkpt lat="44.60852" lon="3.92098">
        <ele>1178.8</ele>
        <time>2013-05-09T12:39:01Z</time>
      </trkpt>
      <trkpt lat="44.60853" lon="3.92098">
        <ele>1178.8</ele>
        <time>2013-05-09T12:39:02Z</time>
      </trkpt>
      <trkpt lat="44.60859" lon="3.9212">
        <ele>1178.3</ele>
        <time>2013-05-09T12:39:33Z</time>
      </trkpt>
      <trkpt lat="44.60857" lon="3.92132">
        <ele>1178.1</ele>
        <time>2013-05-09T12:39:40Z</time>
      </trkpt>
      <trkpt lat="44.60857" lon="3.92144">
        <ele>1178</ele>
        <time>2013-05-09T12:39:50Z</time>
      </trkpt>
      <trkpt lat="44.60857" lon="3.92157">
        <ele>1178</ele>
        <time>2013-05-09T12:39:58Z</time>
      </trkpt>
      <trkpt lat="44.60859" lon="3.92169">
        <ele>1178.1</ele>
        <time>2013-05-09T12:40:04Z</time>
      </trkpt>
      <trkpt lat="44.6086" lon="3.9217">
        <ele>1178.1</ele>
        <time>2013-05-09T12:40:05Z</time>
      </trkpt>
      <trkpt lat="44.60866" lon="3.9219">
        <ele>1177.6</ele>
        <time>2013-05-09T12:40:17Z</time>
      </trkpt>
      <trkpt lat="44.60869" lon="3.92201">
        <ele>1177.2</ele>
        <time>2013-05-09T12:40:26Z</time>
      </trkpt>
      <trkpt lat="44.60868" lon="3.92212">
        <ele>1177.2</ele>
        <time>2013-05-09T12:40:33Z</time>
      </trkpt>
      <trkpt lat="44.60868" lon="3.92224">
        <ele>1177.2</ele>
        <time>2013-05-09T12:40:42Z</time>
      </trkpt>
      <trkpt lat="44.60867" lon="3.92235">
        <ele>1176.9</ele>
        <time>2013-05-09T12:40:52Z</time>
      </trkpt>
      <trkpt lat="44.60867" lon="3.92246">
        <ele>1177</ele>
        <time>2013-05-09T12:40:59Z</time>
      </trkpt>
      <trkpt lat="44.60872" lon="3.92254">
        <ele>1176.7</ele>
        <time>2013-05-09T12:41:04Z</time>
      </trkpt>
      <trkpt lat="44.60875" lon="3.92265">
        <ele>1176.1</ele>
        <time>2013-05-09T12:41:09Z</time>
      </trkpt>
      <trkpt lat="44.60875" lon="3.92267">
        <ele>1175.9</ele>
        <time>2013-05-09T12:41:10Z</time>
      </trkpt>
      <trkpt lat="44.60877" lon="3.92288">
        <ele>1175</ele>
        <time>2013-05-09T12:41:24Z</time>
      </trkpt>
      <trkpt lat="44.60876" lon="3.923">
        <ele>1174.7</ele>
        <time>2013-05-09T12:41:30Z</time>
      </trkpt>
      <trkpt lat="44.60874" lon="3.92311">
        <ele>1174.2</ele>
        <time>2013-05-09T12:41:36Z</time>
      </trkpt>
      <trkpt lat="44.60871" lon="3.9232">
        <ele>1173.7</ele>
        <time>2013-05-09T12:41:40Z</time>
      </trkpt>
      <trkpt lat="44.6087" lon="3.92331">
        <ele>1173.1</ele>
        <time>2013-05-09T12:41:45Z</time>
      </trkpt>
      <trkpt lat="44.60869" lon="3.92343">
        <ele>1172.6</ele>
        <time>2013-05-09T12:41:51Z</time>
      </trkpt>
      <trkpt lat="44.60867" lon="3.92355">
        <ele>1172.1</ele>
        <time>2013-05-09T12:41:58Z</time>
      </trkpt>
      <trkpt lat="44.60865" lon="3.92367">
        <ele>1171.5</ele>
        <time>2013-05-09T12:42:07Z</time>
      </trkpt>
      <trkpt lat="44.60864" lon="3.92379">
        <ele>1170.9</ele>
        <time>2013-05-09T12:42:16Z</time>
      </trkpt>
      <trkpt lat="44.60865" lon="3.92381">
        <ele>1170.8</ele>
        <time>2013-05-09T12:42:17Z</time>
      </trkpt>
      <trkpt lat="44.60865" lon="3.92402">
        <ele>1170</ele>
        <time>2013-05-09T12:42:29Z</time>
      </trkpt>
      <trkpt lat="44.60863" lon="3.92414">
        <ele>1169.1</ele>
        <time>2013-05-09T12:42:37Z</time>
      </trkpt>
      <trkpt lat="44.60858" lon="3.92423">
        <ele>1168.7</ele>
        <time>2013-05-09T12:42:43Z</time>
      </trkpt>
      <trkpt lat="44.60852" lon="3.92432">
        <ele>1167.7</ele>
        <time>2013-05-09T12:42:49Z</time>
      </trkpt>
      <trkpt lat="44.60852" lon="3.92443">
        <ele>1167.2</ele>
        <time>2013-05-09T12:42:54Z</time>
      </trkpt>
      <trkpt lat="44.60846" lon="3.9245">
        <ele>1166.9</ele>
        <time>2013-05-09T12:42:59Z</time>
      </trkpt>
      <trkpt lat="44.60843" lon="3.9246">
        <ele>1166.6</ele>
        <time>2013-05-09T12:43:06Z</time>
      </trkpt>
      <trkpt lat="44.60837" lon="3.92468">
        <ele>1166.1</ele>
        <time>2013-05-09T12:43:15Z</time>
      </trkpt>
      <trkpt lat="44.60835" lon="3.92479">
        <ele>1165.2</ele>
        <time>2013-05-09T12:43:23Z</time>
      </trkpt>
      <trkpt lat="44.60834" lon="3.92483">
        <ele>1164.9</ele>
        <time>2013-05-09T12:43:24Z</time>
      </trkpt>
      <trkpt lat="44.60824" lon="3.92497">
        <ele>1162.7</ele>
        <time>2013-05-09T12:43:34Z</time>
      </trkpt>
      <trkpt lat="44.60821" lon="3.92507">
        <ele>1161.5</ele>
        <time>2013-05-09T12:43:43Z</time>
      </trkpt>
      <trkpt lat="44.60817" lon="3.92518">
        <ele>1161</ele>
        <time>2013-05-09T12:43:49Z</time>
      </trkpt>
      <trkpt lat="44.60815" lon="3.92529">
        <ele>1160.5</ele>
        <time>2013-05-09T12:43:56Z</time>
      </trkpt>
      <trkpt lat="44.60812" lon="3.92541">
        <ele>1159.6</ele>
        <time>2013-05-09T12:44:04Z</time>
      </trkpt>
      <trkpt lat="44.60809" lon="3.92552">
        <ele>1158</ele>
        <time>2013-05-09T12:44:11Z</time>
      </trkpt>
      <trkpt lat="44.6081" lon="3.92564">
        <ele>1156.8</ele>
        <time>2013-05-09T12:44:16Z</time>
      </trkpt>
      <trkpt lat="44.60811" lon="3.92576">
        <ele>1156</ele>
        <time>2013-05-09T12:44:24Z</time>
      </trkpt>
      <trkpt lat="44.60813" lon="3.92578">
        <ele>1155.9</ele>
        <time>2013-05-09T12:44:25Z</time>
      </trkpt>
      <trkpt lat="44.60815" lon="3.92599">
        <ele>1154.6</ele>
        <time>2013-05-09T12:44:36Z</time>
      </trkpt>
      <trkpt lat="44.60813" lon="3.92608">
        <ele>1153.8</ele>
        <time>2013-05-09T12:44:49Z</time>
      </trkpt>
      <trkpt lat="44.60811" lon="3.92618">
        <ele>1153.9</ele>
        <time>2013-05-09T12:44:51Z</time>
      </trkpt>
      <trkpt lat="44.60806" lon="3.92628">
        <ele>1153.9</ele>
        <time>2013-05-09T12:44:57Z</time>
      </trkpt>
      <trkpt lat="44.60805" lon="3.9264">
        <ele>1153.4</ele>
        <time>2013-05-09T12:45:07Z</time>
      </trkpt>
      <trkpt lat="44.60801" lon="3.9265">
        <ele>1153.2</ele>
        <time>2013-05-09T12:45:10Z</time>
      </trkpt>
      <trkpt lat="44.60795" lon="3.92659">
        <ele>1152.9</ele>
        <time>2013-05-09T12:45:15Z</time>
      </trkpt>
      <trkpt lat="44.60789" lon="3.92667">
        <ele>1152.6</ele>
        <time>2013-05-09T12:45:23Z</time>
      </trkpt>
      <trkpt lat="44.60787" lon="3.92679">
        <ele>1152.4</ele>
        <time>2013-05-09T12:45:29Z</time>
      </trkpt>
      <trkpt lat="44.60787" lon="3.9268">
        <ele>1152.4</ele>
        <time>2013-05-09T12:45:30Z</time>
      </trkpt>
      <trkpt lat="44.60782" lon="3.92702">
        <ele>1151.2</ele>
        <time>2013-05-09T12:45:44Z</time>
      </trkpt>
      <trkpt lat="44.60777" lon="3.92712">
        <ele>1150.5</ele>
        <time>2013-05-09T12:45:52Z</time>
      </trkpt>
      <trkpt lat="44.60772" lon="3.92721">
        <ele>1150.1</ele>
        <time>2013-05-09T12:45:59Z</time>
      </trkpt>
      <trkpt lat="44.60773" lon="3.92734">
        <ele>1149.7</ele>
        <time>2013-05-09T12:46:06Z</time>
      </trkpt>
      <trkpt lat="44.60773" lon="3.92746">
        <ele>1149.4</ele>
        <time>2013-05-09T12:46:12Z</time>
      </trkpt>
      <trkpt lat="44.6077" lon="3.92756">
        <ele>1149.3</ele>
        <time>2013-05-09T12:46:14Z</time>
      </trkpt>
      <trkpt lat="44.6077" lon="3.92768">
        <ele>1149</ele>
        <time>2013-05-09T12:46:20Z</time>
      </trkpt>
      <trkpt lat="44.60764" lon="3.92776">
        <ele>1148.5</ele>
        <time>2013-05-09T12:46:33Z</time>
      </trkpt>
      <trkpt lat="44.60765" lon="3.92779">
        <ele>1148.4</ele>
        <time>2013-05-09T12:46:34Z</time>
      </trkpt>
      <trkpt lat="44.60759" lon="3.92797">
        <ele>1148</ele>
        <time>2013-05-09T12:46:45Z</time>
      </trkpt>
      <trkpt lat="44.60766" lon="3.92804">
        <ele>1147.6</ele>
        <time>2013-05-09T12:46:52Z</time>
      </trkpt>
      <trkpt lat="44.60766" lon="3.92815">
        <ele>1147.5</ele>
        <time>2013-05-09T12:46:55Z</time>
      </trkpt>
      <trkpt lat="44.60768" lon="3.92825">
        <ele>1147.5</ele>
        <time>2013-05-09T12:46:58Z</time>
      </trkpt>
      <trkpt lat="44.60768" lon="3.92836">
        <ele>1147.6</ele>
        <time>2013-05-09T12:47:01Z</time>
      </trkpt>
      <trkpt lat="44.60767" lon="3.92846">
        <ele>1147.6</ele>
        <time>2013-05-09T12:47:07Z</time>
      </trkpt>
      <trkpt lat="44.60766" lon="3.92857">
        <ele>1147.5</ele>
        <time>2013-05-09T12:47:11Z</time>
      </trkpt>
      <trkpt lat="44.60768" lon="3.92868">
        <ele>1147.2</ele>
        <time>2013-05-09T12:47:25Z</time>
      </trkpt>
      <trkpt lat="44.60768" lon="3.92878">
        <ele>1147.3</ele>
        <time>2013-05-09T12:47:26Z</time>
      </trkpt>
      <trkpt lat="44.60768" lon="3.9289">
        <ele>1147</ele>
        <time>2013-05-09T12:47:36Z</time>
      </trkpt>
      <trkpt lat="44.6077" lon="3.92893">
        <ele>1146.9</ele>
        <time>2013-05-09T12:47:37Z</time>
      </trkpt>
      <trkpt lat="44.60764" lon="3.92911">
        <ele>1146.6</ele>
        <time>2013-05-09T12:47:47Z</time>
      </trkpt>
      <trkpt lat="44.60764" lon="3.92923">
        <ele>1146.6</ele>
        <time>2013-05-09T12:47:53Z</time>
      </trkpt>
      <trkpt lat="44.60764" lon="3.92935">
        <ele>1146.7</ele>
        <time>2013-05-09T12:48:02Z</time>
      </trkpt>
      <trkpt lat="44.60769" lon="3.92945">
        <ele>1147.1</ele>
        <time>2013-05-09T12:48:12Z</time>
      </trkpt>
      <trkpt lat="44.60773" lon="3.92956">
        <ele>1146.9</ele>
        <time>2013-05-09T12:48:24Z</time>
      </trkpt>
      <trkpt lat="44.60773" lon="3.92964">
        <ele>1146.9</ele>
        <time>2013-05-09T12:48:27Z</time>
      </trkpt>
      <trkpt lat="44.60777" lon="3.92975">
        <ele>1146.9</ele>
        <time>2013-05-09T12:48:30Z</time>
      </trkpt>
      <trkpt lat="44.60777" lon="3.92987">
        <ele>1147</ele>
        <time>2013-05-09T12:48:33Z</time>
      </trkpt>
      <trkpt lat="44.60781" lon="3.92997">
        <ele>1147.3</ele>
        <time>2013-05-09T12:48:40Z</time>
      </trkpt>
      <trkpt lat="44.60782" lon="3.93">
        <ele>1147.3</ele>
        <time>2013-05-09T12:48:41Z</time>
      </trkpt>
      <trkpt lat="44.60786" lon="3.93017">
        <ele>1147.5</ele>
        <time>2013-05-09T12:48:56Z</time>
      </trkpt>
      <trkpt lat="44.60789" lon="3.93028">
        <ele>1147.8</ele>
        <time>2013-05-09T12:49:00Z</time>
      </trkpt>
      <trkpt lat="44.60792" lon="3.93039">
        <ele>1147.9</ele>
        <time>2013-05-09T12:49:05Z</time>
      </trkpt>
      <trkpt lat="44.60797" lon="3.93047">
        <ele>1147.9</ele>
        <time>2013-05-09T12:49:09Z</time>
      </trkpt>
      <trkpt lat="44.608" lon="3.93054">
        <ele>1147.9</ele>
        <time>2013-05-09T12:49:13Z</time>
      </trkpt>
      <trkpt lat="44.60803" lon="3.93064">
        <ele>1148.1</ele>
        <time>2013-05-09T12:49:20Z</time>
      </trkpt>
      <trkpt lat="44.60803" lon="3.93075">
        <ele>1148</ele>
        <time>2013-05-09T12:49:34Z</time>
      </trkpt>
      <trkpt lat="44.60805" lon="3.93087">
        <ele>1147.9</ele>
        <time>2013-05-09T12:49:38Z</time>
      </trkpt>
      <trkpt lat="44.60806" lon="3.93099">
        <ele>1148.1</ele>
        <time>2013-05-09T12:49:44Z</time>
      </trkpt>
      <trkpt lat="44.60806" lon="3.93101">
        <ele>1148.1</ele>
        <time>2013-05-09T12:49:45Z</time>
      </trkpt>
      <trkpt lat="44.60803" lon="3.93119">
        <ele>1148.1</ele>
        <time>2013-05-09T12:49:59Z</time>
      </trkpt>
      <trkpt lat="44.60797" lon="3.93126">
        <ele>1148.2</ele>
        <time>2013-05-09T12:50:04Z</time>
      </trkpt>
      <trkpt lat="44.60795" lon="3.93137">
        <ele>1148.4</ele>
        <time>2013-05-09T12:50:10Z</time>
      </trkpt>
      <trkpt lat="44.60789" lon="3.93136">
        <ele>1148.6</ele>
        <time>2013-05-09T12:50:11Z</time>
      </trkpt>
      <trkpt lat="44.60782" lon="3.93142">
        <ele>1148.9</ele>
        <time>2013-05-09T12:50:15Z</time>
      </trkpt>
      <trkpt lat="44.60774" lon="3.93144">
        <ele>1148.9</ele>
        <time>2013-05-09T12:50:18Z</time>
      </trkpt>
      <trkpt lat="44.60766" lon="3.93148">
        <ele>1149.3</ele>
        <time>2013-05-09T12:50:22Z</time>
      </trkpt>
      <trkpt lat="44.60761" lon="3.93157">
        <ele>1149.3</ele>
        <time>2013-05-09T12:50:29Z</time>
      </trkpt>
      <trkpt lat="44.60754" lon="3.93165">
        <ele>1149.6</ele>
        <time>2013-05-09T12:50:47Z</time>
      </trkpt>
      <trkpt lat="44.60753" lon="3.93166">
        <ele>1149.5</ele>
        <time>2013-05-09T12:50:48Z</time>
      </trkpt>
      <trkpt lat="44.60739" lon="3.9317">
        <ele>1150</ele>
        <time>2013-05-09T12:50:58Z</time>
      </trkpt>
      <trkpt lat="44.60732" lon="3.93176">
        <ele>1150.1</ele>
        <time>2013-05-09T12:51:04Z</time>
      </trkpt>
      <trkpt lat="44.60726" lon="3.93181">
        <ele>1150</ele>
        <time>2013-05-09T12:51:13Z</time>
      </trkpt>
      <trkpt lat="44.60717" lon="3.93182">
        <ele>1150.2</ele>
        <time>2013-05-09T12:51:19Z</time>
      </trkpt>
      <trkpt lat="44.60708" lon="3.93181">
        <ele>1150.4</ele>
        <time>2013-05-09T12:51:27Z</time>
      </trkpt>
      <trkpt lat="44.60701" lon="3.93184">
        <ele>1150.4</ele>
        <time>2013-05-09T12:51:34Z</time>
      </trkpt>
      <trkpt lat="44.60693" lon="3.93183">
        <ele>1150.3</ele>
        <time>2013-05-09T12:51:38Z</time>
      </trkpt>
      <trkpt lat="44.60687" lon="3.93189">
        <ele>1150.2</ele>
        <time>2013-05-09T12:51:43Z</time>
      </trkpt>
      <trkpt lat="44.6068" lon="3.93192">
        <ele>1150.1</ele>
        <time>2013-05-09T12:51:49Z</time>
      </trkpt>
      <trkpt lat="44.60677" lon="3.93193">
        <ele>1150.1</ele>
        <time>2013-05-09T12:51:50Z</time>
      </trkpt>
      <trkpt lat="44.60665" lon="3.93198">
        <ele>1149.6</ele>
        <time>2013-05-09T12:52:01Z</time>
      </trkpt>
      <trkpt lat="44.60663" lon="3.9321">
        <ele>1149.4</ele>
        <time>2013-05-09T12:52:08Z</time>
      </trkpt>
      <trkpt lat="44.60655" lon="3.93216">
        <ele>1149.2</ele>
        <time>2013-05-09T12:52:14Z</time>
      </trkpt>
      <trkpt lat="44.60648" lon="3.9322">
        <ele>1149.1</ele>
        <time>2013-05-09T12:52:22Z</time>
      </trkpt>
      <trkpt lat="44.60641" lon="3.93226">
        <ele>1148.8</ele>
        <time>2013-05-09T12:52:27Z</time>
      </trkpt>
      <trkpt lat="44.60634" lon="3.93228">
        <ele>1148.7</ele>
        <time>2013-05-09T12:52:30Z</time>
      </trkpt>
      <trkpt lat="44.60626" lon="3.93231">
        <ele>1148.5</ele>
        <time>2013-05-09T12:52:37Z</time>
      </trkpt>
      <trkpt lat="44.60617" lon="3.93233">
        <ele>1148.3</ele>
        <time>2013-05-09T12:52:48Z</time>
      </trkpt>
      <trkpt lat="44.60611" lon="3.93239">
        <ele>1147.9</ele>
        <time>2013-05-09T12:52:57Z</time>
      </trkpt>
      <trkpt lat="44.60609" lon="3.9324">
        <ele>1147.8</ele>
        <time>2013-05-09T12:52:58Z</time>
      </trkpt>
      <trkpt lat="44.60596" lon="3.93245">
        <ele>1147.4</ele>
        <time>2013-05-09T12:53:09Z</time>
      </trkpt>
      <trkpt lat="44.60588" lon="3.93246">
        <ele>1147.2</ele>
        <time>2013-05-09T12:53:14Z</time>
      </trkpt>
      <trkpt lat="44.6058" lon="3.93246">
        <ele>1147.3</ele>
        <time>2013-05-09T12:53:18Z</time>
      </trkpt>
      <trkpt lat="44.60572" lon="3.93243">
        <ele>1147.1</ele>
        <time>2013-05-09T12:53:23Z</time>
      </trkpt>
      <trkpt lat="44.60564" lon="3.93242">
        <ele>1146.6</ele>
        <time>2013-05-09T12:53:32Z</time>
      </trkpt>
      <trkpt lat="44.60556" lon="3.93245">
        <ele>1146.1</ele>
        <time>2013-05-09T12:53:38Z</time>
      </trkpt>
      <trkpt lat="44.6055" lon="3.93252">
        <ele>1145.5</ele>
        <time>2013-05-09T12:53:52Z</time>
      </trkpt>
      <trkpt lat="44.60544" lon="3.93258">
        <ele>1145</ele>
        <time>2013-05-09T12:53:59Z</time>
      </trkpt>
      <trkpt lat="44.6054" lon="3.93259">
        <ele>1145.1</ele>
        <time>2013-05-09T12:54:00Z</time>
      </trkpt>
      <trkpt lat="44.60529" lon="3.93256">
        <ele>1145.1</ele>
        <time>2013-05-09T12:54:07Z</time>
      </trkpt>
      <trkpt lat="44.60522" lon="3.93255">
        <ele>1145</ele>
        <time>2013-05-09T12:54:12Z</time>
      </trkpt>
      <trkpt lat="44.60515" lon="3.93257">
        <ele>1144.9</ele>
        <time>2013-05-09T12:54:16Z</time>
      </trkpt>
      <trkpt lat="44.60511" lon="3.93267">
        <ele>1144.6</ele>
        <time>2013-05-09T12:54:24Z</time>
      </trkpt>
      <trkpt lat="44.60503" lon="3.93273">
        <ele>1144.4</ele>
        <time>2013-05-09T12:54:35Z</time>
      </trkpt>
      <trkpt lat="44.60497" lon="3.93274">
        <ele>1144.3</ele>
        <time>2013-05-09T12:54:41Z</time>
      </trkpt>
      <trkpt lat="44.60491" lon="3.93273">
        <ele>1143.9</ele>
        <time>2013-05-09T12:54:50Z</time>
      </trkpt>
      <trkpt lat="44.60482" lon="3.93276">
        <ele>1144</ele>
        <time>2013-05-09T12:54:51Z</time>
      </trkpt>
      <trkpt lat="44.60484" lon="3.93288">
        <ele>1144.4</ele>
        <time>2013-05-09T12:55:05Z</time>
      </trkpt>
      <trkpt lat="44.60485" lon="3.93289">
        <ele>1144.4</ele>
        <time>2013-05-09T12:55:06Z</time>
      </trkpt>
      <trkpt lat="44.6047" lon="3.93296">
        <ele>1143.5</ele>
        <time>2013-05-09T12:55:26Z</time>
      </trkpt>
      <trkpt lat="44.60464" lon="3.93301">
        <ele>1143.3</ele>
        <time>2013-05-09T12:55:30Z</time>
      </trkpt>
      <trkpt lat="44.60455" lon="3.93303">
        <ele>1143.3</ele>
        <time>2013-05-09T12:55:35Z</time>
      </trkpt>
      <trkpt lat="44.6045" lon="3.93307">
        <ele>1143.3</ele>
        <time>2013-05-09T12:55:38Z</time>
      </trkpt>
      <trkpt lat="44.60445" lon="3.93314">
        <ele>1143.3</ele>
        <time>2013-05-09T12:55:42Z</time>
      </trkpt>
      <trkpt lat="44.60438" lon="3.93316">
        <ele>1143.4</ele>
        <time>2013-05-09T12:55:48Z</time>
      </trkpt>
      <trkpt lat="44.6043" lon="3.93315">
        <ele>1143</ele>
        <time>2013-05-09T12:55:54Z</time>
      </trkpt>
      <trkpt lat="44.60421" lon="3.93314">
        <ele>1143</ele>
        <time>2013-05-09T12:56:02Z</time>
      </trkpt>
      <trkpt lat="44.60413" lon="3.93311">
        <ele>1142.8</ele>
        <time>2013-05-09T12:56:11Z</time>
      </trkpt>
      <trkpt lat="44.60412" lon="3.93312">
        <ele>1142.8</ele>
        <time>2013-05-09T12:56:12Z</time>
      </trkpt>
      <trkpt lat="44.604" lon="3.93322">
        <ele>1142.2</ele>
        <time>2013-05-09T12:56:25Z</time>
      </trkpt>
      <trkpt lat="44.60393" lon="3.93325">
        <ele>1142.1</ele>
        <time>2013-05-09T12:56:29Z</time>
      </trkpt>
      <trkpt lat="44.60384" lon="3.93323">
        <ele>1142</ele>
        <time>2013-05-09T12:56:38Z</time>
      </trkpt>
      <trkpt lat="44.60376" lon="3.93329">
        <ele>1142.2</ele>
        <time>2013-05-09T12:56:47Z</time>
      </trkpt>
      <trkpt lat="44.6037" lon="3.93333">
        <ele>1142.1</ele>
        <time>2013-05-09T12:56:52Z</time>
      </trkpt>
      <trkpt lat="44.60362" lon="3.93332">
        <ele>1142.2</ele>
        <time>2013-05-09T12:56:58Z</time>
      </trkpt>
      <trkpt lat="44.60355" lon="3.93337">
        <ele>1141.2</ele>
        <time>2013-05-09T12:57:10Z</time>
      </trkpt>
      <trkpt lat="44.60347" lon="3.93342">
        <ele>1140.9</ele>
        <time>2013-05-09T12:57:16Z</time>
      </trkpt>
      <trkpt lat="44.60346" lon="3.93342">
        <ele>1140.8</ele>
        <time>2013-05-09T12:57:17Z</time>
      </trkpt>
      <trkpt lat="44.60333" lon="3.93354">
        <ele>1140.3</ele>
        <time>2013-05-09T12:57:28Z</time>
      </trkpt>
      <trkpt lat="44.60325" lon="3.93359">
        <ele>1139.9</ele>
        <time>2013-05-09T12:57:34Z</time>
      </trkpt>
      <trkpt lat="44.60316" lon="3.93363">
        <ele>1139.4</ele>
        <time>2013-05-09T12:57:41Z</time>
      </trkpt>
      <trkpt lat="44.60309" lon="3.93361">
        <ele>1138.5</ele>
        <time>2013-05-09T12:57:46Z</time>
      </trkpt>
      <trkpt lat="44.60301" lon="3.93358">
        <ele>1137.9</ele>
        <time>2013-05-09T12:57:51Z</time>
      </trkpt>
      <trkpt lat="44.60295" lon="3.9335">
        <ele>1137.5</ele>
        <time>2013-05-09T12:58:02Z</time>
      </trkpt>
      <trkpt lat="44.60287" lon="3.93345">
        <ele>1137.4</ele>
        <time>2013-05-09T12:58:06Z</time>
      </trkpt>
      <trkpt lat="44.6028" lon="3.93339">
        <ele>1137</ele>
        <time>2013-05-09T12:58:24Z</time>
      </trkpt>
      <trkpt lat="44.60278" lon="3.93338">
        <ele>1137</ele>
        <time>2013-05-09T12:58:25Z</time>
      </trkpt>
      <trkpt lat="44.60265" lon="3.93328">
        <ele>1136.6</ele>
        <time>2013-05-09T12:58:39Z</time>
      </trkpt>
      <trkpt lat="44.6026" lon="3.9333">
        <ele>1136.4</ele>
        <time>2013-05-09T12:58:45Z</time>
      </trkpt>
      <trkpt lat="44.60252" lon="3.93325">
        <ele>1135.9</ele>
        <time>2013-05-09T12:58:57Z</time>
      </trkpt>
      <trkpt lat="44.60254" lon="3.93333">
        <ele>1135.6</ele>
        <time>2013-05-09T12:59:16Z</time>
      </trkpt>
      <trkpt lat="44.60257" lon="3.93343">
        <ele>1134.8</ele>
        <time>2013-05-09T12:59:27Z</time>
      </trkpt>
      <trkpt lat="44.60258" lon="3.93344">
        <ele>1134.8</ele>
        <time>2013-05-09T12:59:28Z</time>
      </trkpt>
      <trkpt lat="44.60268" lon="3.93361">
        <ele>1133.4</ele>
        <time>2013-05-09T12:59:49Z</time>
      </trkpt>
      <trkpt lat="44.60274" lon="3.93368">
        <ele>1132.8</ele>
        <time>2013-05-09T13:00:02Z</time>
      </trkpt>
      <trkpt lat="44.6028" lon="3.93376">
        <ele>1132.5</ele>
        <time>2013-05-09T13:00:07Z</time>
      </trkpt>
      <trkpt lat="44.60288" lon="3.9338">
        <ele>1132</ele>
        <time>2013-05-09T13:00:13Z</time>
      </trkpt>
      <trkpt lat="44.60296" lon="3.93385">
        <ele>1131.6</ele>
        <time>2013-05-09T13:00:18Z</time>
      </trkpt>
      <trkpt lat="44.60303" lon="3.93392">
        <ele>1131</ele>
        <time>2013-05-09T13:00:24Z</time>
      </trkpt>
      <trkpt lat="44.60311" lon="3.93397">
        <ele>1130.8</ele>
        <time>2013-05-09T13:00:32Z</time>
      </trkpt>
      <trkpt lat="44.60313" lon="3.93398">
        <ele>1130.7</ele>
        <time>2013-05-09T13:00:33Z</time>
      </trkpt>
      <trkpt lat="44.60323" lon="3.93411">
        <ele>1129.6</ele>
        <time>2013-05-09T13:00:47Z</time>
      </trkpt>
      <trkpt lat="44.6033" lon="3.93416">
        <ele>1129.2</ele>
        <time>2013-05-09T13:00:54Z</time>
      </trkpt>
      <trkpt lat="44.60339" lon="3.93421">
        <ele>1128.3</ele>
        <time>2013-05-09T13:01:06Z</time>
      </trkpt>
      <trkpt lat="44.60338" lon="3.93433">
        <ele>1127.7</ele>
        <time>2013-05-09T13:01:10Z</time>
      </trkpt>
      <trkpt lat="44.60336" lon="3.93439">
        <ele>1127</ele>
        <time>2013-05-09T13:01:14Z</time>
      </trkpt>
      <trkpt lat="44.60332" lon="3.93449">
        <ele>1126.4</ele>
        <time>2013-05-09T13:01:17Z</time>
      </trkpt>
      <trkpt lat="44.60325" lon="3.93456">
        <ele>1125.9</ele>
        <time>2013-05-09T13:01:21Z</time>
      </trkpt>
      <trkpt lat="44.60317" lon="3.9346">
        <ele>1125.4</ele>
        <time>2013-05-09T13:01:26Z</time>
      </trkpt>
      <trkpt lat="44.60309" lon="3.9346">
        <ele>1124.4</ele>
        <time>2013-05-09T13:01:37Z</time>
      </trkpt>
      <trkpt lat="44.60308" lon="3.93459">
        <ele>1124.4</ele>
        <time>2013-05-09T13:01:38Z</time>
      </trkpt>
      <trkpt lat="44.60293" lon="3.93451">
        <ele>1123.9</ele>
        <time>2013-05-09T13:01:59Z</time>
      </trkpt>
      <trkpt lat="44.60286" lon="3.93446">
        <ele>1124.2</ele>
        <time>2013-05-09T13:02:04Z</time>
      </trkpt>
      <trkpt lat="44.60279" lon="3.9344">
        <ele>1124.2</ele>
        <time>2013-05-09T13:02:11Z</time>
      </trkpt>
      <trkpt lat="44.60271" lon="3.93434">
        <ele>1123.9</ele>
        <time>2013-05-09T13:02:18Z</time>
      </trkpt>
      <trkpt lat="44.60265" lon="3.93426">
        <ele>1124</ele>
        <time>2013-05-09T13:02:24Z</time>
      </trkpt>
      <trkpt lat="44.60257" lon="3.93422">
        <ele>1124.4</ele>
        <time>2013-05-09T13:02:31Z</time>
      </trkpt>
      <trkpt lat="44.60249" lon="3.9342">
        <ele>1124.8</ele>
        <time>2013-05-09T13:02:37Z</time>
      </trkpt>
      <trkpt lat="44.60248" lon="3.93408">
        <ele>1125.4</ele>
        <time>2013-05-09T13:02:49Z</time>
      </trkpt>
      <trkpt lat="44.60246" lon="3.93406">
        <ele>1125.4</ele>
        <time>2013-05-09T13:02:50Z</time>
      </trkpt>
      <trkpt lat="44.60232" lon="3.93402">
        <ele>1125.2</ele>
        <time>2013-05-09T13:03:01Z</time>
      </trkpt>
      <trkpt lat="44.60223" lon="3.93399">
        <ele>1124.4</ele>
        <time>2013-05-09T13:03:07Z</time>
      </trkpt>
      <trkpt lat="44.60216" lon="3.93392">
        <ele>1124.1</ele>
        <time>2013-05-09T13:03:20Z</time>
      </trkpt>
      <trkpt lat="44.60211" lon="3.934">
        <ele>1123.6</ele>
        <time>2013-05-09T13:03:39Z</time>
      </trkpt>
      <trkpt lat="44.60204" lon="3.93403">
        <ele>1123.5</ele>
        <time>2013-05-09T13:03:44Z</time>
      </trkpt>
      <trkpt lat="44.60196" lon="3.93398">
        <ele>1123.4</ele>
        <time>2013-05-09T13:03:46Z</time>
      </trkpt>
      <trkpt lat="44.60189" lon="3.93399">
        <ele>1123.2</ele>
        <time>2013-05-09T13:03:50Z</time>
      </trkpt>
      <trkpt lat="44.60185" lon="3.93397">
        <ele>1123.2</ele>
        <time>2013-05-09T13:03:51Z</time>
      </trkpt>
      <trkpt lat="44.60177" lon="3.93398">
        <ele>1123</ele>
        <time>2013-05-09T13:03:55Z</time>
      </trkpt>
      <trkpt lat="44.60171" lon="3.93389">
        <ele>1122.7</ele>
        <time>2013-05-09T13:04:05Z</time>
      </trkpt>
      <trkpt lat="44.60164" lon="3.93385">
        <ele>1122.6</ele>
        <time>2013-05-09T13:04:09Z</time>
      </trkpt>
      <trkpt lat="44.60158" lon="3.93379">
        <ele>1122.5</ele>
        <time>2013-05-09T13:04:14Z</time>
      </trkpt>
      <trkpt lat="44.6015" lon="3.93376">
        <ele>1122.5</ele>
        <time>2013-05-09T13:04:17Z</time>
      </trkpt>
      <trkpt lat="44.60141" lon="3.93376">
        <ele>1122.7</ele>
        <time>2013-05-09T13:04:24Z</time>
      </trkpt>
      <trkpt lat="44.60132" lon="3.93374">
        <ele>1122.6</ele>
        <time>2013-05-09T13:04:28Z</time>
      </trkpt>
      <trkpt lat="44.60125" lon="3.9338">
        <ele>1122.4</ele>
        <time>2013-05-09T13:04:37Z</time>
      </trkpt>
      <trkpt lat="44.60118" lon="3.93386">
        <ele>1122.5</ele>
        <time>2013-05-09T13:04:47Z</time>
      </trkpt>
      <trkpt lat="44.60114" lon="3.93388">
        <ele>1122.3</ele>
        <time>2013-05-09T13:04:51Z</time>
      </trkpt>
      <trkpt lat="44.60105" lon="3.93385">
        <ele>1122</ele>
        <time>2013-05-09T13:04:52Z</time>
      </trkpt>
      <trkpt lat="44.60098" lon="3.93384">
        <ele>1121.7</ele>
        <time>2013-05-09T13:04:55Z</time>
      </trkpt>
      <trkpt lat="44.60091" lon="3.93391">
        <ele>1121.3</ele>
        <time>2013-05-09T13:05:01Z</time>
      </trkpt>
      <trkpt lat="44.60083" lon="3.93393">
        <ele>1120.9</ele>
        <time>2013-05-09T13:05:08Z</time>
      </trkpt>
      <trkpt lat="44.60079" lon="3.93404">
        <ele>1120.3</ele>
        <time>2013-05-09T13:05:18Z</time>
      </trkpt>
      <trkpt lat="44.60075" lon="3.93414">
        <ele>1119.9</ele>
        <time>2013-05-09T13:05:36Z</time>
      </trkpt>
      <trkpt lat="44.60078" lon="3.93415">
        <ele>1119.7</ele>
        <time>2013-05-09T13:05:43Z</time>
      </trkpt>
      <trkpt lat="44.60084" lon="3.934">
        <ele>1119.2</ele>
        <time>2013-05-09T13:05:44Z</time>
      </trkpt>
      <trkpt lat="44.6009" lon="3.93392">
        <ele>1119.1</ele>
        <time>2013-05-09T13:05:48Z</time>
      </trkpt>
      <trkpt lat="44.60097" lon="3.93385">
        <ele>1119.1</ele>
        <time>2013-05-09T13:05:53Z</time>
      </trkpt>
      <trkpt lat="44.60098" lon="3.93384">
        <ele>1119</ele>
        <time>2013-05-09T13:05:54Z</time>
      </trkpt>
      <trkpt lat="44.60094" lon="3.93365">
        <ele>1119.2</ele>
        <time>2013-05-09T13:06:09Z</time>
      </trkpt>
      <trkpt lat="44.60091" lon="3.93363">
        <ele>1119.2</ele>
        <time>2013-05-09T13:06:10Z</time>
      </trkpt>
      <trkpt lat="44.60084" lon="3.93359">
        <ele>1119.2</ele>
        <time>2013-05-09T13:06:12Z</time>
      </trkpt>
      <trkpt lat="44.60076" lon="3.93355">
        <ele>1119.4</ele>
        <time>2013-05-09T13:06:18Z</time>
      </trkpt>
      <trkpt lat="44.60072" lon="3.93354">
        <ele>1119.7</ele>
        <time>2013-05-09T13:06:23Z</time>
      </trkpt>
      <trkpt lat="44.60055" lon="3.93319">
        <ele>1006.6</ele>
        <time>2013-05-09T13:15:10Z</time>
      </trkpt>
      <trkpt lat="44.60062" lon="3.93319">
        <ele>1005.4</ele>
        <time>2013-05-09T13:15:15Z</time>
      </trkpt>
      <trkpt lat="44.6007" lon="3.93313">
        <ele>1004.9</ele>
        <time>2013-05-09T13:15:18Z</time>
      </trkpt>
      <trkpt lat="44.60074" lon="3.93303">
        <ele>998.5</ele>
        <time>2013-05-09T13:15:24Z</time>
      </trkpt>
      <trkpt lat="44.60069" lon="3.93294">
        <ele>996.9</ele>
        <time>2013-05-09T13:15:30Z</time>
      </trkpt>
      <trkpt lat="44.60064" lon="3.93286">
        <ele>999.1</ele>
        <time>2013-05-09T13:15:38Z</time>
      </trkpt>
      <trkpt lat="44.60072" lon="3.93341">
        <ele>1123.4</ele>
        <time>2013-05-09T13:19:49Z</time>
      </trkpt>
      <trkpt lat="44.60071" lon="3.93345">
        <ele>1123.2</ele>
        <time>2013-05-09T13:19:50Z</time>
      </trkpt>
      <trkpt lat="44.60069" lon="3.9336">
        <ele>1122.5</ele>
        <time>2013-05-09T13:19:51Z</time>
      </trkpt>
      <trkpt lat="44.60066" lon="3.9337">
        <ele>1121.7</ele>
        <time>2013-05-09T13:19:54Z</time>
      </trkpt>
      <trkpt lat="44.60064" lon="3.9338">
        <ele>1121.1</ele>
        <time>2013-05-09T13:19:56Z</time>
      </trkpt>
      <trkpt lat="44.60062" lon="3.93392">
        <ele>1120.3</ele>
        <time>2013-05-09T13:19:59Z</time>
      </trkpt>
      <trkpt lat="44.60062" lon="3.93403">
        <ele>1119</ele>
        <time>2013-05-09T13:20:07Z</time>
      </trkpt>
      <trkpt lat="44.60063" lon="3.93415">
        <ele>1118.6</ele>
        <time>2013-05-09T13:20:17Z</time>
      </trkpt>
      <trkpt lat="44.6006" lon="3.93427">
        <ele>1117</ele>
        <time>2013-05-09T13:20:36Z</time>
      </trkpt>
      <trkpt lat="44.60059" lon="3.93439">
        <ele>1115.4</ele>
        <time>2013-05-09T13:20:44Z</time>
      </trkpt>
      <trkpt lat="44.60056" lon="3.9345">
        <ele>1113.7</ele>
        <time>2013-05-09T13:20:55Z</time>
      </trkpt>
      <trkpt lat="44.60056" lon="3.93452">
        <ele>1113.6</ele>
        <time>2013-05-09T13:20:56Z</time>
      </trkpt>
      <trkpt lat="44.60052" lon="3.93473">
        <ele>1110.5</ele>
        <time>2013-05-09T13:21:11Z</time>
      </trkpt>
      <trkpt lat="44.60046" lon="3.93481">
        <ele>1106.1</ele>
        <time>2013-05-09T13:21:27Z</time>
      </trkpt>
      <trkpt lat="44.60038" lon="3.93487">
        <ele>1103.8</ele>
        <time>2013-05-09T13:21:40Z</time>
      </trkpt>
      <trkpt lat="44.60036" lon="3.93478">
        <ele>1103.3</ele>
        <time>2013-05-09T13:22:00Z</time>
      </trkpt>
      <trkpt lat="44.60034" lon="3.93475">
        <ele>1103</ele>
        <time>2013-05-09T13:22:01Z</time>
      </trkpt>
      <trkpt lat="44.60034" lon="3.93458">
        <ele>1103.1</ele>
        <time>2013-05-09T13:22:18Z</time>
      </trkpt>
      <trkpt lat="44.60034" lon="3.93446">
        <ele>1103.7</ele>
        <time>2013-05-09T13:22:31Z</time>
      </trkpt>
      <trkpt lat="44.60041" lon="3.93438">
        <ele>1104.1</ele>
        <time>2013-05-09T13:22:44Z</time>
      </trkpt>
      <trkpt lat="44.60042" lon="3.93439">
        <ele>1104.2</ele>
        <time>2013-05-09T13:22:45Z</time>
      </trkpt>
      <trkpt lat="44.59919" lon="3.9337">
        <ele>1107.5</ele>
        <time>2013-05-09T13:26:57Z</time>
      </trkpt>
      <trkpt lat="44.59905" lon="3.93366">
        <ele>1107</ele>
        <time>2013-05-09T13:26:58Z</time>
      </trkpt>
      <trkpt lat="44.59907" lon="3.93369">
        <ele>1105.3</ele>
        <time>2013-05-09T13:27:00Z</time>
      </trkpt>
      <trkpt lat="44.59914" lon="3.93367">
        <ele>1104.6</ele>
        <time>2013-05-09T13:27:01Z</time>
      </trkpt>
      <trkpt lat="44.59921" lon="3.93368">
        <ele>1103.5</ele>
        <time>2013-05-09T13:27:03Z</time>
      </trkpt>
      <trkpt lat="44.59924" lon="3.93369">
        <ele>1103.2</ele>
        <time>2013-05-09T13:27:04Z</time>
      </trkpt>
      <trkpt lat="44.59931" lon="3.9337">
        <ele>1103</ele>
        <time>2013-05-09T13:27:05Z</time>
      </trkpt>
      <trkpt lat="44.59937" lon="3.93365">
        <ele>1103.6</ele>
        <time>2013-05-09T13:27:07Z</time>
      </trkpt>
      <trkpt lat="44.59939" lon="3.93356">
        <ele>1104.3</ele>
        <time>2013-05-09T13:27:11Z</time>
      </trkpt>
      <trkpt lat="44.59317" lon="3.92154">
        <ele>1017.5</ele>
        <time>2013-05-09T14:46:26Z</time>
      </trkpt>
      <trkpt lat="44.59317" lon="3.92145">
        <ele>1026.4</ele>
        <time>2013-05-09T14:46:29Z</time>
      </trkpt>
      <trkpt lat="44.59316" lon="3.92133">
        <ele>1026</ele>
        <time>2013-05-09T14:46:40Z</time>
      </trkpt>
      <trkpt lat="44.59311" lon="3.92123">
        <ele>1022</ele>
        <time>2013-05-09T14:46:52Z</time>
      </trkpt>
      <trkpt lat="44.59307" lon="3.92112">
        <ele>1022.1</ele>
        <time>2013-05-09T14:46:57Z</time>
      </trkpt>
      <trkpt lat="44.59306" lon="3.92102">
        <ele>1023.8</ele>
        <time>2013-05-09T14:47:03Z</time>
      </trkpt>
      <trkpt lat="44.59305" lon="3.92091">
        <ele>1025.4</ele>
        <time>2013-05-09T14:47:09Z</time>
      </trkpt>
      <trkpt lat="44.59302" lon="3.92079">
        <ele>1022.2</ele>
        <time>2013-05-09T14:47:17Z</time>
      </trkpt>
      <trkpt lat="44.59303" lon="3.92068">
        <ele>1019.6</ele>
        <time>2013-05-09T14:47:25Z</time>
      </trkpt>
      <trkpt lat="44.59298" lon="3.92057">
        <ele>1018.6</ele>
        <time>2013-05-09T14:47:30Z</time>
      </trkpt>
      <trkpt lat="44.59298" lon="3.92056">
        <ele>1018.8</ele>
        <time>2013-05-09T14:47:31Z</time>
      </trkpt>
      <trkpt lat="44.59291" lon="3.9204">
        <ele>1021</ele>
        <time>2013-05-09T14:47:45Z</time>
      </trkpt>
      <trkpt lat="44.59286" lon="3.92031">
        <ele>1021.2</ele>
        <time>2013-05-09T14:47:50Z</time>
      </trkpt>
      <trkpt lat="44.59282" lon="3.92023">
        <ele>1021.7</ele>
        <time>2013-05-09T14:47:56Z</time>
      </trkpt>
      <trkpt lat="44.59277" lon="3.92013">
        <ele>1022.3</ele>
        <time>2013-05-09T14:48:03Z</time>
      </trkpt>
      <trkpt lat="44.59275" lon="3.92003">
        <ele>1022.9</ele>
        <time>2013-05-09T14:48:08Z</time>
      </trkpt>
      <trkpt lat="44.5927" lon="3.91996">
        <ele>1023.3</ele>
        <time>2013-05-09T14:48:12Z</time>
      </trkpt>
      <trkpt lat="44.59264" lon="3.91988">
        <ele>1023.7</ele>
        <time>2013-05-09T14:48:17Z</time>
      </trkpt>
      <trkpt lat="44.5926" lon="3.91981">
        <ele>1024.4</ele>
        <time>2013-05-09T14:48:22Z</time>
      </trkpt>
      <trkpt lat="44.59253" lon="3.91973">
        <ele>1024.5</ele>
        <time>2013-05-09T14:48:26Z</time>
      </trkpt>
      <trkpt lat="44.59251" lon="3.91963">
        <ele>1024.9</ele>
        <time>2013-05-09T14:48:32Z</time>
      </trkpt>
      <trkpt lat="44.59252" lon="3.91961">
        <ele>1025</ele>
        <time>2013-05-09T14:48:33Z</time>
      </trkpt>
      <trkpt lat="44.59253" lon="3.91939">
        <ele>1025.3</ele>
        <time>2013-05-09T14:48:45Z</time>
      </trkpt>
      <trkpt lat="44.59254" lon="3.91927">
        <ele>1025.3</ele>
        <time>2013-05-09T14:48:51Z</time>
      </trkpt>
      <trkpt lat="44.59251" lon="3.91916">
        <ele>1025.5</ele>
        <time>2013-05-09T14:48:57Z</time>
      </trkpt>
      <trkpt lat="44.59251" lon="3.91904">
        <ele>1025.2</ele>
        <time>2013-05-09T14:49:02Z</time>
      </trkpt>
      <trkpt lat="44.59253" lon="3.91893">
        <ele>1025.3</ele>
        <time>2013-05-09T14:49:09Z</time>
      </trkpt>
      <trkpt lat="44.59249" lon="3.91884">
        <ele>1025.2</ele>
        <time>2013-05-09T14:49:15Z</time>
      </trkpt>
      <trkpt lat="44.59244" lon="3.91874">
        <ele>1024.7</ele>
        <time>2013-05-09T14:49:23Z</time>
      </trkpt>
      <trkpt lat="44.59236" lon="3.91871">
        <ele>1023.9</ele>
        <time>2013-05-09T14:49:28Z</time>
      </trkpt>
      <trkpt lat="44.5923" lon="3.91863">
        <ele>1023.4</ele>
        <time>2013-05-09T14:49:35Z</time>
      </trkpt>
      <trkpt lat="44.59229" lon="3.91861">
        <ele>1023.4</ele>
        <time>2013-05-09T14:49:36Z</time>
      </trkpt>
      <trkpt lat="44.59221" lon="3.91842">
        <ele>1023.9</ele>
        <time>2013-05-09T14:49:54Z</time>
      </trkpt>
      <trkpt lat="44.59213" lon="3.9184">
        <ele>1023.6</ele>
        <time>2013-05-09T14:49:59Z</time>
      </trkpt>
      <trkpt lat="44.59207" lon="3.91831">
        <ele>1023.7</ele>
        <time>2013-05-09T14:50:04Z</time>
      </trkpt>
      <trkpt lat="44.59203" lon="3.9182">
        <ele>1023.4</ele>
        <time>2013-05-09T14:50:08Z</time>
      </trkpt>
      <trkpt lat="44.59202" lon="3.91809">
        <ele>1023.6</ele>
        <time>2013-05-09T14:50:12Z</time>
      </trkpt>
      <trkpt lat="44.59199" lon="3.91799">
        <ele>1023.7</ele>
        <time>2013-05-09T14:50:18Z</time>
      </trkpt>
      <trkpt lat="44.59193" lon="3.91791">
        <ele>1023.4</ele>
        <time>2013-05-09T14:50:24Z</time>
      </trkpt>
      <trkpt lat="44.59191" lon="3.9178">
        <ele>1023.4</ele>
        <time>2013-05-09T14:50:30Z</time>
      </trkpt>
      <trkpt lat="44.59186" lon="3.91772">
        <ele>1023.5</ele>
        <time>2013-05-09T14:50:36Z</time>
      </trkpt>
      <trkpt lat="44.59185" lon="3.9177">
        <ele>1023.5</ele>
        <time>2013-05-09T14:50:37Z</time>
      </trkpt>
      <trkpt lat="44.5918" lon="3.9175">
        <ele>1023.1</ele>
        <time>2013-05-09T14:50:47Z</time>
      </trkpt>
      <trkpt lat="44.59177" lon="3.91741">
        <ele>1022.9</ele>
        <time>2013-05-09T14:50:56Z</time>
      </trkpt>
      <trkpt lat="44.59174" lon="3.91731">
        <ele>1022.8</ele>
        <time>2013-05-09T14:51:00Z</time>
      </trkpt>
      <trkpt lat="44.59171" lon="3.9172">
        <ele>1022.5</ele>
        <time>2013-05-09T14:51:06Z</time>
      </trkpt>
      <trkpt lat="44.59168" lon="3.91709">
        <ele>1021.9</ele>
        <time>2013-05-09T14:51:13Z</time>
      </trkpt>
      <trkpt lat="44.59162" lon="3.917">
        <ele>1021.2</ele>
        <time>2013-05-09T14:51:21Z</time>
      </trkpt>
      <trkpt lat="44.59157" lon="3.91691">
        <ele>1021.1</ele>
        <time>2013-05-09T14:51:26Z</time>
      </trkpt>
      <trkpt lat="44.5915" lon="3.91685">
        <ele>1021</ele>
        <time>2013-05-09T14:51:31Z</time>
      </trkpt>
      <trkpt lat="44.59145" lon="3.91676">
        <ele>1020.7</ele>
        <time>2013-05-09T14:51:39Z</time>
      </trkpt>
      <trkpt lat="44.59145" lon="3.91672">
        <ele>1020.6</ele>
        <time>2013-05-09T14:51:40Z</time>
      </trkpt>
      <trkpt lat="44.59145" lon="3.91653">
        <ele>1020</ele>
        <time>2013-05-09T14:51:52Z</time>
      </trkpt>
      <trkpt lat="44.59139" lon="3.91649">
        <ele>1019.7</ele>
        <time>2013-05-09T14:51:55Z</time>
      </trkpt>
      <trkpt lat="44.59133" lon="3.91642">
        <ele>1019.2</ele>
        <time>2013-05-09T14:51:59Z</time>
      </trkpt>
      <trkpt lat="44.59127" lon="3.91634">
        <ele>1018.6</ele>
        <time>2013-05-09T14:52:04Z</time>
      </trkpt>
      <trkpt lat="44.59122" lon="3.91624">
        <ele>1017.8</ele>
        <time>2013-05-09T14:52:09Z</time>
      </trkpt>
      <trkpt lat="44.5912" lon="3.91613">
        <ele>1017</ele>
        <time>2013-05-09T14:52:15Z</time>
      </trkpt>
      <trkpt lat="44.59115" lon="3.91604">
        <ele>1016.1</ele>
        <time>2013-05-09T14:52:21Z</time>
      </trkpt>
      <trkpt lat="44.59108" lon="3.91596">
        <ele>1015.1</ele>
        <time>2013-05-09T14:52:27Z</time>
      </trkpt>
      <trkpt lat="44.59104" lon="3.91586">
        <ele>1014.1</ele>
        <time>2013-05-09T14:52:33Z</time>
      </trkpt>
      <trkpt lat="44.59104" lon="3.91574">
        <ele>1012.9</ele>
        <time>2013-05-09T14:52:39Z</time>
      </trkpt>
      <trkpt lat="44.59101" lon="3.91564">
        <ele>1011.6</ele>
        <time>2013-05-09T14:52:44Z</time>
      </trkpt>
      <trkpt lat="44.591" lon="3.91563">
        <ele>1011.4</ele>
        <time>2013-05-09T14:52:45Z</time>
      </trkpt>
      <trkpt lat="44.59095" lon="3.91542">
        <ele>1010.1</ele>
        <time>2013-05-09T14:52:56Z</time>
      </trkpt>
      <trkpt lat="44.59089" lon="3.91534">
        <ele>1009.2</ele>
        <time>2013-05-09T14:53:04Z</time>
      </trkpt>
      <trkpt lat="44.59085" lon="3.91525">
        <ele>1009.3</ele>
        <time>2013-05-09T14:53:08Z</time>
      </trkpt>
      <trkpt lat="44.5908" lon="3.91516">
        <ele>1008.6</ele>
        <time>2013-05-09T14:53:16Z</time>
      </trkpt>
      <trkpt lat="44.59076" lon="3.91506">
        <ele>1007.9</ele>
        <time>2013-05-09T14:53:22Z</time>
      </trkpt>
      <trkpt lat="44.59071" lon="3.91496">
        <ele>1007.6</ele>
        <time>2013-05-09T14:53:27Z</time>
      </trkpt>
      <trkpt lat="44.5907" lon="3.91486">
        <ele>1006.5</ele>
        <time>2013-05-09T14:53:36Z</time>
      </trkpt>
      <trkpt lat="44.59067" lon="3.91474">
        <ele>1005.9</ele>
        <time>2013-05-09T14:53:44Z</time>
      </trkpt>
      <trkpt lat="44.59068" lon="3.91462">
        <ele>1005</ele>
        <time>2013-05-09T14:53:53Z</time>
      </trkpt>
      <trkpt lat="44.59067" lon="3.9146">
        <ele>1004.9</ele>
        <time>2013-05-09T14:53:54Z</time>
      </trkpt>
      <trkpt lat="44.59062" lon="3.9144">
        <ele>1002.8</ele>
        <time>2013-05-09T14:54:12Z</time>
      </trkpt>
      <trkpt lat="44.59064" lon="3.9143">
        <ele>1002</ele>
        <time>2013-05-09T14:54:17Z</time>
      </trkpt>
      <trkpt lat="44.59067" lon="3.91419">
        <ele>1001.4</ele>
        <time>2013-05-09T14:54:23Z</time>
      </trkpt>
      <trkpt lat="44.59068" lon="3.91408">
        <ele>1000.8</ele>
        <time>2013-05-09T14:54:28Z</time>
      </trkpt>
      <trkpt lat="44.59064" lon="3.91397">
        <ele>1000.2</ele>
        <time>2013-05-09T14:54:36Z</time>
      </trkpt>
      <trkpt lat="44.59062" lon="3.91387">
        <ele>999.9</ele>
        <time>2013-05-09T14:54:41Z</time>
      </trkpt>
      <trkpt lat="44.59059" lon="3.91376">
        <ele>999.7</ele>
        <time>2013-05-09T14:54:47Z</time>
      </trkpt>
      <trkpt lat="44.59065" lon="3.91369">
        <ele>999.4</ele>
        <time>2013-05-09T14:54:49Z</time>
      </trkpt>
      <trkpt lat="44.5907" lon="3.91359">
        <ele>999.2</ele>
        <time>2013-05-09T14:54:54Z</time>
      </trkpt>
      <trkpt lat="44.5907" lon="3.91357">
        <ele>999.2</ele>
        <time>2013-05-09T14:54:55Z</time>
      </trkpt>
      <trkpt lat="44.59074" lon="3.91336">
        <ele>998.1</ele>
        <time>2013-05-09T14:55:06Z</time>
      </trkpt>
      <trkpt lat="44.59076" lon="3.91324">
        <ele>996.9</ele>
        <time>2013-05-09T14:55:12Z</time>
      </trkpt>
      <trkpt lat="44.59074" lon="3.91313">
        <ele>996.3</ele>
        <time>2013-05-09T14:55:17Z</time>
      </trkpt>
      <trkpt lat="44.59075" lon="3.91302">
        <ele>995.4</ele>
        <time>2013-05-09T14:55:27Z</time>
      </trkpt>
      <trkpt lat="44.59074" lon="3.91291">
        <ele>995</ele>
        <time>2013-05-09T14:55:36Z</time>
      </trkpt>
      <trkpt lat="44.59073" lon="3.91279">
        <ele>994.8</ele>
        <time>2013-05-09T14:55:44Z</time>
      </trkpt>
      <trkpt lat="44.59074" lon="3.91267">
        <ele>994.5</ele>
        <time>2013-05-09T14:55:49Z</time>
      </trkpt>
      <trkpt lat="44.59072" lon="3.91257">
        <ele>994.2</ele>
        <time>2013-05-09T14:55:54Z</time>
      </trkpt>
      <trkpt lat="44.59067" lon="3.91246">
        <ele>993.1</ele>
        <time>2013-05-09T14:56:33Z</time>
      </trkpt>
      <trkpt lat="44.59062" lon="3.91253">
        <ele>993.1</ele>
        <time>2013-05-09T14:56:34Z</time>
      </trkpt>
      <trkpt lat="44.59052" lon="3.91252">
        <ele>993.2</ele>
        <time>2013-05-09T14:57:04Z</time>
      </trkpt>
      <trkpt lat="44.59058" lon="3.91245">
        <ele>993</ele>
        <time>2013-05-09T14:57:06Z</time>
      </trkpt>
      <trkpt lat="44.59066" lon="3.9124">
        <ele>992.8</ele>
        <time>2013-05-09T14:57:08Z</time>
      </trkpt>
      <trkpt lat="44.59071" lon="3.9123">
        <ele>992.6</ele>
        <time>2013-05-09T14:57:13Z</time>
      </trkpt>
      <trkpt lat="44.59074" lon="3.9122">
        <ele>992.4</ele>
        <time>2013-05-09T14:57:20Z</time>
      </trkpt>
      <trkpt lat="44.59075" lon="3.91209">
        <ele>992.2</ele>
        <time>2013-05-09T14:57:24Z</time>
      </trkpt>
      <trkpt lat="44.59075" lon="3.91198">
        <ele>992</ele>
        <time>2013-05-09T14:57:28Z</time>
      </trkpt>
      <trkpt lat="44.59076" lon="3.91186">
        <ele>991.9</ele>
        <time>2013-05-09T14:57:39Z</time>
      </trkpt>
      <trkpt lat="44.59076" lon="3.91185">
        <ele>991.9</ele>
        <time>2013-05-09T14:57:40Z</time>
      </trkpt>
      <trkpt lat="44.59084" lon="3.91167">
        <ele>991.8</ele>
        <time>2013-05-09T14:57:46Z</time>
      </trkpt>
      <trkpt lat="44.59088" lon="3.91157">
        <ele>991.6</ele>
        <time>2013-05-09T14:57:56Z</time>
      </trkpt>
      <trkpt lat="44.5909" lon="3.91145">
        <ele>991.7</ele>
        <time>2013-05-09T14:58:02Z</time>
      </trkpt>
      <trkpt lat="44.59091" lon="3.91134">
        <ele>991.4</ele>
        <time>2013-05-09T14:58:08Z</time>
      </trkpt>
      <trkpt lat="44.59089" lon="3.91122">
        <ele>991.3</ele>
        <time>2013-05-09T14:58:14Z</time>
      </trkpt>
      <trkpt lat="44.59094" lon="3.91113">
        <ele>991.2</ele>
        <time>2013-05-09T14:58:21Z</time>
      </trkpt>
      <trkpt lat="44.591" lon="3.91107">
        <ele>990.9</ele>
        <time>2013-05-09T14:58:25Z</time>
      </trkpt>
      <trkpt lat="44.59105" lon="3.91099">
        <ele>990.7</ele>
        <time>2013-05-09T14:58:29Z</time>
      </trkpt>
      <trkpt lat="44.5911" lon="3.91091">
        <ele>990.5</ele>
        <time>2013-05-09T14:58:32Z</time>
      </trkpt>
      <trkpt lat="44.59112" lon="3.91081">
        <ele>990.6</ele>
        <time>2013-05-09T14:58:38Z</time>
      </trkpt>
      <trkpt lat="44.59112" lon="3.91069">
        <ele>990.7</ele>
        <time>2013-05-09T14:58:46Z</time>
      </trkpt>
      <trkpt lat="44.59112" lon="3.91068">
        <ele>990.7</ele>
        <time>2013-05-09T14:58:47Z</time>
      </trkpt>
      <trkpt lat="44.59117" lon="3.91048">
        <ele>990.6</ele>
        <time>2013-05-09T14:59:03Z</time>
      </trkpt>
      <trkpt lat="44.59117" lon="3.91038">
        <ele>990.6</ele>
        <time>2013-05-09T14:59:06Z</time>
      </trkpt>
      <trkpt lat="44.59121" lon="3.91027">
        <ele>990.6</ele>
        <time>2013-05-09T14:59:09Z</time>
      </trkpt>
      <trkpt lat="44.59123" lon="3.91023">
        <ele>990.6</ele>
        <time>2013-05-09T14:59:10Z</time>
      </trkpt>
      <trkpt lat="44.59128" lon="3.91012">
        <ele>990.6</ele>
        <time>2013-05-09T14:59:12Z</time>
      </trkpt>
      <trkpt lat="44.59127" lon="3.91003">
        <ele>990.7</ele>
        <time>2013-05-09T14:59:17Z</time>
      </trkpt>
      <trkpt lat="44.59132" lon="3.90993">
        <ele>990.7</ele>
        <time>2013-05-09T14:59:22Z</time>
      </trkpt>
      <trkpt lat="44.59134" lon="3.90981">
        <ele>990.9</ele>
        <time>2013-05-09T14:59:30Z</time>
      </trkpt>
      <trkpt lat="44.5913" lon="3.90971">
        <ele>990.9</ele>
        <time>2013-05-09T14:59:34Z</time>
      </trkpt>
      <trkpt lat="44.59125" lon="3.90963">
        <ele>991</ele>
        <time>2013-05-09T14:59:38Z</time>
      </trkpt>
      <trkpt lat="44.59128" lon="3.90952">
        <ele>991.1</ele>
        <time>2013-05-09T14:59:44Z</time>
      </trkpt>
      <trkpt lat="44.5913" lon="3.9094">
        <ele>991.1</ele>
        <time>2013-05-09T14:59:51Z</time>
      </trkpt>
      <trkpt lat="44.59131" lon="3.90939">
        <ele>991.1</ele>
        <time>2013-05-09T14:59:52Z</time>
      </trkpt>
      <trkpt lat="44.59135" lon="3.90918">
        <ele>990.8</ele>
        <time>2013-05-09T15:00:03Z</time>
      </trkpt>
      <trkpt lat="44.5914" lon="3.90908">
        <ele>990.8</ele>
        <time>2013-05-09T15:00:08Z</time>
      </trkpt>
      <trkpt lat="44.59145" lon="3.90898">
        <ele>990.8</ele>
        <time>2013-05-09T15:00:14Z</time>
      </trkpt>
      <trkpt lat="44.59148" lon="3.90889">
        <ele>990.8</ele>
        <time>2013-05-09T15:00:18Z</time>
      </trkpt>
      <trkpt lat="44.59151" lon="3.90878">
        <ele>990.9</ele>
        <time>2013-05-09T15:00:23Z</time>
      </trkpt>
      <trkpt lat="44.59155" lon="3.90868">
        <ele>991</ele>
        <time>2013-05-09T15:00:29Z</time>
      </trkpt>
      <trkpt lat="44.59156" lon="3.90866">
        <ele>991</ele>
        <time>2013-05-09T15:00:30Z</time>
      </trkpt>
      <trkpt lat="44.59143" lon="3.90846">
        <ele>991.3</ele>
        <time>2013-05-09T15:00:46Z</time>
      </trkpt>
      <trkpt lat="44.59145" lon="3.90835">
        <ele>991.4</ele>
        <time>2013-05-09T15:00:53Z</time>
      </trkpt>
      <trkpt lat="44.59142" lon="3.90833">
        <ele>991.4</ele>
        <time>2013-05-09T15:00:54Z</time>
      </trkpt>
      <trkpt lat="44.59141" lon="3.90816">
        <ele>991.4</ele>
        <time>2013-05-09T15:01:02Z</time>
      </trkpt>
      <trkpt lat="44.59147" lon="3.90807">
        <ele>991.4</ele>
        <time>2013-05-09T15:01:06Z</time>
      </trkpt>
      <trkpt lat="44.59155" lon="3.90803">
        <ele>991.5</ele>
        <time>2013-05-09T15:01:09Z</time>
      </trkpt>
      <trkpt lat="44.59161" lon="3.908">
        <ele>991.6</ele>
        <time>2013-05-09T15:01:11Z</time>
      </trkpt>
      <trkpt lat="44.59167" lon="3.90793">
        <ele>991.7</ele>
        <time>2013-05-09T15:01:14Z</time>
      </trkpt>
      <trkpt lat="44.59171" lon="3.90783">
        <ele>991.7</ele>
        <time>2013-05-09T15:01:19Z</time>
      </trkpt>
      <trkpt lat="44.59178" lon="3.90777">
        <ele>991.6</ele>
        <time>2013-05-09T15:01:23Z</time>
      </trkpt>
      <trkpt lat="44.59182" lon="3.90767">
        <ele>991.5</ele>
        <time>2013-05-09T15:01:27Z</time>
      </trkpt>
      <trkpt lat="44.59188" lon="3.9076">
        <ele>991.4</ele>
        <time>2013-05-09T15:01:31Z</time>
      </trkpt>
      <trkpt lat="44.59194" lon="3.90751">
        <ele>991.4</ele>
        <time>2013-05-09T15:01:39Z</time>
      </trkpt>
      <trkpt lat="44.59181" lon="3.90747">
        <ele>991.2</ele>
        <time>2013-05-09T15:01:40Z</time>
      </trkpt>
      <trkpt lat="44.59177" lon="3.90741">
        <ele>991</ele>
        <time>2013-05-09T15:01:42Z</time>
      </trkpt>
      <trkpt lat="44.59172" lon="3.90736">
        <ele>990.7</ele>
        <time>2013-05-09T15:01:44Z</time>
      </trkpt>
      <trkpt lat="44.59175" lon="3.90725">
        <ele>990.4</ele>
        <time>2013-05-09T15:01:52Z</time>
      </trkpt>
      <trkpt lat="44.59182" lon="3.90718">
        <ele>990.3</ele>
        <time>2013-05-09T15:01:59Z</time>
      </trkpt>
      <trkpt lat="44.59183" lon="3.90716">
        <ele>990.2</ele>
        <time>2013-05-09T15:02:00Z</time>
      </trkpt>
      <trkpt lat="44.59193" lon="3.90701">
        <ele>990.1</ele>
        <time>2013-05-09T15:02:09Z</time>
      </trkpt>
      <trkpt lat="44.59197" lon="3.90693">
        <ele>990.1</ele>
        <time>2013-05-09T15:02:15Z</time>
      </trkpt>
      <trkpt lat="44.59195" lon="3.90681">
        <ele>988.1</ele>
        <time>2013-05-09T15:02:28Z</time>
      </trkpt>
      <trkpt lat="44.59194" lon="3.90669">
        <ele>986.1</ele>
        <time>2013-05-09T15:02:38Z</time>
      </trkpt>
      <trkpt lat="44.59195" lon="3.90659">
        <ele>984.7</ele>
        <time>2013-05-09T15:02:45Z</time>
      </trkpt>
      <trkpt lat="44.59195" lon="3.90646">
        <ele>983.8</ele>
        <time>2013-05-09T15:02:50Z</time>
      </trkpt>
      <trkpt lat="44.59193" lon="3.90636">
        <ele>983.2</ele>
        <time>2013-05-09T15:02:55Z</time>
      </trkpt>
      <trkpt lat="44.59195" lon="3.90626">
        <ele>982.8</ele>
        <time>2013-05-09T15:02:59Z</time>
      </trkpt>
      <trkpt lat="44.59197" lon="3.90615">
        <ele>982</ele>
        <time>2013-05-09T15:03:06Z</time>
      </trkpt>
      <trkpt lat="44.59197" lon="3.90613">
        <ele>982</ele>
        <time>2013-05-09T15:03:07Z</time>
      </trkpt>
      <trkpt lat="44.592" lon="3.90594">
        <ele>981.2</ele>
        <time>2013-05-09T15:03:29Z</time>
      </trkpt>
      <trkpt lat="44.59208" lon="3.90589">
        <ele>981</ele>
        <time>2013-05-09T15:03:46Z</time>
      </trkpt>
      <trkpt lat="44.59203" lon="3.90595">
        <ele>981.1</ele>
        <time>2013-05-09T15:04:07Z</time>
      </trkpt>
      <trkpt lat="44.59201" lon="3.90598">
        <ele>981</ele>
        <time>2013-05-09T15:04:08Z</time>
      </trkpt>
      <trkpt lat="44.59194" lon="3.90581">
        <ele>981</ele>
        <time>2013-05-09T15:04:29Z</time>
      </trkpt>
      <trkpt lat="44.59213" lon="3.90583">
        <ele>977.5</ele>
        <time>2013-05-09T15:05:25Z</time>
      </trkpt>
      <trkpt lat="44.59211" lon="3.90592">
        <ele>966.2</ele>
        <time>2013-05-09T15:05:41Z</time>
      </trkpt>
      <trkpt lat="44.59206" lon="3.90598">
        <ele>965.5</ele>
        <time>2013-05-09T15:05:43Z</time>
      </trkpt>
      <trkpt lat="44.59198" lon="3.90603">
        <ele>965.3</ele>
        <time>2013-05-09T15:05:51Z</time>
      </trkpt>
      <trkpt lat="44.59195" lon="3.90607">
        <ele>965.4</ele>
        <time>2013-05-09T15:05:58Z</time>
      </trkpt>
      <trkpt lat="44.59192" lon="3.90579">
        <ele>978.9</ele>
        <time>2013-05-09T15:06:17Z</time>
      </trkpt>
      <trkpt lat="44.59196" lon="3.90579">
        <ele>978.9</ele>
        <time>2013-05-09T15:06:37Z</time>
      </trkpt>
      <trkpt lat="44.59245" lon="3.90602">
        <ele>978</ele>
        <time>2013-05-09T15:07:21Z</time>
      </trkpt>
      <trkpt lat="44.59238" lon="3.90608">
        <ele>977.8</ele>
        <time>2013-05-09T15:07:22Z</time>
      </trkpt>
      <trkpt lat="44.5923" lon="3.90606">
        <ele>977.5</ele>
        <time>2013-05-09T15:07:27Z</time>
      </trkpt>
      <trkpt lat="44.59221" lon="3.90605">
        <ele>976.9</ele>
        <time>2013-05-09T15:07:35Z</time>
      </trkpt>
      <trkpt lat="44.59213" lon="3.90601">
        <ele>976.4</ele>
        <time>2013-05-09T15:07:47Z</time>
      </trkpt>
      <trkpt lat="44.59207" lon="3.906">
        <ele>976.1</ele>
        <time>2013-05-09T15:07:51Z</time>
      </trkpt>
      <trkpt lat="44.59189" lon="3.90581">
        <ele>988.3</ele>
        <time>2013-05-09T15:08:26Z</time>
      </trkpt>
      <trkpt lat="44.59178" lon="3.90574">
        <ele>1002.1</ele>
        <time>2013-05-09T15:08:27Z</time>
      </trkpt>
      <trkpt lat="44.59175" lon="3.90562">
        <ele>999.4</ele>
        <time>2013-05-09T15:08:53Z</time>
      </trkpt>
      <trkpt lat="44.59177" lon="3.90551">
        <ele>998.9</ele>
        <time>2013-05-09T15:08:58Z</time>
      </trkpt>
      <trkpt lat="44.59176" lon="3.90539">
        <ele>998</ele>
        <time>2013-05-09T15:09:09Z</time>
      </trkpt>
      <trkpt lat="44.59177" lon="3.90528">
        <ele>997.3</ele>
        <time>2013-05-09T15:09:20Z</time>
      </trkpt>
      <trkpt lat="44.59179" lon="3.90518">
        <ele>997</ele>
        <time>2013-05-09T15:09:23Z</time>
      </trkpt>
      <trkpt lat="44.59183" lon="3.90508">
        <ele>996.9</ele>
        <time>2013-05-09T15:09:27Z</time>
      </trkpt>
      <trkpt lat="44.59184" lon="3.90507">
        <ele>996.8</ele>
        <time>2013-05-09T15:09:28Z</time>
      </trkpt>
      <trkpt lat="44.59191" lon="3.90486">
        <ele>996.3</ele>
        <time>2013-05-09T15:09:46Z</time>
      </trkpt>
      <trkpt lat="44.59197" lon="3.90477">
        <ele>995.2</ele>
        <time>2013-05-09T15:10:25Z</time>
      </trkpt>
      <trkpt lat="44.59198" lon="3.90466">
        <ele>995.1</ele>
        <time>2013-05-09T15:10:34Z</time>
      </trkpt>
      <trkpt lat="44.59198" lon="3.90465">
        <ele>995</ele>
        <time>2013-05-09T15:10:35Z</time>
      </trkpt>
      <trkpt lat="44.59202" lon="3.90445">
        <ele>994.5</ele>
        <time>2013-05-09T15:10:51Z</time>
      </trkpt>
      <trkpt lat="44.59198" lon="3.90436">
        <ele>994.4</ele>
        <time>2013-05-09T15:10:57Z</time>
      </trkpt>
      <trkpt lat="44.59189" lon="3.90432">
        <ele>994.2</ele>
        <time>2013-05-09T15:11:03Z</time>
      </trkpt>
      <trkpt lat="44.59182" lon="3.90425">
        <ele>993.6</ele>
        <time>2013-05-09T15:11:15Z</time>
      </trkpt>
      <trkpt lat="44.59175" lon="3.9042">
        <ele>992.3</ele>
        <time>2013-05-09T15:11:22Z</time>
      </trkpt>
      <trkpt lat="44.59169" lon="3.90413">
        <ele>991.9</ele>
        <time>2013-05-09T15:11:28Z</time>
      </trkpt>
      <trkpt lat="44.59164" lon="3.90405">
        <ele>991.5</ele>
        <time>2013-05-09T15:11:38Z</time>
      </trkpt>
      <trkpt lat="44.59161" lon="3.90406">
        <ele>991.4</ele>
        <time>2013-05-09T15:11:39Z</time>
      </trkpt>
      <trkpt lat="44.59167" lon="3.90393">
        <ele>990.9</ele>
        <time>2013-05-09T15:12:03Z</time>
      </trkpt>
      <trkpt lat="44.59172" lon="3.90387">
        <ele>990.9</ele>
        <time>2013-05-09T15:12:05Z</time>
      </trkpt>
      <trkpt lat="44.59173" lon="3.90376">
        <ele>990.6</ele>
        <time>2013-05-09T15:12:13Z</time>
      </trkpt>
    </trkseg>
  </trk>
</gpx>